<
# Wetter Temperatur Luftdruck Luftfeuchtigkeit Sichtweite Windgeschwindigkeit Windrichtung Zeit
1 Clouds 16 1017 64 10000 5.66 120 07:41 02.10.2022
2 Clouds 16 1019 66 10000 3.6 160 02:55 02.10.2022
3 Clouds 14 1021 80 10000 2.57 220 00:50 02.10.2022
4 Clouds 13 1021 85 10000 3.09 260 00:22 02.10.2022
5 Rain 10 1020 91 10000 3.09 260 22:53 01.10.2022
6 Rain 10 1019 90 10000 2.06 220 20:54 01.10.2022
7 Rain 10 1019 91 10000 3.09 240 18:51 01.10.2022
8 Rain 11 1021 87 10000 3.6 240 16:42 01.10.2022
9 Clouds 12 1021 86 10000 5.66 220 14:42 01.10.2022
10 Clouds 12 1022 82 10000 3.6 190 13:32 01.10.2022
11 Clouds 12 1022 81 10000 4.12 140 12:33 01.10.2022
12 Clouds 13 1022 78 10000 5.66 140 11:21 01.10.2022
13 Clouds 13 1021 76 10000 5.66 130 10:32 01.10.2022
14 Clouds 14 1020 76 10000 7.72 120 09:55 01.10.2022
15 Rain 15 1020 67 10000 5.66 120 08:59 01.10.2022
16 Clouds 16 1020 60 10000 6.17 130 07:29 01.10.2022
17 Rain 16 1023 67 10000 8.75 150 03:36 01.10.2022
18 Clouds 16 1023 63 10000 6.69 140 01:22 01.10.2022
19 Clouds 13 1023 72 10000 6.17 150 22:56 30.09.2022
20 Clouds 13 1022 73 10000 6.69 150 21:41 30.09.2022
21 Clouds 13 1022 67 10000 7.72 150 20:45 30.09.2022
22 Clouds 14 1022 67 10000 7.2 160 20:19 30.09.2022
23 Clouds 13 1023 75 10000 6.69 130 17:41 30.09.2022
24 Clouds 14 1024 74 10000 7.72 130 16:29 30.09.2022
25 Clouds 15 1024 74 10000 9.77 130 14:21 30.09.2022
26 Clouds 15 1023 77 10000 9.77 120 12:24 30.09.2022
27 Clouds 15 1023 79 10000 10.29 130 11:48 30.09.2022
28 Rain 16 1023 83 5000 8.23 170 08:51 30.09.2022
29 Rain 17 1022 78 10000 11.32 160 06:34 30.09.2022
30 Rain 16 1024 85 10000 10.8 170 02:50 30.09.2022
31 Rain 15 1024 84 10000 11.83 170 00:53 30.09.2022
32 Rain 13 1021 92 10000 1.79 192 21:39 29.09.2022
33 Rain 13 1021 90 10000 10.8 200 21:19 29.09.2022
34 Rain 13 1020 90 10000 11.32 200 18:54 29.09.2022
35 Rain 14 1020 82 10000 11.32 190 17:48 29.09.2022
36 Clouds 15 1021 78 10000 11.83 190 16:29 29.09.2022
37 Clouds 15 1021 76 10000 12.86 180 15:36 29.09.2022
38 Clouds 15 1021 77 10000 1.34 204 14:59 29.09.2022
39 Rain 15 1020 82 10000 12.86 190 11:54 29.09.2022
40 Drizzle 16 1017 87 10000 13.38 180 07:39 29.09.2022
41 Rain 17 1016 79 10000 10.29 200 03:24 29.09.2022
42 Rain 17 1016 75 7062 3.13 217 01:46 29.09.2022
43 Clouds 14 1016 85 10000 9.77 210 23:20 28.09.2022
44 Clouds 12 1015 90 10000 0.45 266 21:31 28.09.2022
45 Clouds 12 1014 89 10000 7.72 210 20:49 28.09.2022
46 Rain 12 1014 89 10000 1.79 296 19:48 28.09.2022
47 Rain 13 1013 79 10000 1.34 274 16:35 28.09.2022
48 Rain 15 1012 80 10000 8.23 210 13:28 28.09.2022
49 Clouds 16 1012 83 10000 3.09 220 11:45 28.09.2022
50 Clouds 17 1011 79 10000 5.66 160 09:36 28.09.2022
51 Clouds 19 1010 72 10000 6.69 150 07:42 28.09.2022
52 Clouds 22 1008 56 10000 6.69 170 05:37 28.09.2022
53 Clouds 18 1012 76 10000 0.89 214 01:44 28.09.2022
54 Clouds 16 1011 84 10000 4.12 220 00:36 28.09.2022
55 Rain 14 1010 90 10000 6.69 350 22:40 27.09.2022
56 Rain 14 1010 89 6000 7.72 50 21:20 27.09.2022
57 Rain 14 1011 90 10000 4.12 250 20:31 27.09.2022
58 Rain 14 1009 90 10000 6.69 170 19:40 27.09.2022
59 Rain 15 1011 91 10000 4.12 230 17:47 27.09.2022
60 Clouds 16 1011 90 10000 3.09 150 16:56 27.09.2022
61 Rain 17 1010 88 10000 7.2 70 15:18 27.09.2022
62 Rain 17 1011 83 10000 1.79 309 13:53 27.09.2022
63 Rain 17 1011 74 10000 0.89 147 12:37 27.09.2022
64 Rain 18 1010 68 10000 6.69 30 10:35 27.09.2022
65 Rain 19 1009 65 10000 6.69 50 07:55 27.09.2022
66 Rain 18 1012 76 10000 3.6 150 05:22 27.09.2022
67 Rain 16 1014 89 10000 2.57 300 01:40 27.09.2022
68 Rain 14 1015 90 10000 2.57 310 00:23 27.09.2022
69 Rain 14 1014 91 10000 3.09 310 23:24 26.09.2022
70 Rain 13 1013 91 10000 1.54 310 21:37 26.09.2022
71 Clear 13 1014 92 10000 2.57 300 20:18 26.09.2022
72 Clear 13 1013 90 10000 2.06 310 19:19 26.09.2022
73 Clouds 14 1014 89 10000 2.57 340 17:26 26.09.2022
74 Clouds 15 1015 85 10000 3.6 360 15:44 26.09.2022
75 Clouds 16 1016 81 10000 1.79 20 12:42 26.09.2022
76 Clouds 17 1015 76 10000 4.12 30 11:28 26.09.2022
77 Clouds 17 1014 74 10000 5.14 30 10:36 26.09.2022
78 Clouds 17 1014 74 10000 5.14 30 10:18 26.09.2022
79 Clouds 17 1014 73 10000 6.17 30 09:51 26.09.2022
80 Clouds 17 1013 72 10000 6.17 40 09:21 26.09.2022
81 Clouds 19 1015 67 10000 3.6 160 05:30 26.09.2022
82 Clouds 17 1017 69 10000 2.06 300 02:35 26.09.2022
83 Clouds 13 1017 89 10000 2.57 300 23:25 25.09.2022
84 Clouds 11 1017 89 10000 2.57 340 21:48 25.09.2022
85 Clouds 11 1017 90 10000 2.57 320 21:25 25.09.2022
86 Clouds 11 1017 89 10000 0.45 121 20:36 25.09.2022
87 Clouds 11 1017 90 10000 2.06 320 19:25 25.09.2022
88 Clear 11 1017 90 10000 1.54 320 18:29 25.09.2022
89 Clear 11 1017 90 10000 1.54 320 18:29 25.09.2022
90 Clear 12 1018 89 10000 3.09 230 17:29 25.09.2022
91 Clear 12 1018 87 10000 2.06 210 16:21 25.09.2022
92 Clear 13 1018 83 10000 3.09 220 14:55 25.09.2022
93 Clear 13 1017 81 10000 0.45 257 14:19 25.09.2022
94 Clear 16 1015 72 10000 3.09 110 11:53 25.09.2022
95 Clear 17 1014 64 10000 5.14 90 09:48 25.09.2022
96 Clear 21 1012 52 10000 6.17 80 07:45 25.09.2022
97 Clear 22 1012 43 10000 4.12 130 05:29 25.09.2022
98 Rain 12 1016 92 10000 3.09 310 23:37 24.09.2022
99 Fog 10 1015 92 10000 2.57 300 21:50 24.09.2022
100 Clear 11 1014 92 10000 3.6 280 20:36 24.09.2022
101 Clear 11 1014 91 10000 4.12 250 19:20 24.09.2022
102 Clouds 12 1015 91 10000 3.09 310 16:58 24.09.2022
103 Clouds 13 1015 90 10000 3.6 270 16:23 24.09.2022
104 Clouds 13 1015 91 10000 5.66 250 15:19 24.09.2022
105 Clouds 13 1014 90 10000 4.12 240 13:23 24.09.2022
106 Clouds 14 1014 90 10000 3.6 240 12:40 24.09.2022
107 Rain 15 1012 84 10000 3.6 150 10:19 24.09.2022
108 Rain 16 1010 78 10000 5.66 170 09:22 24.09.2022
109 Rain 17 1009 78 10000 4.63 150 08:43 24.09.2022
110 Rain 17 1008 74 10000 8.75 160 05:55 24.09.2022
111 Rain 18 1009 72 10000 9.77 170 04:34 24.09.2022
112 Clouds 17 1010 91 10000 3.09 280 23:48 23.09.2022
113 Clouds 15 1010 91 10000 2.06 320 22:21 23.09.2022
114 Rain 16 1010 91 10000 0 0 21:25 23.09.2022
115 Rain 16 1008 90 10000 0.45 5 20:54 23.09.2022
116 Rain 16 1010 91 10000 2.06 320 19:46 23.09.2022
117 Rain 16 1009 89 10000 3.09 30 18:24 23.09.2022
118 Rain 17 1012 89 10000 7.2 30 13:44 23.09.2022
119 Clouds 18 1013 84 10000 8.75 50 10:26 23.09.2022
120 Clouds 18 1013 81 10000 7.2 30 08:56 23.09.2022
121 Rain 19 1014 82 10000 6.17 30 04:56 23.09.2022
122 Rain 15 1017 93 10000 0.51 300 23:31 22.09.2022
123 Rain 15 1018 94 8000 1.03 90 22:29 22.09.2022
124 Rain 15 1017 94 10000 2.57 100 21:47 22.09.2022
125 Clouds 15 1017 94 9000 2.57 50 20:44 22.09.2022
126 Rain 15 1017 94 4900 2.06 260 19:23 22.09.2022
127 Rain 15 1018 93 10000 2.57 290 16:53 22.09.2022
128 Clouds 16 1018 87 10000 4.63 30 11:36 22.09.2022
129 Rain 16 1018 84 10000 4.12 40 10:20 22.09.2022
130 Clouds 17 1017 75 10000 5.66 20 08:39 22.09.2022
131 Clouds 18 1017 73 10000 6.69 20 06:27 22.09.2022
132 Clouds 18 1018 82 10000 7.72 50 02:39 22.09.2022
133 Drizzle 16 1017 90 10000 7.72 40 22:50 21.09.2022
134 Rain 15 1016 91 7000 8.75 40 21:40 21.09.2022
135 Rain 16 1015 87 8000 4.63 50 19:36 21.09.2022
136 Rain 16 1016 86 10000 5.14 40 17:47 21.09.2022
137 Rain 17 1016 86 10000 3.09 350 16:22 21.09.2022
138 Rain 17 1016 86 10000 3.09 350 16:22 21.09.2022
139 Rain 17 1017 83 10000 6.69 30 13:59 21.09.2022
140 Rain 17 1017 82 10000 6.17 40 12:41 21.09.2022
141 Rain 18 1016 81 10000 6.69 30 11:28 21.09.2022
142 Rain 18 1016 80 10000 1.34 5 09:49 21.09.2022
143 Rain 18 1016 80 10000 4.47 8 08:58 21.09.2022
144 Clouds 19 1016 76 10000 8.23 30 06:22 21.09.2022
145 Clouds 20 1018 72 10000 9.77 20 02:45 21.09.2022
146 Clouds 19 1018 73 10000 10.29 30 02:23 21.09.2022
147 Clouds 18 1019 78 10000 9.77 40 00:34 21.09.2022
148 Clouds 16 1019 80 10000 7.2 40 22:41 20.09.2022
149 Clouds 16 1019 81 10000 6.17 30 20:51 20.09.2022
150 Clouds 16 1020 80 10000 6.69 20 19:32 20.09.2022
151 Clouds 15 1020 79 10000 5.14 30 16:25 20.09.2022
152 Clear 16 1020 76 10000 7.72 40 14:46 20.09.2022
153 Clear 16 1021 74 10000 8.75 30 13:22 20.09.2022
154 Clear 18 1020 65 10000 8.75 30 09:34 20.09.2022
155 Clouds 19 1018 62 10000 9.26 50 08:26 20.09.2022
156 Clouds 19 1020 59 10000 6.69 50 04:50 20.09.2022
157 Clouds 19 1021 57 10000 7.2 60 03:59 20.09.2022
158 Clouds 10 1023 71 10000 3.6 320 22:55 19.09.2022
159 Clouds 9 1022 68 10000 2.06 300 21:46 19.09.2022
160 Clear 10 1021 67 10000 4.12 260 20:51 19.09.2022
161 Clear 10 1021 67 10000 4.12 260 20:30 19.09.2022
162 Clear 10 1021 69 10000 5.14 250 17:45 19.09.2022
163 Clear 11 1020 73 10000 3.09 210 15:34 19.09.2022
164 Clouds 13 1019 71 10000 2.57 240 13:32 19.09.2022
165 Clear 15 1018 59 10000 2.57 70 11:28 19.09.2022
166 Clear 19 1013 47 10000 7.2 120 08:51 19.09.2022
167 Clear 22 1012 37 10000 4.63 200 07:25 19.09.2022
168 Clear 17 1015 51 10000 3.09 290 01:55 19.09.2022
169 Clouds 13 1014 71 10000 3.09 200 23:22 18.09.2022
170 Clouds 12 1013 69 10000 0.89 276 21:45 18.09.2022
171 Clear 12 1012 71 10000 0.89 321 20:29 18.09.2022
172 Clear 12 1012 66 10000 2.57 240 18:33 18.09.2022
173 Clear 12 1012 65 10000 1.54 20 17:39 18.09.2022
174 Clear 14 1013 57 10000 3.09 340 15:46 18.09.2022
175 Clear 15 1013 50 10000 4.12 310 14:23 18.09.2022
176 Clear 17 1013 45 10000 6.17 290 12:35 18.09.2022
177 Clear 18 1012 41 10000 8.23 290 11:24 18.09.2022
178 Clear 21 1008 39 10000 6.17 270 04:28 18.09.2022
179 Clear 18 1010 47 10000 3.09 290 01:26 18.09.2022
180 Clear 16 1011 53 10000 2.57 350 00:27 18.09.2022
181 Clear 12 1010 68 10000 2.06 10 21:52 17.09.2022
182 Clear 14 1007 56 10000 3.09 10 19:51 17.09.2022
183 Clear 15 1008 54 10000 2.57 350 18:59 17.09.2022
184 Clear 14 1008 53 10000 7.15 250 16:52 17.09.2022
185 Clear 15 1008 54 10000 9.77 310 13:57 17.09.2022
186 Clear 15 1008 55 10000 5.14 320 11:55 17.09.2022
187 Clear 19 1006 46 10000 10.8 260 09:40 17.09.2022
188 Clear 21 1001 46 10000 6.17 320 06:27 17.09.2022
189 Clear 21 1005 40 10000 6.17 300 02:34 17.09.2022
190 Clouds 14 1005 61 10000 4.12 290 22:56 16.09.2022
191 Clear 15 1005 57 10000 6.17 350 21:32 16.09.2022
192 Clear 16 1003 55 10000 5.66 350 20:31 16.09.2022
193 Clear 16 1005 54 10000 7.72 10 17:52 16.09.2022
194 Clear 16 1005 54 10000 7.72 10 17:52 16.09.2022
195 Clear 17 1006 52 10000 4.63 350 15:43 16.09.2022
196 Clouds 16 1008 56 10000 0.89 348 14:32 16.09.2022
197 Clouds 18 1006 48 10000 4.12 310 11:56 16.09.2022
198 Clouds 22 1003 34 10000 2.68 266 09:21 16.09.2022
199 Clear 24 1003 32 10000 5.14 310 07:20 16.09.2022
200 Clear 24 1003 32 10000 6.17 280 06:47 16.09.2022
201 Clear 23 1003 41 10000 7.72 290 04:42 16.09.2022
202 Clear 14 1006 86 10000 2.06 300 23:50 15.09.2022
203 Clear 12 1005 91 10000 2.57 300 21:24 15.09.2022
204 Clear 12 1004 92 10000 3.09 350 20:23 15.09.2022
205 Clouds 13 1005 93 10000 4.63 340 18:53 15.09.2022
206 Clouds 13 1005 94 10000 6.17 300 17:33 15.09.2022
207 Clouds 13 1005 93 10000 3.6 360 16:54 15.09.2022
208 Rain 14 1008 93 8000 3.6 250 14:42 15.09.2022
209 Rain 14 1009 92 8000 4.12 10 12:49 15.09.2022
210 Rain 14 1010 89 6000 4.12 320 10:34 15.09.2022
211 Clouds 14 1010 87 10000 1.79 357 08:57 15.09.2022
212 Clouds 15 1016 77 10000 1.79 320 04:24 15.09.2022
213 Rain 15 1016 78 10000 3.6 310 01:57 15.09.2022
214 Rain 12 1019 83 10000 1.03 290 22:26 14.09.2022
215 Clouds 12 1018 79 10000 2.06 290 20:19 14.09.2022
216 Clouds 12 1018 79 10000 3.6 290 19:32 14.09.2022
217 Clouds 12 1020 76 10000 3.6 300 17:26 14.09.2022
218 Clouds 12 1022 76 10000 3.6 290 15:58 14.09.2022
219 Clouds 13 1022 72 10000 4.63 20 14:35 14.09.2022
220 Clouds 14 1024 69 10000 5.14 30 11:54 14.09.2022
221 Clear 15 1022 65 10000 6.69 50 09:49 14.09.2022
222 Clear 17 1021 52 10000 6.69 80 07:39 14.09.2022
223 Clear 17 1023 56 10000 5.14 60 06:48 14.09.2022
224 Clear 17 1025 55 10000 5.14 110 04:52 14.09.2022
225 Clouds 16 1028 64 10000 4.63 170 01:53 14.09.2022
226 Clouds 15 1029 66 10000 2.06 270 01:29 14.09.2022
227 Clouds 14 1029 69 10000 2.57 290 00:52 14.09.2022
228 Clouds 11 1029 74 10000 4.12 290 23:54 13.09.2022
229 Clouds 10 1029 76 10000 4.12 310 23:36 13.09.2022
230 Clouds 9 1029 78 10000 4.12 320 23:18 13.09.2022
231 Clouds 8 1028 78 10000 4.63 320 22:21 13.09.2022
232 Rain 9 1027 76 10000 3.6 300 20:29 13.09.2022
233 Clouds 10 1028 74 10000 4.12 250 18:21 13.09.2022
234 Clouds 11 1028 71 10000 0.45 288 15:56 13.09.2022
235 Clouds 12 1028 69 10000 0.89 274 14:47 13.09.2022
236 Clouds 13 1027 63 10000 4.12 160 13:25 13.09.2022
237 Clouds 14 1025 60 10000 6.69 160 09:49 13.09.2022
238 Clouds 16 1024 56 10000 8.23 170 07:21 13.09.2022
239 Clouds 13 1025 76 10000 8.23 180 00:30 13.09.2022
240 Rain 11 1024 81 10000 4.12 230 22:51 12.09.2022
241 Clouds 11 1024 82 10000 5.14 250 22:22 12.09.2022
242 Clouds 10 1022 80 10000 6.17 190 20:42 12.09.2022
243 Clouds 11 1022 74 10000 5.66 220 19:22 12.09.2022
244 Clouds 11 1022 68 10000 4.63 250 17:42 12.09.2022
245 Clear 12 1021 62 10000 5.14 240 14:54 12.09.2022
246 Clouds 14 1020 60 10000 2.57 10 11:57 12.09.2022
247 Clear 16 1017 51 10000 2.57 50 10:20 12.09.2022
248 Clear 20 1015 38 10000 5.66 120 05:50 12.09.2022
249 Clear 19 1016 39 10000 4.63 230 04:32 12.09.2022
250 Clear 12 1019 55 10000 6.17 280 23:59 11.09.2022
251 Clear 10 1016 62 10000 5.66 260 22:45 11.09.2022
252 Clear 9 1017 67 10000 7.72 260 21:22 11.09.2022
253 Clear 9 1016 67 10000 7.72 260 20:43 11.09.2022
254 Clear 9 1016 67 10000 5.66 240 19:27 11.09.2022
255 Clear 9 1016 68 10000 6.17 250 18:58 11.09.2022
256 Clear 11 1016 59 10000 7.2 260 16:58 11.09.2022
257 Clear 12 1016 56 10000 8.23 250 15:44 11.09.2022
258 Clear 14 1015 55 10000 4.63 250 13:19 11.09.2022
259 Clear 16 1013 60 10000 3.6 40 10:51 11.09.2022
260 Clear 21 1014 40 10000 4.12 70 07:49 11.09.2022
261 Clear 20 1014 34 10000 5.14 230 04:36 11.09.2022
262 Clouds 14 1015 61 10000 4.63 270 23:50 10.09.2022
263 Clouds 11 1014 67 10000 5.66 240 22:21 10.09.2022
264 Clouds 12 1012 65 10000 3.6 270 20:24 10.09.2022
265 Clouds 13 1012 64 10000 5.14 250 19:43 10.09.2022
266 Clouds 13 1012 63 10000 5.14 250 19:24 10.09.2022
267 Clouds 15 1012 65 10000 5.66 250 17:27 10.09.2022
268 Clouds 15 1012 70 10000 3.6 230 15:35 10.09.2022
269 Clouds 16 1012 71 10000 4.63 210 13:36 10.09.2022
270 Clouds 17 1011 66 10000 6.69 200 12:29 10.09.2022
271 Clouds 18 1010 64 10000 3.09 110 10:31 10.09.2022
272 Clouds 20 1008 56 10000 4.12 250 08:41 10.09.2022
273 Clouds 19 1007 57 10000 7.2 250 08:20 10.09.2022
274 Clear 21 1008 49 10000 5.66 270 03:48 10.09.2022
275 Clear 14 1009 79 10000 3.09 330 23:36 09.09.2022
276 Clear 13 1009 80 10000 4.12 300 22:36 09.09.2022
277 Clear 14 1008 78 10000 4.63 340 20:50 09.09.2022
278 Clear 14 1008 77 10000 2.57 350 20:19 09.09.2022
279 Clear 14 1009 77 10000 4.12 340 19:22 09.09.2022
280 Clear 15 1010 71 10000 5.14 320 17:19 09.09.2022
281 Rain 15 1011 70 10000 4.12 330 15:19 09.09.2022
282 Rain 15 1011 74 10000 4.63 350 13:31 09.09.2022
283 Rain 17 1010 79 10000 6.17 30 10:42 09.09.2022
284 Clouds 17 1010 79 10000 6.17 30 10:42 09.09.2022
285 Clouds 20 1010 67 10000 4.12 20 07:45 09.09.2022
286 Clouds 15 1013 87 10000 4.63 40 03:37 09.09.2022
287 Rain 14 1013 86 10000 0.89 320 22:40 08.09.2022
288 Clouds 15 1013 86 10000 1.34 356 21:51 08.09.2022
289 Rain 15 1013 84 10000 0.89 346 20:49 08.09.2022
290 Rain 15 1013 82 10000 1.79 16 20:25 08.09.2022
291 Clouds 15 1013 80 10000 0.89 357 19:18 08.09.2022
292 Clouds 15 1015 82 10000 1.34 39 17:25 08.09.2022
293 Clouds 15 1015 83 10000 2.68 13 15:35 08.09.2022
294 Rain 17 1016 80 10000 3.58 7 13:30 08.09.2022
295 Clouds 17 1016 78 10000 11.32 30 12:41 08.09.2022
296 Rain 17 1016 78 10000 10.29 30 11:23 08.09.2022
297 Clouds 17 1016 73 10000 9.26 30 09:46 08.09.2022
298 Clouds 19 1016 64 10000 11.32 40 07:25 08.09.2022
299 Clouds 20 1018 64 10000 10.8 30 04:43 08.09.2022
300 Clouds 18 1021 67 10000 3.13 358 02:36 08.09.2022
301 Clouds 18 1021 65 10000 4.92 24 02:18 08.09.2022
302 Clouds 13 1022 83 10000 5.14 10 22:58 07.09.2022
303 Clouds 13 1021 83 10000 6.17 20 21:46 07.09.2022
304 Clouds 13 1021 84 10000 3.6 30 21:24 07.09.2022
305 Clouds 13 1021 84 10000 2.57 340 20:29 07.09.2022
306 Clouds 12 1021 85 10000 4.12 340 19:20 07.09.2022
307 Clouds 13 1022 80 10000 3.09 290 16:24 07.09.2022
308 Clouds 15 1023 77 10000 0.89 272 11:28 07.09.2022
309 Clouds 15 1022 73 10000 5.14 40 10:32 07.09.2022
310 Clouds 17 1020 66 10000 7.2 50 08:29 07.09.2022
311 Clouds 18 1022 61 10000 5.66 70 06:31 07.09.2022
312 Clouds 13 1024 85 10000 0.45 326 00:38 07.09.2022
313 Clouds 9 1025 91 10000 1.54 330 21:58 06.09.2022
314 Clouds 9 1025 91 10000 1.03 310 21:36 06.09.2022
315 Rain 10 1024 91 10000 1.54 310 19:39 06.09.2022
316 Rain 10 1025 91 10000 2.57 300 18:40 06.09.2022
317 Rain 10 1025 91 10000 2.57 300 17:50 06.09.2022
318 Rain 10 1025 90 10000 2.57 320 16:47 06.09.2022
319 Rain 10 1025 90 10000 1.54 230 16:24 06.09.2022
320 Clouds 11 1026 90 10000 0.89 276 14:27 06.09.2022
321 Clouds 11 1025 87 10000 0.45 0 13:44 06.09.2022
322 Clouds 11 1025 86 10000 2.06 90 13:18 06.09.2022
323 Rain 13 1024 80 10000 3.6 120 10:56 06.09.2022
324 Rain 14 1023 77 10000 4.12 130 09:49 06.09.2022
325 Clouds 15 1022 70 10000 5.66 160 08:27 06.09.2022
326 Rain 16 1022 68 10000 7.2 160 06:22 06.09.2022
327 Rain 14 1026 74 10000 3.6 230 01:22 06.09.2022
328 Clouds 9 1024 82 10000 3.09 290 22:57 05.09.2022
329 Clouds 9 1023 84 10000 4.63 270 21:39 05.09.2022
330 Rain 8 1024 86 10000 4.63 300 20:32 05.09.2022
331 Rain 9 1024 85 10000 5.66 230 18:53 05.09.2022
332 Rain 9 1024 85 10000 6.69 230 18:26 05.09.2022
333 Rain 9 1024 85 10000 7.72 210 17:57 05.09.2022
334 Clouds 10 1025 83 10000 6.69 210 16:25 05.09.2022
335 Rain 11 1025 80 10000 5.66 230 15:23 05.09.2022
336 Clouds 13 1023 71 10000 10.29 170 12:56 05.09.2022
337 Clouds 13 1022 68 10000 10.29 170 11:37 05.09.2022
338 Clouds 15 1021 62 10000 10.29 170 08:58 05.09.2022
339 Clouds 16 1021 63 10000 9.26 170 06:38 05.09.2022
340 Clouds 15 1023 68 10000 7.72 190 01:56 05.09.2022
341 Clouds 9 1021 84 10000 3.6 280 22:39 04.09.2022
342 Clouds 9 1021 84 10000 4.12 290 22:19 04.09.2022
343 Clouds 9 1021 84 10000 3.09 310 20:43 04.09.2022
344 Rain 10 1022 85 10000 3.09 300 19:20 04.09.2022
345 Rain 10 1024 87 10000 4.63 260 17:43 04.09.2022
346 Rain 10 1024 85 10000 3.6 250 16:28 04.09.2022
347 Clouds 11 1025 88 10000 5.14 230 14:27 04.09.2022
348 Rain 12 1024 86 10000 5.66 240 12:57 04.09.2022
349 Clouds 13 1024 82 10000 6.69 150 11:52 04.09.2022
350 Rain 13 1023 77 10000 7.2 180 09:56 04.09.2022
351 Rain 14 1023 79 10000 11.32 160 07:27 04.09.2022
352 Clouds 16 1025 61 10000 10.8 160 04:00 04.09.2022
353 Clouds 14 1024 70 10000 10.29 150 00:42 04.09.2022
354 Rain 13 1022 77 10000 11.83 160 22:21 03.09.2022
355 Rain 12 1021 78 10000 10.8 150 21:23 03.09.2022
356 Rain 12 1021 88 10000 8.75 150 18:59 03.09.2022
357 Clouds 12 1022 85 10000 7.2 190 17:26 03.09.2022
358 Clouds 12 1022 85 10000 7.2 190 17:26 03.09.2022
359 Rain 12 1022 83 10000 8.23 200 16:27 03.09.2022
360 Clouds 13 1023 73 10000 8.23 120 14:44 03.09.2022
361 Clouds 13 1023 66 10000 10.8 150 13:55 03.09.2022
362 Clouds 13 1023 75 10000 11.83 160 12:19 03.09.2022
363 Rain 14 1023 68 10000 10.8 160 10:27 03.09.2022
364 Clouds 14 1023 65 10000 9.77 140 08:28 03.09.2022
365 Rain 13 1022 80 9000 9.77 150 06:58 03.09.2022
366 Drizzle 14 1022 78 10000 11.83 170 04:33 03.09.2022
367 Rain 11 1023 87 6000 9.26 200 00:29 03.09.2022
368 Drizzle 11 1024 83 9000 11.83 200 22:57 02.09.2022
369 Rain 12 1023 73 10000 9.26 210 20:59 02.09.2022
370 Rain 12 1022 73 10000 9.26 200 20:28 02.09.2022
371 Rain 13 1022 71 10000 10.8 180 19:22 02.09.2022
372 Rain 13 1022 69 10000 11.83 170 18:28 02.09.2022
373 Rain 13 1022 70 10000 2.24 192 17:53 02.09.2022
374 Rain 14 1022 70 10000 12.86 170 16:48 02.09.2022
375 Rain 14 1022 71 10000 10.8 150 14:33 02.09.2022
376 Rain 14 1022 73 10000 10.8 150 12:39 02.09.2022
377 Rain 14 1021 81 10000 9.26 160 10:22 02.09.2022
378 Rain 14 1021 80 10000 8.75 160 09:40 02.09.2022
379 Rain 15 1020 78 10000 13.38 180 07:36 02.09.2022
380 Clouds 16 1020 75 10000 12.86 180 06:40 02.09.2022
381 Rain 16 1021 77 10000 8.23 190 02:55 02.09.2022
382 Rain 13 1021 92 10000 4.63 230 22:45 01.09.2022
383 Clouds 13 1019 91 10000 3.6 240 21:44 01.09.2022
384 Clear 13 1021 91 10000 4.12 280 21:25 01.09.2022
385 Clear 13 1020 91 10000 3.09 290 20:46 01.09.2022
386 Clear 13 1020 91 10000 2.57 300 18:57 01.09.2022
387 Clouds 13 1020 90 10000 2.57 280 17:33 01.09.2022
388 Clouds 14 1021 88 10000 3.6 350 16:29 01.09.2022
389 Clouds 15 1021 87 10000 0.45 37 14:33 01.09.2022
390 Rain 16 1020 84 10000 6.69 30 12:59 01.09.2022
391 Clouds 16 1022 84 10000 3.13 10 11:53 01.09.2022
392 Clouds 16 1022 84 10000 3.58 355 11:33 01.09.2022
393 Clouds 17 1020 82 10000 7.72 30 10:40 01.09.2022
394 Clouds 19 1019 74 10000 7.72 30 08:30 01.09.2022
395 Clouds 20 1019 71 10000 6.69 40 06:23 01.09.2022
396 Clouds 16 1023 89 10000 2.06 290 01:34 01.09.2022
397 Clouds 14 1024 91 10000 0.45 228 00:18 01.09.2022
398 Rain 13 1024 92 10000 1.71 342 21:44 31.08.2022
399 Clouds 13 1023 91 10000 2.06 230 19:51 31.08.2022
400 Rain 14 1024 90 10000 3.09 280 18:19 31.08.2022
401 Drizzle 14 1025 89 10000 2.57 330 16:31 31.08.2022
402 Rain 14 1025 86 10000 2.57 50 14:36 31.08.2022
403 Clouds 15 1024 86 10000 4.12 100 12:23 31.08.2022
404 Clouds 15 1024 85 10000 5.14 110 11:29 31.08.2022
405 Clouds 16 1023 81 10000 3.6 110 09:20 31.08.2022
406 Rain 18 1021 76 5000 3.6 140 06:18 31.08.2022
407 Clear 11 1023 75 10000 3.6 260 23:21 30.08.2022
408 Clear 11 1020 73 10000 4.63 240 21:49 30.08.2022
409 Clear 12 1019 72 10000 4.63 250 20:58 30.08.2022
410 Clear 12 1019 67 10000 6.17 250 18:49 30.08.2022
411 Clear 14 1020 60 10000 7.2 250 15:29 30.08.2022
412 Clear 16 1019 53 10000 4.63 290 13:25 30.08.2022
413 Clear 18 1017 50 10000 3.58 265 11:22 30.08.2022
414 Clear 18 1017 61 10000 2.24 285 10:57 30.08.2022
415 Clouds 22 1011 60 10000 3.13 343 07:50 30.08.2022
416 Clear 22 1015 61 10000 11.32 350 03:33 30.08.2022
417 Clouds 16 1015 80 10000 4.47 329 23:45 29.08.2022
418 Clouds 14 1015 84 10000 2.68 344 22:33 29.08.2022
419 Clear 14 1015 86 10000 3.09 10 21:27 29.08.2022
420 Clear 13 1017 88 10000 4.12 20 20:26 29.08.2022
421 Clear 14 1016 86 10000 4.63 10 18:39 29.08.2022
422 Clear 15 1017 82 10000 4.12 20 17:25 29.08.2022
423 Clear 15 1017 81 10000 5.14 360 16:50 29.08.2022
424 Clear 15 1019 83 10000 4.12 10 15:18 29.08.2022
425 Clear 16 1019 85 10000 5.66 20 13:34 29.08.2022
426 Clouds 16 1021 88 10000 0.89 4 11:33 29.08.2022
427 Rain 16 1022 89 10000 2.68 351 10:39 29.08.2022
428 Rain 17 1020 84 10000 2.68 291 08:40 29.08.2022
429 Rain 19 1020 77 10000 7.72 20 06:25 29.08.2022
430 Clouds 17 1026 79 10000 3.6 290 01:53 29.08.2022
431 Clouds 11 1026 93 10000 3.09 310 22:55 28.08.2022
432 Clouds 11 1026 92 10000 1.54 290 21:45 28.08.2022
433 Clear 11 1026 92 10000 1.54 280 20:58 28.08.2022
434 Clouds 12 1025 91 10000 2.57 320 19:44 28.08.2022
435 Clouds 12 1026 90 10000 2.57 330 18:22 28.08.2022
436 Clouds 13 1027 90 10000 1.54 360 17:45 28.08.2022
437 Clouds 14 1025 89 10000 3.09 30 16:42 28.08.2022
438 Clouds 15 1026 88 10000 3.6 360 14:46 28.08.2022
439 Clouds 15 1026 88 10000 4.63 10 14:46 28.08.2022
440 Clouds 16 1026 86 10000 4.63 20 12:56 28.08.2022
441 Clouds 16 1025 85 10000 4.63 30 11:24 28.08.2022
442 Clouds 16 1025 81 10000 4.63 30 10:19 28.08.2022
443 Clouds 18 1025 74 10000 7.72 40 08:42 28.08.2022
444 Clouds 18 1025 72 10000 7.2 40 07:51 28.08.2022
445 Clouds 19 1026 69 10000 7.2 10 04:55 28.08.2022
446 Clouds 12 1030 92 10000 2.57 330 00:34 28.08.2022
447 Clouds 9 1028 92 10000 2.57 310 22:58 27.08.2022
448 Clouds 9 1028 94 10000 2.06 330 22:24 27.08.2022
449 Clouds 9 1027 93 10000 2.57 330 20:35 27.08.2022
450 Clouds 10 1028 93 10000 4.12 330 18:50 27.08.2022
451 Rain 11 1029 92 10000 2.06 290 16:26 27.08.2022
452 Clouds 11 1028 91 10000 2.06 290 15:31 27.08.2022
453 Rain 12 1029 89 10000 2.06 30 13:18 27.08.2022
454 Clouds 12 1028 89 10000 3.6 200 11:58 27.08.2022
455 Clouds 13 1028 85 10000 3.09 180 10:27 27.08.2022
456 Clouds 15 1026 81 10000 3.6 170 09:31 27.08.2022
457 Rain 16 1025 84 10000 0.89 118 05:59 27.08.2022
458 Rain 13 1029 92 10000 5.66 220 00:52 27.08.2022
459 Rain 11 1030 93 9000 4.63 260 23:36 26.08.2022
460 Rain 10 1027 94 10000 2.57 310 21:46 26.08.2022
461 Clouds 11 1028 93 10000 3.6 300 19:50 26.08.2022
462 Rain 11 1028 93 10000 3.6 270 17:53 26.08.2022
463 Rain 12 1029 92 10000 4.63 250 15:45 26.08.2022
464 Rain 12 1027 93 10000 4.63 250 15:24 26.08.2022
465 Rain 13 1027 91 6000 5.14 210 12:59 26.08.2022
466 Rain 13 1026 88 10000 7.2 200 11:48 26.08.2022
467 Rain 13 1026 89 10000 7.2 200 11:22 26.08.2022
468 Rain 14 1025 87 10000 8.75 170 08:55 26.08.2022
469 Rain 16 1026 73 10000 9.77 190 03:59 26.08.2022
470 Clouds 13 1027 75 10000 3.6 260 00:44 26.08.2022
471 Clouds 10 1025 85 10000 4.12 270 22:44 25.08.2022
472 Clouds 10 1024 86 10000 4.12 250 20:55 25.08.2022
473 Clouds 10 1025 86 10000 4.63 240 19:36 25.08.2022
474 Rain 11 1025 86 10000 6.17 230 18:35 25.08.2022
475 Rain 11 1024 87 10000 3.6 280 17:32 25.08.2022
476 Rain 11 1026 87 10000 2.57 270 16:45 25.08.2022
477 Rain 12 1026 85 10000 3.6 230 15:37 25.08.2022
478 Rain 12 1025 83 10000 6.17 200 13:59 25.08.2022
479 Clouds 13 1024 74 10000 4.12 220 11:25 25.08.2022
480 Clouds 14 1023 70 10000 3.6 180 10:44 25.08.2022
481 Clouds 16 1022 57 10000 6.17 170 07:55 25.08.2022
482 Clear 17 1022 52 10000 5.14 170 03:54 25.08.2022
483 Clear 9 1020 71 10000 6.17 310 23:39 24.08.2022
484 Clear 8 1019 72 10000 6.69 260 23:18 24.08.2022
485 Clear 8 1019 71 10000 6.17 260 21:59 24.08.2022
486 Clear 8 1018 71 10000 6.69 260 21:31 24.08.2022
487 Clear 7 1019 71 10000 5.66 280 20:18 24.08.2022
488 Clear 8 1020 68 10000 4.63 290 17:38 24.08.2022
489 Clear 8 1021 67 10000 5.66 280 16:22 24.08.2022
490 Clear 9 1021 65 10000 5.66 270 15:40 24.08.2022
491 Clear 11 1022 65 10000 5.66 250 12:52 24.08.2022
492 Clear 11 1020 72 10000 3.6 240 11:22 24.08.2022
493 Clear 11 1020 72 10000 3.6 240 11:22 24.08.2022
494 Clouds 14 1018 59 10000 5.66 180 09:19 24.08.2022
495 Clear 16 1017 51 10000 2.24 245 07:33 24.08.2022
496 Clouds 12 1019 56 10000 7.72 250 01:43 24.08.2022
497 Clouds 7 1017 67 10000 6.69 250 22:51 23.08.2022
498 Clouds 7 1018 68 10000 6.69 250 22:24 23.08.2022
499 Clear 7 1017 68 10000 7.72 240 21:21 23.08.2022
500 Clear 8 1016 69 10000 8.75 230 19:43 23.08.2022
501 Clear 9 1016 72 10000 8.75 240 18:30 23.08.2022
502 Rain 9 1016 74 10000 7.72 240 17:46 23.08.2022
503 Rain 8 1015 82 10000 8.75 240 16:33 23.08.2022
504 Rain 8 1016 86 10000 6.69 260 15:20 23.08.2022
505 Rain 8 1016 89 10000 7.72 230 13:25 23.08.2022
506 Rain 8 1014 86 10000 10.8 230 11:21 23.08.2022
507 Rain 8 1014 88 10000 9.77 220 10:35 23.08.2022
508 Rain 9 1012 88 10000 11.32 210 09:47 23.08.2022
509 Rain 9 1012 88 4000 13.38 200 08:49 23.08.2022
510 Rain 10 1011 86 9000 12.86 200 08:20 23.08.2022
511 Rain 10 1009 85 4000 14.92 200 07:34 23.08.2022
512 Rain 13 1007 79 2500 15.95 190 06:27 23.08.2022
513 Clear 19 1009 50 10000 7.2 10 02:28 23.08.2022
514 Clear 16 1008 58 10000 5.14 360 00:28 23.08.2022
515 Clear 13 1010 63 10000 6.69 360 23:33 22.08.2022
516 Clear 13 1009 64 10000 5.14 360 22:34 22.08.2022
517 Clear 13 1010 62 10000 7.72 360 21:25 22.08.2022
518 Clear 14 1012 61 10000 7.72 360 19:47 22.08.2022
519 Clear 14 1013 59 10000 6.69 10 18:45 22.08.2022
520 Clear 14 1014 59 10000 3.58 3 17:18 22.08.2022
521 Clear 13 1016 59 10000 1.34 7 15:39 22.08.2022
522 Clear 13 1016 59 10000 2.24 0 15:39 22.08.2022
523 Clear 14 1016 54 10000 2.57 340 13:47 22.08.2022
524 Clouds 17 1015 44 10000 8.23 280 10:38 22.08.2022
525 Clear 20 1012 38 10000 7.2 290 07:58 22.08.2022
526 Clear 20 1014 43 10000 8.23 310 04:22 22.08.2022
527 Clear 12 1022 71 10000 3.6 290 00:41 22.08.2022
528 Clear 11 1021 75 10000 3.6 290 00:22 22.08.2022
529 Clear 9 1021 83 10000 3.09 340 22:20 21.08.2022
530 Clear 9 1021 83 10000 3.09 310 21:25 21.08.2022
531 Clear 9 1021 85 10000 2.57 290 20:47 21.08.2022
532 Clear 9 1022 83 10000 2.06 330 19:25 21.08.2022
533 Clear 10 1023 81 10000 3.6 300 17:24 21.08.2022
534 Clear 10 1024 77 10000 3.09 290 15:53 21.08.2022
535 Clear 11 1024 76 10000 4.12 310 15:21 21.08.2022
536 Clear 12 1025 73 10000 6.17 10 13:52 21.08.2022
537 Clear 12 1025 72 10000 6.17 10 13:28 21.08.2022
538 Clear 13 1025 71 10000 2.24 341 11:34 21.08.2022
539 Clear 16 1023 63 10000 5.66 50 09:31 21.08.2022
540 Clear 16 1022 61 10000 6.69 60 08:56 21.08.2022
541 Clear 17 1022 59 10000 6.17 60 08:38 21.08.2022
542 Clear 18 1022 50 10000 5.66 80 07:26 21.08.2022
543 Clouds 16 1025 52 10000 2.57 180 03:40 21.08.2022
544 Clouds 12 1027 66 10000 3.09 270 00:24 21.08.2022
545 Clouds 11 1026 71 10000 7.2 210 22:40 20.08.2022
546 Clouds 11 1025 71 10000 7.2 200 21:38 20.08.2022
547 Clouds 12 1025 72 10000 8.23 190 20:41 20.08.2022
548 Clouds 12 1024 73 10000 8.75 200 19:41 20.08.2022
549 Clouds 12 1025 75 10000 8.23 200 18:31 20.08.2022
550 Rain 12 1023 75 10000 6.69 200 17:51 20.08.2022
551 Rain 12 1025 75 10000 7.2 200 17:18 20.08.2022
552 Rain 13 1023 77 10000 7.2 210 15:37 20.08.2022
553 Clouds 12 1023 68 10000 5.14 210 13:27 20.08.2022
554 Clouds 14 1022 63 10000 7.72 250 11:52 20.08.2022
555 Clear 17 1017 54 10000 5.66 290 09:43 20.08.2022
556 Clear 17 1016 51 10000 5.66 310 08:50 20.08.2022
557 Rain 16 1015 50 10000 4.63 310 05:57 20.08.2022
558 Clear 16 1018 47 10000 8.75 270 03:28 20.08.2022
559 Clear 13 1020 59 10000 3.6 280 00:51 20.08.2022
560 Clear 7 1019 73 10000 4.12 320 23:19 19.08.2022
561 Clouds 7 1019 72 10000 4.63 320 22:35 19.08.2022
562 Clear 7 1018 73 10000 4.12 300 20:29 19.08.2022
563 Clear 8 1019 69 10000 4.63 290 18:46 19.08.2022
564 Clear 9 1019 74 10000 3.6 290 15:51 19.08.2022
565 Clear 10 1018 79 10000 4.12 270 13:36 19.08.2022
566 Clouds 12 1017 75 10000 7.72 200 11:39 19.08.2022
567 Clouds 13 1014 74 10000 8.23 190 10:29 19.08.2022
568 Rain 17 1009 62 10000 5.66 200 07:21 19.08.2022
569 Rain 15 1011 64 10000 4.12 310 01:24 19.08.2022
570 Clear 15 1010 65 10000 5.66 340 00:32 19.08.2022
571 Rain 14 1010 66 10000 5.66 350 23:48 18.08.2022
572 Clear 14 1010 68 10000 5.14 360 22:52 18.08.2022
573 Clear 14 1010 67 10000 5.14 360 22:18 18.08.2022
574 Clear 14 1010 67 10000 4.63 350 21:40 18.08.2022
575 Clear 14 1009 68 10000 3.09 360 20:27 18.08.2022
576 Clear 14 1012 71 10000 2.06 20 19:30 18.08.2022
577 Clear 14 1011 70 10000 3.09 290 18:19 18.08.2022
578 Clear 15 1011 70 10000 3.09 340 17:19 18.08.2022
579 Clear 15 1011 69 10000 3.6 280 15:20 18.08.2022
580 Clear 15 1011 67 10000 2.57 320 14:20 18.08.2022
581 Clouds 15 1011 69 10000 0.89 302 13:36 18.08.2022
582 Clear 15 1011 69 10000 2.57 330 12:26 18.08.2022
583 Clouds 17 1011 69 10000 2.57 30 10:25 18.08.2022
584 Clear 17 1011 65 10000 2.06 240 09:42 18.08.2022
585 Clear 21 1012 45 10000 3.09 310 07:24 18.08.2022
586 Clear 19 1012 50 10000 3.6 330 04:47 18.08.2022
587 Clear 10 1016 80 10000 4.63 290 00:22 18.08.2022
588 Clear 8 1016 87 10000 4.63 290 22:20 17.08.2022
589 Clear 9 1015 88 10000 3.6 320 20:20 17.08.2022
590 Clear 9 1016 88 10000 3.6 320 19:33 17.08.2022
591 Clear 9 1016 88 10000 3.6 320 19:33 17.08.2022
592 Clear 9 1016 86 10000 3.09 360 18:21 17.08.2022
593 Clear 10 1017 84 10000 2.57 310 16:50 17.08.2022
594 Clear 10 1018 85 10000 2.57 350 15:31 17.08.2022
595 Clear 11 1018 84 10000 2.57 270 14:29 17.08.2022
596 Clear 12 1019 80 10000 0.45 270 12:21 17.08.2022
597 Clouds 14 1016 72 10000 3.09 140 10:25 17.08.2022
598 Clouds 14 1016 72 10000 3.09 140 10:25 17.08.2022
599 Clouds 14 1016 73 10000 3.09 140 10:25 17.08.2022
600 Clouds 17 1016 61 10000 3.6 140 08:25 17.08.2022
601 Clear 19 1017 52 10000 1.34 245 05:22 17.08.2022
602 Clouds 12 1018 69 10000 4.12 290 00:46 17.08.2022
603 Clouds 9 1017 77 10000 3.6 290 22:59 16.08.2022
604 Clear 9 1015 76 10000 3.6 330 20:59 16.08.2022
605 Clear 9 1015 77 10000 3.6 290 19:55 16.08.2022
606 Clear 10 1014 74 10000 2.57 300 19:22 16.08.2022
607 Clear 10 1015 73 10000 7.2 240 17:55 16.08.2022
608 Clear 10 1015 72 10000 7.72 250 16:47 16.08.2022
609 Clouds 11 1014 71 10000 6.17 250 15:45 16.08.2022
610 Clouds 11 1014 70 10000 4.63 240 14:54 16.08.2022
611 Clouds 11 1015 70 10000 5.66 240 14:36 16.08.2022
612 Clouds 13 1014 64 10000 6.17 230 12:19 16.08.2022
613 Clouds 15 1012 56 10000 4.12 200 10:23 16.08.2022
614 Clouds 17 1009 47 10000 3.6 180 08:54 16.08.2022
615 Clear 17 1008 43 10000 6.17 240 08:21 16.08.2022
616 Clear 18 1008 40 10000 7.72 230 06:32 16.08.2022
617 Clouds 10 1010 75 10000 4.63 310 23:56 15.08.2022
618 Clear 8 1009 78 10000 3.09 300 22:24 15.08.2022
619 Clear 8 1008 80 10000 2.57 320 21:50 15.08.2022
620 Clear 9 1008 75 10000 2.57 330 20:32 15.08.2022
621 Clear 9 1008 76 10000 3.09 330 19:59 15.08.2022
622 Clear 10 1009 72 10000 4.12 330 17:59 15.08.2022
623 Rain 11 1009 70 10000 3.6 10 16:25 15.08.2022
624 Clear 11 1009 69 10000 4.63 330 15:52 15.08.2022
625 Clear 11 1009 68 10000 5.66 340 13:50 15.08.2022
626 Clouds 13 1008 59 10000 5.66 320 11:24 15.08.2022
627 Clear 14 1008 53 10000 6.69 300 09:40 15.08.2022
628 Clouds 17 1005 49 10000 2.68 268 07:44 15.08.2022
629 Clear 18 1006 43 10000 7.72 270 04:34 15.08.2022
630 Clear 12 1010 64 10000 4.63 340 00:33 15.08.2022
631 Clear 9 1007 69 10000 5.14 350 22:30 14.08.2022
632 Clear 9 1009 72 10000 4.12 330 21:37 14.08.2022
633 Clear 9 1008 72 10000 3.09 300 19:48 14.08.2022
634 Clear 10 1008 71 10000 4.12 350 18:57 14.08.2022
635 Clear 10 1008 71 10000 5.14 350 18:18 14.08.2022
636 Clear 10 1009 71 10000 5.14 350 16:52 14.08.2022
637 Clear 10 1009 70 10000 5.66 320 15:48 14.08.2022
638 Clear 11 1009 69 10000 6.69 330 14:24 14.08.2022
639 Clear 11 1009 69 10000 6.69 330 13:49 14.08.2022
640 Clear 11 1009 68 10000 5.66 330 13:19 14.08.2022
641 Clear 12 1009 65 10000 6.69 320 12:23 14.08.2022
642 Clear 13 1009 59 10000 3.13 265 10:49 14.08.2022
643 Clear 16 1005 51 10000 9.26 300 08:50 14.08.2022
644 Clear 17 1004 47 10000 9.26 300 06:22 14.08.2022
645 Clear 15 1008 55 10000 6.69 310 02:49 14.08.2022
646 Rain 11 1009 71 10000 4.63 310 23:53 13.08.2022
647 Clouds 10 1009 74 10000 4.12 310 22:52 13.08.2022
648 Clear 10 1008 74 10000 5.14 320 20:58 13.08.2022
649 Clear 10 1008 74 10000 5.66 320 20:33 13.08.2022
650 Clouds 10 1009 75 10000 2.24 282 19:44 13.08.2022
651 Rain 11 1010 73 10000 5.14 320 17:59 13.08.2022
652 Clear 10 1010 74 10000 4.63 310 15:31 13.08.2022
653 Clouds 10 1011 80 10000 1.79 306 14:28 13.08.2022
654 Clouds 10 1011 74 10000 0.89 319 13:40 13.08.2022
655 Clouds 12 1011 65 10000 2.57 300 11:53 13.08.2022
656 Clouds 14 1011 59 10000 7.2 280 10:31 13.08.2022
657 Clear 16 1008 53 10000 5.14 290 09:18 13.08.2022
658 Clear 17 1008 60 10000 7.72 260 05:57 13.08.2022
659 Clouds 12 1013 89 10000 3.6 290 00:29 13.08.2022
660 Rain 11 1013 91 10000 4.63 300 22:20 12.08.2022
661 Rain 12 1013 92 10000 3.6 350 20:58 12.08.2022
662 Rain 12 1014 92 9000 4.12 290 19:43 12.08.2022
663 Rain 12 1014 90 8000 4.63 260 18:52 12.08.2022
664 Rain 13 1014 89 10000 2.06 290 17:36 12.08.2022
665 Rain 13 1015 88 10000 4.12 350 16:24 12.08.2022
666 Clouds 13 1016 88 10000 0.89 20 14:47 12.08.2022
667 Clouds 13 1016 86 10000 1.79 0 12:57 12.08.2022
668 Clouds 14 1015 84 10000 1.34 340 11:19 12.08.2022
669 Rain 15 1014 79 10000 6.17 350 08:47 12.08.2022
670 Clouds 15 1014 78 10000 3.13 350 07:26 12.08.2022
671 Rain 14 1016 78 10000 2.68 350 03:41 12.08.2022
672 Rain 14 1017 77 10000 6.17 360 00:31 12.08.2022
673 Rain 13 1017 77 10000 4.63 360 23:40 11.08.2022
674 Rain 13 1017 79 10000 5.66 360 22:37 11.08.2022
675 Rain 13 1016 80 10000 1.79 335 21:47 11.08.2022
676 Rain 13 1016 80 10000 7.2 360 21:23 11.08.2022
677 Rain 13 1016 79 10000 6.17 360 20:30 11.08.2022
678 Rain 13 1017 79 10000 5.66 360 19:33 11.08.2022
679 Rain 13 1019 81 10000 5.14 350 18:41 11.08.2022
680 Rain 14 1017 75 10000 2.68 343 16:42 11.08.2022
681 Rain 14 1018 77 10000 0.89 309 15:42 11.08.2022
682 Clouds 14 1018 77 10000 0.89 314 15:42 11.08.2022
683 Rain 14 1018 78 10000 1.79 354 14:20 11.08.2022
684 Clouds 14 1019 75 10000 4.63 340 11:51 11.08.2022
685 Clouds 16 1018 70 10000 2.24 345 08:48 11.08.2022
686 Clear 16 1019 68 10000 7.2 10 05:44 11.08.2022
687 Rain 13 1023 83 10000 2.06 310 02:26 11.08.2022
688 Clouds 9 1025 91 10000 2.57 300 22:55 10.08.2022
689 Clear 8 1025 92 10000 2.06 320 21:46 10.08.2022
690 Clear 8 1025 92 10000 3.09 300 20:56 10.08.2022
691 Clouds 9 1025 90 10000 3.6 360 20:24 10.08.2022
692 Clouds 9 1026 89 10000 2.57 350 18:46 10.08.2022
693 Clouds 9 1026 89 10000 2.57 330 17:26 10.08.2022
694 Clouds 10 1027 89 10000 2.06 270 14:36 10.08.2022
695 Clouds 10 1027 88 10000 2.57 290 13:32 10.08.2022
696 Clouds 12 1027 83 10000 0.51 80 10:47 10.08.2022
697 Clouds 14 1025 77 10000 3.09 140 08:37 10.08.2022
698 Rain 15 1025 74 10000 3.6 150 07:23 10.08.2022
699 Clouds 16 1026 74 10000 7.2 180 04:50 10.08.2022
700 Clouds 12 1028 79 10000 3.6 280 01:33 10.08.2022
701 Clouds 9 1028 87 10000 4.12 280 23:31 09.08.2022
702 Rain 9 1027 89 10000 5.14 260 21:58 09.08.2022
703 Rain 9 1027 89 10000 3.6 300 21:23 09.08.2022
704 Rain 10 1026 91 10000 6.69 250 19:28 09.08.2022
705 Rain 10 1027 91 10000 4.63 260 17:39 09.08.2022
706 Rain 10 1027 91 10000 4.63 260 17:21 09.08.2022
707 Rain 10 1027 91 10000 5.66 240 16:30 09.08.2022
708 Rain 10 1027 90 10000 1.34 237 15:26 09.08.2022
709 Rain 12 1026 80 10000 8.23 220 11:49 09.08.2022
710 Clouds 14 1023 72 10000 10.29 200 08:54 09.08.2022
711 Clouds 15 1022 68 10000 8.75 200 07:59 09.08.2022
712 Clouds 15 1022 68 10000 9.77 200 06:55 09.08.2022
713 Clouds 12 1023 74 10000 8.75 200 01:57 09.08.2022
714 Clouds 9 1022 81 10000 7.72 210 23:26 08.08.2022
715 Drizzle 8 1022 81 10000 4.63 250 22:52 08.08.2022
716 Rain 8 1021 79 10000 3.6 310 21:47 08.08.2022
717 Rain 8 1022 79 10000 6.17 250 20:43 08.08.2022
718 Clouds 8 1022 78 10000 5.66 250 19:41 08.08.2022
719 Clouds 9 1021 77 10000 1.79 269 18:19 08.08.2022
720 Clouds 9 1023 77 10000 5.66 280 15:57 08.08.2022
721 Clouds 9 1023 77 10000 5.14 300 15:38 08.08.2022
722 Clouds 11 1023 75 10000 7.2 220 12:35 08.08.2022
723 Clear 12 1022 71 10000 8.75 180 11:32 08.08.2022
724 Clouds 15 1019 65 10000 9.26 170 08:26 08.08.2022
725 Clouds 17 1020 58 10000 7.72 180 05:33 08.08.2022
726 Clouds 13 1021 68 10000 5.66 260 01:47 08.08.2022
727 Clouds 9 1019 82 10000 3.6 290 21:51 07.08.2022
728 Clouds 8 1021 82 10000 4.12 260 21:32 07.08.2022
729 Clouds 8 1020 82 10000 4.63 250 20:25 07.08.2022
730 Clouds 9 1019 80 10000 4.63 250 19:53 07.08.2022
731 Clouds 9 1020 80 10000 5.14 250 19:29 07.08.2022
732 Rain 9 1020 81 10000 4.63 250 17:59 07.08.2022
733 Rain 9 1020 81 10000 5.14 240 16:53 07.08.2022
734 Rain 10 1020 79 10000 7.2 210 15:49 07.08.2022
735 Rain 11 1020 74 10000 7.72 200 14:34 07.08.2022
736 Rain 12 1019 71 10000 6.69 220 12:51 07.08.2022
737 Clouds 13 1018 69 10000 0.89 189 10:57 07.08.2022
738 Clouds 13 1017 68 10000 7.72 190 10:21 07.08.2022
739 Clouds 17 1014 53 10000 1.79 217 04:42 07.08.2022
740 Clouds 16 1014 54 10000 4.63 190 03:18 07.08.2022
741 Clouds 9 1015 76 10000 4.63 290 23:29 06.08.2022
742 Clear 10 1014 74 10000 3.6 290 22:20 06.08.2022
743 Clear 10 1013 72 10000 3.6 290 20:20 06.08.2022
744 Clear 10 1012 72 10000 4.63 290 19:38 06.08.2022
745 Clear 10 1013 70 10000 3.6 290 18:22 06.08.2022
746 Clear 11 1013 63 10000 4.12 300 16:40 06.08.2022
747 Clear 12 1012 61 10000 4.12 280 14:31 06.08.2022
748 Clear 13 1012 58 10000 4.63 270 13:39 06.08.2022
749 Clouds 14 1011 53 10000 7.2 260 11:24 06.08.2022
750 Clear 16 1009 45 10000 6.17 260 09:50 06.08.2022
751 Clear 18 1006 40 10000 7.72 270 07:51 06.08.2022
752 Clear 18 1006 41 10000 7.2 270 03:35 06.08.2022
753 Clear 12 1008 70 10000 3.09 290 23:32 05.08.2022
754 Clear 12 1007 69 10000 5.14 310 21:54 05.08.2022
755 Clear 14 1006 63 10000 2.68 281 19:32 05.08.2022
756 Clear 14 1006 65 10000 5.14 350 18:44 05.08.2022
757 Clear 14 1006 61 10000 4.63 330 17:27 05.08.2022
758 Clear 14 1006 57 10000 5.66 330 16:48 05.08.2022
759 Clear 15 1006 54 10000 4.63 340 15:21 05.08.2022
760 Clear 16 1004 50 10000 4.12 330 13:59 05.08.2022
761 Clear 16 1006 48 10000 3.6 320 13:23 05.08.2022
762 Clear 17 1003 45 10000 8.75 310 12:28 05.08.2022
763 Clear 18 1003 45 10000 10.29 300 10:49 05.08.2022
764 Clear 22 1001 41 10000 8.23 290 08:25 05.08.2022
765 Clear 22 1000 44 10000 7.2 290 06:41 05.08.2022
766 Clouds 16 1003 78 10000 3.09 290 00:34 05.08.2022
767 Clear 15 1005 85 10000 1.79 282 22:31 04.08.2022
768 Clear 16 1004 85 10000 2.57 360 21:27 04.08.2022
769 Clear 16 1004 84 10000 3.6 310 20:43 04.08.2022
770 Clear 16 1003 85 10000 4.12 320 19:46 04.08.2022
771 Clear 17 1002 83 10000 3.09 290 18:37 04.08.2022
772 Clear 17 1002 82 10000 4.63 330 18:18 04.08.2022
773 Rain 17 1001 82 10000 6.69 350 14:38 04.08.2022
774 Rain 17 1002 82 10000 8.75 360 13:18 04.08.2022
775 Rain 17 1004 86 10000 11.32 10 11:20 04.08.2022
776 Rain 20 1003 66 10000 1.34 321 07:55 04.08.2022
777 Rain 21 1003 63 10000 5.14 350 06:41 04.08.2022
778 Clouds 20 1007 66 10000 8.23 330 02:35 04.08.2022
779 Rain 19 1008 69 10000 3.6 340 23:46 03.08.2022
780 Rain 19 1008 69 10000 3.6 340 23:27 03.08.2022
781 Clear 19 1007 71 10000 4.12 360 20:57 03.08.2022
782 Clear 17 1008 74 10000 5.14 10 19:54 03.08.2022
783 Clear 17 1008 76 10000 3.6 10 18:40 03.08.2022
784 Clear 18 1010 71 10000 6.17 20 16:27 03.08.2022
785 Clear 18 1010 70 10000 5.14 30 15:47 03.08.2022
786 Clear 18 1010 66 10000 8.23 10 13:32 03.08.2022
787 Clear 20 1008 64 10000 6.69 30 09:55 03.08.2022
788 Clear 23 1011 50 10000 7.72 350 06:46 03.08.2022
789 Clear 21 1012 54 10000 9.26 330 04:22 03.08.2022
790 Clear 16 1012 62 10000 8.23 350 03:22 03.08.2022
791 Clear 13 1014 65 10000 4.12 10 23:54 02.08.2022
792 Clear 11 1014 67 10000 5.14 350 22:33 02.08.2022
793 Clear 11 1014 67 10000 5.66 360 21:50 02.08.2022
794 Clear 11 1015 66 10000 4.63 350 20:27 02.08.2022
795 Clear 11 1017 65 10000 3.09 300 16:52 02.08.2022
796 Clear 12 1017 62 10000 3.09 310 14:33 02.08.2022
797 Clouds 12 1018 70 10000 0.45 21 10:49 02.08.2022
798 Clear 17 1015 53 10000 6.17 20 08:38 02.08.2022
799 Clear 19 1014 41 10000 2.57 290 07:51 02.08.2022
800 Clear 18 1016 39 10000 5.14 290 04:57 02.08.2022
801 Clear 16 1019 45 10000 6.17 300 03:30 02.08.2022
802 Clear 7 1020 75 10000 3.6 330 23:32 01.08.2022
803 Clear 7 1019 74 10000 3.6 340 21:54 01.08.2022
804 Clear 7 1018 76 10000 4.63 290 20:34 01.08.2022
805 Clear 7 1018 73 10000 1.79 265 19:22 01.08.2022
806 Clear 8 1018 71 10000 4.12 290 17:22 01.08.2022
807 Clear 8 1019 71 10000 4.12 290 16:49 01.08.2022
808 Clear 9 1018 66 10000 3.09 270 15:48 01.08.2022
809 Clear 10 1018 63 10000 3.09 270 15:28 01.08.2022
810 Clear 12 1018 54 10000 4.12 270 13:44 01.08.2022
811 Clear 14 1017 46 10000 5.36 261 11:49 01.08.2022
812 Clear 16 1014 43 10000 1.34 289 09:38 01.08.2022
813 Clear 19 1014 37 10000 6.17 290 08:20 01.08.2022
814 Clear 19 1014 55 10000 6.69 320 04:44 01.08.2022
815 Clear 16 1015 66 10000 7.72 350 02:31 01.08.2022
816 Rain 13 1015 71 10000 7.72 350 23:42 31.07.2022
817 Clear 14 1014 65 10000 7.2 350 22:36 31.07.2022
818 Clear 13 1013 65 10000 8.23 360 20:49 31.07.2022
819 Clear 13 1014 62 10000 6.69 360 19:40 31.07.2022
820 Rain 13 1015 62 10000 2.24 308 17:44 31.07.2022
821 Clouds 14 1018 62 10000 1.79 323 15:30 31.07.2022
822 Clear 14 1018 61 10000 4.63 360 13:31 31.07.2022
823 Rain 15 1019 59 10000 4.63 30 11:52 31.07.2022
824 Rain 16 1018 57 10000 5.14 10 09:28 31.07.2022
825 Clear 17 1019 53 10000 6.69 10 06:43 31.07.2022
826 Clouds 13 1023 67 10000 3.09 310 02:57 31.07.2022
827 Rain 7 1025 86 10000 3.09 300 23:35 30.07.2022
828 Clouds 7 1025 84 10000 4.12 310 22:19 30.07.2022
829 Clear 7 1025 85 10000 3.6 320 21:48 30.07.2022
830 Clear 7 1024 83 10000 3.09 320 20:56 30.07.2022
831 Clear 8 1025 84 10000 3.6 310 19:58 30.07.2022
832 Clear 7 1025 84 10000 3.09 350 18:53 30.07.2022
833 Clear 7 1026 84 10000 2.57 310 17:42 30.07.2022
834 Clear 9 1026 78 10000 3.09 320 15:50 30.07.2022
835 Clear 9 1026 78 10000 3.09 320 15:22 30.07.2022
836 Clear 10 1026 74 10000 2.57 30 12:59 30.07.2022
837 Clear 10 1026 73 10000 3.09 20 11:55 30.07.2022
838 Clear 11 1026 70 10000 3.09 40 10:31 30.07.2022
839 Clear 12 1026 67 10000 3.6 40 09:54 30.07.2022
840 Clouds 15 1024 54 10000 3.6 120 07:55 30.07.2022
841 Clouds 13 1028 59 10000 3.6 270 02:57 30.07.2022
842 Clouds 12 1028 61 10000 3.09 300 02:24 30.07.2022
843 Clouds 6 1026 72 10000 0.89 94 22:41 29.07.2022
844 Clouds 6 1027 74 10000 3.6 320 21:24 29.07.2022
845 Clouds 6 1027 75 10000 4.12 320 20:39 29.07.2022
846 Clouds 8 1025 72 10000 5.14 250 18:18 29.07.2022
847 Rain 10 1025 66 10000 6.17 190 15:38 29.07.2022
848 Clouds 10 1026 68 10000 7.2 220 13:37 29.07.2022
849 Clouds 11 1025 63 10000 6.69 180 11:28 29.07.2022
850 Clouds 13 1022 51 10000 9.77 160 08:50 29.07.2022
851 Clouds 14 1022 48 10000 9.77 170 08:20 29.07.2022
852 Clouds 13 1024 56 10000 5.14 240 02:29 29.07.2022
853 Clouds 9 1023 72 10000 7.2 240 23:18 28.07.2022
854 Clouds 10 1022 74 10000 5.66 260 21:29 28.07.2022
855 Clouds 10 1021 76 10000 5.14 230 20:34 28.07.2022
856 Clouds 11 1021 73 10000 1.79 268 19:44 28.07.2022
857 Clouds 11 1020 70 10000 5.66 270 19:25 28.07.2022
858 Clouds 13 1020 69 10000 3.6 280 17:44 28.07.2022
859 Clouds 13 1021 69 10000 3.09 250 16:59 28.07.2022
860 Clouds 13 1022 70 10000 4.12 240 16:39 28.07.2022
861 Clear 13 1023 67 10000 5.14 250 13:47 28.07.2022
862 Clouds 14 1022 62 10000 7.2 250 11:43 28.07.2022
863 Clear 19 1019 47 10000 3.09 120 07:33 28.07.2022
864 Clear 19 1021 47 10000 3.6 270 05:37 28.07.2022
865 Clear 19 1020 49 10000 3.6 250 05:18 28.07.2022
866 Clouds 9 1021 74 10000 3.09 300 23:19 27.07.2022
867 Clear 9 1020 75 10000 2.57 320 21:30 27.07.2022
868 Clear 9 1019 74 10000 3.09 300 19:46 27.07.2022
869 Clear 9 1020 73 10000 3.6 330 18:49 27.07.2022
870 Clear 10 1020 70 10000 3.6 310 16:31 27.07.2022
871 Clear 10 1020 69 10000 3.09 320 15:51 27.07.2022
872 Clear 10 1020 67 10000 3.6 320 14:41 27.07.2022
873 Clear 11 1020 64 10000 5.66 240 13:34 27.07.2022
874 Clouds 15 1016 53 10000 1.34 271 09:28 27.07.2022
875 Clear 17 1015 46 10000 6.17 170 07:40 27.07.2022
876 Clear 16 1015 48 10000 8.75 250 03:57 27.07.2022
877 Clouds 8 1013 69 10000 7.72 250 22:49 26.07.2022
878 Clear 9 1012 68 10000 5.66 250 21:36 26.07.2022
879 Clear 9 1012 70 10000 5.66 270 20:49 26.07.2022
880 Clear 9 1013 70 10000 3.6 280 19:20 26.07.2022
881 Clear 9 1013 70 10000 5.66 270 18:39 26.07.2022
882 Clear 10 1012 67 10000 7.72 270 17:47 26.07.2022
883 Clear 10 1013 65 10000 7.2 260 15:43 26.07.2022
884 Clear 11 1013 62 10000 7.72 250 14:38 26.07.2022
885 Clear 12 1011 61 10000 8.23 250 12:25 26.07.2022
886 Clouds 12 1010 57 10000 11.32 270 09:59 26.07.2022
887 Clouds 15 1009 53 10000 10.29 260 08:23 26.07.2022
888 Clouds 14 1009 90 10000 2.57 270 01:52 26.07.2022
889 Clouds 14 1009 89 10000 2.57 270 01:52 26.07.2022
890 Drizzle 12 1011 93 10000 4.12 340 00:19 26.07.2022
891 Rain 11 1012 93 8000 4.63 360 22:40 25.07.2022
892 Rain 11 1011 93 8000 4.63 360 22:40 25.07.2022
893 Rain 11 1012 92 10000 3.6 320 21:43 25.07.2022
894 Rain 11 1012 92 10000 2.57 310 20:43 25.07.2022
895 Rain 11 1012 91 10000 2.57 310 20:24 25.07.2022
896 Rain 11 1012 88 10000 2.57 310 19:24 25.07.2022
897 Clear 11 1013 88 10000 2.57 360 17:42 25.07.2022
898 Rain 11 1014 86 10000 2.57 20 16:44 25.07.2022
899 Clear 13 1016 85 10000 4.63 20 13:22 25.07.2022
900 Clouds 14 1016 84 10000 3.6 30 10:54 25.07.2022
901 Clouds 17 1014 71 10000 5.66 50 07:53 25.07.2022
902 Clouds 11 1021 92 10000 4.12 310 00:57 25.07.2022
903 Fog 8 1021 92 9000 3.09 330 23:45 24.07.2022
904 Fog 8 1020 93 10000 3.09 330 22:44 24.07.2022
905 Fog 8 1020 94 3000 3.6 330 21:42 24.07.2022
906 Fog 9 1020 92 5000 3.6 350 20:59 24.07.2022
907 Fog 9 1020 91 6000 4.12 350 20:41 24.07.2022
908 Clear 9 1020 92 10000 3.6 340 19:20 24.07.2022
909 Clear 9 1021 92 10000 3.6 350 17:57 24.07.2022
910 Clear 10 1021 89 10000 2.06 310 15:55 24.07.2022
911 Clear 11 1020 88 10000 1.54 310 14:57 24.07.2022
912 Clear 11 1021 89 10000 2.57 240 13:50 24.07.2022
913 Clear 12 1021 87 10000 0.89 94 12:28 24.07.2022
914 Clear 13 1022 87 10000 1.54 20 11:31 24.07.2022
915 Clouds 14 1020 82 10000 2.06 60 09:55 24.07.2022
916 Clouds 17 1019 74 10000 3.6 130 08:22 24.07.2022
917 Clouds 17 1019 71 10000 4.12 130 07:41 24.07.2022
918 Clouds 16 1022 78 10000 3.09 290 03:35 24.07.2022
919 Clouds 9 1023 93 10000 3.09 330 23:36 23.07.2022
920 Clouds 10 1022 94 10000 3.6 310 20:49 23.07.2022
921 Clouds 10 1022 94 10000 3.6 330 19:31 23.07.2022
922 Clouds 10 1023 93 10000 2.57 280 18:49 23.07.2022
923 Clouds 11 1023 93 10000 3.09 320 17:28 23.07.2022
924 Clouds 11 1023 94 10000 3.09 300 16:30 23.07.2022
925 Clouds 11 1023 94 10000 4.12 300 15:22 23.07.2022
926 Clouds 11 1023 94 10000 3.09 310 14:56 23.07.2022
927 Clouds 12 1023 93 10000 3.6 30 14:24 23.07.2022
928 Clouds 12 1023 93 10000 3.6 30 14:24 23.07.2022
929 Clouds 12 1023 93 10000 3.6 230 12:22 23.07.2022
930 Clouds 13 1023 92 10000 4.12 220 10:45 23.07.2022
931 Clouds 13 1024 91 10000 3.09 160 09:54 23.07.2022
932 Clouds 15 1022 90 10000 2.57 170 08:30 23.07.2022
933 Rain 14 1024 92 8000 2.06 240 03:38 23.07.2022
934 Rain 12 1025 93 7000 3.6 270 00:41 23.07.2022
935 Rain 11 1023 91 10000 3.09 200 22:19 22.07.2022
936 Clouds 12 1023 88 10000 3.6 110 20:51 22.07.2022
937 Clouds 12 1023 88 10000 6.17 100 19:34 22.07.2022
938 Rain 12 1023 87 10000 1.34 302 18:28 22.07.2022
939 Clouds 12 1025 91 10000 2.24 298 16:48 22.07.2022
940 Rain 12 1026 91 10000 0.45 268 14:40 22.07.2022
941 Rain 14 1026 85 10000 6.17 100 11:22 22.07.2022
942 Clouds 14 1026 83 10000 6.69 100 09:25 22.07.2022
943 Rain 14 1026 85 10000 8.75 110 08:29 22.07.2022
944 Rain 16 1028 73 10000 8.75 100 05:18 22.07.2022
945 Rain 14 1029 84 9000 6.17 40 00:48 22.07.2022
946 Rain 12 1029 88 10000 6.69 90 22:25 21.07.2022
947 Rain 12 1028 89 10000 2.24 283 21:29 21.07.2022
948 Rain 13 1029 85 10000 3.13 146 19:26 21.07.2022
949 Rain 13 1029 83 10000 2.24 147 17:41 21.07.2022
950 Rain 13 1029 85 8000 3.09 110 17:19 21.07.2022
951 Rain 14 1030 74 10000 7.72 100 14:55 21.07.2022
952 Clouds 14 1030 77 10000 8.75 100 14:31 21.07.2022
953 Rain 14 1030 77 10000 8.75 90 12:28 21.07.2022
954 Rain 14 1030 78 10000 7.72 110 11:19 21.07.2022
955 Rain 13 1031 89 10000 3.13 95 09:33 21.07.2022
956 Rain 13 1030 86 10000 5.66 80 08:50 21.07.2022
957 Rain 14 1029 86 10000 6.69 90 07:50 21.07.2022
958 Rain 14 1029 86 10000 7.2 90 05:47 21.07.2022
959 Rain 12 1032 89 10000 7.05 112 00:43 21.07.2022
960 Rain 11 1031 87 10000 3.6 80 22:22 20.07.2022
961 Clouds 11 1029 80 10000 4.63 100 20:56 20.07.2022
962 Clouds 11 1029 84 10000 4.12 100 19:53 20.07.2022
963 Clouds 11 1029 85 10000 4.12 70 19:25 20.07.2022
964 Clouds 11 1029 88 10000 6.17 70 18:51 20.07.2022
965 Clouds 11 1029 89 10000 6.17 70 18:22 20.07.2022
966 Clouds 11 1030 91 10000 3.6 280 16:45 20.07.2022
967 Clouds 11 1031 91 10000 3.6 290 15:32 20.07.2022
968 Clouds 11 1032 92 10000 1.03 330 14:20 20.07.2022
969 Clouds 12 1030 91 10000 2.06 350 11:37 20.07.2022
970 Rain 12 1029 90 10000 5.14 220 09:43 20.07.2022
971 Clouds 13 1030 87 10000 3.6 220 04:36 20.07.2022
972 Drizzle 10 1030 93 10000 4.63 230 00:52 20.07.2022
973 Rain 9 1029 93 10000 2.57 180 23:41 19.07.2022
974 Rain 9 1028 94 10000 4.63 250 22:33 19.07.2022
975 Clouds 9 1027 93 10000 0.45 71 21:46 19.07.2022
976 Clouds 9 1026 91 10000 3.6 250 20:48 19.07.2022
977 Clouds 9 1027 91 10000 5.14 230 19:21 19.07.2022
978 Clouds 9 1026 91 10000 0.89 315 18:31 19.07.2022
979 Rain 9 1026 91 10000 0.45 6 17:49 19.07.2022
980 Rain 10 1028 91 10000 0.45 314 14:58 19.07.2022
981 Clouds 10 1029 91 10000 5.14 250 12:27 19.07.2022
982 Rain 10 1029 90 10000 4.12 280 11:31 19.07.2022
983 Rain 11 1027 89 10000 6.69 120 09:51 19.07.2022
984 Rain 11 1027 90 4000 7.72 160 08:42 19.07.2022
985 Rain 11 1026 89 4000 9.26 190 07:19 19.07.2022
986 Rain 12 1025 85 5000 11.32 190 05:50 19.07.2022
987 Rain 13 1026 79 9000 11.32 190 05:18 19.07.2022
988 Drizzle 12 1026 69 10000 9.77 200 02:37 19.07.2022
989 Clouds 8 1026 68 10000 6.69 240 23:54 18.07.2022
990 Clouds 8 1025 70 10000 6.69 250 23:20 18.07.2022
991 Clouds 8 1025 72 10000 8.75 210 22:26 18.07.2022
992 Clouds 9 1025 75 10000 9.77 200 21:20 18.07.2022
993 Clouds 9 1023 76 10000 9.77 200 20:34 18.07.2022
994 Rain 10 1022 74 10000 6.69 230 18:32 18.07.2022
995 Rain 9 1022 69 10000 9.77 200 16:34 18.07.2022
996 Rain 9 1022 60 10000 5.14 230 15:28 18.07.2022
997 Clear 9 1021 58 10000 5.14 260 13:32 18.07.2022
998 Clouds 10 1021 55 10000 6.69 260 11:44 18.07.2022
999 Clear 11 1020 51 10000 4.63 270 09:55 18.07.2022
1000 Clear 14 1017 42 10000 5.66 250 08:19 18.07.2022
1001 Clear 15 1016 45 10000 8.75 250 05:35 18.07.2022
1002 Clear 10 1014 68 10000 3.09 290 23:19 17.07.2022
1003 Clear 11 1014 67 10000 3.13 276 22:32 17.07.2022
1004 Clear 11 1013 67 10000 4.12 290 21:40 17.07.2022
1005 Clouds 12 1011 63 10000 4.63 250 20:46 17.07.2022
1006 Clouds 12 1013 60 10000 4.63 250 20:18 17.07.2022
1007 Clear 13 1011 57 10000 6.17 240 19:25 17.07.2022
1008 Clear 13 1010 61 10000 5.36 259 17:55 17.07.2022
1009 Clear 12 1012 64 10000 4.63 340 17:36 17.07.2022
1010 Clear 13 1012 61 10000 4.63 360 16:49 17.07.2022
1011 Clear 14 1010 58 10000 4.63 360 16:24 17.07.2022
1012 Clear 14 1010 52 10000 2.68 341 13:58 17.07.2022
1013 Clear 14 1012 52 10000 3.6 360 13:24 17.07.2022
1014 Clear 17 1010 37 10000 5.66 320 10:23 17.07.2022
1015 Clear 19 1010 33 10000 9.77 310 08:38 17.07.2022
1016 Clear 18 1014 48 10000 6.69 360 02:43 17.07.2022
1017 Clear 14 1015 56 10000 8.75 350 00:41 17.07.2022
1018 Clear 12 1015 59 10000 7.72 350 23:19 16.07.2022
1019 Clear 11 1015 61 10000 5.14 360 20:59 16.07.2022
1020 Clear 11 1017 60 10000 6.69 350 18:59 16.07.2022
1021 Clear 11 1017 61 10000 7.72 350 17:53 16.07.2022
1022 Clear 11 1017 65 10000 6.17 340 16:24 16.07.2022
1023 Clear 12 1018 55 10000 5.66 330 13:47 16.07.2022
1024 Clouds 12 1019 64 10000 3.09 320 10:40 16.07.2022
1025 Clear 13 1019 65 10000 2.57 330 09:30 16.07.2022
1026 Clear 14 1019 59 10000 2.06 360 08:42 16.07.2022
1027 Clear 15 1019 57 10000 3.09 300 07:51 16.07.2022
1028 Clear 12 1022 64 10000 4.12 300 03:40 16.07.2022
1029 Clear 10 1023 73 10000 5.14 300 02:35 16.07.2022
1030 Clear 5 1025 83 10000 4.63 310 23:28 15.07.2022
1031 Clear 4 1024 81 10000 3.6 330 22:38 15.07.2022
1032 Clear 5 1025 84 10000 3.6 350 21:24 15.07.2022
1033 Clear 6 1025 85 10000 4.12 310 19:59 15.07.2022
1034 Clear 6 1025 84 10000 4.63 320 18:37 15.07.2022
1035 Clear 7 1024 80 10000 4.12 310 17:36 15.07.2022
1036 Clear 8 1026 75 10000 2.57 280 14:48 15.07.2022
1037 Clear 9 1026 73 10000 0.45 315 12:57 15.07.2022
1038 Clear 10 1023 68 10000 2.06 10 11:20 15.07.2022
1039 Clear 13 1024 61 10000 1.34 309 09:21 15.07.2022
1040 Clouds 16 1026 53 10000 3.6 290 05:56 15.07.2022
1041 Clouds 8 1027 77 10000 5.14 290 00:53 15.07.2022
1042 Clouds 7 1027 79 10000 4.12 330 00:21 15.07.2022
1043 Clear 6 1025 80 10000 2.57 320 22:45 14.07.2022
1044 Clear 6 1025 80 10000 3.6 320 21:46 14.07.2022
1045 Clear 6 1025 80 10000 3.6 320 21:28 14.07.2022
1046 Clear 7 1025 80 10000 3.6 320 20:44 14.07.2022
1047 Clear 7 1025 80 10000 4.12 320 20:20 14.07.2022
1048 Clear 7 1025 80 10000 3.6 310 19:18 14.07.2022
1049 Clear 8 1025 77 10000 3.6 340 16:23 14.07.2022
1050 Clear 8 1025 74 10000 4.12 270 15:32 14.07.2022
1051 Clear 9 1024 71 10000 4.12 240 13:59 14.07.2022
1052 Clear 10 1024 70 10000 6.69 200 12:58 14.07.2022
1053 Clouds 11 1024 67 10000 6.69 230 11:54 14.07.2022
1054 Clouds 11 1023 65 10000 8.23 220 11:23 14.07.2022
1055 Clouds 12 1023 66 10000 9.26 230 10:24 14.07.2022
1056 Clouds 14 1021 68 10000 11.32 200 07:50 14.07.2022
1057 Rain 10 1018 87 8000 11.32 210 01:27 14.07.2022
1058 Rain 10 1018 83 4000 10.29 210 00:54 14.07.2022
1059 Rain 9 1017 79 10000 0.89 252 22:57 13.07.2022
1060 Rain 9 1017 76 10000 9.77 210 22:22 13.07.2022
1061 Rain 9 1016 77 10000 9.26 220 21:19 13.07.2022
1062 Rain 9 1016 80 10000 7.2 190 20:23 13.07.2022
1063 Rain 10 1015 79 10000 9.26 210 17:54 13.07.2022
1064 Rain 10 1015 77 10000 10.8 220 16:47 13.07.2022
1065 Rain 10 1015 76 10000 6.69 240 15:51 13.07.2022
1066 Rain 10 1014 86 10000 4.12 250 13:24 13.07.2022
1067 Rain 12 1013 70 10000 9.26 190 10:47 13.07.2022
1068 Rain 12 1012 66 10000 9.77 210 10:28 13.07.2022
1069 Rain 13 1011 65 10000 9.26 220 09:28 13.07.2022
1070 Rain 14 1011 60 10000 9.77 200 07:53 13.07.2022
1071 Clouds 14 1012 63 10000 9.77 210 03:34 13.07.2022
1072 Clouds 9 1012 73 10000 8.75 250 00:24 13.07.2022
1073 Clouds 8 1011 79 10000 6.69 240 22:19 12.07.2022
1074 Clouds 8 1011 79 10000 6.69 240 21:45 12.07.2022
1075 Clouds 8 1011 81 10000 5.66 250 20:44 12.07.2022
1076 Clouds 8 1012 83 10000 3.09 270 19:45 12.07.2022
1077 Clouds 9 1013 82 10000 5.66 270 18:35 12.07.2022
1078 Clouds 10 1014 81 10000 4.63 300 16:24 12.07.2022
1079 Clouds 11 1014 77 10000 3.6 290 14:31 12.07.2022
1080 Clouds 10 1015 78 10000 2.11 272 13:35 12.07.2022
1081 Clouds 11 1014 74 10000 2.06 270 11:54 12.07.2022
1082 Clouds 12 1013 71 10000 0.89 250 10:26 12.07.2022
1083 Clear 14 1012 63 10000 0.45 313 08:57 12.07.2022
1084 Rain 16 1013 53 10000 2.06 270 07:48 12.07.2022
1085 Clouds 16 1014 61 10000 3.09 280 05:45 12.07.2022
1086 Clouds 15 1014 65 10000 3.6 300 04:57 12.07.2022
1087 Clouds 10 1018 89 10000 3.6 310 01:31 12.07.2022
1088 Clouds 8 1018 92 10000 4.12 330 22:43 11.07.2022
1089 Clouds 8 1017 92 10000 3.6 320 21:34 11.07.2022
1090 Clouds 8 1017 91 10000 3.6 320 20:32 11.07.2022
1091 Clouds 9 1016 92 10000 3.09 350 19:27 11.07.2022
1092 Clouds 9 1017 92 10000 3.09 340 18:29 11.07.2022
1093 Clouds 10 1018 91 10000 2.57 340 16:31 11.07.2022
1094 Clouds 10 1019 91 10000 3.6 300 15:28 11.07.2022
1095 Clouds 10 1020 90 10000 2.57 280 13:26 11.07.2022
1096 Clouds 11 1021 90 10000 0.45 276 11:24 11.07.2022
1097 Clouds 11 1021 90 10000 0.45 276 11:24 11.07.2022
1098 Clouds 12 1020 89 10000 0.45 278 10:18 11.07.2022
1099 Clouds 12 1020 87 10000 3.6 160 09:40 11.07.2022
1100 Clouds 13 1020 85 10000 4.12 160 08:33 11.07.2022
1101 Rain 12 1024 80 10000 3.6 320 02:59 11.07.2022
1102 Rain 10 1025 82 10000 4.12 310 00:18 11.07.2022
1103 Rain 10 1025 83 10000 4.12 290 22:55 10.07.2022
1104 Rain 10 1024 85 10000 4.12 280 21:39 10.07.2022
1105 Rain 10 1023 84 5000 5.66 240 20:41 10.07.2022
1106 Rain 11 1023 84 10000 4.63 170 19:48 10.07.2022
1107 Rain 11 1024 86 8000 4.63 220 18:48 10.07.2022
1108 Rain 11 1023 82 10000 6.17 230 17:37 10.07.2022
1109 Rain 11 1023 80 10000 5.31 168 16:45 10.07.2022
1110 Clouds 11 1023 82 10000 6.17 250 15:25 10.07.2022
1111 Rain 11 1025 81 10000 4.63 240 14:21 10.07.2022
1112 Rain 12 1024 81 10000 3.6 210 12:28 10.07.2022
1113 Rain 12 1023 81 6000 8.75 200 10:20 10.07.2022
1114 Rain 13 1023 74 10000 10.8 190 08:45 10.07.2022
1115 Rain 13 1023 74 10000 10.8 190 08:45 10.07.2022
1116 Rain 13 1022 74 10000 7.72 150 07:30 10.07.2022
1117 Rain 13 1022 84 6000 11.83 150 02:47 10.07.2022
1118 Rain 11 1020 80 5000 8.75 180 22:51 09.07.2022
1119 Rain 10 1020 82 3948 1.79 258 22:24 09.07.2022
1120 Rain 10 1019 80 6000 9.26 210 20:50 09.07.2022
1121 Rain 9 1018 68 10000 5.66 240 18:43 09.07.2022
1122 Rain 9 1018 66 10000 6.69 250 17:45 09.07.2022
1123 Clouds 9 1018 66 10000 7.2 250 16:58 09.07.2022
1124 Clouds 9 1018 66 10000 7.2 250 15:42 09.07.2022
1125 Clouds 9 1020 65 10000 6.69 250 14:44 09.07.2022
1126 Clouds 9 1020 65 10000 5.66 250 13:51 09.07.2022
1127 Clouds 10 1019 64 10000 5.66 230 12:53 09.07.2022
1128 Clouds 10 1018 61 10000 4.63 240 11:33 09.07.2022
1129 Clear 12 1017 61 10000 4.63 200 10:23 09.07.2022
1130 Clouds 15 1016 56 10000 7.2 180 07:54 09.07.2022
1131 Clear 16 1015 51 10000 1.34 4 06:58 09.07.2022
1132 Clouds 15 1016 52 10000 5.66 260 04:34 09.07.2022
1133 Clouds 8 1014 67 10000 5.14 250 23:22 08.07.2022
1134 Clear 8 1014 67 10000 5.14 250 21:59 08.07.2022
1135 Clear 8 1014 66 10000 6.17 250 21:18 08.07.2022
1136 Clear 9 1013 67 10000 5.14 250 20:30 08.07.2022
1137 Clear 9 1012 64 10000 4.63 270 18:33 08.07.2022
1138 Clear 9 1012 63 10000 5.66 270 17:33 08.07.2022
1139 Clear 9 1012 63 10000 5.66 270 17:33 08.07.2022
1140 Clear 10 1012 63 10000 7.72 270 15:30 08.07.2022
1141 Clear 10 1013 61 10000 9.26 270 14:49 08.07.2022
1142 Clear 10 1011 60 10000 8.23 270 12:28 08.07.2022
1143 Clear 11 1011 58 10000 6.69 270 10:45 08.07.2022
1144 Clear 13 1009 54 10000 8.75 260 08:55 08.07.2022
1145 Clear 15 1008 50 10000 12.86 270 06:55 08.07.2022
1146 Clear 15 1009 51 10000 9.77 270 04:31 08.07.2022
1147 Clear 8 1012 67 10000 4.63 300 00:23 08.07.2022
1148 Clouds 7 1010 71 10000 6.69 270 22:47 07.07.2022
1149 Clear 8 1010 71 10000 4.63 280 21:41 07.07.2022
1150 Clear 8 1010 68 10000 5.14 260 19:28 07.07.2022
1151 Clear 9 1010 66 10000 5.66 290 17:42 07.07.2022
1152 Clear 10 1011 67 10000 8.23 260 15:57 07.07.2022
1153 Clouds 11 1012 73 10000 6.17 220 13:32 07.07.2022
1154 Clouds 12 1011 76 10000 4.63 220 12:40 07.07.2022
1155 Clouds 12 1011 76 10000 4.63 220 12:21 07.07.2022
1156 Clouds 12 1011 75 10000 7.2 200 11:31 07.07.2022
1157 Clouds 13 1009 76 10000 6.17 210 10:45 07.07.2022
1158 Clouds 13 1009 76 10000 6.17 210 10:26 07.07.2022
1159 Clouds 15 1008 71 10000 9.77 190 08:21 07.07.2022
1160 Clouds 18 1009 62 10000 7.72 190 05:44 07.07.2022
1161 Rain 13 1010 82 10000 1.34 238 23:54 06.07.2022
1162 Clouds 13 1010 82 10000 1.34 234 23:36 06.07.2022
1163 Rain 13 1010 83 10000 6.69 230 23:18 06.07.2022
1164 Clouds 13 1009 83 10000 1.34 272 22:46 06.07.2022
1165 Clouds 13 1010 84 10000 7.2 210 22:28 06.07.2022
1166 Rain 14 1010 86 10000 8.23 200 19:46 06.07.2022
1167 Rain 14 1010 85 10000 8.75 210 18:45 06.07.2022
1168 Rain 14 1011 87 10000 8.23 210 16:58 06.07.2022
1169 Drizzle 14 1012 87 9000 8.75 210 15:44 06.07.2022
1170 Rain 15 1013 86 10000 9.26 180 12:44 06.07.2022
1171 Drizzle 14 1014 85 10000 8.75 170 11:52 06.07.2022
1172 Rain 15 1014 84 10000 7.72 140 10:48 06.07.2022
1173 Rain 15 1015 83 4000 8.75 150 08:46 06.07.2022
1174 Rain 15 1015 84 8000 7.72 160 07:43 06.07.2022
1175 Rain 15 1015 83 3000 8.75 140 06:43 06.07.2022
1176 Rain 14 1019 80 6000 10.29 150 22:52 05.07.2022
1177 Rain 14 1019 79 5000 8.23 140 22:34 05.07.2022
1178 Rain 14 1019 81 10000 9.77 150 20:45 05.07.2022
1179 Rain 14 1019 84 10000 8.75 160 19:55 05.07.2022
1180 Rain 14 1019 84 10000 8.23 160 19:36 05.07.2022
1181 Rain 14 1020 81 10000 9.26 140 17:50 05.07.2022
1182 Rain 14 1020 80 10000 9.77 130 17:18 05.07.2022
1183 Rain 14 1021 75 8000 11.32 130 15:48 05.07.2022
1184 Rain 15 1021 74 10000 10.29 150 14:54 05.07.2022
1185 Rain 16 1021 72 10000 10.29 140 12:59 05.07.2022
1186 Rain 15 1021 72 10000 10.8 140 12:22 05.07.2022
1187 Rain 15 1021 74 10000 11.32 140 10:45 05.07.2022
1188 Rain 15 1020 73 10000 11.32 140 09:44 05.07.2022
1189 Rain 15 1020 71 10000 9.26 150 08:20 05.07.2022
1190 Rain 15 1018 75 10000 10.29 150 06:48 05.07.2022
1191 Rain 15 1020 78 10000 12.35 150 04:30 05.07.2022
1192 Rain 14 1019 84 8000 13.89 150 00:47 05.07.2022
1193 Rain 14 1019 85 3000 12.86 160 23:37 04.07.2022
1194 Rain 14 1020 83 6000 12.86 150 22:55 04.07.2022
1195 Rain 14 1019 83 3500 12.86 160 21:56 04.07.2022
1196 Rain 14 1019 83 10000 13.38 160 20:56 04.07.2022
1197 Rain 15 1018 83 4100 12.86 150 20:35 04.07.2022
1198 Rain 15 1018 83 4000 13.38 160 19:56 04.07.2022
1199 Rain 15 1018 83 4000 13.38 150 19:37 04.07.2022
1200 Rain 15 1018 84 6000 13.38 160 18:34 04.07.2022
1201 Rain 15 1016 85 4000 14.92 160 16:51 04.07.2022
1202 Rain 15 1016 86 6000 12.86 160 15:35 04.07.2022
1203 Rain 15 1016 86 6000 15.95 160 13:44 04.07.2022
1204 Rain 15 1015 85 4000 14.92 160 12:38 04.07.2022
1205 Rain 15 1015 85 7000 12.86 150 10:40 04.07.2022
1206 Rain 15 1015 85 6000 13.38 140 10:22 04.07.2022
1207 Rain 16 1014 83 6000 9.77 130 08:33 04.07.2022
1208 Rain 17 1013 77 10000 8.23 160 05:57 04.07.2022
1209 Clouds 16 1014 83 5000 13.38 150 01:49 04.07.2022
1210 Clouds 16 1013 81 10000 13.38 150 23:39 03.07.2022
1211 Rain 15 1014 80 10000 12.35 140 22:29 03.07.2022
1212 Clouds 16 1014 76 10000 11.32 140 20:45 03.07.2022
1213 Clouds 16 1014 75 10000 10.8 140 19:43 03.07.2022
1214 Clouds 16 1014 75 10000 10.8 140 19:24 03.07.2022
1215 Clouds 16 1014 76 10000 12.35 130 18:23 03.07.2022
1216 Clouds 15 1015 77 9000 11.32 140 17:31 03.07.2022
1217 Rain 15 1014 83 10000 12.86 130 15:27 03.07.2022
1218 Rain 15 1014 83 6000 12.86 140 14:53 03.07.2022
1219 Rain 15 1015 82 3500 12.35 140 13:50 03.07.2022
1220 Rain 14 1015 81 6000 13.89 130 12:47 03.07.2022
1221 Rain 15 1016 82 8000 12.35 140 12:18 03.07.2022
1222 Rain 14 1016 82 9000 13.89 130 10:54 03.07.2022
1223 Rain 14 1016 82 8000 13.38 130 10:35 03.07.2022
1224 Rain 14 1015 81 10000 13.89 140 07:38 03.07.2022
1225 Rain 15 1016 83 9000 13.89 150 06:52 03.07.2022
1226 Rain 15 1017 81 3000 12.86 110 00:39 03.07.2022
1227 Rain 15 1017 81 10000 11.32 110 23:37 02.07.2022
1228 Rain 15 1016 82 6000 12.86 110 22:31 02.07.2022
1229 Rain 15 1016 85 2903 4.92 255 20:31 02.07.2022
1230 Rain 15 1017 86 4000 10.29 110 19:49 02.07.2022
1231 Rain 15 1017 86 7000 10.8 120 18:36 02.07.2022
1232 Rain 14 1018 86 5000 6.17 110 17:39 02.07.2022
1233 Rain 14 1018 85 9000 8.75 90 16:30 02.07.2022
1234 Rain 15 1018 86 9000 12.35 110 13:40 02.07.2022
1235 Rain 14 1018 85 6000 5.66 100 11:51 02.07.2022
1236 Rain 14 1018 85 4500 10.29 110 10:52 02.07.2022
1237 Rain 14 1018 87 3400 13.38 110 10:25 02.07.2022
1238 Rain 15 1017 85 6671 4.02 313 08:38 02.07.2022
1239 Rain 14 1017 85 5000 11.32 120 08:19 02.07.2022
1240 Rain 14 1018 87 2500 8.75 100 05:51 02.07.2022
1241 Drizzle 12 1021 46 10000 1.54 300 00:34 02.07.2022
1242 Rain 11 1020 85 7000 5.14 330 23:30 01.07.2022
1243 Rain 11 1020 84 4273 0.45 330 22:35 01.07.2022
1244 Drizzle 11 1020 86 10000 4.12 220 21:38 01.07.2022
1245 Rain 11 1020 87 10000 5.14 230 20:59 01.07.2022
1246 Rain 11 1021 87 10000 5.14 240 20:37 01.07.2022
1247 Rain 11 1020 82 5157 2.63 109 19:40 01.07.2022
1248 Clouds 11 1021 84 10000 4.12 240 17:39 01.07.2022
1249 Rain 11 1022 84 9000 3.09 250 14:59 01.07.2022
1250 Rain 11 1023 85 6000 2.57 340 13:54 01.07.2022
1251 Rain 11 1023 85 10000 3.09 270 11:48 01.07.2022
1252 Rain 11 1023 84 10000 3.09 300 10:19 01.07.2022
1253 Rain 11 1023 77 10000 4.12 260 07:40 01.07.2022
1254 Drizzle 12 1025 88 10000 4.12 250 02:49 01.07.2022
1255 Rain 11 1026 80 10000 5.66 190 00:25 01.07.2022
1256 Rain 11 1025 77 10000 5.14 210 22:54 30.06.2022
1257 Rain 11 1026 78 10000 6.69 210 22:32 30.06.2022
1258 Rain 11 1026 77 10000 6.69 210 21:59 30.06.2022
1259 Rain 11 1025 77 10000 6.17 220 21:34 30.06.2022
1260 Rain 11 1024 74 10000 2.06 310 20:22 30.06.2022
1261 Rain 11 1025 74 10000 2.06 310 19:53 30.06.2022
1262 Rain 11 1025 76 10000 4.12 330 19:18 30.06.2022
1263 Rain 11 1025 74 10000 2.57 310 18:35 30.06.2022
1264 Drizzle 11 1025 70 10000 3.09 270 17:38 30.06.2022
1265 Rain 12 1025 70 10000 6.17 160 16:48 30.06.2022
1266 Clouds 12 1024 70 10000 3.6 240 15:27 30.06.2022
1267 Clear 13 1025 68 10000 4.12 230 13:30 30.06.2022
1268 Clouds 13 1025 66 10000 4.12 220 12:35 30.06.2022
1269 Clouds 13 1024 63 10000 3.09 260 11:37 30.06.2022
1270 Clouds 14 1024 59 10000 4.12 200 09:54 30.06.2022
1271 Clouds 14 1023 58 10000 4.63 190 09:34 30.06.2022
1272 Clouds 15 1022 57 10000 3.6 190 08:18 30.06.2022
1273 Clouds 16 1022 58 10000 4.12 170 06:21 30.06.2022
1274 Clouds 13 1023 67 10000 4.12 290 01:29 30.06.2022
1275 Rain 11 1022 76 10000 3.09 320 23:34 29.06.2022
1276 Rain 11 1021 76 10000 3.09 330 22:39 29.06.2022
1277 Rain 12 1020 74 10000 2.57 230 21:38 29.06.2022
1278 Clear 12 1020 74 10000 2.06 310 20:34 29.06.2022
1279 Clear 11 1022 75 10000 3.6 340 19:37 29.06.2022
1280 Clear 11 1022 76 10000 4.12 300 17:45 29.06.2022
1281 Clear 11 1022 71 10000 3.09 310 16:43 29.06.2022
1282 Clear 12 1021 69 10000 4.63 310 15:26 29.06.2022
1283 Clear 12 1023 72 10000 3.09 310 12:47 29.06.2022
1284 Clouds 13 1023 69 10000 2.68 359 11:32 29.06.2022
1285 Clouds 14 1022 66 10000 1.79 358 09:33 29.06.2022
1286 Clouds 15 1021 64 10000 1.34 324 08:42 29.06.2022
1287 Clouds 17 1023 57 10000 4.63 340 05:19 29.06.2022
1288 Clouds 12 1026 73 10000 4.12 280 01:48 29.06.2022
1289 Clear 10 1027 79 10000 3.6 330 00:37 29.06.2022
1290 Clouds 8 1026 74 10000 3.6 330 22:56 28.06.2022
1291 Clear 8 1026 74 10000 3.6 330 22:34 28.06.2022
1292 Clouds 8 1027 80 10000 4.12 330 21:55 28.06.2022
1293 Clouds 8 1027 80 10000 3.6 330 21:33 28.06.2022
1294 Clouds 8 1027 79 10000 2.57 330 20:51 28.06.2022
1295 Clouds 9 1027 80 10000 3.09 310 19:43 28.06.2022
1296 Clouds 9 1027 79 10000 3.6 290 19:23 28.06.2022
1297 Clouds 10 1028 78 10000 3.6 300 17:49 28.06.2022
1298 Clouds 11 1028 78 10000 3.09 310 16:29 28.06.2022
1299 Clouds 11 1028 79 10000 4.12 290 15:53 28.06.2022
1300 Clouds 11 1028 69 10000 4.63 230 14:22 28.06.2022
1301 Clouds 11 1029 72 10000 4.63 230 13:55 28.06.2022
1302 Clouds 12 1027 75 6000 3.6 210 13:32 28.06.2022
1303 Clouds 12 1026 70 10000 6.17 220 11:57 28.06.2022
1304 Drizzle 12 1028 77 9000 3.09 250 09:46 28.06.2022
1305 Rain 14 1028 74 10000 6.17 190 08:46 28.06.2022
1306 Clouds 14 1028 71 10000 7.72 190 07:58 28.06.2022
1307 Clouds 14 1028 71 10000 6.69 180 07:19 28.06.2022
1308 Clouds 13 1029 70 10000 9.26 190 02:25 28.06.2022
1309 Rain 8 1027 70 10000 3.6 290 23:47 27.06.2022
1310 Rain 7 1028 72 10000 4.63 270 22:55 27.06.2022
1311 Rain 7 1028 69 10000 5.14 250 21:39 27.06.2022
1312 Rain 7 1028 69 10000 5.14 250 21:18 27.06.2022
1313 Rain 8 1029 73 10000 5.14 240 19:48 27.06.2022
1314 Rain 8 1026 69 10000 6.17 240 18:45 27.06.2022
1315 Rain 8 1026 69 10000 5.66 260 17:26 27.06.2022
1316 Rain 9 1024 71 10000 4.63 280 15:43 27.06.2022
1317 Rain 10 1027 65 10000 7.2 240 13:51 27.06.2022
1318 Rain 11 1025 66 10000 8.75 210 12:57 27.06.2022
1319 Clouds 11 1027 53 10000 7.2 240 10:51 27.06.2022
1320 Clouds 12 1027 54 10000 1.34 225 09:45 27.06.2022
1321 Clouds 13 1026 54 10000 11.32 180 08:40 27.06.2022
1322 Clouds 14 1024 55 10000 10.8 190 07:39 27.06.2022
1323 Clouds 15 1024 59 10000 11.83 190 05:22 27.06.2022
1324 Clouds 12 1024 64 10000 5.14 250 01:22 27.06.2022
1325 Clouds 10 1023 68 10000 7.2 240 22:58 26.06.2022
1326 Clear 10 1022 65 10000 6.17 240 21:37 26.06.2022
1327 Clear 10 1022 66 10000 7.72 250 20:28 26.06.2022
1328 Clear 12 1022 63 10000 4.63 270 18:33 26.06.2022
1329 Clear 12 1023 63 10000 4.63 280 17:40 26.06.2022
1330 Clear 12 1024 67 10000 2.57 270 15:37 26.06.2022
1331 Clear 12 1024 66 10000 3.09 270 14:23 26.06.2022
1332 Clouds 13 1023 65 10000 2.06 250 13:24 26.06.2022
1333 Clouds 13 1023 68 10000 3.09 230 11:41 26.06.2022
1334 Clouds 14 1023 66 10000 3.6 210 10:42 26.06.2022
1335 Clouds 14 1023 66 10000 4.63 210 10:19 26.06.2022
1336 Clouds 17 1021 59 10000 3.09 190 08:27 26.06.2022
1337 Clouds 19 1021 50 10000 2.24 243 06:31 26.06.2022
1338 Clouds 12 1022 76 10000 2.57 310 00:37 26.06.2022
1339 Clouds 11 1023 81 10000 2.57 350 00:19 26.06.2022
1340 Clouds 10 1023 81 10000 2.57 290 23:31 25.06.2022
1341 Clear 10 1022 82 10000 2.57 330 22:48 25.06.2022
1342 Clear 10 1022 82 10000 2.57 330 22:25 25.06.2022
1343 Clear 10 1022 74 10000 3.09 290 21:21 25.06.2022
1344 Clear 10 1021 82 10000 3.6 260 20:48 25.06.2022
1345 Clear 10 1022 80 10000 1.54 310 20:25 25.06.2022
1346 Clear 10 1022 80 10000 1.54 310 20:25 25.06.2022
1347 Clear 10 1023 80 10000 3.09 250 18:24 25.06.2022
1348 Clear 10 1023 69 10000 1.54 330 17:27 25.06.2022
1349 Clear 11 1023 69 10000 3.6 300 16:28 25.06.2022
1350 Clear 10 1023 68 10000 3.6 280 14:41 25.06.2022
1351 Clear 12 1023 67 10000 3.6 250 12:51 25.06.2022
1352 Clear 13 1023 62 10000 3.6 250 12:31 25.06.2022
1353 Clear 16 1021 59 10000 3.6 240 09:35 25.06.2022
1354 Clear 17 1020 56 10000 5.14 250 08:55 25.06.2022
1355 Clear 19 1019 53 10000 5.14 270 08:25 25.06.2022
1356 Clear 20 1019 50 10000 6.69 250 06:36 25.06.2022
1357 Clouds 14 1022 64 10000 2.57 280 01:31 25.06.2022
1358 Clouds 12 1020 69 10000 3.09 270 23:58 24.06.2022
1359 Clear 11 1021 71 10000 4.12 280 22:29 24.06.2022
1360 Clear 12 1019 70 10000 5.66 300 21:28 24.06.2022
1361 Clear 11 1020 72 10000 5.14 300 20:24 24.06.2022
1362 Clear 11 1018 71 10000 4.12 300 19:39 24.06.2022
1363 Clear 11 1019 71 10000 4.12 300 19:18 24.06.2022
1364 Clear 12 1020 70 10000 4.12 300 18:44 24.06.2022
1365 Clear 12 1020 70 10000 4.63 310 18:24 24.06.2022
1366 Clear 13 1018 66 10000 5.14 280 16:47 24.06.2022
1367 Clear 13 1018 64 10000 5.14 280 14:57 24.06.2022
1368 Clear 13 1018 65 10000 3.09 260 14:24 24.06.2022
1369 Clear 14 1018 64 10000 4.63 300 13:46 24.06.2022
1370 Clouds 13 1019 66 10000 0.45 319 11:42 24.06.2022
1371 Clouds 14 1019 62 10000 0.89 268 10:39 24.06.2022
1372 Clear 15 1016 58 10000 3.6 290 09:42 24.06.2022
1373 Clear 16 1016 58 10000 3.13 266 08:54 24.06.2022
1374 Clear 16 1016 59 10000 3.13 282 08:32 24.06.2022
1375 Clear 18 1015 54 10000 7.2 280 06:44 24.06.2022
1376 Clear 18 1015 53 10000 7.2 280 06:26 24.06.2022
1377 Clear 18 1017 52 10000 8.23 280 04:50 24.06.2022
1378 Clear 9 1020 70 10000 4.63 320 23:43 23.06.2022
1379 Clear 9 1020 70 10000 4.63 320 23:43 23.06.2022
1380 Clouds 9 1020 73 10000 4.12 330 22:43 23.06.2022
1381 Clear 8 1019 71 10000 5.14 330 21:40 23.06.2022
1382 Clear 9 1019 70 10000 4.12 280 20:42 23.06.2022
1383 Clear 9 1019 70 10000 4.12 290 19:55 23.06.2022
1384 Clear 10 1020 69 10000 5.14 300 18:38 23.06.2022
1385 Clear 10 1020 69 10000 5.14 290 17:35 23.06.2022
1386 Clear 10 1021 68 10000 5.14 300 16:32 23.06.2022
1387 Clear 10 1021 69 10000 3.6 310 15:26 23.06.2022
1388 Clear 11 1021 69 10000 4.63 310 14:45 23.06.2022
1389 Clouds 13 1022 65 10000 3.6 300 11:49 23.06.2022
1390 Clouds 13 1021 62 10000 3.6 290 10:42 23.06.2022
1391 Clear 15 1021 61 10000 1.79 262 09:19 23.06.2022
1392 Clear 18 1020 54 10000 6.17 290 05:37 23.06.2022
1393 Clouds 12 1024 70 10000 5.14 300 01:21 23.06.2022
1394 Clouds 9 1024 72 10000 4.12 300 00:18 23.06.2022
1395 Clouds 8 1024 74 10000 3.6 310 23:22 22.06.2022
1396 Clear 9 1022 71 10000 4.12 300 21:44 22.06.2022
1397 Clear 8 1023 70 10000 3.6 300 20:52 22.06.2022
1398 Clear 9 1022 71 10000 3.09 290 20:20 22.06.2022
1399 Clear 9 1023 70 10000 4.12 290 19:43 22.06.2022
1400 Clear 9 1023 71 10000 4.63 310 17:40 22.06.2022
1401 Clear 9 1024 72 10000 3.6 310 16:43 22.06.2022
1402 Clear 9 1025 69 10000 3.09 300 15:29 22.06.2022
1403 Clear 10 1025 71 10000 5.66 240 14:57 22.06.2022
1404 Clear 10 1024 67 10000 2.57 270 13:49 22.06.2022
1405 Clear 10 1024 73 10000 4.63 240 13:24 22.06.2022
1406 Clear 11 1024 69 10000 2.06 340 12:31 22.06.2022
1407 Clear 11 1023 63 10000 1.54 90 11:46 22.06.2022
1408 Clear 11 1024 64 10000 0.45 94 10:50 22.06.2022
1409 Clear 13 1024 65 10000 3.09 120 09:42 22.06.2022
1410 Clear 17 1022 48 10000 2.06 220 07:22 22.06.2022
1411 Clear 14 1023 59 10000 6.69 270 02:39 22.06.2022
1412 Clear 12 1023 65 10000 7.2 280 01:19 22.06.2022
1413 Rain 9 1021 71 10000 4.12 320 22:57 21.06.2022
1414 Clear 10 1021 71 10000 6.69 250 21:25 21.06.2022
1415 Clear 11 1021 71 10000 6.69 250 19:43 21.06.2022
1416 Clear 11 1022 71 10000 6.69 260 17:56 21.06.2022
1417 Clear 10 1022 72 10000 7.2 260 16:49 21.06.2022
1418 Clouds 13 1020 73 10000 5.66 280 12:36 21.06.2022
1419 Clouds 15 1020 73 10000 3.6 270 10:55 21.06.2022
1420 Rain 16 1018 73 10000 3.6 210 09:39 21.06.2022
1421 Clouds 19 1018 63 10000 0.89 321 07:56 21.06.2022
1422 Clouds 19 1017 61 10000 2.57 280 05:33 21.06.2022
1423 Clear 9 1022 82 10000 4.12 320 00:35 21.06.2022
1424 Clouds 9 1022 91 10000 3.6 300 22:23 20.06.2022
1425 Clear 10 1021 90 10000 3.09 330 21:49 20.06.2022
1426 Clear 10 1022 92 10000 3.6 290 20:30 20.06.2022
1427 Clear 10 1022 91 10000 2.06 310 19:38 20.06.2022
1428 Rain 10 1022 91 10000 2.57 330 18:44 20.06.2022
1429 Rain 10 1022 90 10000 2.57 330 17:50 20.06.2022
1430 Clear 11 1021 89 10000 3.09 320 17:29 20.06.2022
1431 Clear 12 1020 88 10000 3.09 330 15:53 20.06.2022
1432 Clouds 12 1023 75 10000 2.06 300 12:41 20.06.2022
1433 Clouds 14 1022 79 10000 1.34 0 10:32 20.06.2022
1434 Clouds 15 1021 78 10000 2.57 150 09:30 20.06.2022
1435 Clouds 15 1021 76 10000 2.57 140 08:44 20.06.2022
1436 Clouds 16 1022 80 10000 4.12 110 05:35 20.06.2022
1437 Clouds 14 1022 78 10000 3.18 141 01:44 20.06.2022
1438 Clouds 12 1024 68 10000 3.09 300 00:26 20.06.2022
1439 Clouds 12 1021 93 10000 0.89 324 22:53 19.06.2022
1440 Clouds 12 1021 93 10000 2.57 290 21:58 19.06.2022
1441 Clouds 12 1021 94 10000 2.57 270 21:40 19.06.2022
1442 Rain 12 1023 80 10000 3.09 300 20:39 19.06.2022
1443 Clouds 12 1024 80 10000 4.12 230 19:47 19.06.2022
1444 Clouds 12 1024 78 10000 3.6 270 18:46 19.06.2022
1445 Rain 12 1024 75 10000 3.6 270 18:26 19.06.2022
1446 Clouds 12 1024 82 10000 2.57 310 17:22 19.06.2022
1447 Rain 12 1025 81 10000 3.09 290 16:35 19.06.2022
1448 Rain 13 1025 80 10000 3.6 20 15:42 19.06.2022
1449 Rain 12 1025 80 10000 3.09 250 14:58 19.06.2022
1450 Rain 12 1025 83 10000 4.12 230 14:20 19.06.2022
1451 Rain 12 1026 81 10000 3.6 230 13:36 19.06.2022
1452 Rain 13 1024 83 10000 4.12 280 11:38 19.06.2022
1453 Rain 13 1024 84 10000 1.34 165 10:31 19.06.2022
1454 Rain 15 1024 75 10000 7.72 190 08:54 19.06.2022
1455 Rain 16 1024 74 10000 7.72 190 08:19 19.06.2022
1456 Rain 18 1025 69 10000 7.72 180 05:44 19.06.2022
1457 Clouds 15 1027 73 10000 3.6 270 02:32 19.06.2022
1458 Rain 10 1026 77 10000 2.57 340 00:26 19.06.2022
1459 Clouds 10 1024 75 10000 4.12 310 23:36 18.06.2022
1460 Clouds 10 1023 74 10000 3.6 300 22:45 18.06.2022
1461 Clouds 10 1023 74 10000 4.12 290 21:43 18.06.2022
1462 Rain 10 1025 78 10000 5.14 290 20:49 18.06.2022
1463 Clouds 10 1025 79 10000 5.14 290 20:49 18.06.2022
1464 Rain 10 1022 73 10000 0.45 170 19:40 18.06.2022
1465 Clouds 11 1025 77 10000 3.6 300 18:54 18.06.2022
1466 Clear 11 1025 78 10000 3.09 300 17:44 18.06.2022
1467 Rain 11 1024 76 10000 3.09 300 17:22 18.06.2022
1468 Clear 12 1026 75 10000 5.66 210 15:37 18.06.2022
1469 Clouds 12 1024 76 10000 5.18 200 14:48 18.06.2022
1470 Clouds 13 1026 78 10000 5.66 210 13:53 18.06.2022
1471 Rain 14 1025 75 10000 5.14 210 11:58 18.06.2022
1472 Rain 15 1025 74 10000 6.69 200 10:57 18.06.2022
1473 Rain 15 1025 71 10000 7.72 200 09:29 18.06.2022
1474 Clouds 16 1024 70 10000 9.26 200 08:33 18.06.2022
1475 Clouds 17 1024 69 10000 9.77 190 07:32 18.06.2022
1476 Clouds 17 1024 67 10000 9.26 190 04:43 18.06.2022
1477 Clouds 13 1024 69 10000 3.6 280 01:27 18.06.2022
1478 Clouds 14 1024 68 10000 3.6 280 01:27 18.06.2022
1479 Clouds 13 1023 70 10000 4.63 280 00:55 18.06.2022
1480 Clouds 12 1023 72 10000 4.63 280 00:22 18.06.2022
1481 Clouds 11 1023 72 10000 4.63 250 23:33 17.06.2022
1482 Clouds 11 1022 72 10000 6.69 230 21:57 17.06.2022
1483 Clouds 12 1021 74 10000 8.23 210 20:29 17.06.2022
1484 Rain 11 1021 76 10000 6.17 250 19:20 17.06.2022
1485 Clouds 12 1021 74 10000 6.69 230 17:47 17.06.2022
1486 Rain 13 1020 74 10000 7.72 220 16:44 17.06.2022
1487 Rain 13 1020 74 10000 7.72 220 16:25 17.06.2022
1488 Rain 13 1021 73 10000 5.66 250 15:37 17.06.2022
1489 Rain 14 1020 71 10000 4.63 240 14:23 17.06.2022
1490 Clouds 13 1021 70 10000 4.63 240 13:58 17.06.2022
1491 Clouds 14 1021 70 10000 6.17 230 13:38 17.06.2022
1492 Clouds 15 1020 66 10000 5.66 220 12:24 17.06.2022
1493 Clouds 15 1020 65 10000 6.17 210 11:55 17.06.2022
1494 Clouds 14 1020 64 10000 6.17 220 11:33 17.06.2022
1495 Clouds 16 1018 65 10000 6.69 190 08:58 17.06.2022
1496 Clouds 16 1018 63 10000 5.66 190 08:25 17.06.2022
1497 Clouds 18 1017 56 10000 7.72 190 06:44 17.06.2022
1498 Clouds 17 1017 58 10000 4.12 260 03:45 17.06.2022
1499 Clouds 14 1018 65 10000 7.2 250 01:56 17.06.2022
1500 Clouds 10 1018 73 10000 5.14 250 23:35 16.06.2022
1501 Clouds 10 1017 73 10000 3.09 340 22:42 16.06.2022
1502 Clear 10 1016 76 10000 4.12 310 21:22 16.06.2022
1503 Clear 10 1016 72 10000 3.6 300 20:52 16.06.2022
1504 Clear 10 1016 72 10000 3.6 300 20:33 16.06.2022
1505 Clear 10 1016 71 10000 3.09 350 19:32 16.06.2022
1506 Clear 11 1016 69 10000 4.12 320 18:24 16.06.2022
1507 Clear 11 1017 70 10000 3.6 280 17:42 16.06.2022
1508 Clouds 11 1017 69 10000 4.12 290 16:33 16.06.2022
1509 Clear 12 1017 69 10000 3.6 300 15:22 16.06.2022
1510 Clear 12 1017 67 10000 3.6 320 14:30 16.06.2022
1511 Clear 13 1017 65 10000 5.14 260 13:20 16.06.2022
1512 Clear 14 1017 64 10000 4.63 250 12:36 16.06.2022
1513 Clouds 14 1017 62 10000 5.66 250 11:49 16.06.2022
1514 Clouds 15 1016 60 10000 5.66 250 10:54 16.06.2022
1515 Clouds 16 1016 59 10000 3.6 230 09:53 16.06.2022
1516 Clear 17 1015 55 10000 4.12 240 09:21 16.06.2022
1517 Clouds 19 1014 52 10000 1.79 278 08:28 16.06.2022
1518 Clouds 20 1013 47 10000 5.14 280 07:24 16.06.2022
1519 Clouds 20 1014 46 10000 3.6 280 04:50 16.06.2022
1520 Clear 16 1018 55 10000 3.09 310 02:20 16.06.2022
1521 Clear 15 1018 57 10000 4.12 340 01:35 16.06.2022
1522 Clear 15 1018 57 10000 4.12 340 01:35 16.06.2022
1523 Clear 13 1018 63 10000 1.54 350 00:56 16.06.2022
1524 Clear 10 1018 67 10000 2.57 350 23:43 15.06.2022
1525 Clear 10 1017 67 10000 3.6 330 22:35 15.06.2022
1526 Clear 10 1017 65 10000 3.6 360 21:22 15.06.2022
1527 Clear 10 1017 65 10000 3.6 290 20:44 15.06.2022
1528 Clear 10 1017 64 10000 3.6 290 20:25 15.06.2022
1529 Clear 10 1018 64 10000 3.6 320 19:29 15.06.2022
1530 Clear 11 1018 60 10000 5.14 310 17:56 15.06.2022
1531 Clear 12 1018 59 10000 6.17 310 17:25 15.06.2022
1532 Clear 12 1018 62 10000 3.6 310 15:38 15.06.2022
1533 Clear 13 1018 61 10000 4.63 310 14:23 15.06.2022
1534 Clear 13 1017 60 10000 3.09 310 12:54 15.06.2022
1535 Clear 13 1016 58 10000 4.12 320 11:58 15.06.2022
1536 Clear 15 1016 56 10000 2.57 60 10:24 15.06.2022
1537 Clear 14 1017 56 10000 2.57 30 10:24 15.06.2022
1538 Clear 15 1016 59 10000 3.09 60 09:43 15.06.2022
1539 Clear 17 1015 55 10000 0.89 140 08:50 15.06.2022
1540 Clear 19 1017 41 10000 4.12 290 06:36 15.06.2022
1541 Clear 17 1017 48 10000 3.6 320 04:46 15.06.2022
1542 Clear 13 1019 65 10000 5.66 300 01:55 15.06.2022
1543 Clear 9 1019 71 10000 2.57 330 00:51 15.06.2022
1544 Clear 9 1019 72 10000 2.57 330 00:51 15.06.2022
1545 Clear 7 1019 76 10000 3.6 310 23:40 14.06.2022
1546 Clear 7 1018 74 10000 3.6 310 23:21 14.06.2022
1547 Clear 7 1018 75 10000 3.09 340 22:23 14.06.2022
1548 Clear 8 1018 83 10000 3.09 320 21:40 14.06.2022
1549 Clear 7 1019 84 10000 3.6 320 20:56 14.06.2022
1550 Clear 7 1019 75 10000 3.6 310 20:31 14.06.2022
1551 Clear 7 1020 75 10000 3.09 340 19:22 14.06.2022
1552 Clear 8 1020 77 10000 2.06 280 18:25 14.06.2022
1553 Clear 8 1021 76 10000 3.09 320 16:48 14.06.2022
1554 Clear 8 1021 74 10000 4.12 310 15:50 14.06.2022
1555 Clear 9 1021 74 10000 3.6 330 15:28 14.06.2022
1556 Clear 9 1022 72 10000 0.89 283 14:40 14.06.2022
1557 Clear 9 1022 73 10000 0.45 0 13:46 14.06.2022
1558 Clear 10 1021 72 10000 2.06 360 12:48 14.06.2022
1559 Clear 11 1022 74 10000 2.06 20 11:46 14.06.2022
1560 Clear 12 1020 74 10000 3.09 20 10:49 14.06.2022
1561 Clear 12 1021 74 10000 3.09 20 10:25 14.06.2022
1562 Clear 12 1021 74 10000 3.09 20 10:25 14.06.2022
1563 Clear 15 1020 68 10000 0.89 355 08:49 14.06.2022
1564 Clear 16 1019 60 10000 5.14 10 07:58 14.06.2022
1565 Clear 17 1020 55 10000 2.24 3 06:19 14.06.2022
1566 Clouds 14 1022 61 10000 3.6 310 03:36 14.06.2022
1567 Clouds 9 1025 71 10000 4.63 300 01:36 14.06.2022
1568 Clouds 6 1024 72 10000 3.6 310 23:53 13.06.2022
1569 Clouds 7 1024 70 10000 3.6 330 22:27 13.06.2022
1570 Clouds 6 1023 71 10000 3.6 330 21:59 13.06.2022
1571 Clear 6 1023 71 10000 4.12 310 21:24 13.06.2022
1572 Clear 8 1021 81 10000 3.6 330 19:48 13.06.2022
1573 Clear 8 1021 80 10000 3.6 320 18:52 13.06.2022
1574 Clear 8 1023 80 10000 3.6 340 17:52 13.06.2022
1575 Clouds 8 1023 79 10000 3.09 350 17:21 13.06.2022
1576 Clear 9 1023 80 10000 3.6 350 16:22 13.06.2022
1577 Clear 9 1023 78 10000 2.06 350 14:48 13.06.2022
1578 Clear 9 1023 75 10000 2.06 270 14:23 13.06.2022
1579 Clear 10 1023 74 10000 2.06 230 13:28 13.06.2022
1580 Clear 10 1022 69 10000 1.54 350 12:22 13.06.2022
1581 Clear 11 1022 69 10000 0.45 306 10:36 13.06.2022
1582 Clear 12 1022 67 10000 2.06 150 09:43 13.06.2022
1583 Clear 14 1019 61 10000 2.57 160 08:40 13.06.2022
1584 Clear 16 1018 52 10000 4.12 170 06:36 13.06.2022
1585 Clear 16 1019 54 10000 4.63 170 04:43 13.06.2022
1586 Clouds 12 1019 64 10000 4.63 250 01:45 13.06.2022
1587 Clouds 12 1019 66 10000 4.63 250 01:18 13.06.2022
1588 Clear 9 1016 75 10000 5.14 220 23:48 12.06.2022
1589 Clear 9 1015 74 10000 4.12 240 22:39 12.06.2022
1590 Clear 9 1015 74 10000 4.12 250 21:46 12.06.2022
1591 Clear 8 1016 73 10000 4.63 250 20:53 12.06.2022
1592 Clear 8 1015 71 10000 4.63 300 19:59 12.06.2022
1593 Clear 8 1016 72 10000 4.12 270 19:25 12.06.2022
1594 Clear 9 1014 70 10000 4.12 320 17:40 12.06.2022
1595 Clear 9 1014 69 10000 5.66 250 15:54 12.06.2022
1596 Clear 10 1014 68 10000 4.63 280 14:51 12.06.2022
1597 Clear 10 1014 67 10000 6.17 250 14:19 12.06.2022
1598 Clouds 11 1014 65 10000 6.17 250 13:46 12.06.2022
1599 Clouds 11 1015 64 10000 7.72 260 12:32 12.06.2022
1600 Clear 12 1014 61 10000 7.72 270 11:22 12.06.2022
1601 Clear 12 1014 58 10000 6.69 270 10:21 12.06.2022
1602 Clouds 14 1012 51 10000 9.26 260 08:52 12.06.2022
1603 Clouds 15 1010 50 10000 10.29 250 08:34 12.06.2022
1604 Clouds 16 1010 46 10000 9.77 250 07:31 12.06.2022
1605 Clear 17 1010 45 10000 9.77 270 04:35 12.06.2022
1606 Clouds 15 1011 50 10000 9.26 250 02:33 12.06.2022
1607 Clear 13 1011 52 10000 11.83 270 01:36 12.06.2022
1608 Clear 12 1011 55 10000 10.29 270 00:58 12.06.2022
1609 Clear 11 1010 58 10000 6.69 270 00:20 12.06.2022
1610 Clear 9 1010 62 10000 9.26 270 23:21 11.06.2022
1611 Clear 9 1009 62 10000 9.77 270 22:38 11.06.2022
1612 Clear 9 1009 62 10000 9.77 270 22:38 11.06.2022
1613 Clear 10 1009 62 10000 9.77 270 21:37 11.06.2022
1614 Clear 10 1009 62 10000 0.89 221 20:33 11.06.2022
1615 Clear 10 1009 60 10000 6.17 270 19:39 11.06.2022
1616 Clear 10 1009 60 10000 7.72 280 18:56 11.06.2022
1617 Clear 9 1009 61 10000 6.17 320 18:33 11.06.2022
1618 Clear 9 1009 61 10000 6.69 330 17:50 11.06.2022
1619 Clear 9 1009 60 10000 6.69 330 17:26 11.06.2022
1620 Clear 9 1011 61 10000 5.66 310 16:50 11.06.2022
1621 Clear 9 1011 61 10000 5.14 330 16:26 11.06.2022
1622 Clear 9 1013 60 10000 7.72 290 15:27 11.06.2022
1623 Clear 10 1013 57 10000 10.8 270 13:53 11.06.2022
1624 Clear 11 1012 54 10000 13.38 250 12:36 11.06.2022
1625 Clear 11 1012 52 10000 10.29 260 10:46 11.06.2022
1626 Clear 13 1012 46 10000 10.8 260 09:48 11.06.2022
1627 Clear 14 1011 44 10000 10.8 270 08:51 11.06.2022
1628 Clear 16 1009 40 10000 8.23 260 06:47 11.06.2022
1629 Clear 17 1009 40 10000 8.23 250 06:24 11.06.2022
1630 Clouds 16 1011 48 10000 5.66 280 04:23 11.06.2022
1631 Clouds 13 1013 58 10000 4.12 300 01:52 11.06.2022
1632 Clouds 12 1014 62 10000 4.12 280 01:27 11.06.2022
1633 Clouds 8 1013 72 10000 5.14 290 23:34 10.06.2022
1634 Clouds 9 1013 72 10000 4.12 280 22:31 10.06.2022
1635 Clear 9 1012 70 10000 4.63 290 21:50 10.06.2022
1636 Clear 9 1012 71 10000 4.63 290 20:40 10.06.2022
1637 Clear 10 1012 71 10000 4.63 290 20:21 10.06.2022
1638 Clear 10 1012 69 10000 6.69 280 19:19 10.06.2022
1639 Clear 10 1012 69 10000 6.69 280 18:55 10.06.2022
1640 Clear 10 1013 69 10000 5.66 280 17:55 10.06.2022
1641 Clear 10 1013 68 10000 6.17 270 17:33 10.06.2022
1642 Clear 10 1013 67 10000 5.14 280 16:47 10.06.2022
1643 Clear 10 1013 65 10000 7.72 260 15:40 10.06.2022
1644 Clear 11 1014 62 10000 7.72 260 14:34 10.06.2022
1645 Clear 11 1013 60 10000 6.17 270 13:26 10.06.2022
1646 Clear 12 1013 58 10000 6.17 280 11:59 10.06.2022
1647 Clear 12 1012 55 10000 5.66 270 11:25 10.06.2022
1648 Clear 12 1015 54 10000 7.2 250 10:36 10.06.2022
1649 Clear 13 1013 51 10000 9.77 250 09:26 10.06.2022
1650 Clear 16 1010 46 10000 10.29 250 07:57 10.06.2022
1651 Clear 17 1011 44 10000 9.77 250 06:49 10.06.2022
1652 Clear 17 1011 44 10000 9.77 250 06:30 10.06.2022
1653 Clear 17 1011 44 10000 10.29 250 05:32 10.06.2022
1654 Clouds 15 1013 54 10000 7.2 270 02:50 10.06.2022
1655 Clouds 13 1013 58 10000 6.69 260 01:37 10.06.2022
1656 Clouds 8 1015 71 10000 5.66 300 23:58 09.06.2022
1657 Rain 7 1013 70 10000 4.63 300 22:43 09.06.2022
1658 Clear 8 1011 69 10000 4.12 320 21:46 09.06.2022
1659 Clear 8 1011 69 10000 4.12 320 21:28 09.06.2022
1660 Clear 8 1011 70 10000 5.14 280 20:40 09.06.2022
1661 Clear 9 1011 69 10000 5.66 280 19:51 09.06.2022
1662 Clear 9 1012 69 10000 7.2 280 18:41 09.06.2022
1663 Clear 9 1012 68 10000 5.66 280 17:55 09.06.2022
1664 Clear 9 1012 68 10000 5.66 260 16:37 09.06.2022
1665 Clear 9 1014 68 10000 7.2 270 15:40 09.06.2022
1666 Clear 9 1014 66 10000 7.2 270 14:33 09.06.2022
1667 Clear 9 1014 65 10000 6.69 270 13:44 09.06.2022
1668 Clear 9 1014 64 10000 6.69 270 13:20 09.06.2022
1669 Clear 11 1013 61 10000 9.26 270 11:52 09.06.2022
1670 Clear 12 1012 57 10000 9.26 270 10:36 09.06.2022
1671 Clear 12 1014 53 10000 10.29 260 09:40 09.06.2022
1672 Clear 13 1013 54 10000 10.29 260 09:21 09.06.2022
1673 Clear 15 1010 45 10000 9.77 260 07:29 09.06.2022
1674 Clear 15 1011 45 10000 9.26 260 04:47 09.06.2022
1675 Clouds 11 1014 59 10000 5.14 300 01:43 09.06.2022
1676 Clouds 6 1013 70 10000 5.66 300 23:24 08.06.2022
1677 Clear 5 1013 70 10000 5.14 310 22:45 08.06.2022
1678 Clear 6 1011 68 10000 5.14 310 22:25 08.06.2022
1679 Clear 6 1014 69 10000 5.14 310 21:48 08.06.2022
1680 Clear 6 1014 70 10000 4.63 330 20:33 08.06.2022
1681 Clear 6 1014 70 10000 4.63 320 19:47 08.06.2022
1682 Clear 6 1015 70 10000 4.63 320 18:56 08.06.2022
1683 Clear 6 1014 68 10000 5.14 310 18:22 08.06.2022
1684 Clear 7 1015 67 10000 5.14 290 16:34 08.06.2022
1685 Clear 7 1016 66 10000 5.66 280 14:54 08.06.2022
1686 Clear 8 1017 63 10000 5.66 270 13:36 08.06.2022
1687 Clear 10 1016 55 10000 6.69 250 11:50 08.06.2022
1688 Clear 10 1015 54 10000 6.69 250 11:24 08.06.2022
1689 Clouds 11 1014 51 10000 7.72 250 09:47 08.06.2022
1690 Clouds 12 1014 51 10000 7.72 250 09:20 08.06.2022
1691 Clear 15 1012 41 10000 7.72 230 07:32 08.06.2022
1692 Clear 15 1011 41 10000 7.72 250 05:22 08.06.2022
1693 Clouds 13 1015 51 10000 9.26 270 02:38 08.06.2022
1694 Clouds 7 1014 68 10000 4.12 350 23:42 07.06.2022
1695 Clouds 7 1015 68 10000 4.12 350 23:24 07.06.2022
1696 Clear 7 1014 67 10000 4.63 290 22:39 07.06.2022
1697 Clear 7 1013 67 10000 5.14 290 21:52 07.06.2022
1698 Clear 7 1013 67 10000 5.14 290 21:27 07.06.2022
1699 Clear 7 1013 67 10000 5.14 290 21:27 07.06.2022
1700 Clear 7 1012 67 10000 4.63 310 20:46 07.06.2022
1701 Clear 7 1012 67 10000 4.63 330 20:24 07.06.2022
1702 Clear 7 1012 67 10000 5.66 280 19:19 07.06.2022
1703 Clear 9 1010 62 10000 5.14 290 17:55 07.06.2022
1704 Clear 9 1010 61 10000 5.66 270 17:19 07.06.2022
1705 Clear 9 1011 61 10000 9.26 270 16:39 07.06.2022
1706 Clear 9 1011 63 10000 9.77 270 15:42 07.06.2022
1707 Clear 9 1011 64 10000 9.77 270 15:23 07.06.2022
1708 Clear 9 1011 65 10000 8.75 270 14:46 07.06.2022
1709 Clear 10 1011 64 10000 6.17 290 13:50 07.06.2022
1710 Clear 10 1011 64 10000 6.17 290 13:29 07.06.2022
1711 Clear 10 1011 62 10000 5.66 290 12:44 07.06.2022
1712 Clouds 12 1011 57 10000 10.8 300 11:22 07.06.2022
1713 Clouds 13 1010 52 10000 8.23 300 10:19 07.06.2022
1714 Clear 14 1009 49 10000 6.69 310 08:49 07.06.2022
1715 Clear 15 1006 43 10000 8.23 280 07:23 07.06.2022
1716 Clear 16 1005 43 10000 6.69 260 05:56 07.06.2022
1717 Clear 15 1008 50 10000 6.17 290 03:18 07.06.2022
1718 Clouds 11 1012 63 10000 3.6 330 00:42 07.06.2022
1719 Clouds 9 1011 65 10000 9.77 310 23:35 06.06.2022
1720 Clouds 9 1011 64 10000 8.75 310 22:45 06.06.2022
1721 Clear 9 1009 64 10000 6.17 320 21:49 06.06.2022
1722 Clear 9 1009 66 10000 5.14 350 20:21 06.06.2022
1723 Clear 9 1009 67 10000 4.12 350 19:23 06.06.2022
1724 Clear 9 1009 66 10000 4.12 350 18:46 06.06.2022
1725 Clear 9 1009 64 10000 5.14 320 17:55 06.06.2022
1726 Clear 9 1011 63 10000 3.09 10 16:48 06.06.2022
1727 Clear 10 1011 61 10000 4.63 300 15:44 06.06.2022
1728 Clear 10 1011 61 10000 2.68 274 14:57 06.06.2022
1729 Clear 10 1011 59 10000 4.63 310 13:40 06.06.2022
1730 Clear 11 1011 57 10000 3.6 300 12:59 06.06.2022
1731 Clear 11 1010 56 10000 4.12 280 12:27 06.06.2022
1732 Clear 11 1010 53 10000 1.34 293 11:45 06.06.2022
1733 Clear 13 1008 44 10000 4.02 279 09:51 06.06.2022
1734 Clear 15 1005 44 10000 4.47 247 08:44 06.06.2022
1735 Clear 16 1004 40 10000 9.77 280 07:44 06.06.2022
1736 Clear 16 1004 43 10000 4.92 320 06:49 06.06.2022
1737 Clear 16 1003 44 10000 12.86 290 04:38 06.06.2022
1738 Clear 13 1005 54 10000 13.38 300 01:53 06.06.2022
1739 Clear 12 1005 59 10000 12.86 300 00:57 06.06.2022
1740 Clouds 11 1006 63 10000 3.13 281 00:34 06.06.2022
1741 Clouds 10 1005 65 10000 8.75 300 23:20 05.06.2022
1742 Clouds 11 1005 73 8000 12.86 270 22:21 05.06.2022
1743 Clear 12 1000 68 10000 8.75 350 20:24 05.06.2022
1744 Clear 11 1000 69 10000 8.75 360 19:26 05.06.2022
1745 Clear 11 1003 71 10000 8.75 350 18:19 05.06.2022
1746 Clear 11 1003 70 10000 9.26 360 17:39 05.06.2022
1747 Clear 11 1004 71 10000 8.75 360 17:21 05.06.2022
1748 Clear 11 1005 70 10000 8.75 360 16:47 05.06.2022
1749 Clear 11 1006 71 10000 6.69 360 15:41 05.06.2022
1750 Clear 11 1005 70 10000 5.66 350 14:21 05.06.2022
1751 Clear 12 1006 68 10000 7.2 360 12:23 05.06.2022
1752 Clouds 13 1007 63 10000 7.72 340 10:51 05.06.2022
1753 Clouds 13 1007 62 10000 7.72 340 10:24 05.06.2022
1754 Clouds 14 1006 61 10000 5.81 340 09:44 05.06.2022
1755 Clear 15 1006 57 10000 7.72 340 08:25 05.06.2022
1756 Clear 15 1006 57 10000 7.72 340 08:25 05.06.2022
1757 Clear 16 1006 54 10000 9.77 340 06:48 05.06.2022
1758 Clear 17 1007 54 10000 8.23 350 05:20 05.06.2022
1759 Clear 15 1010 64 10000 8.23 360 02:58 05.06.2022
1760 Clear 13 1011 69 10000 8.75 350 01:30 05.06.2022
1761 Clear 11 1011 75 10000 5.66 350 23:49 04.06.2022
1762 Clear 10 1012 76 10000 6.17 350 21:39 04.06.2022
1763 Clear 9 1012 77 10000 5.81 340 20:21 04.06.2022
1764 Clear 10 1013 74 10000 5.14 360 17:59 04.06.2022
1765 Clear 10 1013 74 10000 4.63 350 16:42 04.06.2022
1766 Clear 9 1013 74 10000 4.63 340 16:18 04.06.2022
1767 Clear 10 1013 71 10000 4.12 340 14:37 04.06.2022
1768 Clouds 11 1013 68 10000 4.63 350 11:51 04.06.2022
1769 Clear 12 1012 64 10000 4.63 340 10:57 04.06.2022
1770 Clear 12 1012 64 10000 4.02 340 10:22 04.06.2022
1771 Clouds 14 1010 59 10000 5.66 300 09:42 04.06.2022
1772 Clear 15 1010 56 10000 7.15 270 08:40 04.06.2022
1773 Clouds 17 1010 50 10000 7.2 260 07:40 04.06.2022
1774 Clouds 16 1011 51 10000 8.75 260 04:38 04.06.2022
1775 Clouds 12 1012 65 10000 7.72 260 01:25 04.06.2022
1776 Clouds 9 1011 75 10000 5.66 280 23:53 03.06.2022
1777 Clouds 8 1010 76 10000 4.63 270 22:30 03.06.2022
1778 Clear 8 1010 79 10000 5.14 290 21:21 03.06.2022
1779 Clear 8 1010 78 10000 3.6 290 20:33 03.06.2022
1780 Rain 10 1010 79 10000 5.66 290 18:23 03.06.2022
1781 Rain 10 1010 76 10000 5.14 300 16:47 03.06.2022
1782 Clouds 11 1011 75 10000 5.14 310 15:18 03.06.2022
1783 Rain 11 1011 75 10000 6.69 340 13:20 03.06.2022
1784 Rain 11 1011 70 10000 5.14 330 11:40 03.06.2022
1785 Rain 12 1009 71 10000 5.66 350 09:38 03.06.2022
1786 Rain 13 1008 70 10000 3.13 358 08:58 03.06.2022
1787 Rain 14 1010 64 10000 2.68 20 07:26 03.06.2022
1788 Clouds 14 1010 61 10000 5.14 320 06:35 03.06.2022
1789 Clouds 15 1011 60 10000 4.63 320 05:52 03.06.2022
1790 Clear 8 1018 77 10000 3.6 310 00:30 03.06.2022
1791 Clear 6 1018 76 10000 4.63 320 22:45 02.06.2022
1792 Clouds 6 1018 78 10000 4.12 310 21:51 02.06.2022
1793 Clear 7 1017 76 10000 4.12 320 20:22 02.06.2022
1794 Clear 7 1017 76 10000 4.12 320 20:22 02.06.2022
1795 Clear 7 1017 76 10000 4.12 320 19:50 02.06.2022
1796 Clear 7 1017 77 10000 3.6 320 19:32 02.06.2022
1797 Clear 8 1018 72 10000 3.09 340 17:35 02.06.2022
1798 Clear 9 1019 75 10000 3.13 270 16:28 02.06.2022
1799 Clouds 9 1020 74 10000 4.12 290 14:22 02.06.2022
1800 Clouds 9 1019 72 10000 3.6 300 13:30 02.06.2022
1801 Clouds 9 1019 72 10000 3.6 300 13:30 02.06.2022
1802 Clouds 10 1019 73 10000 3.09 330 12:40 02.06.2022
1803 Clouds 11 1019 72 10000 0.45 295 10:20 02.06.2022
1804 Clouds 12 1017 68 10000 0.89 324 09:28 02.06.2022
1805 Clear 14 1017 59 10000 2.68 315 08:28 02.06.2022
1806 Clouds 16 1016 55 10000 1.03 240 07:34 02.06.2022
1807 Clouds 15 1017 56 10000 4.47 270 05:29 02.06.2022
1808 Clouds 14 1018 58 10000 6.17 270 03:48 02.06.2022
1809 Clear 9 1018 72 10000 4.12 300 23:55 01.06.2022
1810 Clear 8 1018 74 10000 6.71 270 22:55 01.06.2022
1811 Clear 8 1017 74 10000 7.2 270 21:45 01.06.2022
1812 Clear 8 1016 74 10000 7.2 280 21:20 01.06.2022
1813 Clear 8 1015 71 10000 8.75 250 20:38 01.06.2022
1814 Clear 9 1015 71 10000 8.23 250 19:48 01.06.2022
1815 Clear 9 1015 69 10000 9.77 240 17:57 01.06.2022
1816 Clear 9 1015 69 10000 8.23 250 16:46 01.06.2022
1817 Clear 10 1014 68 10000 8.75 260 15:37 01.06.2022
1818 Clear 10 1014 66 10000 7.2 250 14:31 01.06.2022
1819 Clear 10 1013 61 10000 10.8 270 12:42 01.06.2022
1820 Clouds 11 1012 56 10000 8.94 270 10:41 01.06.2022
1821 Clear 12 1010 50 10000 10.8 260 09:26 01.06.2022
1822 Clear 14 1007 45 10000 12.86 260 07:56 01.06.2022
1823 Clear 14 1005 40 10000 9.26 260 06:49 01.06.2022
1824 Clear 12 1005 47 10000 13.89 270 01:44 01.06.2022
1825 Clouds 9 1005 59 10000 7.72 290 23:47 31.05.2022
1826 Clouds 8 1004 62 10000 12.35 280 22:38 31.05.2022
1827 Clouds 8 1004 62 10000 12.35 280 22:38 31.05.2022
1828 Clear 9 1004 62 10000 15.43 280 22:18 31.05.2022
1829 Clear 9 1003 61 10000 13.38 290 21:22 31.05.2022
1830 Clear 9 1003 61 10000 12.35 290 20:41 31.05.2022
1831 Clear 9 1003 58 10000 6.69 280 18:57 31.05.2022
1832 Clear 10 1003 58 10000 9.26 270 18:19 31.05.2022
1833 Clear 10 1003 58 10000 6.17 270 17:35 31.05.2022
1834 Clear 10 1003 57 10000 9.26 280 15:42 31.05.2022
1835 Clear 11 1001 57 10000 8.94 290 14:36 31.05.2022
1836 Clouds 11 1001 60 10000 5.36 276 12:39 31.05.2022
1837 Clouds 11 1001 61 10000 8.05 268 12:18 31.05.2022
1838 Clouds 11 999 66 10000 8.23 310 09:53 31.05.2022
1839 Rain 15 996 51 10000 12.35 260 07:43 31.05.2022
1840 Clear 16 994 50 10000 11.83 270 05:38 31.05.2022
1841 Clear 17 993 50 10000 15.95 270 03:41 31.05.2022
1842 Clouds 11 992 69 10000 3.58 290 23:39 30.05.2022
1843 Clouds 11 991 69 10000 3.6 340 23:18 30.05.2022
1844 Clouds 10 990 71 10000 5.66 340 22:33 30.05.2022
1845 Clear 10 991 71 10000 5.66 330 21:40 30.05.2022
1846 Clear 10 990 70 10000 5.14 330 20:43 30.05.2022
1847 Clear 10 990 69 10000 6.26 340 19:43 30.05.2022
1848 Clear 11 988 67 10000 8.05 340 17:53 30.05.2022
1849 Clear 12 988 66 10000 4.63 330 17:21 30.05.2022
1850 Clear 11 988 67 10000 7.72 310 15:54 30.05.2022
1851 Clear 10 989 72 10000 6.69 330 13:26 30.05.2022
1852 Clouds 10 989 75 10000 7.2 310 11:40 30.05.2022
1853 Rain 11 989 75 10000 8.23 300 09:52 30.05.2022
1854 Drizzle 15 989 72 10000 8.75 20 07:51 30.05.2022
1855 Clouds 15 990 67 10000 6.17 30 06:22 30.05.2022
1856 Clouds 15 993 66 10000 6.69 20 04:52 30.05.2022
1857 Clouds 10 1001 70 10000 3.6 340 00:43 30.05.2022
1858 Clear 8 1002 74 10000 3.6 310 22:41 29.05.2022
1859 Clear 8 1002 73 10000 5.66 310 21:46 29.05.2022
1860 Clear 8 1002 72 10000 4.63 290 20:29 29.05.2022
1861 Clear 8 1003 71 10000 4.63 310 19:29 29.05.2022
1862 Clear 9 1003 71 10000 4.92 290 18:34 29.05.2022
1863 Clear 9 1004 71 10000 7.72 270 16:25 29.05.2022
1864 Clear 9 1004 71 10000 7.2 270 15:46 29.05.2022
1865 Clear 9 1004 70 10000 5.66 280 14:54 29.05.2022
1866 Clear 10 1005 67 10000 6.17 270 13:18 29.05.2022
1867 Clear 12 1004 60 10000 7.2 230 11:20 29.05.2022
1868 Clear 12 1004 59 10000 7.2 240 10:34 29.05.2022
1869 Clouds 15 1003 51 10000 8.23 250 08:36 29.05.2022
1870 Clear 17 1004 49 10000 7.72 260 04:59 29.05.2022
1871 Clouds 17 1004 50 10000 8.23 250 04:39 29.05.2022
1872 Clouds 15 1006 60 10000 7.72 250 02:24 29.05.2022
1873 Clouds 11 1007 73 10000 5.66 280 23:48 28.05.2022
1874 Clouds 10 1007 74 10000 5.66 280 23:25 28.05.2022
1875 Clear 11 1007 74 10000 5.66 270 22:21 28.05.2022
1876 Clear 11 1006 73 10000 7.72 250 21:19 28.05.2022
1877 Clear 12 1007 73 10000 6.69 250 19:21 28.05.2022
1878 Clear 12 1007 71 10000 6.17 260 18:45 28.05.2022
1879 Clear 12 1007 71 10000 6.69 250 17:34 28.05.2022
1880 Clear 12 1008 72 10000 5.14 260 16:35 28.05.2022
1881 Clear 12 1009 75 10000 4.92 270 15:38 28.05.2022
1882 Clear 13 1009 74 10000 4.02 270 13:57 28.05.2022
1883 Clouds 14 1009 72 10000 3.6 250 12:43 28.05.2022
1884 Clouds 15 1009 69 10000 4.12 280 11:54 28.05.2022
1885 Clouds 16 1009 75 10000 3.58 290 10:49 28.05.2022
1886 Clouds 16 1008 72 10000 3.6 250 09:56 28.05.2022
1887 Rain 18 1008 65 10000 3.58 270 08:43 28.05.2022
1888 Rain 20 1007 62 10000 4.63 250 07:23 28.05.2022
1889 Clouds 20 1008 63 10000 3.6 250 05:24 28.05.2022
1890 Clouds 18 1010 76 10000 4.92 270 02:38 28.05.2022
1891 Rain 14 1012 85 10000 3.13 290 00:31 28.05.2022
1892 Rain 13 1012 85 10000 3.6 320 22:50 27.05.2022
1893 Clear 13 1012 85 10000 3.09 340 21:37 27.05.2022
1894 Clear 13 1012 85 10000 3.13 290 20:48 27.05.2022
1895 Clear 13 1012 85 10000 3.13 290 20:23 27.05.2022
1896 Clouds 13 1013 84 9000 3.6 340 19:41 27.05.2022
1897 Clouds 13 1013 84 9000 3.6 340 19:21 27.05.2022
1898 Clear 13 1013 85 10000 2.57 350 17:34 27.05.2022
1899 Clouds 14 1014 84 10000 3.6 300 16:38 27.05.2022
1900 Clouds 14 1015 83 10000 4.12 310 15:22 27.05.2022
1901 Clear 15 1015 81 10000 0.45 13 13:44 27.05.2022
1902 Clouds 15 1015 80 10000 2.06 330 12:39 27.05.2022
1903 Clear 16 1015 80 10000 0.89 340 11:33 27.05.2022
1904 Clear 17 1014 79 10000 3.6 20 10:54 27.05.2022
1905 Clear 17 1015 79 10000 3.6 20 10:26 27.05.2022
1906 Clouds 18 1014 76 10000 3.6 30 09:32 27.05.2022
1907 Clouds 20 1013 67 10000 4.63 50 07:50 27.05.2022
1908 Clouds 21 1014 68 10000 1.03 80 05:32 27.05.2022
1909 Clear 16 1018 76 10000 3.6 300 02:26 27.05.2022
1910 Fog 13 1018 84 5000 3.6 310 00:26 27.05.2022
1911 Fog 12 1017 85 600 3.13 290 22:35 26.05.2022
1912 Fog 12 1017 85 1000 2.68 270 21:37 26.05.2022
1913 Clear 13 1017 85 10000 2.68 270 19:58 26.05.2022
1914 Clear 13 1017 83 10000 2.68 270 19:19 26.05.2022
1915 Clear 13 1018 85 10000 2.68 290 17:37 26.05.2022
1916 Clear 14 1018 83 10000 2.06 320 16:36 26.05.2022
1917 Clear 14 1018 82 10000 3.09 310 15:45 26.05.2022
1918 Clear 15 1019 82 10000 3.09 350 14:28 26.05.2022
1919 Clouds 15 1020 81 10000 1.79 0 12:37 26.05.2022
1920 Clouds 16 1020 78 10000 0.89 330 11:23 26.05.2022
1921 Clouds 17 1017 81 10000 4.12 40 09:41 26.05.2022
1922 Clouds 18 1017 81 10000 4.12 40 09:23 26.05.2022
1923 Clouds 19 1017 75 10000 4.63 30 07:57 26.05.2022
1924 Clouds 20 1017 70 10000 2.57 10 04:41 26.05.2022
1925 Clouds 13 1021 84 10000 3.58 270 00:38 26.05.2022
1926 Clouds 11 1020 84 10000 3.6 300 23:40 25.05.2022
1927 Clear 11 1019 84 10000 3.13 290 21:59 25.05.2022
1928 Clear 11 1019 82 10000 3.13 290 21:32 25.05.2022
1929 Rain 11 1019 83 10000 4.12 300 20:35 25.05.2022
1930 Clear 11 1019 85 10000 3.09 330 19:24 25.05.2022
1931 Clouds 12 1020 85 10000 3.6 320 17:43 25.05.2022
1932 Clouds 12 1020 85 10000 4.02 290 16:38 25.05.2022
1933 Clouds 12 1020 83 10000 2.57 350 15:54 25.05.2022
1934 Clouds 13 1021 84 10000 4.02 270 14:54 25.05.2022
1935 Clouds 13 1021 84 10000 4.12 290 14:33 25.05.2022
1936 Clouds 13 1021 84 10000 3.58 270 13:54 25.05.2022
1937 Clouds 14 1021 82 10000 2.68 270 12:39 25.05.2022
1938 Clouds 15 1021 81 10000 4.12 220 10:49 25.05.2022
1939 Clouds 15 1021 79 10000 2.57 170 10:18 25.05.2022
1940 Rain 17 1020 79 10000 2.68 180 08:37 25.05.2022
1941 Clouds 18 1020 75 10000 0.89 134 07:23 25.05.2022
1942 Clouds 19 1021 73 10000 1.79 290 04:22 25.05.2022
1943 Clouds 13 1023 88 10000 4.12 230 00:23 25.05.2022
1944 Rain 12 1024 85 10000 4.12 250 23:47 24.05.2022
1945 Rain 12 1023 87 9000 3.6 320 22:33 24.05.2022
1946 Rain 12 1023 87 10000 4.63 10 21:41 24.05.2022
1947 Rain 12 1023 87 10000 4.63 10 21:21 24.05.2022
1948 Rain 12 1022 86 10000 3.6 310 20:23 24.05.2022
1949 Clouds 11 1024 85 10000 4.02 290 18:56 24.05.2022
1950 Clouds 12 1023 86 10000 1.54 330 16:58 24.05.2022
1951 Rain 12 1024 86 10000 2.57 280 16:28 24.05.2022
1952 Rain 13 1024 86 10000 3.13 290 15:18 24.05.2022
1953 Clouds 13 1025 85 10000 3.13 270 14:25 24.05.2022
1954 Clouds 13 1025 86 10000 3.09 290 13:18 24.05.2022
1955 Rain 14 1025 85 10000 1.03 100 11:49 24.05.2022
1956 Clouds 15 1024 83 10000 2.57 50 09:47 24.05.2022
1957 Clouds 16 1024 81 10000 2.06 20 08:51 24.05.2022
1958 Rain 16 1024 78 10000 3.09 10 06:58 24.05.2022
1959 Drizzle 16 1024 80 10000 2.06 360 05:59 24.05.2022
1960 Rain 16 1025 90 10000 3.09 290 02:53 24.05.2022
1961 Clouds 14 1027 84 10000 3.6 310 01:44 24.05.2022
1962 Rain 13 1023 97 10000 3.6 310 23:44 23.05.2022
1963 Rain 13 1023 97 10000 2.57 290 22:22 23.05.2022
1964 Rain 13 1024 97 10000 3.09 300 21:41 23.05.2022
1965 Rain 13 1025 86 9000 4.12 270 20:45 23.05.2022
1966 Rain 13 1026 84 8000 3.09 350 19:44 23.05.2022
1967 Rain 13 1026 88 6000 3.6 350 19:18 23.05.2022
1968 Rain 13 1026 87 7410 2.24 315 18:37 23.05.2022
1969 Rain 13 1026 87 8000 4.12 170 17:56 23.05.2022
1970 Rain 13 1026 86 10000 3.6 290 15:55 23.05.2022
1971 Clouds 14 1027 83 9258 0.89 274 13:56 23.05.2022
1972 Clouds 14 1027 86 10000 3.6 200 11:41 23.05.2022
1973 Rain 14 1027 85 10000 4.12 190 10:45 23.05.2022
1974 Rain 14 1026 84 8450 2.68 180 09:47 23.05.2022
1975 Rain 15 1026 82 9349 1.79 172 08:46 23.05.2022
1976 Rain 15 1026 82 9349 1.34 172 08:46 23.05.2022
1977 Rain 15 1027 91 10000 5.14 50 07:24 23.05.2022
1978 Rain 16 1027 87 10000 5.14 90 06:39 23.05.2022
1979 Rain 15 1027 81 6000 5.14 240 03:27 23.05.2022
1980 Thunderstorm 15 1027 85 2000 6.17 260 01:52 23.05.2022
1981 Rain 15 1027 85 6000 4.63 230 01:29 23.05.2022
1982 Rain 13 1027 83 10000 3.6 250 23:18 22.05.2022
1983 Rain 12 1027 82 10000 4.12 270 22:27 22.05.2022
1984 Rain 12 1027 82 10000 4.12 270 21:51 22.05.2022
1985 Rain 12 1026 82 10000 5.14 280 20:46 22.05.2022
1986 Rain 13 1027 81 10000 3.6 310 20:22 22.05.2022
1987 Thunderstorm 13 1027 81 10000 4.63 290 19:34 22.05.2022
1988 Thunderstorm 13 1027 85 9000 4.12 350 18:50 22.05.2022
1989 Thunderstorm 13 1027 83 10000 4.12 310 18:21 22.05.2022
1990 Rain 13 1027 84 10000 3.6 290 17:26 22.05.2022
1991 Rain 13 1027 81 10000 5.14 170 15:57 22.05.2022
1992 Rain 13 1027 84 10000 5.14 210 14:47 22.05.2022
1993 Rain 13 1027 84 10000 5.14 210 14:47 22.05.2022
1994 Rain 14 1028 83 10000 7.2 190 13:21 22.05.2022
1995 Rain 14 1027 83 10000 8.75 190 12:45 22.05.2022
1996 Rain 15 1026 83 10000 7.72 200 11:29 22.05.2022
1997 Rain 16 1024 74 10000 7.2 200 09:40 22.05.2022
1998 Clouds 17 1025 73 10000 6.17 130 07:54 22.05.2022
1999 Clouds 18 1025 70 10000 6.17 130 07:20 22.05.2022
2000 Clouds 17 1025 83 10000 6.17 140 04:59 22.05.2022
2001 Rain 15 1026 85 10000 1.79 250 01:21 22.05.2022
2002 Rain 14 1026 84 10000 1.34 160 00:39 22.05.2022
2003 Rain 14 1025 86 10000 4.12 330 23:50 21.05.2022
2004 Rain 13 1025 85 10000 3.6 300 22:26 21.05.2022
2005 Rain 13 1025 96 10000 3.6 310 21:41 21.05.2022
2006 Rain 13 1025 84 10000 3.09 290 20:48 21.05.2022
2007 Rain 14 1025 84 10000 3.09 290 20:21 21.05.2022
2008 Rain 14 1026 96 10000 3.13 88 19:25 21.05.2022
2009 Rain 14 1025 94 10000 4.63 330 17:47 21.05.2022
2010 Clouds 14 1027 85 10000 4.47 290 15:44 21.05.2022
2011 Drizzle 14 1028 85 10000 4.47 290 14:37 21.05.2022
2012 Rain 15 1028 85 10000 4.02 270 13:41 21.05.2022
2013 Rain 15 1028 81 10000 4.63 80 12:41 21.05.2022
2014 Rain 15 1028 80 6000 4.63 60 11:58 21.05.2022
2015 Rain 15 1028 77 10000 5.14 140 10:23 21.05.2022
2016 Rain 16 1028 78 10000 5.14 140 10:23 21.05.2022
2017 Rain 16 1027 78 10000 6.69 150 09:41 21.05.2022
2018 Rain 16 1026 80 10000 3.13 200 08:52 21.05.2022
2019 Rain 17 1028 75 9000 7.72 100 07:53 21.05.2022
2020 Clouds 17 1030 76 10000 6.69 130 03:48 21.05.2022
2021 Rain 13 1029 84 10000 4.47 290 23:53 20.05.2022
2022 Clouds 13 1029 84 10000 4.92 270 22:57 20.05.2022
2023 Clouds 13 1027 95 10000 3.09 290 22:23 20.05.2022
2024 Rain 13 1027 95 10000 3.09 90 21:41 20.05.2022
2025 Rain 13 1027 96 10000 5.36 270 20:54 20.05.2022
2026 Rain 13 1028 85 9309 4.47 270 19:58 20.05.2022
2027 Rain 13 1029 87 8789 4.47 270 19:26 20.05.2022
2028 Rain 13 1029 87 8789 3.58 290 18:44 20.05.2022
2029 Rain 13 1029 84 10000 4.12 280 16:54 20.05.2022
2030 Rain 13 1029 81 7000 5.66 150 16:19 20.05.2022
2031 Rain 13 1029 82 7000 5.66 150 15:47 20.05.2022
2032 Rain 13 1030 82 10000 3.6 250 14:30 20.05.2022
2033 Rain 13 1030 77 10000 0.45 241 13:55 20.05.2022
2034 Clouds 14 1030 84 10000 6.17 210 11:34 20.05.2022
2035 Rain 14 1029 84 6000 5.14 210 09:52 20.05.2022
2036 Rain 15 1029 84 10000 7.72 190 08:45 20.05.2022
2037 Rain 15 1028 82 10000 6.69 170 07:18 20.05.2022
2038 Rain 14 1029 85 7000 5.14 190 06:32 20.05.2022
2039 Rain 15 1031 77 10000 4.12 320 04:42 20.05.2022
2040 Rain 12 1027 88 4000 3.6 300 00:54 20.05.2022
2041 Rain 12 1026 72 10000 4.12 250 22:48 19.05.2022
2042 Clouds 11 1024 71 10000 4.12 250 22:21 19.05.2022
2043 Clouds 11 1024 69 10000 4.63 290 21:48 19.05.2022
2044 Rain 12 1024 68 10000 3.6 250 21:22 19.05.2022
2045 Rain 12 1024 66 10000 3.6 250 20:39 19.05.2022
2046 Rain 13 1024 70 10000 6.69 190 19:52 19.05.2022
2047 Clouds 12 1026 71 10000 3.09 310 18:31 19.05.2022
2048 Clouds 11 1024 69 10000 3.6 310 17:31 19.05.2022
2049 Clouds 12 1025 66 10000 2.57 300 15:21 19.05.2022
2050 Clouds 12 1026 64 10000 3.09 240 14:26 19.05.2022
2051 Clouds 12 1026 65 10000 4.12 230 13:47 19.05.2022
2052 Clouds 12 1028 65 10000 3.09 240 11:46 19.05.2022
2053 Clouds 15 1025 55 10000 4.12 190 09:34 19.05.2022
2054 Clouds 16 1023 51 10000 4.12 170 08:18 19.05.2022
2055 Clouds 18 1023 48 10000 3.6 180 06:18 19.05.2022
2056 Clouds 15 1024 57 10000 5.14 270 02:54 19.05.2022
2057 Clouds 11 1026 64 10000 4.63 260 00:44 19.05.2022
2058 Clouds 9 1023 70 10000 5.36 270 22:53 18.05.2022
2059 Clouds 9 1022 68 10000 5.36 270 22:35 18.05.2022
2060 Clear 9 1022 69 10000 5.66 290 21:31 18.05.2022
2061 Clear 9 1022 67 10000 5.36 270 20:54 18.05.2022
2062 Clear 9 1023 67 10000 4.12 280 20:19 18.05.2022
2063 Clear 10 1022 67 10000 4.92 270 18:43 18.05.2022
2064 Clear 11 1021 64 10000 4.47 270 17:41 18.05.2022
2065 Clear 11 1021 63 10000 4.47 270 17:23 18.05.2022
2066 Clear 12 1021 62 10000 5.66 270 16:35 18.05.2022
2067 Clear 12 1020 59 10000 5.81 270 15:42 18.05.2022
2068 Clear 13 1022 58 10000 6.17 260 14:54 18.05.2022
2069 Clouds 14 1020 57 10000 5.36 270 13:48 18.05.2022
2070 Clouds 14 1020 56 10000 5.14 260 12:53 18.05.2022
2071 Clear 14 1021 59 10000 5.66 250 11:41 18.05.2022
2072 Rain 15 1020 58 10000 5.66 250 11:23 18.05.2022
2073 Clear 16 1019 51 10000 5.14 270 09:57 18.05.2022
2074 Clear 19 1017 49 10000 8.75 220 07:56 18.05.2022
2075 Clear 20 1016 46 10000 7.72 240 06:50 18.05.2022
2076 Clouds 16 1020 53 10000 7.2 290 02:44 18.05.2022
2077 Clear 12 1019 71 10000 4.12 310 00:31 18.05.2022
2078 Clouds 9 1018 72 10000 5.14 270 22:57 17.05.2022
2079 Clear 9 1018 69 10000 3.6 300 21:21 17.05.2022
2080 Clear 9 1018 68 10000 4.12 270 20:38 17.05.2022
2081 Clear 10 1017 70 10000 3.6 300 19:29 17.05.2022
2082 Clear 10 1018 67 10000 4.63 290 18:22 17.05.2022
2083 Clear 11 1018 66 10000 4.63 310 17:28 17.05.2022
2084 Clear 11 1018 65 10000 4.02 270 16:36 17.05.2022
2085 Clear 11 1019 65 10000 4.12 300 15:45 17.05.2022
2086 Clear 12 1019 64 10000 4.47 270 14:48 17.05.2022
2087 Clear 12 1020 64 10000 4.63 270 14:23 17.05.2022
2088 Clear 13 1019 65 10000 1.79 225 12:36 17.05.2022
2089 Clear 16 1018 62 10000 3.6 200 10:23 17.05.2022
2090 Clear 19 1015 53 10000 3.6 250 08:51 17.05.2022
2091 Clear 21 1015 46 10000 2.57 260 07:41 17.05.2022
2092 Clear 21 1016 48 10000 5.14 250 05:58 17.05.2022
2093 Clouds 15 1020 75 10000 4.12 290 00:47 17.05.2022
2094 Clouds 12 1019 69 10000 4.63 280 23:35 16.05.2022
2095 Rain 11 1019 74 10000 4.63 270 22:33 16.05.2022
2096 Clear 11 1017 73 10000 1.03 290 20:56 16.05.2022
2097 Clear 11 1017 75 10000 2.57 320 20:33 16.05.2022
2098 Clear 12 1017 75 10000 1.34 270 18:41 16.05.2022
2099 Clear 13 1017 71 10000 2.24 315 16:42 16.05.2022
2100 Clear 15 1016 68 10000 2.68 290 14:58 16.05.2022
2101 Clear 16 1016 66 10000 3.58 270 13:34 16.05.2022
2102 Rain 17 1016 64 10000 7.2 250 12:37 16.05.2022
2103 Rain 17 1014 73 10000 3.6 210 10:36 16.05.2022
2104 Clear 23 1010 56 10000 3.09 280 07:48 16.05.2022
2105 Clear 23 1011 52 10000 4.12 290 05:46 16.05.2022
2106 Rain 16 1015 75 10000 3.09 290 00:48 16.05.2022
2107 Clear 13 1014 78 10000 3.6 360 22:44 15.05.2022
2108 Clear 13 1014 80 10000 3.09 360 21:59 15.05.2022
2109 Clear 13 1013 76 10000 2.57 10 21:36 15.05.2022
2110 Clouds 14 1013 73 10000 4.12 250 20:43 15.05.2022
2111 Clouds 15 1012 77 10000 3.6 300 18:46 15.05.2022
2112 Clouds 16 1013 79 10000 4.63 260 16:54 15.05.2022
2113 Clouds 18 1013 83 10000 3.6 230 14:34 15.05.2022
2114 Clouds 18 1013 81 10000 3.09 260 13:46 15.05.2022
2115 Clouds 20 1013 81 10000 2.24 290 11:59 15.05.2022
2116 Clouds 20 1012 81 10000 1.34 90 10:49 15.05.2022
2117 Rain 20 1011 78 10000 1.79 61 09:51 15.05.2022
2118 Rain 23 1010 79 10000 3.13 70 07:24 15.05.2022
2119 Clouds 23 1010 76 10000 2.57 110 06:56 15.05.2022
2120 Clear 23 1011 74 10000 2.57 290 03:38 15.05.2022
2121 Clouds 18 1014 85 10000 2.68 270 00:26 15.05.2022
2122 Clouds 18 1014 85 10000 2.68 290 23:37 14.05.2022
2123 Fog 17 1013 85 8000 3.13 290 22:39 14.05.2022
2124 Fog 17 1013 85 4000 3.13 270 21:26 14.05.2022
2125 Fog 17 1013 85 5000 3.6 300 20:28 14.05.2022
2126 Fog 17 1013 86 900 3.13 290 19:21 14.05.2022
2127 Clear 18 1013 85 10000 3.13 290 18:59 14.05.2022
2128 Clear 18 1014 85 10000 2.57 310 17:53 14.05.2022
2129 Clear 18 1014 84 10000 1.54 310 16:23 14.05.2022
2130 Clear 19 1014 84 10000 0.89 20 14:50 14.05.2022
2131 Clouds 19 1014 83 10000 1.54 310 14:26 14.05.2022
2132 Clouds 20 1012 83 10000 3.6 20 11:51 14.05.2022
2133 Clouds 21 1012 83 10000 5.66 30 10:53 14.05.2022
2134 Clouds 21 1012 82 10000 5.66 30 10:20 14.05.2022
2135 Clear 21 1012 82 10000 5.14 30 09:46 14.05.2022
2136 Clouds 23 1011 79 10000 5.14 40 07:59 14.05.2022
2137 Clouds 23 1012 79 10000 3.6 170 05:26 14.05.2022
2138 Clouds 20 1015 85 10000 3.09 340 01:57 14.05.2022
2139 Clouds 18 1014 84 10000 2.57 320 23:31 13.05.2022
2140 Clouds 18 1014 86 10000 3.09 280 22:57 13.05.2022
2141 Clouds 18 1016 84 10000 1.54 330 22:23 13.05.2022
2142 Clouds 18 1016 84 10000 2.24 270 21:35 13.05.2022
2143 Clouds 17 1016 82 10000 3.09 260 20:44 13.05.2022
2144 Clouds 18 1016 82 9000 2.57 270 20:23 13.05.2022
2145 Clouds 18 1016 84 10000 2.57 320 19:21 13.05.2022
2146 Clouds 18 1016 83 10000 2.06 350 17:50 13.05.2022
2147 Clouds 18 1016 83 10000 3.09 350 17:26 13.05.2022
2148 Clouds 18 1017 85 10000 2.57 310 15:53 13.05.2022
2149 Clouds 18 1016 87 10000 2.24 270 14:54 13.05.2022
2150 Clouds 18 1016 86 10000 3.6 280 13:27 13.05.2022
2151 Clouds 18 1015 83 10000 0.89 323 12:25 13.05.2022
2152 Clouds 19 1015 84 10000 2.24 70 10:46 13.05.2022
2153 Clouds 19 1013 82 10000 3.6 20 09:31 13.05.2022
2154 Clouds 20 1013 82 10000 4.63 30 08:23 13.05.2022
2155 Clouds 20 1014 82 10000 4.12 40 07:42 13.05.2022
2156 Rain 20 1014 83 10000 1.79 90 05:59 13.05.2022
2157 Rain 18 1017 95 10000 4.63 330 02:44 13.05.2022
2158 Rain 17 1018 83 10000 2.24 290 23:46 12.05.2022
2159 Rain 17 1018 84 10000 2.68 290 22:44 12.05.2022
2160 Rain 17 1017 84 10000 2.57 310 21:54 12.05.2022
2161 Rain 18 1017 83 10000 0.89 338 20:25 12.05.2022
2162 Clouds 18 1015 86 10000 3.09 350 18:50 12.05.2022
2163 Clouds 18 1015 85 10000 2.24 20 16:58 12.05.2022
2164 Clouds 19 1016 84 10000 4.63 360 15:50 12.05.2022
2165 Rain 19 1016 86 10000 4.63 360 14:39 12.05.2022
2166 Rain 19 1017 85 10000 8.75 30 13:38 12.05.2022
2167 Rain 19 1016 85 10000 4.92 45 10:45 12.05.2022
2168 Rain 19 1016 83 10000 2.68 14 09:28 12.05.2022
2169 Rain 19 1016 84 10000 3.13 37 08:50 12.05.2022
2170 Rain 20 1016 84 10000 2.24 24 07:38 12.05.2022
2171 Rain 20 1017 83 9000 8.23 10 05:46 12.05.2022
2172 Rain 19 1020 85 10000 5.66 40 02:49 12.05.2022
2173 Rain 18 1020 96 10000 2.68 45 00:35 12.05.2022
2174 Clouds 17 1020 97 10000 2.24 309 22:34 11.05.2022
2175 Rain 16 1020 97 10000 3.09 250 21:46 11.05.2022
2176 Rain 16 1020 97 10000 2.57 190 21:21 11.05.2022
2177 Rain 16 1021 96 8000 1.54 360 18:33 11.05.2022
2178 Rain 16 1024 95 10000 2.57 350 16:53 11.05.2022
2179 Rain 16 1023 87 10000 2.57 320 15:31 11.05.2022
2180 Rain 16 1023 87 10000 2.57 320 15:31 11.05.2022
2181 Rain 16 1023 87 10000 2.57 320 15:31 11.05.2022
2182 Rain 16 1023 87 10000 2.57 320 15:31 11.05.2022
2183 Rain 16 1023 87 10000 2.57 320 15:31 11.05.2022
2184 Rain 17 1023 96 5000 3.09 10 14:38 11.05.2022
2185 Rain 17 1023 96 5000 3.09 10 14:18 11.05.2022
2186 Rain 17 1024 86 10000 9.83 311 11:54 11.05.2022
2187 Rain 17 1024 84 10000 4.02 45 10:44 11.05.2022
2188 Rain 17 1023 85 10000 1.34 306 08:40 11.05.2022
2189 Clouds 18 1027 86 10000 4.63 20 05:28 11.05.2022
2190 Clouds 17 1028 78 10000 6.69 70 00:43 11.05.2022
2191 Rain 16 1027 77 10000 4.47 45 22:31 10.05.2022
2192 Rain 16 1026 82 5000 5.36 90 21:57 10.05.2022
2193 Rain 16 1026 84 10000 7.2 90 20:57 10.05.2022
2194 Rain 16 1027 85 10000 7.15 110 19:37 10.05.2022
2195 Rain 16 1027 86 10000 7.2 70 17:58 10.05.2022
2196 Rain 16 1028 84 5000 7.72 90 17:29 10.05.2022
2197 Rain 16 1028 81 10000 2.68 154 15:31 10.05.2022
2198 Clouds 17 1028 67 10000 6.17 100 12:45 10.05.2022
2199 Clouds 17 1029 67 10000 7.2 90 11:51 10.05.2022
2200 Clouds 18 1029 66 10000 6.69 90 11:20 10.05.2022
2201 Clouds 18 1029 66 10000 7.15 110 10:53 10.05.2022
2202 Clouds 19 1028 68 10000 7.2 100 09:26 10.05.2022
2203 Clouds 20 1027 67 10000 8.23 90 07:22 10.05.2022
2204 Clouds 20 1028 71 10000 7.2 90 04:32 10.05.2022
2205 Fog 16 1031 83 10000 2.57 310 01:18 10.05.2022
2206 Clouds 13 1030 81 10000 2.57 300 22:57 09.05.2022
2207 Rain 13 1029 86 10000 4.92 270 21:51 09.05.2022
2208 Rain 13 1029 88 10000 2.68 290 21:18 09.05.2022
2209 Clouds 13 1029 86 10000 2.06 300 19:29 09.05.2022
2210 Rain 14 1029 88 10000 2.57 250 17:56 09.05.2022
2211 Rain 14 1030 87 8000 3.6 200 16:38 09.05.2022
2212 Rain 14 1030 87 10000 2.57 250 15:52 09.05.2022
2213 Rain 14 1030 87 10000 3.6 250 15:31 09.05.2022
2214 Rain 15 1029 88 10000 4.63 220 14:32 09.05.2022
2215 Rain 15 1030 87 10000 5.14 210 13:50 09.05.2022
2216 Rain 15 1029 88 10000 4.63 240 12:30 09.05.2022
2217 Rain 15 1029 87 10000 4.63 200 11:43 09.05.2022
2218 Rain 15 1029 87 8000 3.6 210 10:44 09.05.2022
2219 Rain 16 1028 86 10000 5.66 200 09:38 09.05.2022
2220 Rain 17 1026 83 4000 5.14 200 07:55 09.05.2022
2221 Rain 16 1025 83 10000 7.2 210 03:40 09.05.2022
2222 Rain 14 1024 84 10000 6.69 210 00:21 09.05.2022
2223 Rain 13 1023 83 10000 7.2 210 22:57 08.05.2022
2224 Rain 13 1023 83 10000 7.2 210 22:22 08.05.2022
2225 Rain 13 1022 81 10000 5.66 230 20:37 08.05.2022
2226 Rain 12 1023 80 10000 4.63 250 19:53 08.05.2022
2227 Rain 12 1023 79 9000 5.14 210 18:59 08.05.2022
2228 Rain 13 1023 77 10000 6.17 210 18:24 08.05.2022
2229 Clouds 13 1023 74 10000 2.57 330 17:21 08.05.2022
2230 Clouds 13 1023 73 10000 4.63 310 15:43 08.05.2022
2231 Clouds 12 1023 74 10000 4.63 310 15:20 08.05.2022
2232 Clouds 13 1021 70 10000 3.09 230 12:41 08.05.2022
2233 Clear 15 1022 67 10000 0.89 200 10:46 08.05.2022
2234 Clear 15 1022 65 10000 3.6 150 10:21 08.05.2022
2235 Clear 16 1022 61 10000 3.09 150 09:46 08.05.2022
2236 Clear 19 1019 52 10000 3.6 180 07:33 08.05.2022
2237 Clear 19 1019 49 10000 2.57 240 04:24 08.05.2022
2238 Clear 18 1021 53 10000 4.92 270 03:20 08.05.2022
2239 Clouds 12 1021 64 10000 4.63 290 00:29 08.05.2022
2240 Clouds 11 1022 67 10000 4.92 270 23:53 07.05.2022
2241 Clouds 9 1021 68 10000 4.63 310 22:58 07.05.2022
2242 Clouds 9 1020 68 10000 5.14 310 22:34 07.05.2022
2243 Clear 9 1021 70 10000 4.47 270 21:44 07.05.2022
2244 Clear 9 1020 69 10000 4.92 270 20:56 07.05.2022
2245 Clear 9 1020 70 10000 5.14 290 19:59 07.05.2022
2246 Clear 9 1019 70 10000 4.63 300 18:38 07.05.2022
2247 Clear 10 1020 67 10000 6.17 290 15:58 07.05.2022
2248 Clear 11 1020 62 10000 5.14 310 14:44 07.05.2022
2249 Clouds 14 1019 49 10000 5.66 300 10:59 07.05.2022
2250 Clear 16 1018 46 10000 7.72 250 09:39 07.05.2022
2251 Clear 19 1015 42 10000 7.72 250 07:54 07.05.2022
2252 Clear 19 1015 43 10000 7.2 270 06:44 07.05.2022
2253 Clear 19 1016 45 10000 7.72 290 05:34 07.05.2022
2254 Clear 16 1018 50 10000 6.69 290 03:32 07.05.2022
2255 Clear 9 1019 70 10000 2.68 270 23:39 06.05.2022
2256 Clear 8 1018 70 10000 4.12 330 22:33 06.05.2022
2257 Clear 8 1018 71 10000 3.58 290 21:47 06.05.2022
2258 Clear 8 1018 69 10000 4.12 310 20:37 06.05.2022
2259 Clear 9 1018 68 10000 4.63 310 19:42 06.05.2022
2260 Clear 9 1018 68 10000 4.63 310 19:19 06.05.2022
2261 Clear 9 1018 69 10000 4.63 290 18:24 06.05.2022
2262 Clear 9 1017 66 10000 4.12 290 17:27 06.05.2022
2263 Clear 10 1019 66 10000 5.36 270 15:49 06.05.2022
2264 Clear 11 1018 64 10000 4.92 270 14:58 06.05.2022
2265 Clear 12 1018 62 10000 4.63 240 13:31 06.05.2022
2266 Clear 12 1017 65 10000 3.31 263 12:41 06.05.2022
2267 Clear 12 1017 66 10000 1.34 290 11:49 06.05.2022
2268 Clear 14 1016 60 10000 2.57 180 10:36 06.05.2022
2269 Clear 16 1016 53 10000 2.57 230 09:46 06.05.2022
2270 Clear 18 1014 45 10000 3.09 230 08:52 06.05.2022
2271 Clear 19 1014 39 10000 3.09 280 07:26 06.05.2022
2272 Clear 19 1014 40 10000 5.14 240 05:48 06.05.2022
2273 Clear 17 1016 46 10000 7.15 270 02:54 06.05.2022
2274 Clear 15 1017 51 10000 5.81 270 01:57 06.05.2022
2275 Clouds 10 1015 69 10000 4.92 270 22:45 05.05.2022
2276 Clouds 10 1015 69 10000 4.92 270 22:45 05.05.2022
2277 Clear 11 1015 67 10000 4.63 260 21:31 05.05.2022
2278 Clear 12 1015 68 10000 4.63 250 20:27 05.05.2022
2279 Clouds 14 1014 67 10000 5.81 250 18:36 05.05.2022
2280 Clouds 15 1013 72 10000 4.92 225 16:40 05.05.2022
2281 Clouds 16 1013 80 10000 3.09 300 14:53 05.05.2022
2282 Clouds 16 1012 80 10000 4.63 240 13:25 05.05.2022
2283 Clouds 16 1012 81 10000 3.09 240 12:53 05.05.2022
2284 Clouds 17 1011 77 10000 3.09 190 10:53 05.05.2022
2285 Clouds 19 1009 74 10000 3.09 150 09:40 05.05.2022
2286 Clouds 21 1008 68 10000 4.12 150 07:45 05.05.2022
2287 Clouds 22 1008 61 10000 2.24 250 05:42 05.05.2022
2288 Clouds 20 1011 75 10000 3.6 290 02:18 05.05.2022
2289 Clouds 18 1011 81 10000 3.6 300 01:32 05.05.2022
2290 Clear 16 1010 84 10000 4.12 280 23:55 04.05.2022
2291 Rain 16 1009 81 10000 1.94 278 22:50 04.05.2022
2292 Rain 16 1010 82 10000 5.66 270 21:59 04.05.2022
2293 Rain 17 1010 81 10000 4.02 290 21:29 04.05.2022
2294 Clear 16 1009 80 10000 3.6 330 20:30 04.05.2022
2295 Clear 17 1009 80 10000 3.58 270 19:56 04.05.2022
2296 Clear 17 1009 79 10000 3.58 270 19:31 04.05.2022
2297 Clear 17 1010 77 10000 2.57 290 18:22 04.05.2022
2298 Clouds 18 1010 77 10000 2.24 290 17:58 04.05.2022
2299 Clear 19 1013 75 10000 4.63 10 15:57 04.05.2022
2300 Clouds 19 1013 75 10000 2.68 20 15:30 04.05.2022
2301 Clouds 19 1010 75 10000 2.24 355 14:21 04.05.2022
2302 Clouds 19 1011 75 10000 1.79 20 13:50 04.05.2022
2303 Clear 19 1011 75 10000 4.12 30 12:34 04.05.2022
2304 Clouds 20 1011 75 10000 4.63 30 10:57 04.05.2022
2305 Clear 21 1010 72 10000 4.12 30 09:46 04.05.2022
2306 Clear 22 1010 67 10000 5.14 40 08:49 04.05.2022
2307 Clear 24 1010 59 10000 3.13 70 07:33 04.05.2022
2308 Clear 23 1012 56 10000 3.6 300 03:50 04.05.2022
2309 Clear 19 1015 71 10000 3.09 310 01:41 04.05.2022
2310 Rain 12 1014 86 10000 4.12 310 22:54 03.05.2022
2311 Rain 13 1014 86 10000 4.63 310 21:47 03.05.2022
2312 Clear 13 1014 86 10000 4.12 310 21:21 03.05.2022
2313 Clear 13 1014 84 10000 4.12 310 21:21 03.05.2022
2314 Clear 13 1014 84 10000 2.57 330 20:38 03.05.2022
2315 Clear 14 1014 85 10000 3.09 300 18:55 03.05.2022
2316 Clear 14 1015 84 10000 2.57 330 18:37 03.05.2022
2317 Clear 15 1016 84 10000 3.13 270 17:20 03.05.2022
2318 Clear 15 1016 83 10000 3.09 310 15:48 03.05.2022
2319 Clear 16 1016 81 10000 3.6 340 14:22 03.05.2022
2320 Clear 17 1017 79 10000 3.09 10 12:31 03.05.2022
2321 Clear 18 1016 77 10000 3.6 40 11:24 03.05.2022
2322 Clear 18 1016 75 10000 4.63 30 10:25 03.05.2022
2323 Clouds 22 1015 65 10000 6.17 40 08:18 03.05.2022
2324 Clouds 23 1015 60 10000 4.47 90 06:45 03.05.2022
2325 Clouds 19 1020 77 10000 3.09 310 01:56 03.05.2022
2326 Clouds 13 1019 86 10000 3.13 270 22:56 02.05.2022
2327 Clouds 13 1019 86 10000 3.6 320 22:28 02.05.2022
2328 Clouds 13 1018 86 10000 4.12 340 21:27 02.05.2022
2329 Clouds 14 1019 85 10000 2.57 330 19:22 02.05.2022
2330 Clouds 14 1020 85 10000 2.68 290 18:25 02.05.2022
2331 Clouds 15 1020 84 10000 2.68 270 17:38 02.05.2022
2332 Clouds 15 1020 85 10000 3.6 290 16:42 02.05.2022
2333 Clouds 15 1020 84 10000 3.09 290 15:41 02.05.2022
2334 Clouds 16 1020 82 10000 2.57 10 14:27 02.05.2022
2335 Clouds 17 1021 81 10000 3.09 20 13:19 02.05.2022
2336 Clouds 17 1021 81 10000 3.6 30 11:41 02.05.2022
2337 Clouds 19 1018 76 10000 3.6 50 09:42 02.05.2022
2338 Clouds 21 1018 71 10000 4.63 30 08:20 02.05.2022
2339 Clouds 22 1019 67 10000 3.58 90 06:31 02.05.2022
2340 Clouds 15 1022 82 10000 4.12 340 00:46 02.05.2022
2341 Clouds 14 1022 84 10000 3.09 330 00:21 02.05.2022
2342 Clouds 12 1021 87 10000 4.02 270 22:54 01.05.2022
2343 Clouds 13 1020 85 10000 3.09 340 21:42 01.05.2022
2344 Clear 13 1020 87 10000 3.13 290 20:30 01.05.2022
2345 Clear 13 1020 87 10000 3.58 290 19:22 01.05.2022
2346 Clear 13 1020 87 10000 3.58 270 18:52 01.05.2022
2347 Clear 14 1020 87 10000 3.58 290 17:49 01.05.2022
2348 Clouds 14 1020 86 10000 3.58 290 16:37 01.05.2022
2349 Clouds 14 1020 83 10000 2.06 260 15:57 01.05.2022
2350 Clouds 15 1021 84 10000 2.57 290 14:45 01.05.2022
2351 Clouds 16 1021 82 10000 2.06 60 12:40 01.05.2022
2352 Clear 17 1020 78 10000 2.57 80 10:22 01.05.2022
2353 Clouds 19 1018 72 10000 3.6 120 08:50 01.05.2022
2354 Clouds 21 1018 63 10000 4.63 110 06:50 01.05.2022
2355 Clouds 18 1020 57 10000 4.02 250 02:31 01.05.2022
2356 Clouds 13 1019 70 10000 6.71 270 22:51 30.04.2022
2357 Clouds 13 1019 69 10000 6.26 270 21:33 30.04.2022
2358 Clouds 13 1019 69 10000 6.26 270 21:33 30.04.2022
2359 Clouds 13 1018 68 10000 5.66 250 20:19 30.04.2022
2360 Clouds 14 1018 69 10000 6.69 250 19:31 30.04.2022
2361 Clouds 13 1019 71 10000 5.81 270 17:32 30.04.2022
2362 Clear 13 1019 69 10000 5.81 270 15:53 30.04.2022
2363 Clear 14 1020 71 10000 5.81 270 15:19 30.04.2022
2364 Clear 14 1019 71 10000 5.66 240 14:19 30.04.2022
2365 Clouds 16 1017 84 10000 5.14 240 11:59 30.04.2022
2366 Clouds 16 1017 87 10000 3.6 250 11:32 30.04.2022
2367 Clouds 17 1016 85 10000 1.34 315 10:25 30.04.2022
2368 Clouds 19 1013 78 10000 2.57 320 08:25 30.04.2022
2369 Rain 18 1013 85 10000 5.66 340 04:58 30.04.2022
2370 Rain 20 1015 81 10000 7.72 250 00:34 30.04.2022
2371 Clouds 20 1012 84 10000 4.12 30 22:58 29.04.2022
2372 Rain 20 1011 85 10000 3.6 10 22:29 29.04.2022
2373 Clear 20 1012 84 10000 3.6 30 21:26 29.04.2022
2374 Clear 20 1012 85 10000 3.09 350 20:36 29.04.2022
2375 Clear 20 1013 82 10000 0.45 32 19:33 29.04.2022
2376 Clear 21 1017 83 10000 2.57 360 17:38 29.04.2022
2377 Clear 21 1017 83 10000 3.09 20 16:43 29.04.2022
2378 Clear 21 1015 82 10000 3.6 360 14:38 29.04.2022
2379 Clear 22 1015 82 10000 3.6 360 14:38 29.04.2022
2380 Clear 21 1015 82 10000 3.6 360 14:38 29.04.2022
2381 Clear 21 1015 82 10000 3.6 360 14:38 29.04.2022
2382 Clear 22 1015 81 10000 5.66 10 13:59 29.04.2022
2383 Rain 22 1016 84 10000 5.14 20 12:41 29.04.2022
2384 Clouds 22 1015 83 10000 5.66 30 10:57 29.04.2022
2385 Clouds 25 1015 75 10000 6.69 20 08:18 29.04.2022
2386 Clouds 25 1015 74 10000 5.14 60 07:27 29.04.2022
2387 Clouds 26 1014 72 10000 3.09 120 06:35 29.04.2022
2388 Clear 25 1018 73 10000 3.09 280 03:28 29.04.2022
2389 Clouds 18 1019 87 10000 3.09 310 00:18 29.04.2022
2390 Clouds 17 1019 89 10000 3.09 300 23:26 28.04.2022
2391 Clouds 17 1019 88 10000 3.09 230 22:40 28.04.2022
2392 Clouds 18 1018 87 10000 1.03 290 21:46 28.04.2022
2393 Clouds 18 1018 88 10000 3.09 330 20:51 28.04.2022
2394 Clouds 18 1017 88 10000 2.24 270 19:59 28.04.2022
2395 Clouds 18 1017 88 10000 2.24 270 19:40 28.04.2022
2396 Clouds 18 1019 89 10000 0.89 315 19:20 28.04.2022
2397 Clear 18 1016 87 10000 2.57 300 17:56 28.04.2022
2398 Clear 18 1017 87 10000 3.6 350 16:59 28.04.2022
2399 Clear 18 1016 87 10000 3.09 350 16:21 28.04.2022
2400 Clear 18 1016 86 10000 3.6 340 15:57 28.04.2022
2401 Clear 19 1017 87 10000 4.12 350 15:27 28.04.2022
2402 Clear 19 1019 88 10000 4.63 350 13:44 28.04.2022
2403 Clouds 19 1018 88 10000 5.14 340 12:38 28.04.2022
2404 Rain 19 1016 89 10000 5.66 340 11:51 28.04.2022
2405 Clouds 19 1016 89 10000 2.68 20 10:30 28.04.2022
2406 Rain 19 1015 89 10000 3.13 20 09:52 28.04.2022
2407 Rain 19 1015 93 10000 1.79 45 08:20 28.04.2022
2408 Rain 20 1015 92 7000 4.12 350 06:56 28.04.2022
2409 Rain 20 1016 90 5000 3.09 350 05:54 28.04.2022
2410 Rain 21 1016 84 10000 2.68 70 04:50 28.04.2022
2411 Rain 21 1016 84 10000 2.68 70 04:31 28.04.2022
2412 Rain 18 1017 90 10000 2.57 310 23:59 27.04.2022
2413 Rain 17 1017 92 9000 2.06 310 22:34 27.04.2022
2414 Rain 17 1016 92 9000 3.09 310 21:51 27.04.2022
2415 Clouds 17 1016 92 10000 4.47 270 20:56 27.04.2022
2416 Clouds 17 1016 92 8000 4.47 270 20:35 27.04.2022
2417 Clouds 17 1016 93 8000 3.09 330 19:37 27.04.2022
2418 Rain 17 1016 92 8000 3.13 270 18:52 27.04.2022
2419 Rain 17 1016 93 8000 3.13 270 18:22 27.04.2022
2420 Rain 17 1016 91 10000 3.09 310 16:29 27.04.2022
2421 Clouds 18 1017 92 10000 3.13 290 14:31 27.04.2022
2422 Rain 18 1016 93 10000 3.09 290 11:45 27.04.2022
2423 Clouds 18 1016 92 10000 3.09 290 11:20 27.04.2022
2424 Rain 18 1016 91 10000 2.68 270 09:19 27.04.2022
2425 Rain 19 1015 91 10000 1.54 70 07:18 27.04.2022
2426 Rain 19 1015 91 10000 1.54 350 04:30 27.04.2022
2427 Rain 18 1017 91 10000 4.02 290 01:32 27.04.2022
2428 Rain 17 1018 92 10000 2.24 290 00:37 27.04.2022
2429 Rain 16 1018 93 10000 2.24 290 23:39 26.04.2022
2430 Clouds 15 1018 93 10000 2.24 290 23:18 26.04.2022
2431 Clouds 15 1017 93 10000 3.09 290 22:39 26.04.2022
2432 Clouds 15 1017 91 10000 0 0 21:35 26.04.2022
2433 Clouds 16 1017 92 10000 2.06 280 20:52 26.04.2022
2434 Clouds 16 1017 93 10000 2.06 280 20:30 26.04.2022
2435 Rain 16 1017 92 10000 2.68 290 19:32 26.04.2022
2436 Rain 16 1017 92 10000 2.57 270 18:45 26.04.2022
2437 Rain 16 1017 92 10000 4.47 270 17:59 26.04.2022
2438 Clouds 16 1018 92 10000 4.12 230 16:58 26.04.2022
2439 Clouds 17 1018 90 10000 1.54 180 14:27 26.04.2022
2440 Rain 17 1017 91 10000 0.89 180 13:33 26.04.2022
2441 Rain 17 1018 88 10000 1.36 80 11:57 26.04.2022
2442 Drizzle 18 1017 86 10000 2.06 170 10:37 26.04.2022
2443 Rain 18 1018 83 10000 2.57 190 09:25 26.04.2022
2444 Rain 20 1017 79 10000 2.06 220 07:38 26.04.2022
2445 Rain 19 1020 83 10000 2.57 240 04:33 26.04.2022
2446 Rain 17 1023 91 9000 3.13 200 01:30 26.04.2022
2447 Rain 16 1022 91 10000 0.89 197 00:26 26.04.2022
2448 Rain 15 1022 90 10000 4.63 210 22:46 25.04.2022
2449 Clouds 15 1021 89 10000 2.57 170 21:42 25.04.2022
2450 Rain 15 1021 88 10000 2.06 50 20:40 25.04.2022
2451 Clouds 15 1021 84 10000 5.14 130 18:58 25.04.2022
2452 Rain 16 1022 86 10000 4.63 20 17:54 25.04.2022
2453 Rain 16 1022 86 10000 4.02 90 17:23 25.04.2022
2454 Clouds 16 1022 81 10000 2.57 60 15:29 25.04.2022
2455 Clouds 16 1023 77 10000 3.6 80 14:46 25.04.2022
2456 Clouds 16 1023 76 10000 4.02 90 13:35 25.04.2022
2457 Clouds 18 1023 74 10000 4.12 70 11:43 25.04.2022
2458 Clouds 19 1022 70 10000 4.92 110 10:26 25.04.2022
2459 Clouds 20 1022 65 10000 4.63 110 08:47 25.04.2022
2460 Rain 21 1023 70 10000 4.63 180 06:46 25.04.2022
2461 Clouds 21 1024 74 10000 2.24 290 04:33 25.04.2022
2462 Clouds 16 1027 92 10000 4.63 260 00:58 25.04.2022
2463 Rain 15 1026 91 4000 2.06 210 23:52 24.04.2022
2464 Clouds 15 1026 92 10000 4.63 310 22:49 24.04.2022
2465 Clouds 15 1026 91 10000 4.02 270 22:29 24.04.2022
2466 Rain 15 1026 91 10000 2.57 280 21:41 24.04.2022
2467 Rain 15 1025 91 5000 2.57 60 21:18 24.04.2022
2468 Rain 15 1024 89 10000 2.06 300 20:35 24.04.2022
2469 Rain 15 1026 91 10000 4.63 220 19:48 24.04.2022
2470 Rain 15 1026 90 10000 4.63 220 18:20 24.04.2022
2471 Clear 15 1027 89 10000 4.12 230 17:37 24.04.2022
2472 Clear 15 1026 88 10000 4.12 230 17:19 24.04.2022
2473 Clear 15 1027 89 10000 3.13 270 16:35 24.04.2022
2474 Clouds 15 1027 89 10000 4.12 240 15:56 24.04.2022
2475 Clouds 16 1027 88 10000 4.63 230 15:31 24.04.2022
2476 Clouds 16 1027 88 10000 4.63 230 15:31 24.04.2022
2477 Clouds 17 1028 85 10000 3.6 230 14:19 24.04.2022
2478 Rain 17 1028 85 10000 4.63 190 13:25 24.04.2022
2479 Rain 17 1028 82 10000 5.66 230 12:35 24.04.2022
2480 Rain 18 1027 79 10000 4.63 170 11:34 24.04.2022
2481 Clouds 19 1026 76 10000 5.14 150 10:30 24.04.2022
2482 Clouds 20 1026 71 10000 6.17 170 09:29 24.04.2022
2483 Clouds 22 1026 57 10000 4.12 140 06:46 24.04.2022
2484 Clouds 21 1028 65 10000 4.12 150 03:57 24.04.2022
2485 Clouds 19 1028 79 10000 2.06 310 01:38 24.04.2022
2486 Clouds 16 1028 86 10000 2.57 330 00:30 24.04.2022
2487 Clouds 14 1031 89 10000 2.57 330 23:45 23.04.2022
2488 Clouds 13 1026 91 10000 3.13 270 23:22 23.04.2022
2489 Clouds 13 1026 91 10000 3.13 270 23:22 23.04.2022
2490 Clouds 14 1028 91 10000 3.6 330 21:54 23.04.2022
2491 Clouds 13 1028 91 10000 3.09 340 21:34 23.04.2022
2492 Clouds 14 1027 91 10000 3.6 340 20:57 23.04.2022
2493 Clear 14 1027 90 10000 3.13 270 19:48 23.04.2022
2494 Clear 14 1027 91 10000 3.13 270 19:19 23.04.2022
2495 Clouds 14 1027 91 10000 1.54 210 18:52 23.04.2022
2496 Rain 15 1028 90 10000 2.68 270 17:52 23.04.2022
2497 Clouds 15 1029 90 10000 3.6 310 17:30 23.04.2022
2498 Clouds 15 1028 88 10000 3.6 330 16:42 23.04.2022
2499 Rain 15 1028 85 10000 4.02 20 15:32 23.04.2022
2500 Clouds 16 1029 81 10000 3.13 110 12:49 23.04.2022
2501 Clouds 18 1028 76 10000 3.6 140 10:49 23.04.2022
2502 Clouds 19 1026 72 10000 4.12 140 09:38 23.04.2022
2503 Clear 21 1027 67 10000 4.12 130 07:21 23.04.2022
2504 Clouds 21 1029 69 10000 3.09 160 03:54 23.04.2022
2505 Drizzle 17 1027 91 10000 3.6 240 01:25 23.04.2022
2506 Clouds 15 1022 92 10000 0.45 299 23:31 22.04.2022
2507 Fog 15 1024 92 10000 3.09 310 22:22 22.04.2022
2508 Clouds 15 1025 92 10000 2.57 300 21:44 22.04.2022
2509 Clouds 15 1028 94 10000 2.57 290 20:54 22.04.2022
2510 Clouds 15 1028 94 10000 2.57 240 20:27 22.04.2022
2511 Rain 15 1027 94 10000 3.6 240 19:21 22.04.2022
2512 Rain 15 1027 94 9000 2.57 210 18:45 22.04.2022
2513 Rain 15 1026 94 10000 3.6 240 17:48 22.04.2022
2514 Rain 15 1027 94 8000 2.57 290 16:46 22.04.2022
2515 Rain 15 1027 93 6000 3.6 220 15:45 22.04.2022
2516 Rain 15 1028 93 7000 3.58 290 15:18 22.04.2022
2517 Rain 15 1029 92 10000 3.09 50 13:54 22.04.2022
2518 Rain 16 1028 92 10000 3.6 190 12:59 22.04.2022
2519 Rain 16 1028 92 9000 4.12 210 12:28 22.04.2022
2520 Rain 16 1027 89 10000 3.09 230 11:22 22.04.2022
2521 Rain 16 1027 88 10000 3.6 110 10:51 22.04.2022
2522 Rain 16 1026 86 10000 4.12 90 10:31 22.04.2022
2523 Rain 17 1026 83 10000 6.17 130 09:53 22.04.2022
2524 Clouds 17 1026 84 8000 5.14 110 08:56 22.04.2022
2525 Rain 17 1025 84 10000 6.17 120 07:44 22.04.2022
2526 Rain 18 1025 80 10000 6.69 150 04:24 22.04.2022
2527 Clouds 16 1025 85 10000 3.58 290 00:53 22.04.2022
2528 Clouds 15 1020 85 10000 0.45 324 23:28 21.04.2022
2529 Clouds 15 1023 84 10000 6.17 220 22:29 21.04.2022
2530 Rain 15 1023 88 10000 7.72 210 20:55 21.04.2022
2531 Clouds 15 1022 88 10000 4.92 270 20:26 21.04.2022
2532 Rain 15 1022 88 10000 3.13 200 18:48 21.04.2022
2533 Rain 15 1024 88 10000 5.66 210 18:19 21.04.2022
2534 Rain 16 1022 89 10000 1.34 189 16:49 21.04.2022
2535 Rain 16 1022 88 10000 6.69 160 15:23 21.04.2022
2536 Rain 16 1023 87 8000 7.2 130 14:51 21.04.2022
2537 Rain 17 1023 83 10000 7.2 150 13:52 21.04.2022
2538 Clouds 18 1022 82 10000 7.2 150 13:19 21.04.2022
2539 Rain 19 1021 73 10000 9.26 160 11:25 21.04.2022
2540 Clouds 19 1020 70 10000 7.2 160 09:23 21.04.2022
2541 Clouds 19 1020 74 10000 7.72 160 08:29 21.04.2022
2542 Clouds 18 1019 85 10000 8.23 160 06:25 21.04.2022
2543 Clouds 22 1019 62 10000 7.72 170 03:37 21.04.2022
2544 Clouds 21 1019 59 10000 6.69 170 02:56 21.04.2022
2545 Clouds 21 1019 59 10000 2.57 250 02:38 21.04.2022
2546 Clouds 16 1020 72 10000 6.69 260 00:25 21.04.2022
2547 Clear 14 1018 75 10000 6.26 270 23:24 20.04.2022
2548 Clouds 13 1019 77 10000 6.26 270 22:52 20.04.2022
2549 Clouds 13 1019 77 10000 6.26 270 22:32 20.04.2022
2550 Clouds 13 1017 77 10000 6.26 270 22:32 20.04.2022
2551 Clouds 13 1017 77 10000 6.26 270 22:32 20.04.2022
2552 Clouds 13 1018 75 10000 5.81 270 21:35 20.04.2022
2553 Clouds 13 1017 73 10000 4.92 270 20:43 20.04.2022
2554 Clouds 13 1017 72 10000 4.92 270 20:20 20.04.2022
2555 Clear 13 1017 71 10000 4.92 270 19:38 20.04.2022
2556 Clear 13 1016 70 10000 4.63 280 18:42 20.04.2022
2557 Clear 14 1017 67 10000 4.02 270 16:59 20.04.2022
2558 Clear 14 1017 67 10000 4.12 310 16:39 20.04.2022
2559 Clouds 15 1016 64 10000 4.63 240 14:52 20.04.2022
2560 Clouds 17 1018 65 10000 5.66 230 12:18 20.04.2022
2561 Clear 17 1014 68 10000 1.34 315 11:36 20.04.2022
2562 Clear 19 1014 64 10000 2.57 230 10:30 20.04.2022
2563 Clear 21 1012 57 10000 2.06 140 09:27 20.04.2022
2564 Clear 23 1011 48 10000 3.58 200 08:25 20.04.2022
2565 Clear 24 1010 47 10000 2.57 150 07:44 20.04.2022
2566 Clouds 23 1011 53 10000 4.92 290 05:19 20.04.2022
2567 Clouds 19 1012 64 10000 6.26 270 01:35 20.04.2022
2568 Clear 17 1011 71 10000 5.66 270 00:21 20.04.2022
2569 Clouds 14 1009 77 10000 5.14 280 22:44 19.04.2022
2570 Clouds 14 1009 78 10000 5.14 280 22:23 19.04.2022
2571 Clear 14 1009 78 10000 6.17 310 21:46 19.04.2022
2572 Clouds 14 1008 79 10000 4.63 320 20:57 19.04.2022
2573 Clouds 15 1008 79 10000 4.12 300 20:37 19.04.2022
2574 Clear 15 1007 81 10000 5.66 280 19:32 19.04.2022
2575 Clear 16 1007 86 10000 7.2 310 18:30 19.04.2022
2576 Rain 16 1006 92 10000 5.36 0 16:50 19.04.2022
2577 Clear 16 1006 91 10000 5.36 0 16:25 19.04.2022
2578 Drizzle 16 1007 92 10000 4.12 340 15:59 19.04.2022
2579 Rain 16 1006 90 9000 5.14 320 14:46 19.04.2022
2580 Clear 22 1006 78 10000 9.26 20 12:53 19.04.2022
2581 Clouds 22 1006 78 10000 10.29 20 12:34 19.04.2022
2582 Clouds 22 1006 80 10000 6.26 20 11:34 19.04.2022
2583 Clouds 23 1006 76 10000 7.2 40 09:51 19.04.2022
2584 Clear 25 1009 72 10000 7.72 50 07:49 19.04.2022
2585 Clear 26 1010 60 10000 3.6 350 04:26 19.04.2022
2586 Clear 24 1008 62 10000 2.57 270 02:39 19.04.2022
2587 Clear 17 1014 90 10000 2.57 350 23:51 18.04.2022
2588 Clouds 15 1012 91 10000 1.94 327 22:53 18.04.2022
2589 Clear 16 1013 90 10000 2.57 300 21:26 18.04.2022
2590 Clear 16 1013 89 10000 1.34 290 20:40 18.04.2022
2591 Rain 16 1013 89 10000 1.34 290 20:22 18.04.2022
2592 Clear 16 1013 87 10000 2.24 290 19:40 18.04.2022
2593 Rain 17 1013 86 10000 2.57 300 18:49 18.04.2022
2594 Rain 17 1016 86 10000 2.06 310 17:49 18.04.2022
2595 Clear 17 1014 84 10000 2.06 300 17:49 18.04.2022
2596 Clear 18 1016 85 10000 2.06 310 17:20 18.04.2022
2597 Clear 18 1014 81 10000 3.58 0 16:40 18.04.2022
2598 Clear 19 1014 81 10000 2.68 0 15:43 18.04.2022
2599 Clear 20 1014 80 10000 3.6 360 14:28 18.04.2022
2600 Clouds 19 1014 81 10000 1.79 20 13:25 18.04.2022
2601 Rain 20 1014 81 10000 2.24 20 12:27 18.04.2022
2602 Clouds 21 1014 77 10000 4.63 30 10:59 18.04.2022
2603 Rain 21 1014 76 10000 4.63 40 10:28 18.04.2022
2604 Clear 23 1012 74 10000 4.63 40 09:30 18.04.2022
2605 Clear 25 1014 68 10000 4.63 100 07:34 18.04.2022
2606 Clear 25 1011 60 10000 2.57 350 03:57 18.04.2022
2607 Rain 15 1016 93 10000 3.09 320 23:41 17.04.2022
2608 Rain 14 1015 93 10000 3.6 310 22:39 17.04.2022
2609 Clear 14 1015 92 10000 3.6 290 21:39 17.04.2022
2610 Clear 15 1015 93 10000 3.09 320 21:19 17.04.2022
2611 Clear 15 1015 93 10000 3.6 350 20:32 17.04.2022
2612 Clear 15 1015 91 10000 2.57 280 19:21 17.04.2022
2613 Clear 16 1016 89 10000 2.06 280 17:38 17.04.2022
2614 Clouds 17 1015 85 10000 3.6 310 15:38 17.04.2022
2615 Clouds 18 1015 85 10000 3.6 310 14:53 17.04.2022
2616 Clouds 19 1015 82 10000 5.66 10 13:45 17.04.2022
2617 Clouds 19 1016 82 10000 5.14 10 12:56 17.04.2022
2618 Clear 19 1015 82 10000 3.13 0 11:53 17.04.2022
2619 Clear 20 1015 77 10000 2.68 45 10:40 17.04.2022
2620 Clear 20 1014 76 10000 2.24 23 10:19 17.04.2022
2621 Clouds 21 1014 73 10000 7.2 30 09:23 17.04.2022
2622 Clouds 22 1014 69 10000 7.2 40 08:42 17.04.2022
2623 Clouds 23 1014 66 10000 6.17 50 06:59 17.04.2022
2624 Clouds 23 1016 67 10000 3.09 350 03:53 17.04.2022
2625 Fog 18 1017 88 10000 3.09 330 00:55 17.04.2022
2626 Fog 15 1018 94 10000 3.58 270 23:50 16.04.2022
2627 Clouds 14 1017 93 10000 3.13 290 22:27 16.04.2022
2628 Clear 14 1017 93 10000 3.6 330 21:29 16.04.2022
2629 Clear 14 1017 92 10000 3.09 310 19:57 16.04.2022
2630 Clear 15 1017 92 10000 3.6 350 18:54 16.04.2022
2631 Clear 15 1018 90 10000 3.13 270 17:40 16.04.2022
2632 Clear 16 1018 89 10000 4.02 270 16:34 16.04.2022
2633 Clear 16 1018 89 10000 1.03 230 15:43 16.04.2022
2634 Clear 16 1019 88 10000 0.89 0 14:55 16.04.2022
2635 Clouds 17 1019 88 10000 0.89 340 13:58 16.04.2022
2636 Clear 17 1018 87 10000 1.54 70 13:28 16.04.2022
2637 Clear 17 1017 84 10000 0.45 82 12:20 16.04.2022
2638 Clear 18 1017 80 10000 2.06 130 10:49 16.04.2022
2639 Clouds 20 1016 77 10000 3.09 130 09:56 16.04.2022
2640 Clouds 21 1015 73 10000 3.6 150 08:57 16.04.2022
2641 Clouds 22 1016 71 10000 4.12 130 07:35 16.04.2022
2642 Clouds 23 1016 71 10000 4.63 130 06:58 16.04.2022
2643 Clouds 21 1020 74 10000 2.68 290 02:34 16.04.2022
2644 Clouds 17 1019 87 10000 4.02 290 00:23 16.04.2022
2645 Clouds 15 1017 91 10000 3.6 310 22:58 15.04.2022
2646 Clear 15 1017 92 10000 3.09 300 22:32 15.04.2022
2647 Clear 15 1017 92 10000 4.47 270 21:50 15.04.2022
2648 Clear 15 1017 89 10000 3.6 300 21:18 15.04.2022
2649 Clear 15 1017 89 10000 3.09 330 20:21 15.04.2022
2650 Clear 16 1017 89 10000 2.57 360 19:39 15.04.2022
2651 Clear 15 1016 89 10000 2.06 10 18:53 15.04.2022
2652 Clear 16 1016 89 10000 2.06 20 18:25 15.04.2022
2653 Clear 16 1018 88 10000 2.06 300 17:34 15.04.2022
2654 Clear 16 1018 88 10000 2.57 310 16:37 15.04.2022
2655 Clear 16 1017 86 10000 2.57 320 16:18 15.04.2022
2656 Clear 17 1018 84 10000 3.6 300 14:44 15.04.2022
2657 Clear 18 1019 80 10000 2.24 358 13:40 15.04.2022
2658 Clear 18 1018 80 10000 3.13 0 12:40 15.04.2022
2659 Clouds 19 1016 78 10000 4.63 10 11:56 15.04.2022
2660 Clouds 19 1017 78 10000 4.63 360 11:30 15.04.2022
2661 Clouds 20 1018 76 10000 4.63 20 10:40 15.04.2022
2662 Clouds 20 1016 73 10000 4.63 30 09:44 15.04.2022
2663 Clouds 21 1017 71 10000 6.69 30 09:19 15.04.2022
2664 Clouds 23 1017 65 10000 6.69 60 07:28 15.04.2022
2665 Clouds 24 1017 59 10000 4.02 90 06:28 15.04.2022
2666 Clouds 22 1022 67 10000 3.6 300 02:48 15.04.2022
2667 Clouds 14 1021 93 10000 3.13 290 23:31 14.04.2022
2668 Clouds 13 1020 93 10000 4.02 290 22:49 14.04.2022
2669 Clouds 13 1021 93 10000 4.02 290 22:29 14.04.2022
2670 Clouds 13 1020 93 10000 3.13 290 21:59 14.04.2022
2671 Clouds 14 1020 93 10000 3.13 270 20:43 14.04.2022
2672 Clouds 14 1020 91 10000 2.68 290 19:23 14.04.2022
2673 Clouds 15 1021 90 10000 3.13 270 18:29 14.04.2022
2674 Clouds 15 1021 90 10000 3.09 310 17:40 14.04.2022
2675 Clouds 15 1021 88 10000 3.09 340 16:46 14.04.2022
2676 Clouds 16 1023 88 10000 2.06 250 15:26 14.04.2022
2677 Clouds 16 1023 85 10000 2.06 90 13:47 14.04.2022
2678 Clouds 17 1022 84 10000 2.06 90 12:57 14.04.2022
2679 Clouds 17 1022 83 10000 2.06 90 12:31 14.04.2022
2680 Clouds 18 1023 79 10000 2.06 90 11:30 14.04.2022
2681 Clouds 19 1021 76 10000 2.68 70 10:54 14.04.2022
2682 Clouds 19 1020 75 10000 3.09 70 10:27 14.04.2022
2683 Clouds 21 1020 70 10000 4.63 80 09:25 14.04.2022
2684 Clouds 22 1021 67 10000 4.12 150 07:33 14.04.2022
2685 Rain 22 1020 72 10000 4.63 170 04:35 14.04.2022
2686 Clouds 15 1023 96 10000 3.09 300 23:45 13.04.2022
2687 Clouds 14 1019 97 10000 3.6 290 22:24 13.04.2022
2688 Clouds 14 1020 97 10000 2.57 230 21:42 13.04.2022
2689 Clouds 14 1019 94 10000 3.6 240 20:25 13.04.2022
2690 Clouds 15 1015 95 10000 3.09 280 19:39 13.04.2022
2691 Clouds 15 1017 93 10000 3.09 310 18:36 13.04.2022
2692 Clouds 15 1021 94 10000 4.63 230 17:24 13.04.2022
2693 Rain 15 1022 94 10000 4.92 270 16:44 13.04.2022
2694 Rain 15 1022 94 10000 4.02 270 15:44 13.04.2022
2695 Clouds 15 1022 94 10000 4.02 270 15:19 13.04.2022
2696 Clouds 16 1021 93 10000 3.6 240 14:30 13.04.2022
2697 Clouds 16 1022 94 10000 4.12 200 13:37 13.04.2022
2698 Clouds 16 1022 94 10000 5.14 200 12:41 13.04.2022
2699 Clouds 16 1021 92 5000 6.17 190 11:24 13.04.2022
2700 Rain 16 1019 91 10000 6.17 160 09:53 13.04.2022
2701 Rain 17 1019 88 6000 4.92 200 08:44 13.04.2022
2702 Rain 19 1018 80 4000 7.72 190 07:38 13.04.2022
2703 Rain 19 1018 81 10000 8.23 190 06:46 13.04.2022
2704 Rain 19 1018 81 10000 8.23 190 06:23 13.04.2022
2705 Rain 17 1020 83 10000 8.23 190 00:28 13.04.2022
2706 Rain 17 1018 85 10000 8.23 180 23:55 12.04.2022
2707 Clouds 16 1017 85 10000 8.75 180 22:33 12.04.2022
2708 Rain 16 1018 85 10000 7.72 180 21:47 12.04.2022
2709 Rain 16 1017 86 10000 8.75 190 20:44 12.04.2022
2710 Rain 16 1017 86 10000 8.75 190 20:18 12.04.2022
2711 Rain 16 1016 86 10000 4.47 200 19:39 12.04.2022
2712 Rain 16 1017 86 10000 2.68 225 18:53 12.04.2022
2713 Rain 16 1018 85 10000 4.63 190 17:38 12.04.2022
2714 Rain 17 1018 85 10000 5.66 200 16:38 12.04.2022
2715 Clouds 17 1018 84 10000 5.14 200 15:34 12.04.2022
2716 Clouds 18 1017 82 10000 6.17 190 14:41 12.04.2022
2717 Rain 19 1017 79 10000 7.72 170 13:45 12.04.2022
2718 Rain 19 1016 79 10000 7.72 170 13:24 12.04.2022
2719 Rain 19 1016 76 10000 7.72 160 11:57 12.04.2022
2720 Clouds 19 1016 75 10000 7.2 160 11:32 12.04.2022
2721 Clouds 19 1017 73 10000 7.2 160 09:47 12.04.2022
2722 Clouds 20 1015 72 10000 7.72 160 08:38 12.04.2022
2723 Clouds 21 1016 69 10000 4.92 180 06:47 12.04.2022
2724 Haze 22 1016 70 4600 8.23 180 05:40 12.04.2022
2725 Clouds 21 1017 75 10000 7.72 190 02:37 12.04.2022
2726 Clouds 18 1018 86 10000 6.17 210 23:24 11.04.2022
2727 Clouds 17 1018 87 10000 7.72 190 22:32 11.04.2022
2728 Clouds 17 1017 88 10000 7.72 190 21:22 11.04.2022
2729 Clouds 18 1017 88 10000 7.72 190 20:35 11.04.2022
2730 Clouds 18 1015 88 10000 7.2 190 19:59 11.04.2022
2731 Clouds 18 1016 89 10000 8.23 190 19:26 11.04.2022
2732 Clouds 18 1016 87 10000 9.77 160 18:53 11.04.2022
2733 Clouds 18 1015 89 10000 9.77 180 17:58 11.04.2022
2734 Clouds 18 1015 89 10000 9.26 170 17:38 11.04.2022
2735 Clouds 19 1016 90 10000 7.72 180 16:33 11.04.2022
2736 Drizzle 20 1017 87 10000 6.17 170 14:59 11.04.2022
2737 Clouds 21 1015 86 10000 6.17 160 13:36 11.04.2022
2738 Rain 21 1015 85 10000 6.69 160 12:39 11.04.2022
2739 Rain 21 1015 84 10000 6.69 160 12:20 11.04.2022
2740 Clouds 22 1013 82 10000 9.77 170 10:41 11.04.2022
2741 Clouds 22 1014 80 10000 9.26 160 09:57 11.04.2022
2742 Clouds 25 1013 64 10000 9.26 170 07:59 11.04.2022
2743 Clear 27 1011 60 10000 4.63 240 04:56 11.04.2022
2744 Clouds 18 1015 92 10000 4.12 300 23:55 10.04.2022
2745 Clear 16 1014 95 10000 4.12 320 22:27 10.04.2022
2746 Clear 16 1015 95 10000 4.12 300 21:52 10.04.2022
2747 Clear 16 1014 95 10000 3.09 310 20:55 10.04.2022
2748 Clear 16 1014 94 10000 2.57 320 19:58 10.04.2022
2749 Clear 17 1013 93 10000 3.09 330 19:34 10.04.2022
2750 Clear 17 1015 94 10000 2.06 300 18:50 10.04.2022
2751 Clear 17 1015 94 10000 2.06 300 18:25 10.04.2022
2752 Clear 17 1016 93 10000 2.68 270 17:44 10.04.2022
2753 Clear 17 1015 92 10000 2.57 300 16:57 10.04.2022
2754 Clear 18 1015 91 10000 2.06 280 15:38 10.04.2022
2755 Clear 18 1016 90 10000 2.06 360 14:42 10.04.2022
2756 Clear 19 1016 90 10000 2.06 20 13:28 10.04.2022
2757 Clear 19 1016 88 10000 2.57 50 12:27 10.04.2022
2758 Clear 20 1014 85 10000 2.57 50 11:38 10.04.2022
2759 Clear 20 1015 84 10000 3.09 40 10:59 10.04.2022
2760 Clear 21 1014 79 10000 3.6 50 10:27 10.04.2022
2761 Clear 22 1014 76 10000 4.12 60 09:41 10.04.2022
2762 Clouds 23 1015 72 10000 4.12 70 08:28 10.04.2022
2763 Clouds 23 1014 71 10000 4.63 70 07:56 10.04.2022
2764 Clouds 24 1014 71 10000 4.63 70 06:59 10.04.2022
2765 Clouds 23 1017 76 10000 1.54 210 03:36 10.04.2022
2766 Clouds 22 1017 80 10000 0.51 250 02:18 10.04.2022
2767 Clouds 19 1019 92 10000 2.57 230 23:53 09.04.2022
2768 Clouds 17 1017 93 10000 1.54 260 22:54 09.04.2022
2769 Clouds 17 1017 93 10000 1.54 260 22:54 09.04.2022
2770 Drizzle 17 1018 94 10000 3.09 330 22:24 09.04.2022
2771 Clouds 17 1018 94 10000 2.57 330 21:19 09.04.2022
2772 Clouds 17 1017 93 10000 2.06 340 20:30 09.04.2022
2773 Clouds 18 1016 92 10000 3.09 250 19:56 09.04.2022
2774 Clouds 17 1017 92 10000 2.57 250 19:38 09.04.2022
2775 Clouds 18 1017 90 10000 2.57 270 18:23 09.04.2022
2776 Clouds 18 1018 90 10000 2.57 250 17:48 09.04.2022
2777 Clouds 18 1017 89 10000 0.51 40 16:56 09.04.2022
2778 Clouds 18 1017 88 10000 3.09 40 16:38 09.04.2022
2779 Clouds 18 1018 87 10000 2.68 45 15:49 09.04.2022
2780 Clouds 19 1018 86 10000 2.68 45 15:49 09.04.2022
2781 Clouds 18 1018 87 10000 2.68 45 15:49 09.04.2022
2782 Clouds 18 1018 87 10000 2.68 45 15:49 09.04.2022
2783 Clouds 19 1018 86 10000 2.68 45 15:25 09.04.2022
2784 Clouds 19 1019 83 10000 4.47 70 14:25 09.04.2022
2785 Clouds 19 1019 81 10000 6.17 40 13:26 09.04.2022
2786 Clouds 19 1019 81 10000 6.17 40 13:26 09.04.2022
2787 Rain 19 1019 82 10000 5.66 50 12:53 09.04.2022
2788 Clouds 20 1018 81 10000 5.14 50 11:45 09.04.2022
2789 Clouds 20 1018 79 10000 4.92 70 10:51 09.04.2022
2790 Clouds 20 1018 78 10000 5.14 40 10:18 09.04.2022
2791 Clouds 21 1018 78 10000 5.36 70 09:22 09.04.2022
2792 Clouds 22 1018 76 10000 6.69 50 08:18 09.04.2022
2793 Clouds 21 1019 82 10000 5.66 20 04:37 09.04.2022
2794 Clouds 19 1021 90 10000 4.12 50 00:34 09.04.2022
2795 Clouds 18 1021 90 10000 5.14 70 23:22 08.04.2022
2796 Clouds 17 1019 90 10000 3.13 270 21:44 08.04.2022
2797 Clouds 17 1018 89 10000 4.12 30 20:43 08.04.2022
2798 Clouds 17 1018 88 10000 2.57 40 19:47 08.04.2022
2799 Clouds 18 1018 86 10000 4.92 70 18:46 08.04.2022
2800 Clouds 18 1019 86 10000 6.26 90 18:20 08.04.2022
2801 Clouds 18 1019 85 10000 6.26 90 17:28 08.04.2022
2802 Clouds 18 1019 84 10000 4.63 80 16:58 08.04.2022
2803 Clouds 19 1019 83 10000 5.66 80 16:27 08.04.2022
2804 Clouds 19 1019 84 10000 6.71 90 15:36 08.04.2022
2805 Clouds 19 1019 84 10000 7.2 70 14:52 08.04.2022
2806 Rain 19 1019 85 10000 7.2 70 14:19 08.04.2022
2807 Rain 19 1019 85 10000 7.72 70 13:31 08.04.2022
2808 Rain 19 1019 86 10000 7.6 90 12:55 08.04.2022
2809 Rain 19 1019 89 10000 9.26 80 11:35 08.04.2022
2810 Rain 19 1018 90 10000 9.39 90 10:20 08.04.2022
2811 Rain 19 1018 89 6000 4.92 90 09:20 08.04.2022
2812 Rain 20 1018 85 8000 5.66 60 07:44 08.04.2022
2813 Rain 21 1017 80 10000 9.77 80 06:46 08.04.2022
2814 Clouds 21 1019 80 10000 8.75 80 03:35 08.04.2022
2815 Rain 19 1020 89 2500 6.71 90 00:31 08.04.2022
2816 Rain 19 1019 86 9000 8.23 110 23:52 07.04.2022
2817 Rain 19 1018 78 10000 6.71 110 22:55 07.04.2022
2818 Rain 19 1018 79 10000 6.71 110 22:36 07.04.2022
2819 Clouds 19 1018 77 10000 7.6 110 22:18 07.04.2022
2820 Rain 19 1018 75 10000 7.6 110 21:30 07.04.2022
2821 Clouds 19 1017 74 10000 6.71 110 20:55 07.04.2022
2822 Clouds 19 1017 75 10000 6.71 110 20:26 07.04.2022
2823 Clouds 20 1018 74 10000 6.71 110 17:45 07.04.2022
2824 Clouds 19 1018 75 10000 6.71 110 17:23 07.04.2022
2825 Rain 19 1019 75 10000 7.2 100 16:42 07.04.2022
2826 Rain 19 1019 76 10000 7.6 110 15:58 07.04.2022
2827 Rain 20 1019 78 10000 8.94 110 14:28 07.04.2022
2828 Rain 19 1019 79 10000 8.75 110 13:41 07.04.2022
2829 Rain 19 1019 82 10000 9.77 110 12:28 07.04.2022
2830 Rain 19 1018 85 10000 9.77 110 10:57 07.04.2022
2831 Rain 18 1016 91 8000 9.77 110 09:36 07.04.2022
2832 Rain 18 1015 93 5997 4.02 264 08:27 07.04.2022
2833 Rain 18 1016 92 10000 9.77 100 06:29 07.04.2022
2834 Rain 18 1017 94 10000 9.77 70 02:40 07.04.2022
2835 Rain 18 1017 94 10000 8.49 110 01:27 07.04.2022
2836 Rain 18 1015 95 7000 8.75 80 23:56 06.04.2022
2837 Rain 18 1015 96 6000 8.23 90 22:46 06.04.2022
2838 Rain 18 1015 97 6000 9.39 110 22:24 06.04.2022
2839 Rain 18 1014 96 7000 9.39 110 21:31 06.04.2022
2840 Rain 18 1014 96 7000 7.2 70 20:27 06.04.2022
2841 Rain 18 1013 96 6000 4.63 70 19:53 06.04.2022
2842 Rain 18 1014 96 5000 8.23 80 18:50 06.04.2022
2843 Rain 18 1014 96 6000 5.66 50 17:52 06.04.2022
2844 Rain 18 1014 96 2000 3.6 80 17:28 06.04.2022
2845 Rain 17 1015 96 7000 2.06 10 16:35 06.04.2022
2846 Rain 17 1014 95 7000 3.6 200 15:47 06.04.2022
2847 Rain 17 1015 94 3000 5.66 50 14:23 06.04.2022
2848 Rain 17 1015 95 8000 5.66 220 12:58 06.04.2022
2849 Rain 17 1015 94 10000 5.14 220 11:55 06.04.2022
2850 Rain 17 1014 93 8000 7.72 210 10:45 06.04.2022
2851 Rain 18 1014 93 5000 7.2 190 10:20 06.04.2022
2852 Drizzle 18 1014 93 10000 7.72 190 09:40 06.04.2022
2853 Rain 18 1014 92 9000 8.23 180 08:32 06.04.2022
2854 Rain 18 1014 93 6000 9.77 170 07:47 06.04.2022
2855 Rain 18 1015 92 6000 9.77 170 03:37 06.04.2022
2856 Rain 18 1014 93 7000 8.75 160 23:51 05.04.2022
2857 Rain 18 1013 91 9000 5.66 160 22:31 05.04.2022
2858 Clouds 18 1013 91 10000 5.14 150 21:19 05.04.2022
2859 Rain 18 1012 90 10000 6.17 130 20:25 05.04.2022
2860 Rain 19 1013 90 10000 6.17 120 19:41 05.04.2022
2861 Clouds 19 1013 90 10000 4.12 130 17:55 05.04.2022
2862 Clouds 19 1013 90 10000 4.12 120 16:54 05.04.2022
2863 Rain 19 1013 89 10000 5.66 110 15:53 05.04.2022
2864 Rain 19 1013 89 10000 5.14 130 15:34 05.04.2022
2865 Rain 20 1013 87 10000 5.14 150 14:35 05.04.2022
2866 Clouds 20 1013 86 10000 5.14 130 13:21 05.04.2022
2867 Clear 21 1013 82 10000 5.66 130 11:51 05.04.2022
2868 Clear 21 1013 82 10000 5.66 130 11:32 05.04.2022
2869 Clouds 22 1012 79 10000 5.66 140 09:55 05.04.2022
2870 Clouds 23 1011 74 10000 6.69 130 08:52 05.04.2022
2871 Clear 25 1011 68 10000 4.92 135 06:58 05.04.2022
2872 Clouds 22 1012 59 10000 3.58 290 01:55 05.04.2022
2873 Clouds 15 1012 76 10000 4.47 290 22:42 04.04.2022
2874 Clouds 15 1011 75 10000 4.12 320 22:24 04.04.2022
2875 Clouds 15 1011 74 10000 3.6 280 21:21 04.04.2022
2876 Clouds 15 1012 75 10000 3.6 300 20:49 04.04.2022
2877 Clear 15 1011 75 10000 3.6 310 19:58 04.04.2022
2878 Clear 15 1011 75 10000 3.6 310 19:26 04.04.2022
2879 Clear 16 1012 78 10000 3.58 290 18:33 04.04.2022
2880 Rain 16 1011 76 10000 3.6 340 16:37 04.04.2022
2881 Clear 17 1012 78 10000 2.68 290 15:47 04.04.2022
2882 Rain 17 1012 78 10000 2.68 290 15:29 04.04.2022
2883 Clear 17 1011 80 10000 0.45 20 14:46 04.04.2022
2884 Clear 18 1011 78 10000 1.54 270 13:31 04.04.2022
2885 Rain 19 1010 78 10000 2.06 330 12:23 04.04.2022
2886 Clear 21 1010 72 10000 2.57 40 11:29 04.04.2022
2887 Clear 24 1007 60 10000 4.12 50 09:20 04.04.2022
2888 Clear 27 1009 38 10000 4.63 280 05:21 04.04.2022
2889 Clear 22 1009 56 10000 3.6 290 01:36 04.04.2022
2890 Clear 15 1011 71 10000 2.57 310 22:45 03.04.2022
2891 Clear 15 1010 71 10000 3.09 310 21:48 03.04.2022
2892 Clear 15 1010 69 10000 0 0 21:19 03.04.2022
2893 Clear 16 1010 67 10000 2.68 270 19:52 03.04.2022
2894 Clear 16 1010 65 10000 2.57 300 18:33 03.04.2022
2895 Clear 17 1010 63 10000 3.13 340 17:49 03.04.2022
2896 Clear 17 1010 63 10000 3.13 340 17:27 03.04.2022
2897 Clear 17 1009 61 10000 2.57 300 16:48 03.04.2022
2898 Clear 18 1010 57 10000 3.13 290 15:32 03.04.2022
2899 Clear 19 1008 60 10000 5.66 340 13:58 03.04.2022
2900 Clear 20 1009 57 10000 4.63 340 12:56 03.04.2022
2901 Clouds 21 1008 55 10000 7.2 340 11:33 03.04.2022
2902 Clear 22 1007 53 10000 5.14 350 09:41 03.04.2022
2903 Clouds 23 1008 49 10000 4.02 0 08:52 03.04.2022
2904 Clear 25 1008 40 10000 8.23 300 05:44 03.04.2022
2905 Clear 22 1008 57 10000 5.66 300 02:55 03.04.2022
2906 Clear 14 1009 78 10000 4.12 350 23:27 02.04.2022
2907 Clear 13 1009 81 10000 4.63 340 22:41 02.04.2022
2908 Clear 14 1009 81 10000 4.63 340 21:55 02.04.2022
2909 Clear 14 1008 80 10000 4.63 340 21:19 02.04.2022
2910 Clear 14 1008 79 10000 4.12 320 20:36 02.04.2022
2911 Clear 14 1009 78 10000 4.12 320 18:47 02.04.2022
2912 Clear 14 1009 78 10000 4.63 310 18:19 02.04.2022
2913 Clear 15 1009 78 10000 4.63 320 16:50 02.04.2022
2914 Clear 15 1009 77 10000 4.63 290 15:42 02.04.2022
2915 Clear 15 1009 76 10000 4.63 250 15:18 02.04.2022
2916 Clear 16 1010 74 10000 4.12 270 14:31 02.04.2022
2917 Clear 16 1010 72 10000 5.14 270 13:34 02.04.2022
2918 Clear 17 1010 70 10000 6.17 260 12:21 02.04.2022
2919 Clouds 19 1010 63 10000 6.69 250 10:31 02.04.2022
2920 Clouds 21 1011 55 10000 9.26 250 07:52 02.04.2022
2921 Clouds 20 1012 61 10000 8.23 230 04:59 02.04.2022
2922 Rain 19 1010 66 10000 6.17 230 02:37 02.04.2022
2923 Clouds 16 1011 76 10000 6.69 250 23:54 01.04.2022
2924 Rain 15 1009 77 10000 9.26 220 22:47 01.04.2022
2925 Rain 15 1009 75 10000 10.29 220 21:24 01.04.2022
2926 Rain 15 1009 74 10000 10.8 220 20:48 01.04.2022
2927 Rain 15 1009 75 10000 10.29 220 19:46 01.04.2022
2928 Clouds 15 1009 74 10000 11.32 220 19:26 01.04.2022
2929 Rain 16 1009 75 10000 11.83 220 18:38 01.04.2022
2930 Rain 16 1010 76 10000 12.35 210 17:39 01.04.2022
2931 Rain 16 1011 73 10000 12.35 210 16:24 01.04.2022
2932 Clouds 16 1011 71 10000 12.35 210 14:56 01.04.2022
2933 Rain 16 1012 71 10000 12.35 210 13:56 01.04.2022
2934 Rain 16 1012 70 10000 11.83 220 13:31 01.04.2022
2935 Clouds 16 1012 70 10000 11.32 220 12:26 01.04.2022
2936 Rain 17 1012 71 10000 11.83 220 10:52 01.04.2022
2937 Clouds 17 1011 72 10000 12.86 210 09:49 01.04.2022
2938 Clouds 18 1012 73 10000 14.4 200 07:50 01.04.2022
2939 Clouds 18 1013 76 10000 15.43 200 05:45 01.04.2022
2940 Clouds 18 1013 79 10000 13.89 200 04:43 01.04.2022
2941 Rain 17 1014 86 10000 13.89 200 03:19 01.04.2022
2942 Rain 16 1014 91 9000 12.35 210 01:51 01.04.2022
2943 Rain 14 1015 93 9000 10.29 210 22:34 31.03.2022
2944 Rain 14 1015 93 9000 10.8 220 21:44 31.03.2022
2945 Rain 14 1015 93 10000 11.32 220 20:51 31.03.2022
2946 Rain 14 1015 93 10000 11.32 220 20:51 31.03.2022
2947 Rain 14 1015 93 10000 11.83 210 20:28 31.03.2022
2948 Rain 15 1008 88 10000 10.29 220 19:44 31.03.2022
2949 Rain 15 1009 85 10000 10.29 220 18:35 31.03.2022
2950 Rain 15 1012 83 10000 10.8 210 17:25 31.03.2022
2951 Rain 15 1014 80 10000 10.8 210 15:58 31.03.2022
2952 Rain 16 1014 81 10000 11.32 210 15:29 31.03.2022
2953 Rain 16 1015 82 10000 10.8 210 14:49 31.03.2022
2954 Rain 16 1015 75 10000 11.32 200 13:53 31.03.2022
2955 Clouds 18 1014 63 10000 15.95 180 11:31 31.03.2022
2956 Clouds 18 1014 68 10000 16.46 180 10:27 31.03.2022
2957 Clouds 17 1013 79 10000 14.92 170 09:43 31.03.2022
2958 Rain 19 1010 78 9000 12.35 160 07:49 31.03.2022
2959 Rain 19 1010 88 5000 10.29 200 03:48 31.03.2022
2960 Drizzle 18 1010 80 10000 11.32 200 23:27 30.03.2022
2961 Clouds 18 1009 80 10000 11.32 200 22:20 30.03.2022
2962 Clouds 18 1009 81 10000 12.35 200 21:32 30.03.2022
2963 Clouds 18 1008 87 10000 11.83 190 20:44 30.03.2022
2964 Clouds 18 1008 90 10000 15.43 190 19:57 30.03.2022
2965 Clouds 18 1007 93 7000 12.86 190 18:50 30.03.2022
2966 Clouds 18 1007 93 7000 12.86 190 18:50 30.03.2022
2967 Rain 19 1008 93 10000 13.89 180 17:52 30.03.2022
2968 Rain 19 1008 93 10000 13.89 180 17:52 30.03.2022
2969 Rain 19 1008 93 10000 13.89 180 17:52 30.03.2022
2970 Rain 19 1008 94 10000 11.83 180 17:32 30.03.2022
2971 Rain 19 1008 94 8000 14.4 170 16:42 30.03.2022
2972 Rain 19 1008 95 5000 8.75 190 16:19 30.03.2022
2973 Rain 19 1008 93 2500 7.72 160 14:47 30.03.2022
2974 Drizzle 19 1006 93 10000 10.8 190 13:32 30.03.2022
2975 Rain 20 1007 93 10000 9.26 190 12:36 30.03.2022
2976 Clouds 20 1005 91 10000 9.26 210 10:48 30.03.2022
2977 Clouds 21 1006 87 10000 9.77 200 09:58 30.03.2022
2978 Clouds 22 1006 85 10000 10.29 190 08:29 30.03.2022
2979 Clouds 23 1005 82 10000 10.29 190 07:29 30.03.2022
2980 Rain 23 1006 86 10000 9.77 190 05:40 30.03.2022
2981 Rain 23 1008 86 9000 9.77 180 03:21 30.03.2022
2982 Clouds 19 1008 96 10000 4.12 200 23:32 29.03.2022
2983 Clouds 18 1006 94 10000 4.12 200 22:18 29.03.2022
2984 Clouds 18 1006 95 10000 5.66 200 21:40 29.03.2022
2985 Clouds 19 1007 96 10000 5.66 200 20:39 29.03.2022
2986 Clouds 19 1006 96 10000 6.17 190 19:45 29.03.2022
2987 Clouds 19 1006 94 10000 5.66 200 18:54 29.03.2022
2988 Clouds 19 1006 94 10000 5.66 190 18:18 29.03.2022
2989 Clouds 19 1007 95 10000 5.14 190 17:20 29.03.2022
2990 Clouds 19 1008 95 10000 5.14 190 16:55 29.03.2022
2991 Clouds 19 1008 95 10000 3.09 230 15:47 29.03.2022
2992 Rain 20 1006 95 10000 1.54 170 14:43 29.03.2022
2993 Rain 20 1007 95 2500 3.6 190 13:41 29.03.2022
2994 Rain 20 1008 95 10000 3.6 190 12:40 29.03.2022
2995 Rain 20 1007 93 10000 3.6 160 11:27 29.03.2022
2996 Rain 20 1007 93 10000 3.6 150 10:23 29.03.2022
2997 Rain 21 1007 89 10000 3.6 170 09:20 29.03.2022
2998 Rain 21 1006 92 10000 1.34 351 06:54 29.03.2022
2999 Rain 21 1008 94 10000 2.06 240 03:19 29.03.2022
3000 Rain 20 1008 96 9000 7.72 200 23:46 28.03.2022
3001 Rain 19 1008 96 6000 8.23 200 22:58 28.03.2022
3002 Rain 19 1008 96 6000 4.63 240 22:35 28.03.2022
3003 Rain 20 1007 96 9000 6.17 210 21:48 28.03.2022
3004 Rain 20 1007 96 9000 7.2 180 20:47 28.03.2022
3005 Rain 20 1007 96 10000 5.66 200 19:59 28.03.2022
3006 Rain 20 1007 96 10000 6.17 200 19:40 28.03.2022
3007 Rain 20 1007 96 10000 5.66 200 18:51 28.03.2022
3008 Rain 20 1007 96 10000 5.66 200 18:18 28.03.2022
3009 Rain 20 1008 95 7000 7.2 190 17:28 28.03.2022
3010 Rain 20 1008 95 10000 4.63 190 15:48 28.03.2022
3011 Rain 21 1008 94 10000 8.49 221 14:24 28.03.2022
3012 Rain 21 1008 93 9000 4.63 190 13:33 28.03.2022
3013 Rain 22 1009 89 10000 6.17 190 11:54 28.03.2022
3014 Rain 22 1008 89 10000 5.66 170 10:39 28.03.2022
3015 Rain 22 1008 86 10000 6.69 170 09:21 28.03.2022
3016 Clouds 23 1008 84 10000 7.2 180 08:46 28.03.2022
3017 Clouds 23 1008 82 10000 5.14 160 08:21 28.03.2022
3018 Rain 24 1008 81 10000 6.17 160 07:26 28.03.2022
3019 Clouds 23 1009 85 10000 3.58 290 02:48 28.03.2022
3020 Rain 18 1009 96 10000 3.6 300 22:59 27.03.2022
3021 Rain 18 1009 96 10000 3.09 330 22:22 27.03.2022
3022 Rain 18 1010 96 10000 2.57 300 21:40 27.03.2022
3023 Rain 18 1009 96 10000 2.68 138 20:53 27.03.2022
3024 Clouds 18 1009 95 10000 2.57 300 19:44 27.03.2022
3025 Rain 18 1009 96 10000 3.09 330 18:47 27.03.2022
3026 Rain 18 1009 96 10000 2.68 138 18:47 27.03.2022
3027 Clouds 18 1009 96 10000 3.09 330 18:25 27.03.2022
3028 Rain 19 1009 95 10000 3.09 350 17:38 27.03.2022
3029 Clouds 19 1011 96 10000 3.6 340 15:57 27.03.2022
3030 Clouds 19 1011 95 10000 4.12 230 14:26 27.03.2022
3031 Rain 19 1012 95 10000 4.63 170 13:42 27.03.2022
3032 Rain 19 1012 93 8000 4.63 130 11:46 27.03.2022
3033 Rain 20 1011 92 10000 5.14 100 10:28 27.03.2022
3034 Rain 20 1011 91 10000 6.17 80 08:21 27.03.2022
3035 Rain 21 1014 86 10000 3.6 150 05:19 27.03.2022
3036 Rain 19 1016 91 10000 1.79 250 00:37 27.03.2022
3037 Rain 18 1016 94 10000 4.63 340 22:58 26.03.2022
3038 Rain 17 1017 95 10000 2.68 270 22:29 26.03.2022
3039 Clouds 16 1016 96 10000 3.13 270 21:32 26.03.2022
3040 Clouds 16 1016 95 9000 2.68 270 19:46 26.03.2022
3041 Rain 16 1015 94 2000 2.57 360 18:56 26.03.2022
3042 Clouds 17 1016 93 10000 3.58 270 17:44 26.03.2022
3043 Clouds 17 1016 93 10000 1.54 100 17:22 26.03.2022
3044 Clouds 17 1017 92 10000 3.09 250 15:52 26.03.2022
3045 Rain 17 1018 93 10000 3.58 270 14:50 26.03.2022
3046 Rain 17 1018 92 10000 2.68 250 13:52 26.03.2022
3047 Rain 17 1018 89 10000 4.12 230 12:41 26.03.2022
3048 Clouds 19 1017 86 10000 5.14 230 11:18 26.03.2022
3049 Rain 20 1016 78 6000 4.92 110 09:23 26.03.2022
3050 Clouds 20 1017 77 10000 4.92 110 08:27 26.03.2022
3051 Rain 20 1017 79 10000 6.17 90 05:53 26.03.2022
3052 Rain 21 1018 82 10000 5.14 130 03:32 26.03.2022
3053 Rain 19 1018 86 10000 2.57 130 23:21 25.03.2022
3054 Rain 18 1017 91 10000 4.12 90 20:59 25.03.2022
3055 Rain 18 1017 92 10000 6.17 60 20:38 25.03.2022
3056 Rain 18 1016 93 10000 2.68 200 19:27 25.03.2022
3057 Rain 18 1016 92 3000 4.47 135 18:46 25.03.2022
3058 Rain 18 1016 90 10000 3.09 180 17:35 25.03.2022
3059 Rain 19 1016 89 10000 3.6 110 16:41 25.03.2022
3060 Rain 19 1017 88 10000 5.66 110 15:52 25.03.2022
3061 Rain 19 1017 88 10000 7.72 100 13:51 25.03.2022
3062 Clouds 20 1018 79 10000 5.14 120 12:20 25.03.2022
3063 Clouds 20 1016 79 10000 5.81 110 09:47 25.03.2022
3064 Clouds 20 1015 80 10000 5.66 110 09:23 25.03.2022
3065 Rain 20 1015 86 10000 2.24 180 07:48 25.03.2022
3066 Rain 20 1016 83 7000 4.12 170 07:21 25.03.2022
3067 Rain 23 1014 74 10000 1.79 323 04:47 25.03.2022
3068 Rain 20 1016 90 10000 7.2 80 00:29 25.03.2022
3069 Clouds 18 1015 96 10000 2.57 160 22:29 24.03.2022
3070 Clouds 17 1015 96 10000 2.57 220 21:33 24.03.2022
3071 Rain 18 1013 96 10000 2.68 270 19:50 24.03.2022
3072 Rain 18 1012 95 10000 3.6 210 18:54 24.03.2022
3073 Clouds 18 1013 95 10000 3.6 190 17:39 24.03.2022
3074 Clouds 18 1013 96 10000 2.68 270 16:53 24.03.2022
3075 Clouds 18 1013 96 10000 2.57 280 15:19 24.03.2022
3076 Rain 18 1013 95 10000 1.34 290 14:41 24.03.2022
3077 Rain 18 1014 95 8000 3.09 340 13:54 24.03.2022
3078 Clouds 18 1013 95 10000 4.12 20 12:39 24.03.2022
3079 Rain 18 1013 93 10000 3.09 10 11:33 24.03.2022
3080 Rain 19 1013 90 9000 4.12 40 09:48 24.03.2022
3081 Rain 20 1012 86 10000 8.23 70 08:40 24.03.2022
3082 Rain 20 1012 86 10000 8.23 70 08:40 24.03.2022
3083 Clouds 20 1011 86 10000 3.58 20 06:44 24.03.2022
3084 Rain 19 1012 91 10000 4.63 20 01:43 24.03.2022
3085 Rain 18 1014 90 6000 3.09 240 22:37 23.03.2022
3086 Rain 19 1013 86 10000 4.12 230 21:25 23.03.2022
3087 Rain 19 1011 82 10000 2.57 120 20:47 23.03.2022
3088 Rain 20 1011 79 10000 5.36 135 19:43 23.03.2022
3089 Rain 20 1011 79 10000 5.36 135 19:43 23.03.2022
3090 Clouds 20 1011 74 10000 3.6 110 18:30 23.03.2022
3091 Clouds 20 1011 76 10000 4.47 135 17:36 23.03.2022
3092 Clouds 20 1011 74 10000 5.81 110 16:20 23.03.2022
3093 Clouds 20 1011 72 10000 6.69 120 14:50 23.03.2022
3094 Clouds 20 1011 73 10000 7.72 140 14:21 23.03.2022
3095 Clouds 20 1011 76 10000 8.23 150 12:24 23.03.2022
3096 Rain 21 1009 82 10000 8.23 160 09:38 23.03.2022
3097 Clouds 23 1008 77 10000 9.26 160 06:40 23.03.2022
3098 Clouds 24 1006 79 10000 2.68 176 03:58 23.03.2022
3099 Clouds 23 1007 78 10000 9.77 170 00:29 23.03.2022
3100 Rain 22 1005 87 10000 8.75 180 22:33 22.03.2022
3101 Clouds 22 1004 87 10000 7.2 180 21:29 22.03.2022
3102 Rain 21 1003 82 10000 8.75 190 20:39 22.03.2022
3103 Rain 21 1001 81 10000 2.57 350 19:39 22.03.2022
3104 Rain 20 1004 84 10000 2.57 350 19:18 22.03.2022
3105 Rain 21 1001 82 10000 3.09 300 18:22 22.03.2022
3106 Rain 20 1002 83 10000 2.06 10 17:29 22.03.2022
3107 Rain 22 1004 77 10000 1.54 360 15:59 22.03.2022
3108 Rain 22 1005 80 10000 1.79 349 15:22 22.03.2022
3109 Clear 22 1007 80 10000 1.34 354 14:46 22.03.2022
3110 Clear 22 1005 78 10000 1.79 357 14:26 22.03.2022
3111 Rain 22 1004 78 10000 5.14 10 13:27 22.03.2022
3112 Rain 22 1005 79 10000 5.14 20 11:52 22.03.2022
3113 Clear 23 1004 78 10000 7.2 30 10:35 22.03.2022
3114 Clear 25 1005 73 10000 8.23 40 08:24 22.03.2022
3115 Clear 27 1008 67 10000 6.69 30 05:21 22.03.2022
3116 Clear 27 1010 65 10000 3.58 70 03:46 22.03.2022
3117 Clear 22 1010 75 10000 3.6 310 00:22 22.03.2022
3118 Clear 17 1011 90 10000 3.09 310 22:29 21.03.2022
3119 Clouds 15 1009 93 10000 2.64 312 20:57 21.03.2022
3120 Clear 15 1010 92 10000 2.57 330 20:38 21.03.2022
3121 Clouds 15 1011 92 10000 2.68 290 19:58 21.03.2022
3122 Clear 15 1010 93 10000 2.68 290 19:33 21.03.2022
3123 Clear 16 1011 91 10000 3.09 330 18:22 21.03.2022
3124 Clear 16 1011 90 10000 2.68 270 17:19 21.03.2022
3125 Clear 16 1011 89 10000 2.68 270 16:44 21.03.2022
3126 Clear 17 1012 89 10000 3.13 270 15:55 21.03.2022
3127 Clear 17 1012 88 10000 3.13 270 15:19 21.03.2022
3128 Clear 17 1012 88 10000 1.79 290 14:25 21.03.2022
3129 Clear 18 1013 84 10000 2.57 130 12:40 21.03.2022
3130 Clear 18 1012 83 10000 3.09 150 11:53 21.03.2022
3131 Clear 20 1011 79 10000 3.6 130 10:40 21.03.2022
3132 Clear 22 1013 73 10000 4.12 160 08:55 21.03.2022
3133 Clouds 23 1010 70 10000 4.63 160 06:57 21.03.2022
3134 Clouds 23 1013 70 10000 3.58 180 02:55 21.03.2022
3135 Rain 21 1014 78 10000 3.13 225 00:35 21.03.2022
3136 Clouds 19 1013 83 10000 4.63 230 22:55 20.03.2022
3137 Clouds 18 1014 82 10000 5.14 230 21:57 20.03.2022
3138 Clouds 18 1014 81 10000 5.14 230 21:29 20.03.2022
3139 Clouds 18 1013 81 10000 5.14 230 20:45 20.03.2022
3140 Clouds 18 1013 82 10000 5.14 240 20:24 20.03.2022
3141 Clouds 18 1013 85 10000 5.14 240 19:43 20.03.2022
3142 Clouds 18 1013 85 10000 5.66 250 18:44 20.03.2022
3143 Clouds 18 1013 84 10000 4.12 260 17:38 20.03.2022
3144 Clouds 19 1014 84 10000 5.66 170 16:58 20.03.2022
3145 Clouds 19 1012 85 10000 5.14 220 15:56 20.03.2022
3146 Clouds 18 1014 86 10000 4.63 220 14:36 20.03.2022
3147 Clouds 19 1013 84 10000 3.6 210 13:20 20.03.2022
3148 Clouds 20 1014 80 10000 3.6 160 11:51 20.03.2022
3149 Clouds 21 1012 78 10000 4.63 160 09:58 20.03.2022
3150 Clouds 23 1011 72 10000 5.66 150 07:51 20.03.2022
3151 Clouds 24 1013 68 10000 6.17 140 05:49 20.03.2022
3152 Clouds 25 1011 61 10000 4.63 150 03:18 20.03.2022
3153 Clouds 22 1012 60 10000 3.6 250 00:51 20.03.2022
3154 Clouds 19 1013 74 10000 4.92 270 23:35 19.03.2022
3155 Clouds 16 1014 81 10000 2.57 330 21:54 19.03.2022
3156 Clouds 16 1014 81 10000 3.6 310 21:20 19.03.2022
3157 Clouds 17 1014 80 10000 4.63 230 19:22 19.03.2022
3158 Clouds 17 1014 81 10000 4.12 250 18:30 19.03.2022
3159 Clouds 17 1014 80 10000 4.63 250 17:45 19.03.2022
3160 Clouds 17 1015 80 10000 5.14 240 16:45 19.03.2022
3161 Clouds 18 1014 81 10000 5.66 240 15:22 19.03.2022
3162 Clouds 19 1016 79 10000 3.6 230 13:40 19.03.2022
3163 Clouds 19 1016 75 10000 8.23 190 12:42 19.03.2022
3164 Clouds 20 1016 74 10000 6.17 160 12:19 19.03.2022
3165 Clouds 19 1016 74 10000 7.2 160 11:42 19.03.2022
3166 Clouds 20 1014 74 10000 7.72 160 08:57 19.03.2022
3167 Clouds 22 1016 75 10000 9.26 170 04:42 19.03.2022
3168 Clouds 20 1016 87 10000 8.75 170 02:33 19.03.2022
3169 Clouds 20 1016 87 10000 9.77 140 23:51 18.03.2022
3170 Clouds 19 1015 90 10000 9.26 140 22:48 18.03.2022
3171 Drizzle 19 1015 91 9000 8.75 140 22:21 18.03.2022
3172 Rain 20 1013 95 3000 8.23 190 20:25 18.03.2022
3173 Rain 20 1013 95 3000 8.23 190 20:25 18.03.2022
3174 Rain 20 1012 94 9000 7.2 210 19:24 18.03.2022
3175 Rain 21 1013 91 8000 6.69 200 18:43 18.03.2022
3176 Clouds 21 1012 91 10000 5.66 140 16:54 18.03.2022
3177 Rain 21 1011 92 10000 1.79 329 16:24 18.03.2022
3178 Rain 21 1013 93 10000 4.02 135 14:27 18.03.2022
3179 Clear 21 1013 93 10000 3.13 160 13:39 18.03.2022
3180 Rain 22 1014 87 10000 7.72 140 11:37 18.03.2022
3181 Clouds 23 1013 84 10000 3.09 110 10:27 18.03.2022
3182 Clouds 24 1014 78 10000 4.12 130 08:46 18.03.2022
3183 Clouds 26 1013 68 10000 3.6 100 06:59 18.03.2022
3184 Clouds 27 1012 68 10000 3.6 110 05:20 18.03.2022
3185 Rain 26 1012 74 10000 2.57 360 01:51 18.03.2022
3186 Clouds 23 1013 87 10000 3.6 350 23:59 17.03.2022
3187 Clouds 20 1013 92 10000 0.51 310 22:50 17.03.2022
3188 Clouds 20 1013 92 10000 0.89 315 22:19 17.03.2022
3189 Clouds 20 1013 92 10000 2.06 290 21:31 17.03.2022
3190 Clouds 20 1012 92 10000 2.06 280 20:54 17.03.2022
3191 Clouds 20 1012 91 10000 1.79 315 20:28 17.03.2022
3192 Clouds 20 1012 92 10000 2.06 320 19:39 17.03.2022
3193 Clouds 21 1012 91 10000 2.57 320 18:55 17.03.2022
3194 Clouds 21 1011 91 10000 1.34 290 17:47 17.03.2022
3195 Rain 21 1012 89 10000 2.57 300 16:29 17.03.2022
3196 Rain 21 1012 88 10000 1.34 290 15:43 17.03.2022
3197 Rain 22 1012 85 10000 2.57 310 15:21 17.03.2022
3198 Rain 22 1013 86 10000 4.12 30 13:48 17.03.2022
3199 Rain 22 1013 85 10000 4.63 30 12:47 17.03.2022
3200 Clear 22 1013 85 10000 4.12 30 11:47 17.03.2022
3201 Clear 23 1012 85 10000 4.12 30 11:22 17.03.2022
3202 Clouds 23 1011 84 10000 1.34 22 09:41 17.03.2022
3203 Clouds 25 1010 78 10000 5.14 50 08:21 17.03.2022
3204 Rain 26 1010 72 10000 6.17 50 06:18 17.03.2022
3205 Clouds 26 1011 70 10000 6.17 50 05:25 17.03.2022
3206 Clouds 24 1011 76 10000 2.06 290 00:42 17.03.2022
3207 Clouds 20 1015 93 10000 2.06 300 22:59 16.03.2022
3208 Clouds 19 1015 94 10000 1.54 320 22:39 16.03.2022
3209 Clouds 18 1014 95 10000 0.45 116 22:19 16.03.2022
3210 Clouds 17 1014 95 10000 3.09 310 21:18 16.03.2022
3211 Clouds 18 1014 94 10000 2.06 340 19:25 16.03.2022
3212 Clouds 18 1014 94 10000 0.51 290 18:55 16.03.2022
3213 Rain 18 1014 93 10000 2.57 290 18:20 16.03.2022
3214 Rain 18 1014 93 10000 2.06 250 17:37 16.03.2022
3215 Rain 18 1014 93 10000 2.57 250 16:49 16.03.2022
3216 Clouds 19 1015 91 10000 2.06 140 15:41 16.03.2022
3217 Clouds 20 1014 89 10000 2.06 60 13:44 16.03.2022
3218 Clouds 20 1014 88 10000 3.09 70 12:59 16.03.2022
3219 Clouds 21 1013 87 10000 4.12 80 11:51 16.03.2022
3220 Clouds 21 1013 87 10000 3.6 80 11:19 16.03.2022
3221 Clouds 22 1012 85 10000 3.09 130 09:59 16.03.2022
3222 Rain 23 1014 81 10000 4.12 130 08:37 16.03.2022
3223 Rain 23 1014 81 10000 3.6 150 03:33 16.03.2022
3224 Rain 19 1017 95 10000 3.6 220 23:39 15.03.2022
3225 Clouds 19 1016 95 10000 3.09 220 22:37 15.03.2022
3226 Clouds 19 1016 95 9000 3.6 230 21:50 15.03.2022
3227 Clouds 18 1015 95 10000 2.57 240 19:47 15.03.2022
3228 Clouds 18 1015 95 10000 1.34 319 18:41 15.03.2022
3229 Rain 19 1017 94 9000 2.57 340 16:52 15.03.2022
3230 Rain 18 1016 94 6000 2.57 110 16:18 15.03.2022
3231 Rain 19 1016 93 6000 4.12 110 14:57 15.03.2022
3232 Rain 19 1017 93 5000 7.72 140 14:31 15.03.2022
3233 Rain 19 1017 91 6000 5.14 150 13:27 15.03.2022
3234 Rain 20 1017 83 10000 8.75 100 11:57 15.03.2022
3235 Clouds 20 1017 81 10000 7.72 110 11:19 15.03.2022
3236 Clouds 22 1016 75 10000 4.63 130 09:37 15.03.2022
3237 Clouds 22 1016 69 10000 5.66 130 08:32 15.03.2022
3238 Clouds 23 1015 67 10000 7.2 120 07:50 15.03.2022
3239 Clouds 24 1016 66 10000 7.2 120 06:51 15.03.2022
3240 Clouds 25 1018 61 10000 4.63 140 02:38 15.03.2022
3241 Clouds 22 1018 69 10000 5.66 120 23:39 14.03.2022
3242 Clouds 21 1018 72 10000 5.66 120 23:21 14.03.2022
3243 Clouds 18 1023 83 10000 4.63 120 22:19 14.03.2022
3244 Clouds 17 1017 84 10000 4.63 110 21:22 14.03.2022
3245 Clouds 17 1016 81 10000 3.6 110 20:35 14.03.2022
3246 Clouds 17 1013 84 10000 4.63 110 19:59 14.03.2022
3247 Clouds 17 1017 82 10000 4.12 100 18:37 14.03.2022
3248 Clouds 18 1018 83 10000 4.63 110 17:44 14.03.2022
3249 Clouds 18 1017 83 10000 4.63 110 16:57 14.03.2022
3250 Clouds 19 1018 83 10000 4.63 110 15:34 14.03.2022
3251 Clouds 19 1018 84 10000 5.14 110 14:38 14.03.2022
3252 Clouds 20 1018 81 10000 4.12 110 12:21 14.03.2022
3253 Clouds 20 1017 80 10000 4.63 110 10:50 14.03.2022
3254 Clouds 21 1017 76 10000 4.63 120 09:41 14.03.2022
3255 Clouds 21 1017 76 10000 4.63 120 09:20 14.03.2022
3256 Clouds 22 1017 76 10000 4.12 180 08:55 14.03.2022
3257 Clouds 22 1016 78 10000 4.63 170 07:21 14.03.2022
3258 Rain 22 1016 85 10000 0.51 120 05:44 14.03.2022
3259 Rain 24 1020 74 10000 6.69 160 01:52 14.03.2022
3260 Rain 23 1015 71 10000 6.69 170 01:20 14.03.2022
3261 Clouds 18 1018 91 10000 2.06 300 22:42 13.03.2022
3262 Clouds 16 1018 93 10000 3.09 330 21:28 13.03.2022
3263 Clouds 16 1018 93 10000 2.57 330 20:55 13.03.2022
3264 Clouds 16 1018 92 10000 2.57 330 20:29 13.03.2022
3265 Clear 16 1017 92 10000 2.06 330 19:49 13.03.2022
3266 Clear 17 1017 92 10000 2.06 330 19:27 13.03.2022
3267 Clear 17 1017 92 10000 3.09 330 18:59 13.03.2022
3268 Clouds 17 1017 92 10000 2.57 350 18:31 13.03.2022
3269 Clouds 17 1017 92 10000 2.06 330 17:40 13.03.2022
3270 Clouds 17 1017 92 10000 2.06 330 17:40 13.03.2022
3271 Clouds 17 1018 91 10000 2.57 250 16:57 13.03.2022
3272 Clouds 18 1018 91 10000 3.09 250 16:29 13.03.2022
3273 Clouds 18 1018 90 10000 2.57 230 15:44 13.03.2022
3274 Clouds 18 1018 89 10000 2.06 240 14:51 13.03.2022
3275 Clouds 19 1019 86 10000 0 0 13:43 13.03.2022
3276 Clouds 20 1019 85 10000 1.54 60 12:38 13.03.2022
3277 Clouds 20 1018 83 10000 3.09 80 11:51 13.03.2022
3278 Clouds 20 1018 83 10000 3.09 80 11:31 13.03.2022
3279 Clouds 20 1018 84 10000 4.12 80 10:47 13.03.2022
3280 Clouds 21 1018 83 10000 4.63 80 10:22 13.03.2022
3281 Clouds 21 1017 82 10000 3.6 110 09:40 13.03.2022
3282 Clouds 21 1017 79 10000 5.14 120 08:45 13.03.2022
3283 Clouds 22 1017 77 10000 4.63 130 07:41 13.03.2022
3284 Clouds 23 1017 73 10000 1.79 105 05:41 13.03.2022
3285 Clouds 22 1020 78 10000 5.14 140 02:43 13.03.2022
3286 Rain 20 1021 83 10000 1.54 180 23:56 12.03.2022
3287 Clouds 17 1021 91 10000 3.09 320 22:27 12.03.2022
3288 Rain 16 1019 92 10000 0.45 76 20:47 12.03.2022
3289 Rain 16 1019 90 10000 3.09 310 19:48 12.03.2022
3290 Rain 16 1018 89 10000 2.57 250 19:27 12.03.2022
3291 Clouds 16 1019 89 10000 3.6 320 18:23 12.03.2022
3292 Clear 16 1018 89 10000 0.45 263 17:31 12.03.2022
3293 Rain 16 1019 87 10000 3.6 230 16:24 12.03.2022
3294 Clouds 17 1020 84 10000 0.45 285 15:23 12.03.2022
3295 Clear 17 1019 82 10000 2.11 45 14:40 12.03.2022
3296 Clear 18 1019 80 10000 2.81 55 13:32 12.03.2022
3297 Clouds 19 1021 72 10000 3.6 70 11:56 12.03.2022
3298 Clouds 19 1021 72 10000 4.63 80 11:38 12.03.2022
3299 Clouds 20 1020 70 10000 4.12 70 10:58 12.03.2022
3300 Clouds 20 1020 69 10000 4.12 70 10:58 12.03.2022
3301 Clouds 21 1019 67 10000 6.69 80 09:45 12.03.2022
3302 Clouds 22 1018 59 10000 7.2 70 08:56 12.03.2022
3303 Clouds 24 1017 62 10000 7.72 80 07:26 12.03.2022
3304 Clouds 24 1018 62 10000 6.69 80 03:36 12.03.2022
3305 Clouds 21 1019 77 10000 1.54 270 23:56 11.03.2022
3306 Clouds 21 1019 79 10000 1.54 270 23:56 11.03.2022
3307 Clouds 19 1019 84 10000 2.57 280 23:18 11.03.2022
3308 Clouds 19 1019 84 10000 2.57 280 23:18 11.03.2022
3309 Rain 16 1016 89 10000 2.06 290 21:41 11.03.2022
3310 Clouds 16 1017 89 10000 2.06 290 20:56 11.03.2022
3311 Clouds 15 1014 89 10000 1.89 64 20:34 11.03.2022
3312 Clouds 16 1016 87 10000 2.57 90 19:52 11.03.2022
3313 Rain 16 1016 87 10000 2.57 90 19:22 11.03.2022
3314 Clouds 16 1016 87 10000 2.42 72 17:30 11.03.2022
3315 Rain 17 1017 83 10000 2.06 360 16:36 11.03.2022
3316 Clouds 18 1018 82 10000 0.45 301 15:54 11.03.2022
3317 Clouds 18 1018 78 10000 4.12 70 14:20 11.03.2022
3318 Clouds 19 1017 73 10000 1.34 155 12:45 11.03.2022
3319 Clouds 20 1017 73 10000 4.12 80 12:21 11.03.2022
3320 Clouds 20 1017 73 10000 4.12 90 11:51 11.03.2022
3321 Clouds 20 1015 72 10000 4.63 90 09:59 11.03.2022
3322 Clouds 21 1015 72 10000 5.14 110 08:56 11.03.2022
3323 Clouds 22 1015 70 10000 5.14 120 08:24 11.03.2022
3324 Clouds 22 1014 70 10000 5.66 120 07:45 11.03.2022
3325 Clouds 22 1014 65 10000 6.17 150 05:44 11.03.2022
3326 Clouds 23 1014 65 10000 6.69 180 03:48 11.03.2022
3327 Clouds 19 1018 72 10000 3.09 250 23:38 10.03.2022
3328 Rain 17 1017 79 10000 3.09 310 22:30 10.03.2022
3329 Rain 16 1016 82 10000 4.12 280 21:40 10.03.2022
3330 Clouds 15 1018 81 10000 4.12 280 21:18 10.03.2022
3331 Clouds 16 1018 80 10000 3.6 260 19:43 10.03.2022
3332 Rain 16 1018 79 10000 3.6 250 18:53 10.03.2022
3333 Rain 17 1018 80 10000 3.09 330 17:28 10.03.2022
3334 Clouds 17 1019 78 10000 4.63 250 15:55 10.03.2022
3335 Clouds 18 1018 78 10000 4.63 200 14:44 10.03.2022
3336 Clouds 19 1016 76 10000 0.89 180 13:21 10.03.2022
3337 Clouds 20 1016 70 10000 6.17 160 11:58 10.03.2022
3338 Clouds 20 1016 68 10000 7.72 160 10:53 10.03.2022
3339 Clouds 20 1015 63 10000 7.2 170 09:18 10.03.2022
3340 Clouds 21 1014 57 10000 8.75 170 07:38 10.03.2022
3341 Clouds 22 1015 56 10000 7.72 170 04:36 10.03.2022
3342 Clouds 21 1018 57 10000 8.75 200 01:46 10.03.2022
3343 Clouds 18 1016 65 10000 7.2 220 23:18 09.03.2022
3344 Clouds 16 1017 69 10000 5.66 230 21:49 09.03.2022
3345 Clouds 16 1015 70 10000 5.66 240 21:27 09.03.2022
3346 Clouds 16 1014 69 10000 8.23 230 19:44 09.03.2022
3347 Clear 16 1014 69 10000 6.17 230 18:33 09.03.2022
3348 Clouds 16 1016 68 10000 7.2 220 17:27 09.03.2022
3349 Clouds 17 1014 72 10000 9.26 200 16:31 09.03.2022
3350 Clouds 18 1014 75 10000 9.77 200 14:59 09.03.2022
3351 Clouds 18 1016 75 10000 9.77 190 13:53 09.03.2022
3352 Clouds 19 1016 75 10000 14.4 180 12:47 09.03.2022
3353 Clouds 19 1013 78 10000 12.35 190 11:53 09.03.2022
3354 Clouds 19 1013 77 10000 11.83 190 11:35 09.03.2022
3355 Clouds 20 1012 75 10000 11.32 190 09:54 09.03.2022
3356 Clouds 22 1011 70 10000 11.32 200 08:51 09.03.2022
3357 Clouds 23 1010 67 10000 0.89 217 07:27 09.03.2022
3358 Clouds 22 1009 74 10000 12.35 200 02:42 09.03.2022
3359 Rain 21 1008 82 10000 11.83 210 00:41 09.03.2022
3360 Clouds 19 1006 88 10000 12.35 210 22:47 08.03.2022
3361 Rain 19 1006 89 10000 12.86 210 21:59 08.03.2022
3362 Clouds 19 1005 89 10000 11.32 210 21:23 08.03.2022
3363 Clouds 19 1004 89 10000 12.35 210 20:29 08.03.2022
3364 Clouds 19 1004 90 10000 11.83 210 19:31 08.03.2022
3365 Drizzle 19 1003 91 10000 10.8 210 18:44 08.03.2022
3366 Clouds 18 1004 93 10000 11.83 210 17:30 08.03.2022
3367 Rain 18 1004 90 10000 13.89 200 15:45 08.03.2022
3368 Rain 18 1005 92 10000 14.4 200 14:19 08.03.2022
3369 Rain 18 1005 94 10000 11.18 200 12:43 08.03.2022
3370 Rain 19 1004 94 1200 18.52 190 11:45 08.03.2022
3371 Rain 19 1003 93 10000 16.98 200 10:44 08.03.2022
3372 Rain 19 1003 93 9000 14.92 210 09:43 08.03.2022
3373 Rain 20 1002 96 3000 15.43 200 06:43 08.03.2022
3374 Rain 20 1002 96 4000 14.4 200 04:52 08.03.2022
3375 Rain 21 1003 96 10000 6.26 129 23:50 07.03.2022
3376 Rain 21 1003 96 6000 7.2 170 21:54 07.03.2022
3377 Rain 21 1003 97 10000 6.69 170 21:31 07.03.2022
3378 Rain 21 1003 96 10000 7.2 170 20:46 07.03.2022
3379 Rain 21 1002 96 10000 5.66 170 19:55 07.03.2022
3380 Rain 21 1002 96 9000 6.17 170 19:31 07.03.2022
3381 Rain 21 1002 96 6000 5.81 124 18:42 07.03.2022
3382 Rain 21 1003 96 5000 6.71 131 17:47 07.03.2022
3383 Rain 21 1004 96 9000 5.36 129 16:55 07.03.2022
3384 Thunderstorm 21 1004 96 10000 7.6 131 15:35 07.03.2022
3385 Thunderstorm 22 1005 95 10000 9.83 131 13:24 07.03.2022
3386 Thunderstorm 22 1005 95 1500 12.96 350 12:23 07.03.2022
3387 Rain 22 1005 95 7000 4.92 185 10:38 07.03.2022
3388 Rain 23 1005 94 10000 6.17 120 08:57 07.03.2022
3389 Rain 25 1006 92 10000 2.24 127 03:49 07.03.2022
3390 Rain 23 1006 93 10000 5.14 120 00:22 07.03.2022
3391 Rain 23 1006 94 10000 5.66 110 23:35 06.03.2022
3392 Rain 23 1006 95 10000 6.17 90 22:42 06.03.2022
3393 Rain 23 1005 94 10000 7.72 100 21:47 06.03.2022
3394 Clouds 23 1005 95 10000 9.26 110 20:49 06.03.2022
3395 Clouds 23 1004 95 10000 9.77 110 20:22 06.03.2022
3396 Rain 23 1004 96 10000 9.77 130 18:56 06.03.2022
3397 Rain 23 1004 95 6000 9.77 150 18:23 06.03.2022
3398 Rain 23 1005 95 10000 8.75 150 17:21 06.03.2022
3399 Rain 23 1005 95 10000 8.75 150 16:41 06.03.2022
3400 Rain 23 1005 94 10000 7.72 160 15:52 06.03.2022
3401 Clouds 23 1006 94 10000 8.23 150 14:49 06.03.2022
3402 Clouds 23 1006 94 10000 8.23 150 14:31 06.03.2022
3403 Rain 23 1006 95 5000 7.2 150 13:18 06.03.2022
3404 Rain 23 1006 95 10000 8.23 160 12:35 06.03.2022
3405 Rain 23 1006 95 10000 7.72 160 10:59 06.03.2022
3406 Rain 23 1005 94 10000 8.23 160 10:22 06.03.2022
3407 Rain 23 1004 93 10000 1.34 173 08:29 06.03.2022
3408 Rain 23 1004 93 10000 1.34 41 08:29 06.03.2022
3409 Rain 23 1004 93 10000 1.34 41 08:29 06.03.2022
3410 Rain 22 1004 94 10000 7.72 190 07:34 06.03.2022
3411 Rain 23 1004 91 10000 1.79 175 05:40 06.03.2022
3412 Clouds 22 1004 95 10000 10.29 180 00:51 06.03.2022
3413 Clouds 21 1004 95 10000 12.86 180 00:30 06.03.2022
3414 Rain 20 1003 95 9000 12.35 180 23:21 05.03.2022
3415 Rain 20 1003 96 6000 10.8 180 22:47 05.03.2022
3416 Rain 20 1003 95 5000 8.23 200 21:46 05.03.2022
3417 Rain 20 1004 96 10000 9.77 180 21:21 05.03.2022
3418 Rain 20 1004 94 10000 7.72 190 19:44 05.03.2022
3419 Rain 20 1002 95 10000 8.75 180 18:54 05.03.2022
3420 Drizzle 20 1004 94 10000 8.75 190 18:27 05.03.2022
3421 Rain 20 1004 92 10000 8.23 210 16:34 05.03.2022
3422 Drizzle 20 1005 93 10000 9.77 180 15:31 05.03.2022
3423 Thunderstorm 20 1004 92 10000 5.14 190 14:47 05.03.2022
3424 Rain 20 1004 91 10000 4.63 230 14:29 05.03.2022
3425 Rain 22 1003 89 10000 0.89 296 13:22 05.03.2022
3426 Clouds 23 1003 90 10000 4.12 30 11:48 05.03.2022
3427 Rain 23 1002 91 10000 1.34 321 11:19 05.03.2022
3428 Clouds 24 1002 88 10000 5.66 40 10:20 05.03.2022
3429 Clouds 24 1001 86 10000 7.2 40 09:22 05.03.2022
3430 Clouds 26 1001 78 10000 7.2 30 07:38 05.03.2022
3431 Clouds 26 1002 79 10000 6.17 20 05:43 05.03.2022
3432 Clouds 26 1004 80 10000 3.09 20 03:18 05.03.2022
3433 Rain 22 1006 96 10000 2.57 290 23:38 04.03.2022
3434 Fog 22 1006 97 9000 2.06 320 22:42 04.03.2022
3435 Mist 21 1006 96 3500 2.57 300 22:19 04.03.2022
3436 Fog 21 1006 96 300 2.57 310 20:56 04.03.2022
3437 Fog 21 1005 96 500 3.09 340 20:27 04.03.2022
3438 Rain 21 1005 96 10000 0 0 19:36 04.03.2022
3439 Clouds 21 1006 96 10000 2.06 290 18:45 04.03.2022
3440 Rain 21 1006 96 4000 3.6 300 17:48 04.03.2022
3441 Rain 21 1006 96 4000 3.09 190 17:28 04.03.2022
3442 Rain 22 1007 96 8000 3.09 240 15:30 04.03.2022
3443 Clouds 22 1007 95 10000 2.57 200 14:33 04.03.2022
3444 Clouds 22 1008 95 10000 3.6 190 13:26 04.03.2022
3445 Rain 22 1008 95 10000 4.12 180 11:54 04.03.2022
3446 Rain 22 1008 94 10000 6.17 200 10:57 04.03.2022
3447 Clouds 22 1008 94 10000 5.14 190 10:18 04.03.2022
3448 Rain 23 1007 92 9000 6.17 190 08:40 04.03.2022
3449 Rain 23 1007 92 6000 7.2 190 08:40 04.03.2022
3450 Rain 23 1007 91 8000 6.69 170 07:41 04.03.2022
3451 Clouds 25 1008 89 10000 6.17 150 04:59 04.03.2022
3452 Clouds 24 1009 90 10000 2.24 172 00:41 04.03.2022
3453 Rain 22 1009 94 10000 7.72 150 22:39 03.03.2022
3454 Rain 21 1009 94 7947 1.79 278 21:50 03.03.2022
3455 Rain 21 1008 94 10000 2.24 65 21:29 03.03.2022
3456 Rain 21 1008 94 10000 7.72 130 20:18 03.03.2022
3457 Clouds 21 1007 94 10000 2.68 348 18:57 03.03.2022
3458 Rain 21 1008 93 9000 10.29 120 18:24 03.03.2022
3459 Rain 21 1008 94 8000 7.72 130 17:31 03.03.2022
3460 Rain 21 1008 93 10000 2.24 243 16:26 03.03.2022
3461 Rain 22 1009 94 10000 7.72 130 15:32 03.03.2022
3462 Rain 22 1009 94 9000 9.26 130 14:43 03.03.2022
3463 Rain 21 1009 94 9000 9.83 145 14:25 03.03.2022
3464 Clouds 21 1009 93 10000 8.75 140 12:28 03.03.2022
3465 Rain 22 1008 93 10000 8.75 130 10:56 03.03.2022
3466 Rain 22 1008 93 10000 8.23 150 09:56 03.03.2022
3467 Clouds 22 1007 92 10000 2.68 182 08:34 03.03.2022
3468 Rain 22 1006 92 10000 9.77 140 06:54 03.03.2022
3469 Rain 23 1006 87 10000 8.75 130 05:20 03.03.2022
3470 Rain 21 1007 94 6000 7.72 160 23:45 02.03.2022
3471 Rain 21 1007 94 10000 9.26 140 22:54 02.03.2022
3472 Rain 20 1007 94 8686 2.24 221 22:33 02.03.2022
3473 Rain 20 1006 93 6000 9.77 110 20:59 02.03.2022
3474 Rain 20 1006 93 5000 7.72 120 20:25 02.03.2022
3475 Rain 21 1006 93 10000 7.72 140 19:38 02.03.2022
3476 Rain 21 1006 93 10000 7.72 140 19:18 02.03.2022
3477 Clouds 21 1006 93 10000 7.72 140 18:35 02.03.2022
3478 Clouds 21 1006 93 10000 7.2 150 17:42 02.03.2022
3479 Clouds 21 1006 92 10000 7.2 120 16:52 02.03.2022
3480 Rain 21 1007 93 10000 8.75 120 15:59 02.03.2022
3481 Rain 21 1008 92 10000 9.77 100 14:29 02.03.2022
3482 Rain 20 1008 95 6837 3.58 237 12:56 02.03.2022
3483 Rain 20 1008 95 9000 8.75 110 12:34 02.03.2022
3484 Rain 20 1008 95 8000 8.75 110 11:27 02.03.2022
3485 Rain 20 1008 95 7000 5.66 100 10:50 02.03.2022
3486 Rain 20 1007 94 3000 13.89 60 09:37 02.03.2022
3487 Rain 20 1007 93 5000 5.14 90 08:36 02.03.2022
3488 Rain 20 1007 95 7000 5.36 90 07:24 02.03.2022
3489 Rain 20 1006 92 6000 6.69 60 05:42 02.03.2022
3490 Rain 21 1008 92 10000 9.39 110 00:42 02.03.2022
3491 Rain 21 1008 90 8000 9.77 90 23:35 01.03.2022
3492 Rain 21 1008 89 10000 10.28 90 22:40 01.03.2022
3493 Rain 21 1008 91 10000 8.23 90 21:55 01.03.2022
3494 Rain 20 1008 93 5000 8.75 70 20:44 01.03.2022
3495 Drizzle 20 1008 93 10000 8.49 110 20:22 01.03.2022
3496 Rain 20 1008 93 9000 7.72 110 18:59 01.03.2022
3497 Rain 20 1007 93 7000 10.29 100 18:26 01.03.2022
3498 Rain 20 1008 92 7000 10.29 100 17:55 01.03.2022
3499 Rain 20 1009 91 10000 5.36 110 16:50 01.03.2022
3500 Rain 20 1009 91 10000 8.23 120 15:51 01.03.2022
3501 Clouds 20 1010 89 10000 7.72 110 14:55 01.03.2022
3502 Rain 21 1010 89 10000 7.72 110 14:34 01.03.2022
3503 Rain 20 1010 89 10000 7.72 110 13:27 01.03.2022
3504 Rain 20 1010 89 9000 8.23 90 12:38 01.03.2022
3505 Rain 21 1011 87 10000 8.75 90 11:58 01.03.2022
3506 Clouds 21 1010 89 10000 9.26 90 10:26 01.03.2022
3507 Clouds 21 1009 85 10000 8.75 80 08:36 01.03.2022
3508 Rain 21 1009 86 10000 9.26 100 07:35 01.03.2022
3509 Rain 21 1010 92 5000 8.94 110 04:28 01.03.2022
3510 Rain 21 1011 93 10000 6.17 90 00:59 01.03.2022
3511 Rain 21 1011 93 10000 6.69 90 23:48 28.02.2022
3512 Rain 20 1011 94 9000 7.15 110 22:58 28.02.2022
3513 Drizzle 20 1010 94 9000 8.23 80 21:50 28.02.2022
3514 Drizzle 20 1010 94 9000 8.23 80 21:24 28.02.2022
3515 Rain 20 1009 93 10000 6.71 110 19:52 28.02.2022
3516 Rain 20 1008 94 10000 6.71 110 19:26 28.02.2022
3517 Rain 20 1009 91 10000 2.24 163 18:36 28.02.2022
3518 Clouds 20 1010 90 10000 7.15 110 17:24 28.02.2022
3519 Clouds 20 1012 91 10000 4.12 90 16:33 28.02.2022
3520 Clouds 20 1010 94 10000 5.66 40 15:23 28.02.2022
3521 Rain 20 1013 93 10000 3.09 220 14:31 28.02.2022
3522 Rain 20 1011 94 10000 2.06 230 13:34 28.02.2022
3523 Rain 20 1012 94 10000 3.09 260 12:41 28.02.2022
3524 Rain 20 1012 94 10000 2.06 290 11:55 28.02.2022
3525 Rain 21 1012 92 10000 3.58 90 10:48 28.02.2022
3526 Rain 21 1011 92 10000 5.14 40 10:20 28.02.2022
3527 Rain 22 1011 89 10000 2.06 50 09:32 28.02.2022
3528 Rain 22 1011 88 10000 3.6 30 08:29 28.02.2022
3529 Rain 22 1011 91 10000 4.12 20 07:28 28.02.2022
3530 Rain 22 1011 91 10000 4.12 20 07:28 28.02.2022
3531 Rain 24 1011 82 10000 4.12 170 04:55 28.02.2022
3532 Rain 24 1011 82 10000 2.57 150 04:26 28.02.2022
3533 Rain 21 1013 95 10000 3.09 160 23:42 27.02.2022
3534 Drizzle 21 1012 95 10000 3.09 140 22:34 27.02.2022
3535 Drizzle 20 1014 96 10000 3.6 150 21:51 27.02.2022
3536 Clouds 20 1013 94 10000 2.06 180 20:59 27.02.2022
3537 Clouds 20 1013 95 10000 2.06 180 20:32 27.02.2022
3538 Clouds 20 1013 95 10000 2.06 190 19:58 27.02.2022
3539 Clouds 20 1012 95 10000 1.79 270 19:27 27.02.2022
3540 Clouds 20 1011 95 10000 1.34 270 18:47 27.02.2022
3541 Rain 20 1012 95 10000 1.79 290 17:56 27.02.2022
3542 Clouds 20 1013 94 10000 2.24 270 17:18 27.02.2022
3543 Clouds 20 1012 94 10000 2.57 320 16:21 27.02.2022
3544 Rain 21 1014 91 10000 2.06 350 13:34 27.02.2022
3545 Rain 21 1014 91 10000 2.57 30 12:33 27.02.2022
3546 Rain 21 1014 89 8000 6.17 20 10:59 27.02.2022
3547 Rain 22 1012 88 10000 3.13 70 10:20 27.02.2022
3548 Rain 22 1011 87 10000 3.6 50 09:50 27.02.2022
3549 Clouds 23 1011 87 10000 3.6 50 09:20 27.02.2022
3550 Rain 23 1011 84 10000 4.47 90 08:20 27.02.2022
3551 Rain 23 1011 84 10000 4.47 90 08:20 27.02.2022
3552 Rain 24 1011 79 10000 4.63 140 05:39 27.02.2022
3553 Rain 23 1012 87 10000 7.2 170 02:45 27.02.2022
3554 Clouds 21 1013 94 10000 1.54 230 23:34 26.02.2022
3555 Clouds 20 1014 96 10000 3.13 270 22:31 26.02.2022
3556 Clouds 19 1012 96 10000 4.63 210 21:19 26.02.2022
3557 Rain 19 1012 96 10000 4.63 200 20:33 26.02.2022
3558 Rain 19 1012 96 10000 4.63 200 19:52 26.02.2022
3559 Rain 19 1012 95 10000 4.63 190 19:31 26.02.2022
3560 Clouds 19 1012 96 10000 5.14 180 17:58 26.02.2022
3561 Clouds 19 1012 96 10000 6.17 190 17:30 26.02.2022
3562 Rain 19 1013 96 9000 5.14 190 16:36 26.02.2022
3563 Rain 19 1013 95 10000 3.6 190 15:27 26.02.2022
3564 Rain 19 1014 95 10000 4.12 190 14:58 26.02.2022
3565 Rain 19 1014 95 10000 4.12 220 14:39 26.02.2022
3566 Clouds 19 1014 95 10000 3.09 250 13:46 26.02.2022
3567 Rain 19 1014 95 10000 3.6 260 12:53 26.02.2022
3568 Rain 19 1014 94 10000 3.09 30 11:45 26.02.2022
3569 Rain 19 1014 94 10000 3.09 30 11:24 26.02.2022
3570 Rain 21 1013 88 10000 2.24 70 09:28 26.02.2022
3571 Rain 21 1013 88 10000 3.09 40 08:21 26.02.2022
3572 Rain 21 1014 93 8000 6.71 335 04:22 26.02.2022
3573 Rain 20 1014 95 9000 7.72 20 23:50 25.02.2022
3574 Rain 20 1014 96 8000 3.6 180 22:31 25.02.2022
3575 Rain 20 1013 96 2000 4.12 200 21:31 25.02.2022
3576 Rain 20 1013 95 6000 3.13 180 20:47 25.02.2022
3577 Rain 20 1013 94 4000 3.13 180 20:25 25.02.2022
3578 Rain 20 1013 93 10000 8.05 110 17:54 25.02.2022
3579 Drizzle 20 1013 92 10000 8.94 124 16:48 25.02.2022
3580 Rain 20 1013 93 10000 9.39 115 15:55 25.02.2022
3581 Rain 20 1013 93 10000 6.26 98 15:23 25.02.2022
3582 Rain 21 1014 94 10000 8.49 90 14:55 25.02.2022
3583 Rain 21 1014 93 9000 7.72 70 14:24 25.02.2022
3584 Rain 21 1014 93 10000 4.63 90 13:30 25.02.2022
3585 Rain 21 1014 93 10000 29.5 177 12:21 25.02.2022
3586 Rain 22 1013 94 10000 5.66 90 11:21 25.02.2022
3587 Rain 22 1013 93 8000 4.12 120 10:23 25.02.2022
3588 Rain 22 1012 91 10000 3.6 150 09:46 25.02.2022
3589 Rain 23 1012 88 6000 4.63 130 08:41 25.02.2022
3590 Rain 23 1011 90 10000 21.01 326 07:31 25.02.2022
3591 Rain 22 1012 91 10000 19.67 331 05:42 25.02.2022
3592 Rain 22 1013 88 4000 3.13 0 02:46 25.02.2022
3593 Rain 22 1013 94 10000 4.02 307 22:48 24.02.2022
3594 Rain 21 1013 96 10000 3.09 260 21:51 24.02.2022
3595 Rain 21 1013 95 10000 3.09 260 21:31 24.02.2022
3596 Rain 21 1013 96 10000 3.58 332 20:47 24.02.2022
3597 Rain 21 1013 96 6000 3.13 334 19:38 24.02.2022
3598 Clouds 21 1012 96 10000 2.57 260 18:36 24.02.2022
3599 Clouds 21 1013 96 10000 2.57 260 18:18 24.02.2022
3600 Rain 21 1013 96 10000 2.57 230 17:33 24.02.2022
3601 Rain 21 1013 95 10000 2.06 130 16:28 24.02.2022
3602 Rain 21 1014 95 10000 2.24 90 15:46 24.02.2022
3603 Rain 21 1014 95 10000 3.6 50 14:52 24.02.2022
3604 Rain 21 1015 95 6000 2.68 45 14:20 24.02.2022
3605 Rain 21 1015 95 9000 3.6 20 13:39 24.02.2022
3606 Rain 22 1015 94 10000 6.69 40 12:33 24.02.2022
3607 Drizzle 23 1015 92 10000 6.26 70 10:40 24.02.2022
3608 Drizzle 24 1014 90 10000 3.6 50 08:58 24.02.2022
3609 Rain 24 1014 89 10000 3.6 50 08:39 24.02.2022
3610 Clouds 25 1014 81 10000 4.92 70 05:52 24.02.2022
3611 Rain 23 1016 93 10000 2.57 60 01:56 24.02.2022
3612 Rain 22 1016 96 9000 2.57 110 22:38 23.02.2022
3613 Rain 22 1016 96 9000 2.57 110 22:38 23.02.2022
3614 Rain 21 1016 96 7000 2.06 240 21:37 23.02.2022
3615 Rain 21 1016 96 10000 0.89 319 20:31 23.02.2022
3616 Rain 21 1015 95 10000 0.89 20 19:46 23.02.2022
3617 Rain 21 1014 95 10000 2.06 20 18:32 23.02.2022
3618 Rain 21 1015 95 10000 2.68 45 17:36 23.02.2022
3619 Rain 21 1017 94 6000 4.63 10 14:42 23.02.2022
3620 Rain 22 1017 91 10000 5.14 90 12:42 23.02.2022
3621 Rain 23 1017 89 10000 5.36 110 11:34 23.02.2022
3622 Clouds 23 1017 88 10000 4.63 80 10:31 23.02.2022
3623 Clouds 24 1016 86 10000 3.6 80 08:59 23.02.2022
3624 Clouds 24 1016 87 10000 3.58 90 08:23 23.02.2022
3625 Rain 23 1017 90 3000 4.12 90 03:49 23.02.2022
3626 Rain 22 1018 92 6000 8.23 10 00:39 23.02.2022
3627 Rain 22 1017 94 10000 10.28 157 23:38 22.02.2022
3628 Clouds 21 1016 96 10000 8.05 156 22:32 22.02.2022
3629 Rain 20 1017 96 6000 5.66 20 21:49 22.02.2022
3630 Rain 20 1017 96 6000 5.66 20 21:31 22.02.2022
3631 Rain 20 1016 96 10000 2.24 59 20:57 22.02.2022
3632 Rain 20 1016 96 10000 2.24 39 20:30 22.02.2022
3633 Clouds 20 1016 96 10000 3.6 40 19:42 22.02.2022
3634 Clouds 20 1016 96 10000 3.6 40 19:23 22.02.2022
3635 Rain 20 1016 96 10000 7.6 93 18:21 22.02.2022
3636 Rain 20 1016 97 5000 8.05 323 17:24 22.02.2022
3637 Rain 20 1016 96 7000 10.73 23 16:41 22.02.2022
3638 Rain 20 1016 95 4000 13.89 20 15:56 22.02.2022
3639 Rain 20 1016 96 10000 15.65 309 14:45 22.02.2022
3640 Rain 20 1017 96 9000 3.6 300 12:44 22.02.2022
3641 Rain 20 1016 95 10000 7.2 210 10:53 22.02.2022
3642 Drizzle 21 1015 93 10000 18.33 199 08:48 22.02.2022
3643 Rain 21 1015 95 10000 6.71 35 07:27 22.02.2022
3644 Rain 21 1015 95 8000 6.71 86 06:30 22.02.2022
3645 Drizzle 21 1016 91 10000 8.23 130 02:45 22.02.2022
3646 Rain 21 1014 91 10000 9.26 110 22:53 21.02.2022
3647 Rain 21 1014 92 10000 6.69 160 21:46 21.02.2022
3648 Clouds 21 1012 90 10000 8.75 200 20:37 21.02.2022
3649 Rain 22 1012 89 10000 6.69 120 18:47 21.02.2022
3650 Rain 22 1012 89 10000 6.17 110 17:39 21.02.2022
3651 Rain 22 1012 90 10000 4.63 110 15:25 21.02.2022
3652 Rain 22 1013 90 10000 4.63 110 14:22 21.02.2022
3653 Rain 22 1012 90 10000 1.34 173 13:30 21.02.2022
3654 Rain 22 1012 90 10000 4.63 90 12:24 21.02.2022
3655 Rain 22 1011 90 10000 4.63 90 11:20 21.02.2022
3656 Rain 23 1010 87 9000 6.17 100 09:54 21.02.2022
3657 Rain 26 1008 70 10000 7.72 170 05:35 21.02.2022
3658 Clear 27 1007 52 10000 3.09 310 00:19 21.02.2022
3659 Rain 23 1004 59 10000 7.2 230 22:28 20.02.2022
3660 Rain 24 1004 48 10000 9.26 300 21:43 20.02.2022
3661 Rain 22 1006 75 10000 2.96 323 21:19 20.02.2022
3662 Rain 23 1006 57 10000 9.26 280 20:41 20.02.2022
3663 Rain 23 1005 73 10000 6.17 330 19:42 20.02.2022
3664 Rain 22 1003 83 10000 4.63 340 18:52 20.02.2022
3665 Rain 22 1003 85 10000 3.09 320 18:32 20.02.2022
3666 Rain 22 1003 88 10000 5.14 20 17:52 20.02.2022
3667 Rain 22 1006 87 10000 2.57 30 15:54 20.02.2022
3668 Rain 23 1004 86 10000 3.6 40 14:52 20.02.2022
3669 Rain 23 1004 83 10000 6.17 20 13:33 20.02.2022
3670 Clear 24 1005 83 10000 0.89 342 12:34 20.02.2022
3671 Clear 24 1005 81 10000 10.29 30 10:47 20.02.2022
3672 Clear 24 1005 79 10000 10.29 30 10:20 20.02.2022
3673 Rain 25 1004 71 10000 10.8 30 08:56 20.02.2022
3674 Clouds 25 1013 63 10000 4.12 360 00:55 20.02.2022
3675 Clouds 25 1012 65 10000 3.6 340 00:30 20.02.2022
3676 Clouds 22 1013 74 10000 3.6 300 23:19 19.02.2022
3677 Clouds 19 1014 85 10000 3.13 290 22:23 19.02.2022
3678 Clouds 18 1014 88 10000 3.13 290 21:39 19.02.2022
3679 Clouds 18 1013 85 10000 3.58 270 19:58 19.02.2022
3680 Clouds 19 1013 85 10000 3.58 270 19:33 19.02.2022
3681 Clouds 19 1014 84 10000 3.13 270 18:38 19.02.2022
3682 Clouds 19 1014 81 10000 3.09 270 17:37 19.02.2022
3683 Clouds 20 1015 77 10000 2.06 360 16:34 19.02.2022
3684 Clouds 21 1014 74 10000 2.57 20 15:20 19.02.2022
3685 Clouds 21 1015 74 10000 3.09 30 14:52 19.02.2022
3686 Clouds 21 1015 71 10000 4.47 70 13:47 19.02.2022
3687 Clouds 21 1016 70 10000 4.92 90 11:39 19.02.2022
3688 Clouds 21 1016 70 10000 4.63 70 10:30 19.02.2022
3689 Clouds 22 1016 73 10000 2.57 170 08:31 19.02.2022
3690 Clouds 22 1016 74 10000 4.63 140 06:30 19.02.2022
3691 Clouds 21 1018 72 10000 5.66 160 23:45 18.02.2022
3692 Clouds 20 1018 73 10000 5.14 130 22:24 18.02.2022
3693 Clouds 20 1017 73 10000 7.72 140 20:57 18.02.2022
3694 Clouds 20 1017 73 10000 8.75 140 19:55 18.02.2022
3695 Rain 21 1016 76 10000 2.68 182 18:50 18.02.2022
3696 Rain 21 1016 77 10000 9.26 150 18:24 18.02.2022
3697 Rain 21 1016 75 10000 9.77 130 17:55 18.02.2022
3698 Clouds 21 1016 75 10000 9.77 140 15:23 18.02.2022
3699 Clouds 22 1015 76 10000 9.77 140 13:56 18.02.2022
3700 Clouds 22 1015 77 10000 10.8 130 13:25 18.02.2022
3701 Rain 22 1014 81 10000 10.29 130 12:40 18.02.2022
3702 Rain 23 1013 82 10000 11.83 130 11:55 18.02.2022
3703 Clouds 24 1011 81 10000 9.26 140 10:24 18.02.2022
3704 Clouds 28 1008 71 10000 7.72 160 06:58 18.02.2022
3705 Clouds 28 1008 69 10000 6.69 130 05:41 18.02.2022
3706 Clouds 24 1009 83 10000 2.57 200 23:43 17.02.2022
3707 Clouds 20 1009 90 10000 3.09 190 21:46 17.02.2022
3708 Clouds 20 1009 92 10000 5.14 190 21:26 17.02.2022
3709 Clouds 19 1008 92 10000 4.63 170 20:40 17.02.2022
3710 Clouds 19 1008 92 10000 3.6 150 19:52 17.02.2022
3711 Clouds 19 1008 91 10000 2.06 170 18:54 17.02.2022
3712 Clouds 20 1009 90 10000 2.57 220 17:55 17.02.2022
3713 Clouds 20 1009 89 10000 3.09 230 16:43 17.02.2022
3714 Clouds 21 1010 89 10000 3.6 190 15:40 17.02.2022
3715 Rain 21 1010 87 10000 3.09 210 14:28 17.02.2022
3716 Clouds 22 1011 82 10000 5.14 180 12:50 17.02.2022
3717 Rain 23 1008 71 10000 5.14 60 11:30 17.02.2022
3718 Rain 25 1006 72 10000 6.69 40 09:30 17.02.2022
3719 Clear 31 1006 66 10000 5.66 30 04:41 17.02.2022
3720 Clear 22 1010 77 10000 4.12 330 23:21 16.02.2022
3721 Clear 20 1009 85 10000 3.6 350 22:20 16.02.2022
3722 Clouds 18 1010 89 10000 1.34 70 20:19 16.02.2022
3723 Clouds 18 1010 88 10000 0.45 306 18:50 16.02.2022
3724 Clear 19 1011 87 10000 3.09 360 17:54 16.02.2022
3725 Clouds 20 1012 84 10000 5.66 360 15:58 16.02.2022
3726 Clouds 21 1011 84 10000 6.17 360 15:20 16.02.2022
3727 Clouds 22 1012 82 10000 8.23 30 13:38 16.02.2022
3728 Clouds 22 1014 79 10000 8.75 30 12:21 16.02.2022
3729 Clouds 23 1013 79 10000 9.26 30 11:35 16.02.2022
3730 Clear 23 1013 78 10000 4.47 45 10:34 16.02.2022
3731 Clouds 24 1012 71 10000 9.26 20 09:34 16.02.2022
3732 Clear 27 1013 61 10000 8.23 40 06:43 16.02.2022
3733 Clouds 25 1020 67 10000 2.57 240 00:37 16.02.2022
3734 Clouds 20 1020 84 10000 2.68 290 22:34 15.02.2022
3735 Clouds 18 1020 90 10000 2.24 290 21:50 15.02.2022
3736 Clouds 18 1020 89 10000 3.6 240 21:29 15.02.2022
3737 Clouds 18 1020 89 10000 3.09 240 20:57 15.02.2022
3738 Clouds 18 1019 89 10000 2.57 250 20:19 15.02.2022
3739 Clouds 18 1019 87 10000 2.57 280 19:43 15.02.2022
3740 Clouds 18 1020 86 10000 3.6 240 18:25 15.02.2022
3741 Clouds 18 1020 86 10000 2.68 290 17:53 15.02.2022
3742 Clouds 18 1020 85 10000 3.6 240 17:28 15.02.2022
3743 Clouds 20 1019 78 10000 3.6 10 15:36 15.02.2022
3744 Clouds 21 1020 76 10000 5.36 20 13:57 15.02.2022
3745 Clouds 22 1020 76 10000 5.36 20 13:25 15.02.2022
3746 Clouds 22 1022 73 10000 6.17 40 11:41 15.02.2022
3747 Clouds 23 1020 73 10000 7.2 40 10:19 15.02.2022
3748 Clouds 26 1020 66 10000 10.8 50 07:41 15.02.2022
3749 Clear 27 1020 64 10000 9.77 50 06:45 15.02.2022
3750 Clouds 24 1024 72 10000 3.09 340 23:35 14.02.2022
3751 Clouds 19 1024 88 10000 2.57 280 21:56 14.02.2022
3752 Clouds 18 1023 89 10000 2.68 290 20:52 14.02.2022
3753 Clouds 18 1023 88 10000 2.59 319 19:49 14.02.2022
3754 Clouds 18 1023 88 10000 2.51 320 19:29 14.02.2022
3755 Clouds 19 1023 85 10000 2.24 290 18:23 14.02.2022
3756 Clouds 19 1023 84 10000 3.09 290 17:28 14.02.2022
3757 Clouds 20 1024 82 10000 3.09 310 16:33 14.02.2022
3758 Clouds 22 1023 77 10000 7.2 20 14:44 14.02.2022
3759 Clouds 22 1023 75 10000 4.02 304 13:34 14.02.2022
3760 Clouds 22 1023 75 10000 8.23 30 12:58 14.02.2022
3761 Clouds 22 1023 75 10000 7.72 30 12:32 14.02.2022
3762 Clouds 23 1023 74 10000 8.23 30 11:38 14.02.2022
3763 Clouds 23 1022 71 10000 4.92 32 10:18 14.02.2022
3764 Clouds 25 1021 63 10000 9.26 40 08:18 14.02.2022
3765 Clear 26 1021 61 10000 9.77 50 07:26 14.02.2022
3766 Clouds 19 1024 79 10000 2.57 310 22:49 13.02.2022
3767 Clouds 18 1024 83 10000 2.57 310 22:30 13.02.2022
3768 Clouds 17 1024 86 10000 2.57 340 21:59 13.02.2022
3769 Clouds 16 1024 87 10000 3.09 330 21:23 13.02.2022
3770 Clouds 16 1023 87 10000 2.57 320 20:27 13.02.2022
3771 Clouds 16 1023 85 10000 2.24 290 19:23 13.02.2022
3772 Clouds 16 1022 85 10000 2.06 340 18:41 13.02.2022
3773 Clouds 16 1022 84 10000 2.61 301 17:32 13.02.2022
3774 Clouds 17 1023 81 10000 2.57 310 15:53 13.02.2022
3775 Clouds 17 1023 79 10000 2.68 290 14:50 13.02.2022
3776 Clouds 19 1021 73 10000 3.09 20 13:39 13.02.2022
3777 Clear 20 1021 70 10000 3.6 30 12:44 13.02.2022
3778 Clouds 21 1020 66 10000 4.12 30 10:46 13.02.2022
3779 Clouds 22 1020 65 10000 5.14 50 10:27 13.02.2022
3780 Clouds 23 1020 63 10000 6.17 40 08:57 13.02.2022
3781 Clouds 25 1019 58 10000 6.17 70 05:27 13.02.2022
3782 Clouds 23 1020 68 10000 1.34 159 00:34 13.02.2022
3783 Clouds 20 1022 82 10000 2.57 280 22:58 12.02.2022
3784 Clouds 19 1021 88 10000 2.57 310 22:33 12.02.2022
3785 Clouds 18 1019 93 10000 2.68 290 21:18 12.02.2022
3786 Clouds 18 1021 87 10000 3.09 80 20:25 12.02.2022
3787 Clouds 18 1018 81 10000 4.63 110 18:54 12.02.2022
3788 Clouds 18 1018 81 10000 5.14 110 18:36 12.02.2022
3789 Clouds 18 1017 84 10000 4.12 100 17:55 12.02.2022
3790 Clouds 18 1017 83 10000 6.69 110 16:55 12.02.2022
3791 Clouds 19 1018 84 10000 6.69 110 16:18 12.02.2022
3792 Clouds 19 1019 85 10000 7.72 120 15:32 12.02.2022
3793 Clouds 19 1019 86 10000 7.2 120 14:30 12.02.2022
3794 Clouds 18 1019 93 10000 3.58 290 12:55 12.02.2022
3795 Rain 18 1018 93 8000 6.69 230 10:35 12.02.2022
3796 Rain 19 1017 90 4000 7.2 200 09:38 12.02.2022
3797 Rain 19 1017 88 10000 3.6 100 08:48 12.02.2022
3798 Rain 20 1016 85 10000 8.75 170 07:50 12.02.2022
3799 Rain 21 1016 82 10000 5.36 110 05:33 12.02.2022
3800 Clouds 23 1016 65 10000 7.2 120 02:20 12.02.2022
3801 Clouds 23 1017 67 10000 8.75 120 01:44 12.02.2022
3802 Clouds 21 1016 63 10000 6.69 130 22:27 11.02.2022
3803 Clouds 20 1015 65 10000 7.72 120 21:45 11.02.2022
3804 Clouds 20 1014 66 10000 6.17 120 20:38 11.02.2022
3805 Clouds 20 1014 67 10000 7.2 120 19:33 11.02.2022
3806 Clouds 20 1014 68 10000 7.72 120 18:58 11.02.2022
3807 Clouds 20 1014 69 10000 8.75 130 17:41 11.02.2022
3808 Clouds 20 1014 68 10000 8.75 130 17:22 11.02.2022
3809 Rain 20 1015 74 10000 8.75 130 15:55 11.02.2022
3810 Clouds 21 1015 75 10000 7.72 130 14:38 11.02.2022
3811 Clouds 21 1015 75 10000 7.72 130 14:20 11.02.2022
3812 Clouds 20 1015 80 10000 9.26 130 13:52 11.02.2022
3813 Clouds 21 1015 80 10000 8.75 130 13:34 11.02.2022
3814 Clouds 21 1015 75 10000 9.26 150 11:32 11.02.2022
3815 Clouds 22 1015 75 10000 7.72 150 09:45 11.02.2022
3816 Clouds 22 1014 75 10000 8.75 160 08:42 11.02.2022
3817 Clouds 22 1014 76 10000 8.75 160 08:22 11.02.2022
3818 Rain 23 1015 77 10000 9.77 150 06:33 11.02.2022
3819 Rain 22 1014 84 9000 1.34 180 02:26 11.02.2022
3820 Rain 23 1016 82 5000 4.63 220 00:48 11.02.2022
3821 Clouds 22 1015 84 10000 7.2 190 22:49 10.02.2022
3822 Clouds 20 1015 90 10000 7.2 200 21:45 10.02.2022
3823 Clouds 20 1013 91 10000 8.23 200 20:57 10.02.2022
3824 Clouds 20 1013 91 10000 8.23 200 20:30 10.02.2022
3825 Clouds 20 1013 92 10000 7.2 200 19:25 10.02.2022
3826 Clouds 20 1012 92 10000 5.66 200 18:45 10.02.2022
3827 Clouds 20 1014 90 10000 2.24 90 17:26 10.02.2022
3828 Clouds 21 1012 90 10000 4.63 90 16:50 10.02.2022
3829 Clouds 21 1014 90 10000 8.23 130 15:49 10.02.2022
3830 Rain 21 1014 91 10000 8.23 130 15:29 10.02.2022
3831 Clouds 21 1015 90 10000 6.17 170 14:48 10.02.2022
3832 Rain 21 1015 90 10000 6.17 170 14:24 10.02.2022
3833 Rain 21 1014 89 9000 5.66 160 13:29 10.02.2022
3834 Rain 22 1013 89 8000 9.26 220 12:45 10.02.2022
3835 Rain 24 1012 78 10000 9.26 180 11:33 10.02.2022
3836 Rain 25 1011 73 10000 8.75 200 10:44 10.02.2022
3837 Clouds 26 1009 67 10000 6.69 20 09:57 10.02.2022
3838 Clouds 27 1009 60 10000 4.12 120 09:23 10.02.2022
3839 Clouds 28 1007 63 10000 5.14 70 07:19 10.02.2022
3840 Clear 31 1009 53 10000 6.17 80 04:55 10.02.2022
3841 Clear 30 1010 47 10000 2.57 50 01:48 10.02.2022
3842 Rain 27 1012 53 10000 3.09 330 00:47 10.02.2022
3843 Clear 27 1012 53 10000 3.09 330 00:28 10.02.2022
3844 Clear 24 1012 62 10000 2.68 270 23:22 09.02.2022
3845 Clear 22 1012 69 10000 3.13 270 22:35 09.02.2022
3846 Clear 19 1012 76 10000 3.58 270 21:51 09.02.2022
3847 Clear 18 1012 78 10000 3.58 270 21:29 09.02.2022
3848 Clear 17 1011 80 10000 3.58 290 20:47 09.02.2022
3849 Clear 18 1011 79 10000 3.58 290 20:27 09.02.2022
3850 Clear 18 1010 78 10000 0.45 96 19:46 09.02.2022
3851 Rain 18 1011 78 10000 0.45 82 19:27 09.02.2022
3852 Clear 19 1011 76 10000 0.45 87 17:37 09.02.2022
3853 Clear 19 1011 69 10000 0.89 299 16:34 09.02.2022
3854 Clear 20 1011 67 10000 1.34 290 15:50 09.02.2022
3855 Rain 21 1011 66 10000 0.45 290 14:35 09.02.2022
3856 Clouds 23 1009 63 10000 1.79 344 12:28 09.02.2022
3857 Clouds 24 1009 64 10000 4.63 20 10:54 09.02.2022
3858 Clear 25 1009 63 10000 5.14 30 10:26 09.02.2022
3859 Clear 26 1009 60 10000 5.14 40 09:40 09.02.2022
3860 Clear 27 1009 57 10000 5.14 40 09:19 09.02.2022
3861 Clear 28 1008 51 10000 5.66 60 07:53 09.02.2022
3862 Rain 30 1008 50 10000 5.14 80 05:30 09.02.2022
3863 Rain 30 1008 50 10000 5.14 80 05:30 09.02.2022
3864 Clear 30 1008 44 10000 3.6 250 03:50 09.02.2022
3865 Clear 26 1010 61 10000 3.6 290 00:44 09.02.2022
3866 Clear 22 1010 72 10000 5.14 310 23:32 08.02.2022
3867 Clear 22 1010 72 10000 5.14 310 23:32 08.02.2022
3868 Clear 21 1010 72 10000 5.14 310 23:32 08.02.2022
3869 Clear 22 1010 72 10000 5.14 310 23:32 08.02.2022
3870 Clear 20 1011 77 10000 3.6 310 22:46 08.02.2022
3871 Clear 19 1011 84 10000 3.09 290 22:21 08.02.2022
3872 Clear 17 1011 89 10000 3.09 330 21:42 08.02.2022
3873 Clear 16 1011 90 10000 1.34 290 21:21 08.02.2022
3874 Clouds 16 1011 90 10000 2.06 350 20:43 08.02.2022
3875 Clear 16 1010 90 10000 3.6 340 19:46 08.02.2022
3876 Clear 16 1010 90 10000 3.6 350 18:38 08.02.2022
3877 Clear 16 1011 91 10000 1.79 315 17:42 08.02.2022
3878 Clear 17 1012 89 10000 3.13 270 16:30 08.02.2022
3879 Clear 17 1012 89 10000 2.24 290 15:30 08.02.2022
3880 Clear 18 1013 88 10000 2.33 298 14:38 08.02.2022
3881 Clouds 19 1011 86 10000 3.09 350 13:24 08.02.2022
3882 Clear 19 1011 84 10000 1.34 340 11:38 08.02.2022
3883 Clouds 20 1011 80 10000 3.09 30 10:23 08.02.2022
3884 Clouds 21 1011 76 10000 4.12 110 09:45 08.02.2022
3885 Clouds 23 1012 69 10000 5.14 110 07:53 08.02.2022
3886 Clouds 24 1012 69 10000 5.14 150 05:41 08.02.2022
3887 Clouds 23 1013 73 10000 6.69 160 04:39 08.02.2022
3888 Clouds 23 1013 73 10000 6.69 160 04:21 08.02.2022
3889 Clouds 22 1014 81 10000 2.06 50 03:36 08.02.2022
3890 Rain 21 1014 82 10000 4.12 30 03:18 08.02.2022
3891 Rain 21 1015 84 10000 4.12 30 02:59 08.02.2022
3892 Clouds 20 1015 86 10000 3.6 30 02:36 08.02.2022
3893 Rain 20 1015 86 10000 3.6 30 02:18 08.02.2022
3894 Rain 20 1015 87 10000 3.6 10 02:18 08.02.2022
3895 Rain 20 1015 88 10000 3.6 330 01:44 08.02.2022
3896 Clouds 19 1015 90 10000 1.34 315 01:24 08.02.2022
3897 Rain 18 1015 91 10000 5.14 300 00:54 08.02.2022
3898 Rain 18 1015 89 5000 3.6 290 23:57 07.02.2022
3899 Rain 18 1015 89 5000 3.09 270 23:39 07.02.2022
3900 Clouds 18 1015 91 5000 3.13 270 23:18 07.02.2022
3901 Rain 17 1015 90 6000 3.13 270 22:42 07.02.2022
3902 Rain 17 1015 94 8000 4.02 270 22:18 07.02.2022
3903 Rain 16 1014 95 7000 4.02 270 21:43 07.02.2022
3904 Drizzle 16 1015 94 5000 4.92 270 21:25 07.02.2022
3905 Rain 16 1015 93 9000 5.14 240 20:41 07.02.2022
3906 Drizzle 16 1015 94 10000 5.14 230 19:56 07.02.2022
3907 Rain 16 1015 94 10000 6.17 230 19:38 07.02.2022
3908 Drizzle 16 1015 93 10000 7.72 210 18:21 07.02.2022
3909 Rain 16 1016 92 10000 3.6 300 16:53 07.02.2022
3910 Drizzle 17 1016 91 10000 3.6 310 16:20 07.02.2022
3911 Rain 17 1017 90 6000 4.47 225 15:48 07.02.2022
3912 Rain 18 1017 81 10000 7.2 230 13:36 07.02.2022
3913 Rain 18 1017 80 10000 7.2 230 13:18 07.02.2022
3914 Clouds 19 1018 77 10000 0.89 184 11:58 07.02.2022
3915 Clouds 19 1017 74 10000 0.89 168 11:37 07.02.2022
3916 Clouds 20 1017 73 10000 1.34 179 10:52 07.02.2022
3917 Clouds 20 1017 73 10000 1.34 175 10:32 07.02.2022
3918 Clouds 20 1017 70 10000 1.79 172 09:53 07.02.2022
3919 Clouds 21 1017 68 10000 2.24 177 09:18 07.02.2022
3920 Rain 21 1017 67 10000 2.24 181 08:39 07.02.2022
3921 Clouds 21 1017 73 10000 2.24 171 07:19 07.02.2022
3922 Rain 21 1018 75 10000 2.24 182 06:34 07.02.2022
3923 Clouds 21 1019 78 10000 0.89 31 03:48 07.02.2022
3924 Rain 21 1021 77 10000 2.24 172 00:46 07.02.2022
3925 Clouds 20 1021 79 10000 2.24 182 23:49 06.02.2022
3926 Rain 19 1020 84 10000 0.45 179 22:55 06.02.2022
3927 Rain 18 1021 83 10000 5.66 150 22:34 06.02.2022
3928 Clouds 17 1021 85 10000 5.81 160 21:36 06.02.2022
3929 Clouds 17 1021 89 10000 4.02 290 20:56 06.02.2022
3930 Rain 17 1019 91 10000 0.89 214 20:32 06.02.2022
3931 Clouds 17 1019 89 10000 1.34 196 19:45 06.02.2022
3932 Clouds 17 1019 90 10000 0.89 269 18:48 06.02.2022
3933 Clouds 17 1019 87 10000 0.89 176 17:58 06.02.2022
3934 Rain 17 1020 88 10000 2.24 177 17:21 06.02.2022
3935 Rain 17 1020 89 10000 4.92 196 16:48 06.02.2022
3936 Clouds 17 1020 88 10000 0.45 98 15:50 06.02.2022
3937 Rain 17 1020 88 5000 0.45 110 15:27 06.02.2022
3938 Rain 18 1020 85 10000 1.34 173 14:50 06.02.2022
3939 Rain 18 1021 87 10000 0.89 121 13:51 06.02.2022
3940 Clouds 18 1021 88 10000 0.89 117 13:20 06.02.2022
3941 Rain 19 1021 81 10000 4.47 144 11:39 06.02.2022
3942 Clouds 19 1021 77 10000 2.24 181 10:31 06.02.2022
3943 Clouds 20 1021 78 10000 1.34 297 09:26 06.02.2022
3944 Rain 22 1021 69 10000 2.24 180 08:41 06.02.2022
3945 Rain 23 1021 66 10000 2.24 169 06:19 06.02.2022
3946 Clouds 22 1021 69 10000 2.24 176 04:51 06.02.2022
3947 Clouds 24 1022 59 10000 2.68 173 02:25 06.02.2022
3948 Clouds 23 1022 52 10000 3.13 112 00:30 06.02.2022
3949 Clouds 22 1020 60 10000 2.68 177 23:25 05.02.2022
3950 Clouds 20 1019 65 10000 2.68 180 21:38 05.02.2022
3951 Clouds 19 1019 68 10000 1.79 178 20:25 05.02.2022
3952 Clouds 19 1018 71 10000 2.24 181 19:51 05.02.2022
3953 Clouds 19 1018 70 10000 2.24 180 19:33 05.02.2022
3954 Clouds 19 1018 78 10000 1.79 187 18:26 05.02.2022
3955 Clouds 19 1018 72 10000 1.34 175 17:33 05.02.2022
3956 Clouds 20 1018 69 10000 2.24 177 15:43 05.02.2022
3957 Rain 20 1019 69 10000 2.68 176 15:25 05.02.2022
3958 Clouds 20 1019 67 10000 2.24 180 13:24 05.02.2022
3959 Clouds 21 1019 69 10000 2.68 169 12:42 05.02.2022
3960 Clouds 21 1018 66 10000 3.13 182 11:18 05.02.2022
3961 Clouds 21 1018 64 10000 2.24 177 10:43 05.02.2022
3962 Clouds 21 1018 63 10000 1.79 173 09:49 05.02.2022
3963 Clouds 22 1017 61 10000 2.68 183 08:34 05.02.2022
3964 Clouds 22 1016 63 10000 3.13 180 06:58 05.02.2022
3965 Clouds 23 1017 61 10000 2.68 180 05:44 05.02.2022
3966 Clouds 21 1017 70 10000 2.68 182 01:47 05.02.2022
3967 Rain 21 1017 71 10000 3.13 177 01:18 05.02.2022
3968 Rain 21 1017 71 10000 3.13 177 01:18 05.02.2022
3969 Drizzle 20 1018 74 10000 0.89 174 00:36 05.02.2022
3970 Rain 20 1017 74 5000 2.24 173 23:33 04.02.2022
3971 Clouds 20 1017 66 10000 1.79 175 22:37 04.02.2022
3972 Rain 18 1016 71 10000 1.34 176 21:36 04.02.2022
3973 Clouds 18 1016 69 10000 2.24 175 21:18 04.02.2022
3974 Clouds 18 1016 67 10000 1.79 182 20:29 04.02.2022
3975 Clouds 17 1014 86 10000 3.13 179 18:30 04.02.2022
3976 Rain 18 1016 69 10000 3.13 172 16:20 04.02.2022
3977 Clouds 19 1016 64 10000 3.58 179 15:18 04.02.2022
3978 Clouds 19 1016 64 10000 3.13 177 14:26 04.02.2022
3979 Clouds 19 1016 65 10000 2.24 180 12:43 04.02.2022
3980 Clouds 19 1016 67 10000 2.68 179 11:44 04.02.2022
3981 Clouds 19 1016 68 10000 2.68 179 11:44 04.02.2022
3982 Clouds 20 1016 60 10000 2.24 180 10:53 04.02.2022
3983 Clouds 21 1015 59 10000 2.68 175 09:35 04.02.2022
3984 Clouds 22 1015 63 10000 2.68 178 07:44 04.02.2022
3985 Rain 21 1014 76 10000 3.13 179 03:28 04.02.2022
3986 Rain 21 1014 75 10000 0.89 183 02:33 04.02.2022
3987 Clouds 18 1013 84 10000 0.45 179 23:34 03.02.2022
3988 Clouds 18 1012 84 10000 0.45 327 22:48 03.02.2022
3989 Clouds 16 1013 79 10000 3.58 250 21:51 03.02.2022
3990 Clouds 15 1013 77 10000 1.34 118 21:22 03.02.2022
3991 Clouds 15 1012 74 10000 0.89 249 20:21 03.02.2022
3992 Clouds 16 1012 76 10000 5.36 225 19:42 03.02.2022
3993 Clouds 16 1010 80 10000 0.89 191 18:56 03.02.2022
3994 Rain 17 1011 78 10000 3.13 200 17:55 03.02.2022
3995 Clouds 17 1011 76 10000 4.92 200 16:55 03.02.2022
3996 Clouds 18 1010 76 10000 0.89 232 15:28 03.02.2022
3997 Clouds 19 1009 70 10000 0.89 189 13:45 03.02.2022
3998 Clouds 20 1008 73 10000 2.68 186 12:22 03.02.2022
3999 Clouds 21 1007 71 10000 1.34 176 08:56 03.02.2022
4000 Clouds 22 1006 67 10000 0.89 187 07:41 03.02.2022
4001 Clouds 21 1008 70 10000 2.24 296 00:47 03.02.2022
4002 Clouds 21 1008 71 10000 2.68 189 00:22 03.02.2022
4003 Clouds 19 1007 76 10000 7.15 200 22:39 02.02.2022
4004 Clouds 18 1005 80 10000 0.89 209 21:46 02.02.2022
4005 Clouds 18 1005 81 10000 0.89 180 21:28 02.02.2022
4006 Clouds 18 1005 82 10000 0.45 305 20:24 02.02.2022
4007 Clouds 18 1004 83 10000 0.45 222 19:46 02.02.2022
4008 Clouds 18 1005 83 10000 0.89 279 18:56 02.02.2022
4009 Clouds 18 1005 83 10000 0.45 194 18:24 02.02.2022
4010 Clouds 18 1005 83 10000 0.45 190 17:20 02.02.2022
4011 Clouds 18 1005 83 10000 0.45 190 16:56 02.02.2022
4012 Clouds 18 1005 83 10000 0.45 199 15:23 02.02.2022
4013 Clouds 19 1006 87 10000 1.34 178 12:30 02.02.2022
4014 Clouds 19 1006 88 10000 1.34 184 11:48 02.02.2022
4015 Clouds 19 1006 88 10000 1.34 189 11:30 02.02.2022
4016 Clouds 19 1006 88 10000 1.34 189 11:30 02.02.2022
4017 Clouds 19 1004 92 10000 2.24 170 08:48 02.02.2022
4018 Rain 20 1004 94 10000 1.79 179 02:44 02.02.2022
4019 Rain 21 1002 95 4000 0.45 231 22:33 01.02.2022
4020 Rain 21 1000 94 6000 0.89 180 20:51 01.02.2022
4021 Rain 22 1000 92 7000 0.45 186 19:23 01.02.2022
4022 Rain 23 999 89 10000 0.45 326 17:34 01.02.2022
4023 Rain 24 999 87 9000 0.45 37 16:21 01.02.2022
4024 Rain 24 1001 89 10000 4.63 300 12:57 01.02.2022
4025 Rain 24 1001 89 10000 0.45 203 12:21 01.02.2022
4026 Rain 26 998 77 10000 2.24 315 08:52 01.02.2022
4027 Clear 32 1000 61 10000 1.34 27 02:21 01.02.2022
4028 Rain 27 1003 75 10000 0.45 70 23:38 31.01.2022
4029 Clouds 24 1003 83 10000 0.89 0 22:42 31.01.2022
4030 Clear 22 1003 93 10000 0.45 0 21:35 31.01.2022
4031 Clear 21 1003 92 10000 2.23 336 20:35 31.01.2022
4032 Clear 21 1003 93 10000 1.34 315 19:58 31.01.2022
4033 Clear 22 1003 92 10000 0.45 340 18:47 31.01.2022
4034 Clouds 22 1003 92 10000 0.45 45 18:18 31.01.2022
4035 Clear 22 1003 90 10000 0.45 45 17:24 31.01.2022
4036 Clouds 22 1004 90 10000 0.45 0 16:25 31.01.2022
4037 Clouds 23 1005 88 10000 0.45 315 14:53 31.01.2022
4038 Clear 24 1004 87 10000 0.89 311 13:35 31.01.2022
4039 Clear 24 1005 87 10000 0.89 320 12:38 31.01.2022
4040 Clouds 24 1006 84 10000 2.68 70 11:31 31.01.2022
4041 Rain 25 1004 84 10000 0.89 343 10:48 31.01.2022
4042 Clear 26 1004 80 10000 0.45 339 09:38 31.01.2022
4043 Clear 27 1003 76 10000 0.89 344 08:57 31.01.2022
4044 Clear 27 1003 76 10000 0.89 350 08:38 31.01.2022
4045 Clear 28 1003 72 10000 1.34 154 08:19 31.01.2022
4046 Clouds 29 1005 71 10000 3.13 135 06:18 31.01.2022
4047 Clouds 26 1010 72 10000 1.34 90 00:43 31.01.2022
4048 Clouds 23 1011 83 10000 2.24 290 22:34 30.01.2022
4049 Clouds 22 1010 88 10000 2.24 290 21:56 30.01.2022
4050 Clouds 21 1010 90 10000 2.24 290 21:37 30.01.2022
4051 Clouds 21 1010 90 10000 2.24 290 21:18 30.01.2022
4052 Clouds 21 1010 90 10000 2.24 290 20:43 30.01.2022
4053 Clouds 21 1010 90 10000 2.24 290 20:25 30.01.2022
4054 Clouds 20 1010 91 10000 1.6 272 19:23 30.01.2022
4055 Clouds 20 1010 91 10000 1.6 272 18:35 30.01.2022
4056 Clear 20 1010 89 10000 1.54 20 17:53 30.01.2022
4057 Clear 21 1010 89 10000 0.89 319 17:20 30.01.2022
4058 Clouds 21 1011 90 10000 1.5 305 16:37 30.01.2022
4059 Clear 21 1010 88 10000 2.57 50 16:19 30.01.2022
4060 Clear 21 1011 88 10000 0.89 85 15:49 30.01.2022
4061 Clear 22 1011 86 10000 2.06 30 15:30 30.01.2022
4062 Clouds 22 1012 85 10000 2.06 30 14:45 30.01.2022
4063 Clouds 23 1013 82 10000 2.24 70 12:46 30.01.2022
4064 Clouds 23 1014 81 10000 0.89 44 11:53 30.01.2022
4065 Clouds 24 1011 79 10000 0.45 343 10:29 30.01.2022
4066 Clouds 25 1010 75 10000 0.45 335 09:50 30.01.2022
4067 Clouds 26 1010 72 10000 0.89 4 08:52 30.01.2022
4068 Clouds 28 1011 67 10000 0.89 105 06:55 30.01.2022
4069 Clouds 28 1014 63 10000 0.45 5 01:56 30.01.2022
4070 Clouds 26 1014 67 10000 0.89 26 00:22 30.01.2022
4071 Clouds 25 1015 77 10000 0.89 293 22:58 29.01.2022
4072 Clouds 22 1015 87 10000 0.45 45 21:47 29.01.2022
4073 Clouds 22 1015 88 10000 0.45 13 21:23 29.01.2022
4074 Clouds 22 1014 86 10000 1.34 90 20:28 29.01.2022
4075 Clouds 22 1012 86 10000 0.45 0 19:34 29.01.2022
4076 Clouds 22 1014 85 10000 2.24 70 18:52 29.01.2022
4077 Clouds 23 1013 86 10000 0.45 9 18:18 29.01.2022
4078 Clouds 23 1014 85 10000 1.34 45 17:28 29.01.2022
4079 Clouds 24 1013 84 10000 0.89 3 15:57 29.01.2022
4080 Rain 24 1014 85 10000 0.89 56 14:23 29.01.2022
4081 Clouds 24 1014 85 10000 1.34 306 13:42 29.01.2022
4082 Clouds 24 1014 85 10000 0.89 339 13:23 29.01.2022
4083 Rain 24 1014 85 10000 0.89 32 11:47 29.01.2022
4084 Rain 24 1013 84 10000 0.89 175 10:54 29.01.2022
4085 Clouds 26 1012 77 10000 1.34 1 08:43 29.01.2022
4086 Clouds 28 1011 69 10000 1.79 2 06:55 29.01.2022
4087 Clouds 27 1014 68 10000 1.34 348 00:35 29.01.2022
4088 Clouds 26 1014 72 10000 0.89 342 23:51 28.01.2022
4089 Clouds 24 1014 76 10000 1.34 23 22:50 28.01.2022
4090 Clouds 23 1016 77 10000 2.68 356 22:21 28.01.2022
4091 Clear 22 1015 84 10000 0.45 289 21:36 28.01.2022
4092 Clear 21 1014 87 10000 2.24 45 20:29 28.01.2022
4093 Clouds 21 1013 86 10000 1.79 313 19:29 28.01.2022
4094 Clouds 21 1014 85 10000 0.45 258 18:42 28.01.2022
4095 Clear 22 1012 86 10000 1.34 345 16:46 28.01.2022
4096 Clouds 23 1013 84 10000 0.89 13 15:18 28.01.2022
4097 Clouds 23 1013 83 10000 1.34 315 13:50 28.01.2022
4098 Clouds 23 1013 82 10000 0.89 305 12:29 28.01.2022
4099 Clear 24 1013 80 10000 1.34 204 11:24 28.01.2022
4100 Clouds 25 1011 74 10000 1.34 333 09:52 28.01.2022
4101 Clouds 27 1011 66 10000 1.34 21 07:44 28.01.2022
4102 Clear 28 1012 66 10000 1.34 310 06:44 28.01.2022
4103 Clouds 29 1013 60 10000 1.34 308 03:57 28.01.2022
4104 Clouds 29 1013 60 10000 1.34 308 03:57 28.01.2022
4105 Clouds 29 1014 60 10000 0.89 42 03:20 28.01.2022
4106 Clouds 28 1014 60 10000 1.34 341 02:22 28.01.2022
4107 Clouds 27 1015 61 10000 3.13 15 01:31 28.01.2022
4108 Clouds 25 1016 73 10000 5.81 20 22:52 27.01.2022
4109 Clouds 23 1016 80 10000 2.24 45 21:47 27.01.2022
4110 Clouds 22 1015 81 10000 2.24 45 21:29 27.01.2022
4111 Clouds 22 1013 85 10000 1.34 320 20:25 27.01.2022
4112 Clouds 22 1012 84 10000 2.24 315 18:40 27.01.2022
4113 Clouds 22 1012 83 10000 1.79 308 17:55 27.01.2022
4114 Clouds 23 1013 80 10000 0.89 354 14:42 27.01.2022
4115 Clouds 23 1013 79 10000 1.34 331 13:26 27.01.2022
4116 Clear 23 1013 78 10000 1.79 14 12:39 27.01.2022
4117 Clouds 24 1013 74 10000 1.34 12 10:23 27.01.2022
4118 Clouds 25 1012 68 10000 0.89 358 08:52 27.01.2022
4119 Clouds 25 1012 68 10000 1.79 307 08:30 27.01.2022
4120 Clouds 25 1012 68 10000 1.79 307 08:30 27.01.2022
4121 Clouds 26 1012 65 10000 0.89 6 05:49 27.01.2022
4122 Clouds 27 1014 57 10000 0.89 333 01:46 27.01.2022
4123 Clouds 22 1014 73 10000 0.45 121 22:44 26.01.2022
4124 Clouds 20 1016 82 10000 2.8 34 21:55 26.01.2022
4125 Clouds 19 1016 83 10000 0.45 106 21:31 26.01.2022
4126 Clouds 19 1015 80 10000 1.34 20 20:35 26.01.2022
4127 Clouds 19 1015 77 10000 2.68 45 19:55 26.01.2022
4128 Clouds 20 1014 76 10000 4.02 70 19:20 26.01.2022
4129 Clouds 20 1013 76 10000 0.89 149 18:40 26.01.2022
4130 Clouds 19 1014 78 10000 0.89 293 17:49 26.01.2022
4131 Clouds 19 1014 77 10000 1.79 45 17:21 26.01.2022
4132 Clouds 19 1014 77 10000 1.79 45 16:31 26.01.2022
4133 Clear 20 1014 75 10000 3.58 70 15:47 26.01.2022
4134 Clouds 21 1013 74 10000 2.24 162 13:58 26.01.2022
4135 Clouds 21 1015 73 10000 2.68 70 11:48 26.01.2022
4136 Clouds 22 1012 70 10000 0.45 158 10:27 26.01.2022
4137 Clouds 23 1012 67 10000 0.89 332 09:45 26.01.2022
4138 Clouds 25 1011 61 10000 0.89 326 07:37 26.01.2022
4139 Clouds 25 1013 62 10000 3.13 46 01:54 26.01.2022
4140 Clouds 24 1014 67 10000 2.68 70 23:56 25.01.2022
4141 Clouds 23 1012 74 10000 0.45 170 22:56 25.01.2022
4142 Clouds 22 1013 78 10000 0.89 90 22:21 25.01.2022
4143 Clouds 21 1013 84 10000 0.45 290 21:58 25.01.2022
4144 Clouds 19 1012 87 10000 1.34 90 20:46 25.01.2022
4145 Clouds 20 1012 87 10000 1.34 90 20:46 25.01.2022
4146 Clouds 19 1012 87 10000 1.34 90 20:23 25.01.2022
4147 Clouds 19 1012 88 10000 0 0 19:50 25.01.2022
4148 Clouds 19 1011 86 10000 0 0 18:32 25.01.2022
4149 Clouds 20 1011 84 10000 0.45 90 17:43 25.01.2022
4150 Clouds 20 1012 82 10000 0.89 70 16:35 25.01.2022
4151 Clouds 21 1012 80 10000 1.79 70 15:49 25.01.2022
4152 Clouds 21 1012 80 10000 1.79 70 15:31 25.01.2022
4153 Clouds 21 1012 79 10000 2.24 70 14:57 25.01.2022
4154 Clouds 21 1012 77 10000 3.13 70 13:42 25.01.2022
4155 Clouds 22 1009 73 10000 0.89 173 10:42 25.01.2022
4156 Clouds 24 1008 69 10000 0.89 319 08:37 25.01.2022
4157 Clouds 25 1008 66 10000 1.34 302 07:29 25.01.2022
4158 Clouds 26 1010 63 10000 5.36 90 06:49 25.01.2022
4159 Clouds 26 1008 66 10000 1.34 210 05:22 25.01.2022
4160 Clouds 23 1010 74 10000 0.45 3 23:37 24.01.2022
4161 Clouds 22 1010 77 10000 0.89 348 23:18 24.01.2022
4162 Clouds 22 1010 77 10000 0.45 352 22:59 24.01.2022
4163 Clouds 22 1010 79 10000 0.89 34 22:41 24.01.2022
4164 Clouds 21 1009 83 10000 0.89 36 21:53 24.01.2022
4165 Clouds 20 1011 85 10000 1.19 20 21:29 24.01.2022
4166 Clouds 20 1011 86 10000 0.89 315 20:30 24.01.2022
4167 Clouds 20 1011 85 10000 0.89 0 19:50 24.01.2022
4168 Clouds 20 1011 84 10000 0.89 0 19:24 24.01.2022
4169 Clouds 20 1010 82 10000 2.24 45 18:18 24.01.2022
4170 Clouds 20 1008 81 10000 2.24 45 17:24 24.01.2022
4171 Clouds 21 1009 79 10000 2.68 70 16:52 24.01.2022
4172 Clouds 21 1010 79 10000 1.34 335 16:19 24.01.2022
4173 Clouds 21 1012 78 10000 4.02 70 14:43 24.01.2022
4174 Clouds 21 1010 80 10000 1.34 151 13:24 24.01.2022
4175 Clouds 21 1012 81 10000 1.34 290 12:23 24.01.2022
4176 Clouds 21 1010 82 10000 0.89 155 10:30 24.01.2022
4177 Clouds 22 1009 81 10000 1.34 135 09:48 24.01.2022
4178 Clouds 23 1009 78 10000 2.24 93 08:41 24.01.2022
4179 Clouds 25 1009 72 10000 2.24 173 06:41 24.01.2022
4180 Clouds 23 1011 73 10000 1.34 155 01:31 24.01.2022
4181 Clouds 23 1012 77 10000 1.79 225 00:38 24.01.2022
4182 Clouds 23 1013 79 10000 1.79 290 00:20 24.01.2022
4183 Drizzle 20 1014 92 10000 1.34 315 22:37 23.01.2022
4184 Drizzle 19 1013 93 4000 3.13 270 21:50 23.01.2022
4185 Clouds 19 1014 93 10000 3.09 190 21:26 23.01.2022
4186 Clouds 19 1014 93 10000 4.63 200 20:48 23.01.2022
4187 Clouds 19 1013 93 10000 1.79 270 19:54 23.01.2022
4188 Clouds 19 1013 93 10000 2.24 225 18:52 23.01.2022
4189 Clouds 19 1014 93 10000 3.13 270 17:50 23.01.2022
4190 Rain 19 1014 92 10000 3.13 290 16:48 23.01.2022
4191 Clouds 19 1014 93 10000 2.24 290 15:18 23.01.2022
4192 Rain 19 1013 92 10000 1.34 340 14:32 23.01.2022
4193 Clouds 20 1013 90 10000 0.45 288 13:27 23.01.2022
4194 Rain 20 1014 89 10000 0.45 179 12:36 23.01.2022
4195 Clouds 20 1014 88 10000 0.45 27 12:18 23.01.2022
4196 Clouds 20 1013 84 10000 0.45 220 11:24 23.01.2022
4197 Clouds 21 1013 84 10000 2.24 176 10:43 23.01.2022
4198 Clouds 21 1013 84 10000 1.34 172 10:19 23.01.2022
4199 Clouds 22 1013 75 10000 2.24 177 09:19 23.01.2022
4200 Clouds 24 1013 71 10000 2.24 181 05:58 23.01.2022
4201 Rain 23 1015 78 10000 2.24 176 02:25 23.01.2022
4202 Rain 23 1016 76 10000 2.24 176 01:34 23.01.2022
4203 Clouds 22 1018 80 10000 4.92 200 00:41 23.01.2022
4204 Clouds 21 1016 89 10000 3.13 180 23:57 22.01.2022
4205 Rain 20 1016 92 10000 0.89 350 22:47 22.01.2022
4206 Clouds 19 1018 94 10000 2.68 290 21:38 22.01.2022
4207 Rain 18 1018 92 7000 1.34 200 20:26 22.01.2022
4208 Rain 18 1018 91 5000 3.13 200 19:34 22.01.2022
4209 Rain 19 1016 89 10000 0.45 192 18:36 22.01.2022
4210 Clouds 19 1016 88 10000 0.45 12 17:42 22.01.2022
4211 Clouds 19 1019 86 10000 2.68 270 16:57 22.01.2022
4212 Clouds 19 1017 87 10000 2.68 270 16:22 22.01.2022
4213 Rain 20 1017 84 10000 0.89 348 15:44 22.01.2022
4214 Clouds 20 1018 79 10000 4.02 160 14:22 22.01.2022
4215 Rain 20 1018 79 10000 1.34 184 13:27 22.01.2022
4216 Clear 20 1020 78 10000 3.13 180 12:37 22.01.2022
4217 Clear 21 1019 79 10000 0.45 171 12:18 22.01.2022
4218 Clear 21 1019 74 10000 0.89 194 10:39 22.01.2022
4219 Clear 21 1019 73 10000 1.34 187 10:20 22.01.2022
4220 Clouds 23 1019 66 10000 1.79 174 08:55 22.01.2022
4221 Clouds 24 1018 64 10000 2.24 181 08:31 22.01.2022
4222 Clouds 24 1019 61 10000 2.24 174 06:46 22.01.2022
4223 Clouds 24 1020 62 10000 2.24 173 02:39 22.01.2022
4224 Clouds 22 1024 76 10000 5.36 110 23:50 21.01.2022
4225 Clouds 20 1024 88 10000 0.89 270 22:59 21.01.2022
4226 Rain 17 1024 93 10000 2.68 225 21:18 21.01.2022
4227 Clouds 17 1023 94 10000 3.13 270 19:35 21.01.2022
4228 Clouds 17 1024 93 10000 3.58 290 17:51 21.01.2022
4229 Clouds 18 1025 92 10000 2.24 290 15:56 21.01.2022
4230 Clouds 18 1026 91 10000 2.68 290 14:58 21.01.2022
4231 Clouds 19 1025 92 10000 1.34 290 12:48 21.01.2022
4232 Clouds 19 1025 89 10000 0.89 270 11:29 21.01.2022
4233 Rain 19 1025 89 10000 0.45 45 10:47 21.01.2022
4234 Clouds 20 1025 86 10000 0.45 14 08:59 21.01.2022
4235 Clouds 20 1024 84 10000 2.68 155 08:20 21.01.2022
4236 Clouds 23 1027 68 10000 2.24 173 01:55 21.01.2022
4237 Clouds 21 1026 78 10000 2.24 165 22:52 20.01.2022
4238 Clouds 19 1025 85 10000 1.34 160 21:49 20.01.2022
4239 Rain 19 1024 88 10000 0.45 1 21:27 20.01.2022
4240 Clouds 18 1025 89 10000 0.45 328 19:55 20.01.2022
4241 Clouds 18 1025 89 10000 2.68 140 19:18 20.01.2022
4242 Rain 19 1025 81 10000 2.24 174 17:38 20.01.2022
4243 Clouds 19 1025 79 10000 1.34 173 16:32 20.01.2022
4244 Clear 19 1026 79 10000 0.89 161 15:32 20.01.2022
4245 Clouds 19 1026 78 10000 1.79 179 14:40 20.01.2022
4246 Clouds 20 1027 77 10000 0.89 163 13:21 20.01.2022
4247 Drizzle 20 1027 75 10000 2.24 173 12:31 20.01.2022
4248 Clouds 20 1026 74 10000 2.68 170 11:20 20.01.2022
4249 Clouds 21 1026 72 10000 1.34 174 10:19 20.01.2022
4250 Clouds 22 1025 63 10000 2.24 176 09:19 20.01.2022
4251 Clouds 22 1025 64 10000 3.13 180 07:24 20.01.2022
4252 Clouds 22 1025 57 10000 2.24 178 00:41 20.01.2022
4253 Clouds 20 1025 67 10000 2.24 181 22:50 19.01.2022
4254 Clouds 20 1024 72 10000 2.68 179 21:45 19.01.2022
4255 Clouds 20 1024 72 10000 2.68 176 21:22 19.01.2022
4256 Clouds 20 1023 68 10000 1.79 178 20:46 19.01.2022
4257 Clouds 20 1023 68 10000 1.79 181 19:27 19.01.2022
4258 Clouds 20 1022 73 10000 3.13 180 17:55 19.01.2022
4259 Clouds 20 1022 75 10000 2.68 179 17:35 19.01.2022
4260 Clouds 20 1022 70 10000 2.24 169 16:27 19.01.2022
4261 Clouds 20 1022 72 10000 1.79 176 13:42 19.01.2022
4262 Clouds 20 1022 72 10000 2.68 176 12:41 19.01.2022
4263 Clouds 20 1021 73 10000 1.79 177 11:39 19.01.2022
4264 Clouds 20 1020 77 10000 1.34 180 10:20 19.01.2022
4265 Clouds 20 1020 78 10000 2.24 192 09:33 19.01.2022
4266 Rain 21 1019 77 10000 3.58 175 06:35 19.01.2022
4267 Rain 21 1018 87 10000 2.24 179 02:38 19.01.2022
4268 Rain 18 1016 94 10000 1.34 187 23:19 18.01.2022
4269 Rain 18 1016 93 10000 0.89 216 22:19 18.01.2022
4270 Rain 19 1014 92 8000 0.89 186 20:55 18.01.2022
4271 Rain 19 1013 88 10000 0.89 338 19:54 18.01.2022
4272 Rain 20 1013 87 10000 1.79 174 19:36 18.01.2022
4273 Clouds 20 1013 86 10000 1.79 182 18:38 18.01.2022
4274 Clouds 20 1013 87 10000 1.79 184 17:58 18.01.2022
4275 Clouds 20 1013 90 10000 2.68 173 16:40 18.01.2022
4276 Clouds 20 1013 91 10000 1.34 169 15:41 18.01.2022
4277 Clouds 20 1013 92 10000 2.24 181 15:21 18.01.2022
4278 Clouds 20 1013 95 6000 1.34 160 12:33 18.01.2022
4279 Drizzle 21 1012 94 8000 0.45 24 10:47 18.01.2022
4280 Rain 21 1012 92 8000 3.58 200 08:49 18.01.2022
4281 Rain 21 1010 91 9000 0.89 175 07:51 18.01.2022
4282 Rain 23 1011 87 10000 0.89 206 02:34 18.01.2022
4283 Clouds 24 1011 85 10000 0.89 340 23:38 17.01.2022
4284 Clouds 23 1010 88 10000 0.89 339 22:26 17.01.2022
4285 Clouds 23 1009 90 9000 0.89 208 21:34 17.01.2022
4286 Clouds 23 1008 90 9000 0.89 102 20:24 17.01.2022
4287 Rain 24 1009 84 10000 3.6 200 18:30 17.01.2022
4288 Clear 24 1010 85 10000 2.24 270 17:44 17.01.2022
4289 Rain 24 1009 86 10000 3.58 290 16:40 17.01.2022
4290 Clouds 24 1008 87 10000 0 0 15:22 17.01.2022
4291 Rain 24 1009 87 10000 0.45 110 14:56 17.01.2022
4292 Clear 25 1009 85 10000 2.06 300 13:26 17.01.2022
4293 Clouds 25 1009 86 10000 0.45 3 12:56 17.01.2022
4294 Rain 25 1009 83 10000 0.45 350 11:49 17.01.2022
4295 Rain 26 1009 81 10000 1.79 315 10:25 17.01.2022
4296 Clouds 26 1008 80 10000 0.89 352 09:34 17.01.2022
4297 Clear 27 1007 76 10000 1.34 21 07:24 17.01.2022
4298 Clear 28 1007 75 10000 0.89 336 06:56 17.01.2022
4299 Clouds 27 1010 71 10000 2.68 110 00:56 17.01.2022
4300 Clouds 23 1010 87 10000 1.34 110 22:30 16.01.2022
4301 Clouds 21 1009 92 10000 0.45 180 20:36 16.01.2022
4302 Clouds 21 1009 90 10000 2.68 270 18:53 16.01.2022
4303 Clouds 22 1009 89 10000 2.57 210 17:59 16.01.2022
4304 Clouds 22 1008 88 10000 3.6 240 17:23 16.01.2022
4305 Clouds 23 1008 88 10000 4.63 250 16:38 16.01.2022
4306 Clouds 23 1009 90 10000 0.45 180 14:50 16.01.2022
4307 Clouds 23 1010 89 10000 0.45 209 14:27 16.01.2022
4308 Clouds 23 1010 89 10000 2.24 200 12:49 16.01.2022
4309 Clouds 23 1010 87 10000 0.89 174 11:43 16.01.2022
4310 Clouds 23 1008 86 10000 0.89 180 10:55 16.01.2022
4311 Clouds 24 1008 84 10000 0.89 206 10:26 16.01.2022
4312 Clouds 24 1007 83 10000 1.34 171 09:52 16.01.2022
4313 Clouds 25 1007 82 10000 1.34 174 09:22 16.01.2022
4314 Clouds 25 1007 80 10000 1.79 173 08:37 16.01.2022
4315 Clouds 27 1007 75 10000 0.45 179 03:21 16.01.2022
4316 Clouds 25 1007 81 10000 6.26 225 23:49 15.01.2022
4317 Clouds 23 1006 89 10000 0.45 15 22:19 15.01.2022
4318 Clouds 22 1006 91 10000 0.45 1 21:19 15.01.2022
4319 Clouds 22 1005 91 10000 0.45 1 20:40 15.01.2022
4320 Clouds 22 1004 92 10000 1.34 338 19:30 15.01.2022
4321 Clouds 22 1003 91 10000 0.89 321 18:45 15.01.2022
4322 Clear 21 1004 88 10000 1.34 225 17:29 15.01.2022
4323 Clear 22 1004 87 10000 2.24 70 15:59 15.01.2022
4324 Clear 23 1004 83 10000 3.13 270 13:56 15.01.2022
4325 Clouds 24 1002 80 10000 1.79 311 12:18 15.01.2022
4326 Clouds 24 1003 80 10000 0.45 25 10:38 15.01.2022
4327 Clouds 26 1002 75 10000 0.89 21 08:31 15.01.2022
4328 Rain 25 1004 85 10000 0.45 355 00:35 15.01.2022
4329 Clouds 21 1003 92 10000 0.45 329 21:52 14.01.2022
4330 Clouds 21 1003 92 10000 0.45 329 21:52 14.01.2022
4331 Rain 21 1005 92 10000 0.45 42 20:41 14.01.2022
4332 Clouds 21 1005 92 10000 1.79 70 20:21 14.01.2022
4333 Clear 21 1005 92 10000 0.89 110 18:49 14.01.2022
4334 Clear 21 1005 91 10000 0.89 70 18:20 14.01.2022
4335 Clouds 21 1005 90 10000 1.34 20 16:50 14.01.2022
4336 Clouds 22 1004 89 10000 0.45 356 15:39 14.01.2022
4337 Clear 22 1005 86 10000 0.89 157 14:42 14.01.2022
4338 Clear 23 1006 83 10000 0.45 349 13:36 14.01.2022
4339 Clear 23 1006 82 10000 0.89 337 12:28 14.01.2022
4340 Rain 24 1006 77 10000 0.89 341 10:53 14.01.2022
4341 Clouds 25 1007 74 10000 4.92 20 09:44 14.01.2022
4342 Clouds 25 1005 74 10000 0.45 0 08:44 14.01.2022
4343 Rain 27 1006 69 10000 1.34 333 06:45 14.01.2022
4344 Clouds 26 1010 70 10000 0.89 212 01:20 14.01.2022
4345 Clouds 22 1011 93 10000 0.89 270 22:52 13.01.2022
4346 Fog 20 1011 95 10000 0.89 0 21:38 13.01.2022
4347 Fog 20 1011 95 10000 0.89 0 21:19 13.01.2022
4348 Clouds 19 1011 95 10000 0.45 250 19:40 13.01.2022
4349 Clouds 19 1011 95 10000 0 0 19:22 13.01.2022
4350 Clouds 20 1012 95 10000 2.24 270 17:52 13.01.2022
4351 Rain 20 1013 94 6000 1.34 200 16:21 13.01.2022
4352 Rain 20 1013 93 2000 1.79 200 15:37 13.01.2022
4353 Rain 21 1012 92 10000 2.24 135 14:46 13.01.2022
4354 Clouds 21 1013 91 10000 0.45 152 12:44 13.01.2022
4355 Clouds 22 1013 87 10000 0.89 141 10:25 13.01.2022
4356 Clouds 23 1013 84 10000 0.89 170 09:20 13.01.2022
4357 Clouds 23 1013 83 10000 1.34 159 09:20 13.01.2022
4358 Clouds 24 1013 83 10000 0.89 124 08:27 13.01.2022
4359 Clouds 24 1013 85 10000 0.89 151 07:24 13.01.2022
4360 Rain 23 1014 92 10000 1.34 168 05:59 13.01.2022
4361 Rain 23 1014 92 10000 1.34 168 05:59 13.01.2022
4362 Rain 22 1014 93 10000 0.89 143 05:19 13.01.2022
4363 Rain 24 1016 82 10000 0.89 157 01:58 13.01.2022
4364 Rain 24 1016 82 10000 0.45 324 00:55 13.01.2022
4365 Clouds 23 1017 87 10000 0.45 147 23:49 12.01.2022
4366 Clouds 23 1017 87 10000 0.45 147 23:49 12.01.2022
4367 Clouds 22 1017 90 10000 1.34 290 23:20 12.01.2022
4368 Clouds 20 1018 95 10000 1.34 270 21:57 12.01.2022
4369 Clouds 20 1018 94 10000 0.45 270 21:23 12.01.2022
4370 Clouds 20 1018 94 10000 0.45 270 20:57 12.01.2022
4371 Clouds 20 1018 95 10000 0.89 200 19:55 12.01.2022
4372 Clouds 19 1017 95 10000 2.68 290 18:43 12.01.2022
4373 Rain 20 1017 95 10000 0.45 270 17:38 12.01.2022
4374 Rain 20 1017 95 10000 2.24 225 16:38 12.01.2022
4375 Rain 20 1019 94 10000 1.79 180 14:49 12.01.2022
4376 Rain 20 1019 94 9038 2.68 180 13:32 12.01.2022
4377 Clouds 20 1019 93 10000 2.24 250 12:34 12.01.2022
4378 Rain 21 1018 87 6000 4.02 225 08:45 12.01.2022
4379 Rain 22 1016 82 10000 0.45 5 07:52 12.01.2022
4380 Rain 22 1016 82 10000 0.45 0 07:32 12.01.2022
4381 Clouds 26 1017 72 10000 0.45 5 01:26 12.01.2022
4382 Clouds 24 1018 80 10000 0.45 26 23:25 11.01.2022
4383 Clouds 23 1019 83 10000 3.13 160 22:24 11.01.2022
4384 Clouds 22 1017 87 10000 3.13 160 21:28 11.01.2022
4385 Clouds 21 1018 88 10000 0.89 288 20:35 11.01.2022
4386 Clear 21 1017 87 10000 2.68 90 18:52 11.01.2022
4387 Clear 22 1015 85 10000 1.34 157 17:46 11.01.2022
4388 Clouds 22 1015 84 10000 0.45 353 16:39 11.01.2022
4389 Clouds 22 1015 84 10000 1.34 28 16:18 11.01.2022
4390 Clouds 22 1017 84 10000 2.24 9 14:44 11.01.2022
4391 Clear 22 1017 84 10000 4.92 70 14:18 11.01.2022
4392 Clear 22 1016 85 10000 0.89 353 13:42 11.01.2022
4393 Clear 23 1016 85 10000 1.34 0 13:24 11.01.2022
4394 Clouds 23 1016 86 10000 2.24 147 12:23 11.01.2022
4395 Clouds 24 1015 84 10000 2.24 157 10:26 11.01.2022
4396 Rain 25 1016 80 10000 0.89 355 07:38 11.01.2022
4397 Rain 27 1017 76 10000 1.79 158 03:47 11.01.2022
4398 Clouds 27 1018 77 10000 0.89 66 00:25 11.01.2022
4399 Clouds 25 1018 81 10000 0.89 163 23:38 10.01.2022
4400 Clouds 23 1019 88 10000 2.24 70 22:20 10.01.2022
4401 Clouds 23 1019 90 10000 2.24 70 21:57 10.01.2022
4402 Clouds 23 1017 91 10000 0.45 346 21:33 10.01.2022
4403 Clouds 23 1017 92 10000 0.45 355 20:58 10.01.2022
4404 Clouds 23 1017 92 10000 0.89 14 20:36 10.01.2022
4405 Clouds 23 1016 92 10000 0.45 1 20:18 10.01.2022
4406 Drizzle 23 1016 92 10000 0.45 344 19:37 10.01.2022
4407 Drizzle 23 1016 91 10000 0.45 0 19:18 10.01.2022
4408 Clouds 22 1016 91 10000 0.45 19 18:46 10.01.2022
4409 Clouds 23 1016 89 10000 0.89 22 16:48 10.01.2022
4410 Clouds 23 1016 89 10000 0.45 0 16:20 10.01.2022
4411 Clouds 23 1017 89 10000 0.89 327 14:43 10.01.2022
4412 Rain 23 1018 89 10000 0.89 24 13:22 10.01.2022
4413 Clouds 24 1017 87 10000 1.34 336 11:56 10.01.2022
4414 Clouds 24 1017 86 10000 0.45 339 10:49 10.01.2022
4415 Clouds 25 1016 82 10000 0.89 3 09:37 10.01.2022
4416 Clouds 28 1016 74 10000 0.89 42 05:52 10.01.2022
4417 Drizzle 26 1017 81 10000 0.89 23 02:32 10.01.2022
4418 Clouds 26 1017 81 10000 0.89 292 01:21 10.01.2022
4419 Clouds 26 1019 80 10000 5.36 70 00:21 10.01.2022
4420 Clouds 24 1017 90 10000 0.89 356 22:47 09.01.2022
4421 Clouds 24 1017 93 10000 0.45 2 22:21 09.01.2022
4422 Clouds 23 1018 94 10000 2.24 70 21:41 09.01.2022
4423 Clouds 23 1016 95 10000 0.89 332 21:41 09.01.2022
4424 Clouds 23 1018 95 10000 2.24 70 21:22 09.01.2022
4425 Clouds 22 1017 95 10000 1.79 90 20:47 09.01.2022
4426 Clouds 22 1017 95 10000 1.79 90 20:28 09.01.2022
4427 Clouds 22 1015 95 10000 0.89 154 19:41 09.01.2022
4428 Clouds 22 1016 95 10000 3.09 150 19:21 09.01.2022
4429 Clouds 22 1016 94 10000 2.57 140 18:47 09.01.2022
4430 Clouds 22 1014 95 10000 3.09 130 18:28 09.01.2022
4431 Clouds 22 1016 94 10000 2.57 110 17:30 09.01.2022
4432 Clouds 22 1016 94 10000 2.06 130 16:50 09.01.2022
4433 Clouds 22 1015 94 10000 0.45 352 15:52 09.01.2022
4434 Clouds 22 1017 93 10000 1.34 45 15:33 09.01.2022
4435 Clouds 22 1017 93 10000 2.24 20 14:39 09.01.2022
4436 Clouds 22 1017 94 10000 0.89 200 13:50 09.01.2022
4437 Clouds 23 1015 93 10000 0.45 168 12:31 09.01.2022
4438 Clouds 23 1015 93 10000 2.68 180 11:47 09.01.2022
4439 Rain 23 1014 89 10000 0.89 168 09:59 09.01.2022
4440 Rain 23 1014 88 10000 0.89 12 09:41 09.01.2022
4441 Clouds 24 1013 83 10000 1.34 174 08:30 09.01.2022
4442 Clouds 23 1015 81 10000 3.13 180 02:31 09.01.2022
4443 Clouds 24 1012 82 10000 1.34 170 01:20 09.01.2022
4444 Clouds 22 1014 85 10000 1.34 173 23:38 08.01.2022
4445 Clouds 22 1014 87 10000 1.34 188 22:59 08.01.2022
4446 Clouds 21 1013 89 10000 0.89 357 21:33 08.01.2022
4447 Clouds 21 1013 89 10000 0.89 186 20:58 08.01.2022
4448 Clouds 21 1013 89 10000 1.34 159 20:39 08.01.2022
4449 Clouds 21 1013 89 10000 0.89 187 20:19 08.01.2022
4450 Clouds 21 1011 89 10000 0.89 244 18:21 08.01.2022
4451 Clouds 21 1012 87 10000 0.45 348 17:21 08.01.2022
4452 Clouds 21 1013 87 10000 4.02 200 15:47 08.01.2022
4453 Clouds 22 1012 90 10000 5.36 160 14:43 08.01.2022
4454 Clouds 22 1013 90 10000 2.68 180 13:25 08.01.2022
4455 Clouds 22 1012 88 10000 3.58 180 11:24 08.01.2022
4456 Clouds 23 1010 87 10000 3.58 160 10:25 08.01.2022
4457 Clouds 24 1009 85 10000 1.34 185 09:47 08.01.2022
4458 Clouds 27 1007 66 10000 2.24 176 07:21 08.01.2022
4459 Clouds 30 1007 64 10000 0.89 12 02:45 08.01.2022
4460 Clouds 26 1007 75 10000 1.34 345 00:41 08.01.2022
4461 Clouds 22 1007 92 10000 0.89 18 22:47 07.01.2022
4462 Clouds 20 1006 94 10000 1.34 359 20:58 07.01.2022
4463 Clouds 20 1006 94 10000 1.34 349 20:19 07.01.2022
4464 Clouds 20 1006 94 10000 1.34 345 19:23 07.01.2022
4465 Rain 20 1006 95 10000 1.34 344 18:44 07.01.2022
4466 Rain 20 1006 95 10000 2.68 327 17:28 07.01.2022
4467 Rain 20 1007 95 10000 6.71 20 16:39 07.01.2022
4468 Rain 22 1008 88 10000 4.02 310 13:56 07.01.2022
4469 Rain 23 1008 88 10000 4.02 317 13:38 07.01.2022
4470 Clouds 23 1009 88 10000 1.79 0 12:49 07.01.2022
4471 Clouds 23 1009 88 10000 1.79 0 12:49 07.01.2022
4472 Clouds 24 1007 87 10000 1.34 319 09:42 07.01.2022
4473 Clouds 25 1011 88 10000 1.79 349 02:56 07.01.2022
4474 Clouds 24 1011 90 10000 1.34 310 01:55 07.01.2022
4475 Drizzle 24 1011 92 5000 1.34 340 01:28 07.01.2022
4476 Clouds 23 1011 93 6000 1.34 329 00:59 07.01.2022
4477 Drizzle 23 1012 93 6000 1.34 11 00:28 07.01.2022
4478 Clouds 22 1012 93 5000 1.34 296 21:34 06.01.2022
4479 Clouds 22 1011 91 10000 1.79 346 20:25 06.01.2022
4480 Clouds 22 1011 91 10000 1.34 352 19:45 06.01.2022
4481 Clouds 22 1011 91 10000 1.34 353 18:59 06.01.2022
4482 Clouds 23 1010 91 5000 1.79 353 17:42 06.01.2022
4483 Clouds 23 1011 91 5000 1.79 353 17:42 06.01.2022
4484 Rain 23 1011 90 10000 0.89 324 16:58 06.01.2022
4485 Clouds 23 1011 89 10000 1.34 339 16:21 06.01.2022
4486 Rain 23 1011 88 10000 0.89 349 15:39 06.01.2022
4487 Clouds 23 1011 88 10000 0.89 232 15:19 06.01.2022
4488 Clouds 23 1012 87 10000 0.89 346 14:19 06.01.2022
4489 Clouds 23 1012 86 10000 0.45 351 12:58 06.01.2022
4490 Clouds 23 1012 87 10000 0.89 341 11:50 06.01.2022
4491 Clouds 23 1014 86 10000 1.34 264 11:28 06.01.2022
4492 Clouds 25 1010 80 10000 0.89 260 08:59 06.01.2022
4493 Clouds 25 1012 82 10000 0.89 251 01:56 06.01.2022
4494 Clouds 24 1012 82 10000 0.89 183 23:54 05.01.2022
4495 Rain 24 1012 83 10000 0.45 335 23:19 05.01.2022
4496 Clouds 24 1012 86 10000 0.89 344 22:41 05.01.2022
4497 Clouds 23 1011 89 10000 0.89 338 21:59 05.01.2022
4498 Clouds 23 1011 90 10000 0.45 155 21:22 05.01.2022
4499 Rain 22 1010 92 9000 0.45 323 20:21 05.01.2022
4500 Clouds 22 1010 92 10000 0.89 334 19:27 05.01.2022
4501 Clouds 22 1009 93 10000 1.34 340 17:56 05.01.2022
4502 Clouds 22 1009 94 10000 1.79 151 16:56 05.01.2022
4503 Thunderstorm 22 1010 94 9000 2.24 144 15:46 05.01.2022
4504 Rain 22 1009 94 7000 4.92 143 14:54 05.01.2022
4505 Rain 22 1010 94 7000 2.24 175 13:33 05.01.2022
4506 Clouds 23 1010 91 10000 2.68 157 11:59 05.01.2022
4507 Clouds 24 1008 88 10000 2.24 157 08:29 05.01.2022
4508 Rain 23 1009 90 10000 1.34 156 06:37 05.01.2022
4509 Rain 23 1009 90 10000 1.34 156 06:37 05.01.2022
4510 Rain 23 1009 90 10000 1.34 156 06:37 05.01.2022
4511 Rain 23 1010 90 10000 1.79 167 01:24 05.01.2022
4512 Rain 22 1010 93 4000 0.89 166 23:42 04.01.2022
4513 Rain 22 1010 93 6000 0.89 171 23:19 04.01.2022
4514 Rain 21 1009 92 9000 2.68 162 21:36 04.01.2022
4515 Drizzle 21 1009 90 9000 1.34 173 20:41 04.01.2022
4516 Clouds 21 1008 88 10000 0.89 76 18:35 04.01.2022
4517 Clouds 21 1008 88 10000 0.89 296 17:30 04.01.2022
4518 Clouds 21 1008 88 10000 0.45 150 16:33 04.01.2022
4519 Clouds 22 1009 88 10000 0.89 168 15:20 04.01.2022
4520 Clouds 22 1010 87 10000 0.89 165 14:37 04.01.2022
4521 Clouds 22 1010 86 10000 0.89 165 13:55 04.01.2022
4522 Rain 23 1010 81 10000 0.89 150 12:20 04.01.2022
4523 Clouds 24 1009 76 10000 2.24 170 10:21 04.01.2022
4524 Clouds 25 1006 67 10000 1.79 167 08:49 04.01.2022
4525 Clouds 27 1011 63 10000 1.79 220 06:28 04.01.2022
4526 Clouds 26 1009 68 10000 1.79 168 00:42 04.01.2022
4527 Clouds 25 1008 71 10000 1.34 170 23:54 03.01.2022
4528 Clouds 23 1010 82 10000 4.63 180 22:22 03.01.2022
4529 Clouds 22 1009 83 10000 3.6 180 21:39 03.01.2022
4530 Clouds 20 1009 87 10000 6.17 130 20:41 03.01.2022
4531 Clouds 20 1009 84 10000 0.45 240 18:55 03.01.2022
4532 Rain 21 1007 84 10000 0.45 166 18:31 03.01.2022
4533 Clouds 20 1009 81 10000 3.09 150 17:21 03.01.2022
4534 Clouds 20 1009 80 10000 3.09 150 16:53 03.01.2022
4535 Clouds 21 1011 77 10000 0.89 158 14:31 03.01.2022
4536 Clouds 22 1009 77 10000 1.34 166 12:53 03.01.2022
4537 Clouds 23 1009 76 10000 0.89 176 11:50 03.01.2022
4538 Clouds 23 1009 75 10000 1.34 155 10:52 03.01.2022
4539 Clouds 25 1008 69 10000 1.34 153 09:29 03.01.2022
4540 Clouds 26 1006 64 10000 1.79 172 07:54 03.01.2022
4541 Clouds 28 1008 59 10000 2.24 181 04:23 03.01.2022
4542 Clouds 25 1010 64 10000 0.89 306 23:32 02.01.2022
4543 Clouds 24 1010 70 10000 0.89 30 22:56 02.01.2022
4544 Clouds 23 1011 74 10000 0.89 316 22:20 02.01.2022
4545 Clouds 21 1010 88 10000 2.72 43 21:26 02.01.2022
4546 Clouds 20 1010 88 10000 2.57 30 20:30 02.01.2022
4547 Clouds 20 1010 88 10000 2.57 30 20:30 02.01.2022
4548 Clouds 20 1010 88 10000 2.57 30 20:30 02.01.2022
4549 Clouds 20 1009 88 10000 2.06 40 19:32 02.01.2022
4550 Clouds 20 1009 88 10000 1.54 30 18:56 02.01.2022
4551 Clear 20 1008 88 10000 3.54 55 18:23 02.01.2022
4552 Clear 20 1008 88 10000 3.51 55 17:42 02.01.2022
4553 Clear 21 1009 87 10000 3.73 48 17:21 02.01.2022
4554 Clouds 21 1009 83 10000 4.12 40 16:28 02.01.2022
4555 Clouds 22 1008 84 10000 1.79 323 15:39 02.01.2022
4556 Clouds 23 1008 82 10000 1.34 15 13:57 02.01.2022
4557 Clouds 23 1007 81 10000 1.34 4 12:32 02.01.2022
4558 Clouds 23 1007 82 10000 1.34 336 11:55 02.01.2022
4559 Clouds 24 1007 79 10000 1.34 316 10:55 02.01.2022
4560 Clouds 24 1006 76 10000 1.34 347 10:18 02.01.2022
4561 Clouds 27 1006 66 10000 2.24 350 07:44 02.01.2022
4562 Clouds 28 1008 65 10000 2.24 120 02:57 02.01.2022
4563 Clouds 26 1009 66 10000 2.24 28 23:54 01.01.2022
4564 Clouds 25 1010 69 10000 0.89 335 23:35 01.01.2022
4565 Clouds 23 1011 77 10000 2.24 344 22:39 01.01.2022
4566 Clouds 23 1011 80 10000 0.45 48 22:18 01.01.2022
4567 Clouds 21 1010 86 10000 3.6 290 21:42 01.01.2022
4568 Clouds 19 1010 88 10000 0.89 301 20:50 01.01.2022
4569 Clouds 20 1007 86 10000 1.34 319 19:47 01.01.2022
4570 Clear 20 1007 85 10000 0.89 312 18:53 01.01.2022
4571 Clear 20 1010 84 10000 0.45 226 17:46 01.01.2022
4572 Clear 21 1008 83 10000 1.79 306 16:35 01.01.2022
4573 Clouds 21 1008 82 10000 0.45 309 15:50 01.01.2022
4574 Clouds 22 1009 83 10000 1.34 345 14:56 01.01.2022
4575 Clouds 22 1009 83 10000 0.89 307 13:42 01.01.2022
4576 Clouds 23 1009 80 10000 0.45 320 12:43 01.01.2022
4577 Clouds 23 1009 78 10000 0.45 329 11:47 01.01.2022
4578 Clouds 23 1009 78 10000 1.34 313 11:19 01.01.2022
4579 Clouds 24 1009 75 10000 0.89 320 09:49 01.01.2022
4580 Clouds 24 1008 75 10000 1.34 338 09:20 01.01.2022
4581 Rain 25 1008 72 10000 1.79 9 08:24 01.01.2022
4582 Clouds 25 1008 71 10000 0.89 338 07:41 01.01.2022
4583 Clouds 27 1008 68 10000 1.34 2 06:45 01.01.2022
4584 Clouds 27 1009 65 10000 1.34 1 05:26 01.01.2022
4585 Clouds 28 1009 63 10000 1.34 262 04:37 01.01.2022
4586 Clouds 26 1012 62 10000 0.89 56 00:53 01.01.2022
4587 Clouds 24 1012 68 10000 1.79 327 23:22 31.12.2021
4588 Clouds 22 1012 73 10000 1.79 309 21:52 31.12.2021
4589 Clouds 19 1011 83 10000 2.68 312 20:33 31.12.2021
4590 Clouds 20 1011 82 10000 3.13 312 19:30 31.12.2021
4591 Clouds 23 1013 64 10000 6.17 20 18:32 31.12.2021
4592 Clouds 20 1011 79 10000 2.68 299 17:38 31.12.2021
4593 Clouds 20 1011 79 10000 2.68 299 17:18 31.12.2021
4594 Clouds 21 1011 78 10000 0.89 293 16:24 31.12.2021
4595 Clouds 21 1012 77 10000 1.34 329 15:56 31.12.2021
4596 Clouds 21 1012 76 10000 1.79 332 15:28 31.12.2021
4597 Clouds 21 1012 76 10000 2.24 309 14:47 31.12.2021
4598 Clouds 22 1012 76 10000 2.24 315 14:28 31.12.2021
4599 Clouds 22 1013 76 10000 1.34 315 13:36 31.12.2021
4600 Clouds 22 1013 76 10000 4.02 309 12:45 31.12.2021
4601 Clouds 22 1014 74 10000 5.36 45 11:47 31.12.2021
4602 Clouds 23 1014 73 10000 5.36 45 11:29 31.12.2021
4603 Clouds 23 1012 73 10000 1.34 351 10:35 31.12.2021
4604 Clouds 24 1012 71 10000 1.34 313 09:54 31.12.2021
4605 Clouds 24 1012 69 10000 0.89 33 09:32 31.12.2021
4606 Clouds 25 1011 66 10000 1.79 355 08:27 31.12.2021
4607 Clear 26 1011 65 10000 1.34 340 07:30 31.12.2021
4608 Clouds 23 1015 64 10000 4.92 0 23:32 30.12.2021
4609 Clouds 21 1015 75 10000 1.34 0 22:33 30.12.2021
4610 Clouds 20 1015 81 10000 1.34 315 21:56 30.12.2021
4611 Clouds 19 1015 84 10000 1.34 315 21:37 30.12.2021
4612 Clear 16 1015 90 10000 0.89 340 20:47 30.12.2021
4613 Clear 16 1014 90 10000 0.89 340 20:27 30.12.2021
4614 Clear 16 1014 90 10000 0.89 0 19:47 30.12.2021
4615 Clear 16 1014 89 10000 0.89 315 18:48 30.12.2021
4616 Clear 17 1014 88 10000 0.89 315 18:19 30.12.2021
4617 Clear 18 1015 81 10000 0.89 20 16:27 30.12.2021
4618 Clear 19 1015 80 10000 1.79 0 15:52 30.12.2021
4619 Clear 20 1014 78 10000 1.34 313 14:41 30.12.2021
4620 Clear 20 1014 77 10000 2.24 318 13:57 30.12.2021
4621 Clear 21 1014 75 10000 2.24 307 12:52 30.12.2021
4622 Clear 22 1013 73 10000 1.79 300 11:22 30.12.2021
4623 Clear 22 1013 71 10000 0.89 302 10:27 30.12.2021
4624 Clear 23 1013 66 10000 1.34 351 09:27 30.12.2021
4625 Clouds 26 1013 61 10000 0.89 0 06:55 30.12.2021
4626 Clouds 26 1016 57 10000 2.68 4 04:25 30.12.2021
4627 Clouds 26 1014 56 10000 1.34 159 03:40 30.12.2021
4628 Clouds 23 1017 61 10000 1.34 258 00:42 30.12.2021
4629 Clouds 22 1017 65 10000 3.13 270 23:35 29.12.2021
4630 Clouds 20 1017 76 10000 3.13 290 22:32 29.12.2021
4631 Clouds 18 1018 82 10000 0.45 161 21:54 29.12.2021
4632 Clear 15 1017 92 10000 3.13 270 20:56 29.12.2021
4633 Clouds 15 1017 91 10000 3.13 270 20:25 29.12.2021
4634 Clouds 14 1016 90 10000 0.89 288 19:31 29.12.2021
4635 Clear 14 1016 90 10000 2.24 270 18:30 29.12.2021
4636 Clouds 14 1016 89 10000 2.24 290 17:41 29.12.2021
4637 Clouds 15 1016 89 10000 2.24 290 17:20 29.12.2021
4638 Clear 15 1017 86 10000 2.68 290 16:19 29.12.2021
4639 Clouds 16 1017 86 10000 1.79 340 14:59 29.12.2021
4640 Clouds 17 1017 78 10000 1.79 45 12:57 29.12.2021
4641 Clouds 18 1016 78 10000 0.45 321 12:32 29.12.2021
4642 Clouds 19 1015 73 10000 0.45 169 11:22 29.12.2021
4643 Clouds 21 1015 68 10000 1.34 158 09:24 29.12.2021
4644 Clouds 23 1016 64 10000 4.02 110 07:30 29.12.2021
4645 Clouds 23 1015 68 10000 1.34 161 06:32 29.12.2021
4646 Clouds 22 1015 76 10000 1.79 0 05:55 29.12.2021
4647 Clouds 22 1015 76 10000 0.45 316 04:58 29.12.2021
4648 Rain 19 1014 91 10000 0.45 237 00:45 29.12.2021
4649 Rain 19 1016 87 10000 0.45 176 23:58 28.12.2021
4650 Rain 18 1014 84 10000 0.45 347 22:57 28.12.2021
4651 Rain 16 1014 91 10000 1.34 311 22:25 28.12.2021
4652 Rain 16 1015 94 10000 3.58 315 21:54 28.12.2021
4653 Rain 15 1017 92 10000 0.45 182 21:35 28.12.2021
4654 Rain 14 1018 84 5000 0.45 116 20:32 28.12.2021
4655 Clouds 14 1014 80 10000 5.81 290 18:54 28.12.2021
4656 Rain 15 1014 81 10000 0.45 325 18:28 28.12.2021
4657 Rain 14 1016 78 10000 2.57 300 17:42 28.12.2021
4658 Clouds 14 1017 77 10000 4.12 240 16:25 28.12.2021
4659 Clouds 15 1018 75 10000 4.02 250 15:41 28.12.2021
4660 Clouds 16 1017 76 10000 0.45 188 14:57 28.12.2021
4661 Clouds 16 1017 75 10000 0.45 2 14:57 28.12.2021
4662 Clouds 16 1017 76 10000 0.89 221 14:38 28.12.2021
4663 Clouds 17 1017 74 10000 0.89 221 14:20 28.12.2021
4664 Clouds 17 1017 76 10000 0.89 196 13:38 28.12.2021
4665 Clouds 17 1017 74 10000 0.45 178 12:57 28.12.2021
4666 Clouds 18 1017 74 10000 1.34 187 12:38 28.12.2021
4667 Rain 18 1017 76 10000 1.34 199 10:52 28.12.2021
4668 Rain 20 1015 73 10000 1.34 169 07:39 28.12.2021
4669 Rain 19 1015 78 10000 2.24 178 06:40 28.12.2021
4670 Rain 18 1018 77 10000 2.68 176 23:42 27.12.2021
4671 Clouds 17 1017 82 10000 0.89 187 22:53 27.12.2021
4672 Rain 16 1017 83 10000 1.34 193 21:33 27.12.2021
4673 Clouds 16 1017 83 10000 1.34 168 20:46 27.12.2021
4674 Rain 16 1016 83 10000 1.34 184 19:57 27.12.2021
4675 Rain 16 1016 83 10000 0.89 293 19:39 27.12.2021
4676 Rain 16 1015 86 10000 2.24 183 17:55 27.12.2021
4677 Rain 16 1015 86 10000 2.24 183 17:55 27.12.2021
4678 Rain 16 1016 85 10000 1.79 174 17:37 27.12.2021
4679 Rain 16 1016 88 10000 1.34 182 16:38 27.12.2021
4680 Rain 16 1016 87 6000 1.79 177 15:51 27.12.2021
4681 Clouds 16 1017 89 10000 3.13 183 14:32 27.12.2021
4682 Rain 17 1016 92 10000 2.68 177 13:39 27.12.2021
4683 Rain 17 1017 92 4000 1.34 170 11:53 27.12.2021
4684 Rain 17 1017 90 10000 0.89 340 10:29 27.12.2021
4685 Rain 18 1016 89 9000 0.89 161 09:39 27.12.2021
4686 Rain 18 1015 88 7000 1.79 178 07:35 27.12.2021
4687 Rain 19 1015 85 8000 2.24 190 06:56 27.12.2021
4688 Clouds 21 1016 72 10000 0.45 211 02:18 27.12.2021
4689 Clouds 19 1016 80 10000 0.89 287 23:58 26.12.2021
4690 Clouds 19 1016 80 10000 0.89 342 23:35 26.12.2021
4691 Clouds 18 1015 83 10000 0.45 204 21:59 26.12.2021
4692 Clouds 18 1014 83 10000 0.89 243 20:54 26.12.2021
4693 Clouds 18 1013 82 10000 0.45 320 19:47 26.12.2021
4694 Clouds 18 1013 81 10000 0.45 320 19:47 26.12.2021
4695 Rain 18 1013 81 10000 1.34 178 18:24 26.12.2021
4696 Rain 18 1013 90 10000 0.89 183 16:20 26.12.2021
4697 Rain 19 1014 91 10000 3.13 185 14:28 26.12.2021
4698 Rain 19 1014 89 9000 1.34 179 13:40 26.12.2021
4699 Rain 20 1013 89 8000 2.24 182 13:19 26.12.2021
4700 Rain 20 1013 85 10000 1.34 179 12:33 26.12.2021
4701 Clouds 20 1014 84 10000 1.79 158 10:34 26.12.2021
4702 Rain 20 1012 86 10000 1.34 192 09:25 26.12.2021
4703 Rain 21 1012 84 10000 0.89 192 08:44 26.12.2021
4704 Rain 22 1011 84 10000 1.34 209 07:58 26.12.2021
4705 Clouds 25 1014 76 10000 0.89 262 01:29 26.12.2021
4706 Clouds 25 1012 77 10000 1.34 173 23:56 25.12.2021
4707 Clouds 24 1014 78 10000 4.47 160 23:27 25.12.2021
4708 Clouds 23 1014 83 10000 1.34 149 22:28 25.12.2021
4709 Clouds 21 1013 92 10000 0.45 164 21:00 25.12.2021
4710 Clouds 19 1013 90 10000 0.45 86 19:28 25.12.2021
4711 Clear 19 1012 89 10000 2.06 30 18:56 25.12.2021
4712 Clear 20 1012 88 10000 1.34 315 17:38 25.12.2021
4713 Clear 21 1012 85 10000 0.45 45 16:42 25.12.2021
4714 Clouds 22 1011 84 10000 2.24 316 15:26 25.12.2021
4715 Clear 23 1011 81 10000 2.24 309 13:41 25.12.2021
4716 Rain 24 1011 78 10000 1.34 329 11:54 25.12.2021
4717 Rain 25 1012 75 10000 5.81 70 10:18 25.12.2021
4718 Rain 25 1012 75 10000 5.81 70 09:42 25.12.2021
4719 Clouds 29 1012 66 10000 6.71 45 05:39 25.12.2021
4720 Clouds 29 1013 61 10000 4.47 70 01:31 25.12.2021
4721 Clouds 26 1013 68 10000 0.89 360 23:55 24.12.2021
4722 Clouds 20 1014 93 10000 0.45 315 20:53 24.12.2021
4723 Clouds 20 1013 92 10000 1.79 290 19:25 24.12.2021
4724 Clouds 20 1013 92 10000 0.45 290 18:34 24.12.2021
4725 Clouds 21 1013 92 10000 1.34 250 16:40 24.12.2021
4726 Clouds 21 1013 91 10000 0.89 250 15:49 24.12.2021
4727 Clouds 21 1014 89 10000 1.79 290 15:20 24.12.2021
4728 Clouds 22 1014 88 10000 1.79 290 14:31 24.12.2021
4729 Clouds 22 1013 88 10000 0.89 340 13:50 24.12.2021
4730 Clouds 22 1013 88 10000 0.45 352 13:32 24.12.2021
4731 Clouds 22 1012 88 10000 0.89 170 12:39 24.12.2021
4732 Clouds 23 1012 87 10000 0.89 169 11:42 24.12.2021
4733 Clouds 23 1012 86 10000 0.45 16 11:24 24.12.2021
4734 Clouds 23 1012 85 10000 0.45 158 10:33 24.12.2021
4735 Clouds 24 1010 79 10000 2.24 179 08:40 24.12.2021
4736 Clouds 25 1010 79 10000 2.24 170 07:58 24.12.2021
4737 Clouds 26 1009 77 10000 2.24 176 06:59 24.12.2021
4738 Clouds 23 1014 80 10000 0.45 136 00:22 24.12.2021
4739 Clouds 22 1015 80 10000 5.36 180 23:49 23.12.2021
4740 Clouds 22 1015 83 10000 5.81 200 22:53 23.12.2021
4741 Clouds 21 1013 87 10000 1.34 181 22:24 23.12.2021
4742 Clouds 20 1014 89 10000 4.47 180 21:41 23.12.2021
4743 Clouds 19 1012 92 10000 0.45 336 20:31 23.12.2021
4744 Clouds 19 1011 92 10000 2.24 193 19:30 23.12.2021
4745 Clouds 19 1011 92 10000 1.79 175 19:30 23.12.2021
4746 Clouds 20 1010 91 10000 1.34 190 18:18 23.12.2021
4747 Clouds 20 1010 91 10000 0.45 176 17:46 23.12.2021
4748 Rain 21 1011 91 10000 0.45 44 16:27 23.12.2021
4749 Thunderstorm 22 1011 91 10000 0.45 338 15:48 23.12.2021
4750 Thunderstorm 22 1011 90 7000 0.45 337 15:30 23.12.2021
4751 Clouds 22 1011 90 10000 0.89 305 14:42 23.12.2021
4752 Clouds 22 1010 91 10000 2.24 316 13:43 23.12.2021
4753 Clouds 23 1010 90 10000 0.45 4 11:59 23.12.2021
4754 Clouds 23 1009 87 10000 0.89 342 09:55 23.12.2021
4755 Rain 24 1009 86 10000 0.89 346 09:34 23.12.2021
4756 Rain 24 1008 85 10000 0.89 354 08:41 23.12.2021
4757 Clouds 24 1008 84 10000 0.89 18 06:20 23.12.2021
4758 Rain 23 1009 89 10000 1.34 165 03:22 23.12.2021
4759 Rain 22 1010 93 10000 0.89 333 22:54 22.12.2021
4760 Rain 22 1010 93 10000 0.45 103 22:23 22.12.2021
4761 Rain 21 1012 93 10000 4.63 170 21:53 22.12.2021
4762 Rain 21 1010 94 10000 0.45 1 21:27 22.12.2021
4763 Rain 21 1010 94 10000 0.45 12 20:41 22.12.2021
4764 Rain 21 1011 94 10000 2.24 290 19:59 22.12.2021
4765 Rain 21 1010 93 10000 2.24 315 18:57 22.12.2021
4766 Rain 21 1009 93 9000 0.45 1 17:39 22.12.2021
4767 Rain 21 1011 91 10000 1.79 200 16:34 22.12.2021
4768 Clouds 22 1010 89 10000 0.89 166 15:24 22.12.2021
4769 Clouds 23 1011 83 10000 1.34 172 13:23 22.12.2021
4770 Clouds 23 1011 83 10000 1.34 176 12:19 22.12.2021
4771 Clouds 23 1010 78 10000 2.24 179 09:53 22.12.2021
4772 Clouds 23 1010 77 10000 2.24 168 09:31 22.12.2021
4773 Clouds 24 1009 71 10000 2.24 172 07:22 22.12.2021
4774 Clouds 26 1008 71 10000 3.13 167 05:40 22.12.2021
4775 Clouds 26 1008 71 10000 2.68 179 05:21 22.12.2021
4776 Clouds 26 1007 70 10000 2.68 172 04:45 22.12.2021
4777 Clouds 26 1009 68 10000 1.34 168 04:19 22.12.2021
4778 Clouds 27 1009 68 10000 2.68 165 03:32 22.12.2021
4779 Clouds 24 1010 75 10000 1.34 176 00:29 22.12.2021
4780 Clouds 22 1010 81 10000 0.89 355 22:51 21.12.2021
4781 Clouds 22 1010 82 10000 1.34 175 22:27 21.12.2021
4782 Clouds 22 1010 84 10000 0.89 15 21:43 21.12.2021
4783 Clouds 21 1009 85 10000 1.34 174 20:53 21.12.2021
4784 Clouds 21 1009 85 10000 1.34 178 20:20 21.12.2021
4785 Clouds 21 1009 85 10000 1.79 178 19:41 21.12.2021
4786 Clouds 21 1010 85 10000 1.34 225 18:43 21.12.2021
4787 Clouds 21 1010 86 10000 1.34 225 18:21 21.12.2021
4788 Clouds 21 1007 86 10000 0.45 261 17:40 21.12.2021
4789 Clouds 22 1010 85 10000 4.92 180 15:47 21.12.2021
4790 Clouds 22 1010 85 10000 0.89 61 15:19 21.12.2021
4791 Clouds 23 1010 83 10000 4.02 200 13:50 21.12.2021
4792 Clouds 23 1010 83 10000 4.02 200 13:29 21.12.2021
4793 Clouds 24 1010 80 10000 3.58 90 10:56 21.12.2021
4794 Clear 25 1009 73 10000 4.47 110 09:59 21.12.2021
4795 Rain 26 1006 71 10000 1.34 155 09:19 21.12.2021
4796 Rain 28 1006 61 10000 1.34 169 07:55 21.12.2021
4797 Clouds 29 1006 58 10000 1.34 177 07:26 21.12.2021
4798 Rain 30 1007 50 10000 2.24 172 05:31 21.12.2021
4799 Clear 30 1009 46 10000 2.24 170 02:40 21.12.2021
4800 Clear 27 1011 58 10000 2.68 180 23:58 20.12.2021
4801 Clear 26 1011 62 10000 2.68 180 23:27 20.12.2021
4802 Clouds 24 1011 75 10000 1.79 250 22:28 20.12.2021
4803 Clouds 22 1012 88 10000 0.89 265 21:47 20.12.2021
4804 Clouds 21 1012 91 10000 0.45 309 21:23 20.12.2021
4805 Clouds 21 1011 94 10000 4.02 290 20:44 20.12.2021
4806 Clouds 20 1011 93 10000 0.45 93 19:52 20.12.2021
4807 Clouds 20 1011 93 10000 0.89 85 19:31 20.12.2021
4808 Clouds 21 1011 93 10000 3.13 290 18:54 20.12.2021
4809 Clear 21 1011 93 10000 0.45 20 17:52 20.12.2021
4810 Rain 21 1011 93 10000 0.45 20 17:25 20.12.2021
4811 Clouds 21 1011 92 10000 0 0 16:40 20.12.2021
4812 Rain 22 1012 91 10000 0 0 15:50 20.12.2021
4813 Rain 22 1012 89 10000 0.89 90 14:43 20.12.2021
4814 Rain 23 1011 88 10000 0.45 143 12:53 20.12.2021
4815 Rain 24 1010 87 10000 0.89 0 11:19 20.12.2021
4816 Clouds 26 1009 83 10000 0.89 29 09:47 20.12.2021
4817 Clouds 26 1009 81 10000 0.89 11 09:28 20.12.2021
4818 Rain 27 1009 79 10000 0.89 5 08:41 20.12.2021
4819 Clouds 28 1009 76 10000 0.89 175 07:49 20.12.2021
4820 Clouds 28 1009 73 10000 0.89 346 07:29 20.12.2021
4821 Clouds 29 1009 70 10000 1.34 161 03:59 20.12.2021
4822 Clouds 25 1014 74 10000 1.34 69 23:58 19.12.2021
4823 Clouds 24 1013 78 10000 1.79 340 22:45 19.12.2021
4824 Clouds 22 1013 84 10000 1.34 180 21:50 19.12.2021
4825 Clouds 22 1011 85 10000 0.89 176 21:29 19.12.2021
4826 Clouds 20 1012 85 10000 0.45 264 20:31 19.12.2021
4827 Clear 19 1011 84 10000 1.79 290 19:49 19.12.2021
4828 Clear 20 1010 80 10000 2.24 290 18:59 19.12.2021
4829 Clear 20 1010 79 10000 2.24 290 18:29 19.12.2021
4830 Clear 20 1010 79 10000 2.24 290 18:29 19.12.2021
4831 Clear 20 1010 78 10000 0.45 90 17:52 19.12.2021
4832 Clear 21 1010 77 10000 0.45 172 17:19 19.12.2021
4833 Clear 21 1010 74 10000 0.45 295 16:26 19.12.2021
4834 Clear 21 1010 74 10000 1.34 315 15:42 19.12.2021
4835 Clear 21 1010 72 10000 0.89 354 15:20 19.12.2021
4836 Clear 21 1010 72 10000 1.34 0 14:41 19.12.2021
4837 Clear 22 1010 69 10000 0.89 340 13:22 19.12.2021
4838 Clear 23 1010 65 10000 5.66 320 12:36 19.12.2021
4839 Rain 23 1009 63 10000 5.36 315 12:18 19.12.2021
4840 Clear 23 1009 61 10000 5.36 315 11:18 19.12.2021
4841 Rain 24 1008 62 10000 4.47 0 10:25 19.12.2021
4842 Rain 25 1009 63 10000 1.34 235 09:41 19.12.2021
4843 Rain 28 1008 49 10000 2.68 290 08:25 19.12.2021
4844 Clear 34 1003 36 10000 1.34 314 04:45 19.12.2021
4845 Clear 34 1003 36 10000 1.34 325 04:45 19.12.2021
4846 Rain 31 1006 52 10000 2.24 312 01:22 19.12.2021
4847 Rain 30 1007 55 10000 3.13 332 00:52 19.12.2021
4848 Rain 25 1009 74 10000 1.34 335 22:36 18.12.2021
4849 Rain 24 1009 80 10000 1.34 322 21:57 18.12.2021
4850 Clouds 23 1009 80 10000 0.89 51 21:35 18.12.2021
4851 Clouds 22 1010 81 10000 1.34 305 20:44 18.12.2021
4852 Rain 22 1011 82 10000 0.45 28 20:18 18.12.2021
4853 Rain 22 1009 84 10000 0.89 9 19:20 18.12.2021
4854 Rain 21 1010 85 10000 2.24 45 18:21 18.12.2021
4855 Rain 21 1011 86 10000 4.02 250 17:48 18.12.2021
4856 Rain 22 1010 84 10000 9.39 340 16:26 18.12.2021
4857 Rain 22 1010 84 10000 9.39 340 16:26 18.12.2021
4858 Thunderstorm 22 1012 86 10000 3.58 290 15:27 18.12.2021
4859 Thunderstorm 22 1012 83 10000 0.89 340 14:38 18.12.2021
4860 Rain 25 1010 84 10000 0.45 174 13:21 18.12.2021
4861 Clear 25 1008 82 10000 2.68 161 11:22 18.12.2021
4862 Clouds 26 1007 80 10000 1.79 154 09:40 18.12.2021
4863 Rain 26 1005 78 10000 2.68 163 08:47 18.12.2021
4864 Rain 27 1003 76 10000 2.24 147 08:24 18.12.2021
4865 Clear 34 1011 54 10000 1.34 292 03:58 18.12.2021
4866 Clear 27 1012 65 10000 1.34 168 00:30 18.12.2021
4867 Rain 26 1012 70 10000 1.34 8 23:46 17.12.2021
4868 Clear 22 1012 77 10000 1.34 315 21:58 17.12.2021
4869 Clear 20 1014 82 10000 0.89 16 21:20 17.12.2021
4870 Clear 18 1014 86 10000 2.57 10 20:41 17.12.2021
4871 Clear 18 1013 86 10000 1.79 315 19:28 17.12.2021
4872 Clouds 18 1013 86 10000 1.34 0 18:39 17.12.2021
4873 Clear 19 1013 85 10000 0.45 245 17:33 17.12.2021
4874 Clear 19 1014 83 10000 0.89 315 16:50 17.12.2021
4875 Clear 19 1014 83 10000 0.89 315 16:22 17.12.2021
4876 Clear 20 1013 81 10000 0.89 311 15:25 17.12.2021
4877 Clear 20 1013 81 10000 2.68 315 14:41 17.12.2021
4878 Clear 21 1014 81 10000 2.68 313 13:21 17.12.2021
4879 Clear 21 1013 79 10000 2.68 322 12:21 17.12.2021
4880 Clouds 22 1013 74 10000 0.89 327 10:38 17.12.2021
4881 Clouds 23 1012 72 10000 1.34 340 09:34 17.12.2021
4882 Clouds 24 1012 68 10000 0.89 1 08:31 17.12.2021
4883 Clouds 25 1012 66 10000 0.89 196 07:18 17.12.2021
4884 Clouds 25 1014 63 10000 1.34 350 04:39 17.12.2021
4885 Clouds 21 1016 74 10000 0.89 338 23:58 16.12.2021
4886 Clouds 19 1016 82 10000 0.89 357 22:24 16.12.2021
4887 Clouds 19 1016 82 10000 0.89 357 22:24 16.12.2021
4888 Clouds 19 1016 82 10000 0.89 357 22:24 16.12.2021
4889 Clouds 19 1016 82 10000 0.89 357 22:23 16.12.2021
4890 Clouds 19 1016 82 10000 0.89 357 22:23 16.12.2021
4891 Clouds 19 1016 83 10000 2.24 200 21:45 16.12.2021
4892 Clouds 18 1017 82 10000 1.34 225 20:57 16.12.2021
4893 Clouds 18 1016 83 10000 3.09 250 20:27 16.12.2021
4894 Clouds 18 1016 84 10000 0.45 232 19:35 16.12.2021
4895 Clouds 18 1016 81 10000 2.24 250 18:37 16.12.2021
4896 Clouds 18 1016 80 10000 2.68 200 17:49 16.12.2021
4897 Clouds 19 1016 79 10000 0.45 215 16:55 16.12.2021
4898 Clouds 19 1017 79 10000 2.24 200 16:20 16.12.2021
4899 Clouds 19 1016 77 10000 3.58 180 14:32 16.12.2021
4900 Clouds 19 1016 71 10000 1.34 182 12:48 16.12.2021
4901 Clouds 20 1015 76 10000 1.34 186 11:19 16.12.2021
4902 Clouds 20 1014 75 10000 2.24 177 10:46 16.12.2021
4903 Clouds 20 1014 74 10000 1.79 177 09:52 16.12.2021
4904 Clouds 21 1012 74 10000 3.13 177 07:19 16.12.2021
4905 Clouds 21 1012 76 10000 2.68 178 06:19 16.12.2021
4906 Clouds 23 1011 76 10000 1.79 175 00:53 16.12.2021
4907 Clouds 22 1011 79 10000 1.34 175 23:21 15.12.2021
4908 Clouds 22 1010 82 10000 1.34 177 22:26 15.12.2021
4909 Clouds 21 1011 85 10000 3.13 180 21:49 15.12.2021
4910 Clouds 20 1011 86 10000 3.13 180 21:26 15.12.2021
4911 Clouds 19 1008 91 10000 0.45 0 19:55 15.12.2021
4912 Clouds 19 1008 91 10000 2.68 200 19:23 15.12.2021
4913 Clouds 19 1008 91 10000 2.68 200 18:36 15.12.2021
4914 Rain 20 1008 91 10000 0.45 350 17:49 15.12.2021
4915 Clouds 20 1008 90 10000 2.68 200 17:27 15.12.2021
4916 Rain 20 1009 92 10000 1.79 200 16:26 15.12.2021
4917 Clouds 20 1009 92 10000 4.12 200 15:45 15.12.2021
4918 Rain 20 1009 92 10000 0.45 227 15:27 15.12.2021
4919 Rain 21 1010 91 10000 1.34 225 13:59 15.12.2021
4920 Rain 21 1010 90 10000 7.6 180 12:24 15.12.2021
4921 Thunderstorm 24 1009 73 10000 0.89 189 10:24 15.12.2021
4922 Rain 25 1006 63 10000 1.34 343 08:54 15.12.2021
4923 Clear 27 1004 56 10000 0.89 348 06:45 15.12.2021
4924 Clear 25 1013 61 10000 1.34 110 00:52 15.12.2021
4925 Rain 23 1013 68 10000 0.45 160 23:42 14.12.2021
4926 Rain 21 1013 76 10000 1.79 270 22:48 14.12.2021
4927 Clouds 20 1013 80 10000 2.68 290 22:18 14.12.2021
4928 Clear 15 1012 92 10000 1.79 315 20:28 14.12.2021
4929 Clear 15 1012 92 10000 0.89 315 19:40 14.12.2021
4930 Clear 15 1012 91 10000 1.89 309 18:53 14.12.2021
4931 Clear 15 1013 91 10000 1.82 319 18:22 14.12.2021
4932 Clear 16 1013 91 10000 2.68 290 17:30 14.12.2021
4933 Clear 16 1013 90 10000 1.94 330 16:39 14.12.2021
4934 Clouds 16 1014 89 10000 0.89 110 15:35 14.12.2021
4935 Clear 17 1014 86 10000 1.54 140 13:31 14.12.2021
4936 Clear 18 1015 81 10000 2.24 110 11:59 14.12.2021
4937 Clear 19 1013 79 10000 0.89 177 11:24 14.12.2021
4938 Clear 20 1012 77 10000 0.89 179 10:23 14.12.2021
4939 Clear 21 1012 74 10000 1.34 175 09:43 14.12.2021
4940 Clouds 23 1012 70 10000 1.34 177 08:27 14.12.2021
4941 Clouds 23 1012 67 10000 1.79 170 07:43 14.12.2021
4942 Clouds 25 1013 65 10000 1.34 175 02:37 14.12.2021
4943 Clouds 20 1013 73 10000 2.68 290 22:56 13.12.2021
4944 Clouds 17 1014 81 10000 4.47 270 21:53 13.12.2021
4945 Clouds 16 1014 86 10000 4.47 270 21:32 13.12.2021
4946 Clouds 14 1013 89 10000 3.58 290 20:43 13.12.2021
4947 Clouds 14 1013 88 10000 0.45 265 19:53 13.12.2021
4948 Clear 14 1013 87 10000 3.13 290 18:33 13.12.2021
4949 Clouds 15 1013 86 10000 3.58 290 17:26 13.12.2021
4950 Clouds 16 1015 82 10000 2.68 270 15:54 13.12.2021
4951 Rain 16 1015 81 10000 2.68 270 15:32 13.12.2021
4952 Clouds 17 1015 79 10000 1.79 225 13:47 13.12.2021
4953 Clouds 17 1015 78 10000 2.68 180 12:59 13.12.2021
4954 Clouds 18 1013 77 10000 0.45 20 12:19 13.12.2021
4955 Clouds 18 1013 76 10000 0.89 324 11:35 13.12.2021
4956 Clouds 18 1012 75 10000 1.79 184 10:47 13.12.2021
4957 Clear 20 1012 70 10000 2.68 176 09:41 13.12.2021
4958 Clear 22 1011 63 10000 1.79 176 07:57 13.12.2021
4959 Clear 23 1012 62 10000 2.24 173 05:36 13.12.2021
4960 Clouds 23 1012 60 10000 2.68 176 03:31 13.12.2021
4961 Clouds 20 1015 60 10000 1.79 160 23:27 12.12.2021
4962 Clouds 17 1014 72 10000 3.13 270 21:50 12.12.2021
4963 Clouds 16 1016 75 10000 3.13 270 20:28 12.12.2021
4964 Clouds 16 1016 75 10000 4.02 270 19:30 12.12.2021
4965 Clouds 16 1015 76 10000 0.45 252 17:46 12.12.2021
4966 Clouds 17 1016 76 10000 3.58 225 16:28 12.12.2021
4967 Clouds 17 1016 76 10000 3.58 225 15:51 12.12.2021
4968 Clouds 17 1016 76 10000 3.58 225 15:26 12.12.2021
4969 Clouds 17 1017 74 10000 3.58 180 14:37 12.12.2021
4970 Clouds 17 1015 74 10000 0.89 234 13:34 12.12.2021
4971 Clouds 18 1015 72 10000 0.89 304 12:32 12.12.2021
4972 Clouds 18 1015 71 10000 1.34 189 11:44 12.12.2021
4973 Clouds 18 1015 70 10000 1.34 189 11:25 12.12.2021
4974 Clouds 18 1015 69 10000 0.45 322 10:39 12.12.2021
4975 Clouds 19 1015 67 10000 1.79 180 09:44 12.12.2021
4976 Clouds 20 1014 65 10000 2.24 189 08:38 12.12.2021
4977 Clouds 21 1013 65 10000 2.68 183 06:34 12.12.2021
4978 Clouds 22 1014 63 10000 2.24 184 05:27 12.12.2021
4979 Clouds 22 1015 60 10000 1.34 179 03:58 12.12.2021
4980 Clouds 20 1018 66 10000 0.45 56 00:36 12.12.2021
4981 Clouds 18 1016 75 10000 0.45 212 22:42 11.12.2021
4982 Clouds 17 1018 76 10000 4.47 225 22:19 11.12.2021
4983 Clouds 16 1016 79 10000 0.45 345 21:22 11.12.2021
4984 Clouds 15 1015 80 10000 0.45 159 19:40 11.12.2021
4985 Clouds 15 1015 80 10000 0.45 348 19:20 11.12.2021
4986 Rain 15 1014 82 10000 0.89 219 18:38 11.12.2021
4987 Clouds 15 1015 84 10000 5.36 250 17:41 11.12.2021
4988 Rain 15 1015 84 10000 0.45 265 15:57 11.12.2021
4989 Clouds 15 1015 84 10000 0.45 240 15:37 11.12.2021
4990 Rain 15 1017 81 10000 0.45 109 14:21 11.12.2021
4991 Clouds 17 1016 78 10000 0.45 338 11:58 11.12.2021
4992 Rain 17 1015 75 10000 0.45 213 10:43 11.12.2021
4993 Clouds 18 1015 72 10000 0.89 220 09:38 11.12.2021
4994 Clouds 20 1013 60 10000 1.34 183 03:26 11.12.2021
4995 Clouds 19 1013 65 10000 0.89 233 00:45 11.12.2021
4996 Clouds 18 1013 70 10000 0.89 184 23:42 10.12.2021
4997 Clouds 16 1013 71 10000 0.45 226 22:33 10.12.2021
4998 Clouds 16 1012 72 10000 0.45 355 21:40 10.12.2021
4999 Clouds 15 1012 72 10000 0.89 265 20:26 10.12.2021
5000 Clouds 15 1010 73 10000 0.45 357 19:18 10.12.2021
5001 Clouds 15 1009 73 10000 0.45 241 17:46 10.12.2021
5002 Clouds 15 1009 73 10000 0.45 172 16:35 10.12.2021
5003 Clouds 16 1009 74 10000 0.45 282 15:43 10.12.2021
5004 Clouds 16 1009 74 10000 0.45 282 15:25 10.12.2021
5005 Clouds 16 1010 74 10000 0.45 52 14:35 10.12.2021
5006 Clouds 16 1009 74 10000 0.45 176 13:49 10.12.2021
5007 Clouds 16 1009 74 10000 0.45 287 12:56 10.12.2021
5008 Clouds 16 1009 75 10000 0.89 181 11:43 10.12.2021
5009 Clouds 16 1010 76 10000 6.26 200 10:57 10.12.2021
5010 Clouds 16 1007 82 10000 0.45 190 09:49 10.12.2021
5011 Clouds 18 1005 75 10000 0.89 179 07:49 10.12.2021
5012 Rain 16 1004 90 10000 1.34 295 04:57 10.12.2021
5013 Rain 15 1006 86 7000 0.45 244 02:42 10.12.2021
5014 Clouds 19 1005 59 10000 4.02 290 23:43 09.12.2021
5015 Clouds 17 1005 70 10000 3.13 290 22:43 09.12.2021
5016 Clouds 16 1004 75 10000 0.45 255 22:23 09.12.2021
5017 Clouds 15 1005 87 10000 4.02 290 21:40 09.12.2021
5018 Clouds 13 1005 94 10000 3.58 270 20:38 09.12.2021
5019 Clouds 13 1005 94 10000 2.24 290 19:46 09.12.2021
5020 Clouds 13 1005 94 10000 2.24 290 19:21 09.12.2021
5021 Clouds 14 1005 93 10000 5.81 270 18:24 09.12.2021
5022 Clouds 14 1005 94 10000 5.81 270 17:51 09.12.2021
5023 Rain 14 1005 94 10000 5.81 270 17:25 09.12.2021
5024 Rain 15 1005 94 10000 6.71 270 16:43 09.12.2021
5025 Rain 16 1006 93 5000 6.71 270 15:31 09.12.2021
5026 Rain 18 1005 94 8000 4.02 270 14:43 09.12.2021
5027 Rain 18 1007 93 10000 1.79 200 13:18 09.12.2021
5028 Rain 18 1006 93 10000 0.45 323 12:31 09.12.2021
5029 Rain 18 1006 92 10000 1.34 174 10:47 09.12.2021
5030 Rain 19 1005 85 10000 1.34 178 08:38 09.12.2021
5031 Clouds 22 1005 77 10000 2.68 183 05:54 09.12.2021
5032 Clouds 22 1008 74 10000 0.89 81 01:52 09.12.2021
5033 Clouds 19 1009 91 10000 0.89 93 23:40 08.12.2021
5034 Clouds 19 1009 91 10000 0.89 142 23:20 08.12.2021
5035 Clouds 18 1008 94 10000 0.89 166 22:43 08.12.2021
5036 Rain 16 1008 95 10000 0.45 175 21:39 08.12.2021
5037 Rain 16 1008 95 10000 0.45 157 20:59 08.12.2021
5038 Rain 16 1009 94 10000 0.45 162 19:58 08.12.2021
5039 Rain 16 1009 94 10000 0.89 316 19:33 08.12.2021
5040 Rain 16 1008 95 10000 0.45 176 18:31 08.12.2021
5041 Clouds 16 1007 95 10000 0.45 136 17:26 08.12.2021
5042 Rain 16 1010 94 10000 0.89 168 15:46 08.12.2021
5043 Clouds 16 1010 94 10000 0.89 170 15:23 08.12.2021
5044 Clouds 16 1011 94 10000 0.89 140 14:28 08.12.2021
5045 Rain 16 1011 94 10000 0.89 137 10:54 08.12.2021
5046 Rain 17 1010 94 10000 2.68 152 10:28 08.12.2021
5047 Rain 16 1013 93 10000 0.89 110 08:54 08.12.2021
5048 Rain 17 1011 88 10000 0.45 306 07:21 08.12.2021
5049 Clouds 20 1012 80 10000 0.45 249 01:40 08.12.2021
5050 Clouds 18 1012 87 10000 0.89 256 23:33 07.12.2021
5051 Clouds 18 1012 88 10000 2.68 200 21:40 07.12.2021
5052 Clouds 17 1012 89 10000 0.45 241 21:18 07.12.2021
5053 Clouds 18 1011 89 10000 0.89 230 20:19 07.12.2021
5054 Clouds 18 1009 90 10000 0.89 187 18:42 07.12.2021
5055 Clouds 18 1009 90 10000 1.34 117 17:48 07.12.2021
5056 Clouds 18 1008 90 10000 0.89 161 17:19 07.12.2021
5057 Clouds 19 1008 90 10000 0.89 14 16:28 07.12.2021
5058 Rain 19 1009 88 10000 0.45 138 15:23 07.12.2021
5059 Clear 19 1009 88 10000 0.89 138 13:53 07.12.2021
5060 Clear 19 1009 89 10000 0.45 138 12:49 07.12.2021
5061 Clear 20 1008 89 10000 0.89 46 11:27 07.12.2021
5062 Rain 20 1007 89 10000 0.89 46 10:33 07.12.2021
5063 Rain 21 1008 89 10000 2.24 44 07:57 07.12.2021
5064 Thunderstorm 23 1007 79 10000 1.34 308 06:18 07.12.2021
5065 Rain 25 1005 71 10000 1.34 184 05:33 07.12.2021
5066 Rain 21 1011 73 10000 0.89 310 23:47 06.12.2021
5067 Clear 21 1010 74 10000 1.34 306 22:46 06.12.2021
5068 Clear 19 1010 77 10000 0.89 349 22:23 06.12.2021
5069 Rain 19 1013 80 10000 0.45 70 21:51 06.12.2021
5070 Clear 17 1012 85 10000 2.06 290 20:33 06.12.2021
5071 Clouds 17 1012 85 10000 1.71 327 19:55 06.12.2021
5072 Rain 17 1012 84 10000 2.68 270 19:20 06.12.2021
5073 Rain 17 1012 82 10000 0.45 45 18:23 06.12.2021
5074 Clouds 17 1012 82 10000 0.45 45 17:40 06.12.2021
5075 Clouds 17 1012 82 10000 0.45 45 17:40 06.12.2021
5076 Clear 18 1013 80 10000 1.34 70 16:32 06.12.2021
5077 Clear 18 1013 80 10000 1.34 312 15:39 06.12.2021
5078 Clear 18 1015 78 10000 0.45 300 13:46 06.12.2021
5079 Rain 18 1016 77 10000 0.45 20 12:39 06.12.2021
5080 Clouds 19 1014 74 10000 1.34 324 11:36 06.12.2021
5081 Rain 20 1014 66 10000 0.45 346 08:51 06.12.2021
5082 Rain 21 1014 64 10000 1.34 359 06:42 06.12.2021
5083 Drizzle 20 1018 68 10000 2.24 165 23:38 05.12.2021
5084 Clouds 17 1018 77 10000 1.34 313 21:52 05.12.2021
5085 Clouds 16 1018 79 10000 2.68 270 21:19 05.12.2021
5086 Clouds 16 1020 80 10000 3.6 30 20:19 05.12.2021
5087 Clouds 16 1018 74 10000 0.45 0 19:33 05.12.2021
5088 Clouds 16 1020 76 10000 3.78 95 18:55 05.12.2021
5089 Clouds 16 1017 72 10000 1.34 145 18:20 05.12.2021
5090 Clouds 16 1018 71 10000 1.79 163 17:48 05.12.2021
5091 Clouds 16 1018 74 10000 2.24 155 16:50 05.12.2021
5092 Drizzle 16 1019 75 10000 1.34 171 16:27 05.12.2021
5093 Drizzle 16 1019 74 10000 0.89 173 15:49 05.12.2021
5094 Clouds 16 1020 74 8000 1.34 171 14:43 05.12.2021
5095 Clouds 16 1020 73 8000 0.89 167 14:25 05.12.2021
5096 Clouds 17 1020 70 10000 1.34 174 13:22 05.12.2021
5097 Clouds 17 1021 65 10000 0.89 168 12:40 05.12.2021
5098 Clouds 17 1021 65 10000 0.89 169 12:18 05.12.2021
5099 Clouds 17 1020 65 10000 1.34 170 11:34 05.12.2021
5100 Clouds 17 1020 64 10000 1.34 179 10:18 05.12.2021
5101 Clouds 18 1019 63 10000 2.68 175 08:29 05.12.2021
5102 Clouds 18 1020 72 10000 2.68 180 03:39 05.12.2021
5103 Clouds 17 1020 86 10000 2.24 179 00:48 05.12.2021
5104 Rain 17 1019 81 10000 2.24 177 22:18 04.12.2021
5105 Rain 17 1018 74 9000 1.79 176 21:18 04.12.2021
5106 Clouds 17 1017 69 10000 1.79 179 20:27 04.12.2021
5107 Clouds 17 1017 68 10000 2.68 180 19:32 04.12.2021
5108 Clouds 17 1017 74 10000 2.24 181 18:22 04.12.2021
5109 Clouds 17 1017 74 10000 1.34 179 17:42 04.12.2021
5110 Clouds 17 1017 73 10000 0.89 191 17:19 04.12.2021
5111 Clouds 17 1017 73 10000 2.24 177 16:42 04.12.2021
5112 Clouds 17 1017 72 10000 1.79 184 16:23 04.12.2021
5113 Rain 18 1016 82 9000 3.13 178 11:55 04.12.2021
5114 Rain 18 1016 80 10000 2.68 179 11:33 04.12.2021
5115 Clouds 18 1015 80 10000 2.68 179 10:56 04.12.2021
5116 Clouds 19 1013 79 10000 2.24 175 08:53 04.12.2021
5117 Clouds 19 1012 79 10000 3.13 167 08:27 04.12.2021
5118 Clouds 21 1011 71 10000 2.24 175 04:42 04.12.2021
5119 Clouds 20 1012 84 10000 0.45 189 00:49 04.12.2021
5120 Clouds 19 1011 86 10000 1.34 177 23:29 03.12.2021
5121 Clouds 19 1012 89 10000 0.45 352 22:51 03.12.2021
5122 Rain 18 1012 91 10000 0.89 321 21:54 03.12.2021
5123 Rain 18 1012 91 10000 0.45 189 21:20 03.12.2021
5124 Clouds 18 1011 92 10000 0.45 311 20:28 03.12.2021
5125 Clouds 18 1012 91 10000 3.58 200 19:21 03.12.2021
5126 Clouds 18 1011 90 10000 3.13 225 18:22 03.12.2021
5127 Clouds 18 1011 90 10000 3.13 200 17:30 03.12.2021
5128 Rain 18 1016 89 10000 2.24 225 13:38 03.12.2021
5129 Rain 18 1016 89 10000 2.68 225 12:30 03.12.2021
5130 Clouds 18 1014 91 10000 4.02 225 11:19 03.12.2021
5131 Clouds 19 1014 89 9000 0.45 228 09:21 03.12.2021
5132 Rain 20 1013 88 10000 0.89 170 08:18 03.12.2021
5133 Rain 20 1013 86 8000 0.45 207 06:41 03.12.2021
5134 Clear 27 1014 66 10000 3.13 90 00:49 03.12.2021
5135 Rain 26 1014 67 10000 0.89 276 00:21 03.12.2021
5136 Clear 25 1014 69 10000 1.34 300 23:38 02.12.2021
5137 Clear 21 1014 82 10000 1.79 20 21:41 02.12.2021
5138 Clear 18 1014 88 10000 0.89 347 20:46 02.12.2021
5139 Clouds 18 1014 90 10000 0.45 44 20:26 02.12.2021
5140 Clear 18 1013 89 10000 3.09 20 19:23 02.12.2021
5141 Clear 18 1013 88 10000 1.34 45 17:30 02.12.2021
5142 Clouds 19 1015 89 10000 3.6 350 15:41 02.12.2021
5143 Clouds 19 1015 87 10000 1.79 290 14:57 02.12.2021
5144 Clouds 20 1015 86 10000 3.13 20 13:45 02.12.2021
5145 Clear 20 1015 86 10000 0.89 298 12:52 02.12.2021
5146 Clear 21 1013 84 10000 0.89 351 11:53 02.12.2021
5147 Clouds 22 1013 78 10000 0.89 336 09:29 02.12.2021
5148 Clouds 24 1013 73 10000 1.34 308 08:27 02.12.2021
5149 Clouds 26 1014 71 10000 1.79 330 03:33 02.12.2021
5150 Clouds 24 1017 70 10000 4.02 90 00:51 02.12.2021
5151 Clouds 22 1017 80 10000 1.34 270 22:41 01.12.2021
5152 Clouds 21 1016 83 10000 1.34 270 22:23 01.12.2021
5153 Clear 17 1016 94 10000 1.79 270 20:36 01.12.2021
5154 Clear 17 1016 94 10000 1.79 270 20:36 01.12.2021
5155 Clouds 17 1016 93 10000 1.54 290 19:51 01.12.2021
5156 Clouds 17 1015 93 10000 1.54 290 19:25 01.12.2021
5157 Clear 18 1015 92 10000 1.79 270 17:45 01.12.2021
5158 Clear 18 1015 93 10000 1.79 270 17:45 01.12.2021
5159 Clouds 18 1015 91 10000 0.45 340 16:40 01.12.2021
5160 Clear 19 1016 90 10000 1.34 20 14:52 01.12.2021
5161 Clear 20 1014 88 10000 1.79 324 13:44 01.12.2021
5162 Clouds 20 1014 87 10000 2.24 311 12:37 01.12.2021
5163 Clouds 21 1014 84 10000 0.89 348 10:42 01.12.2021
5164 Clouds 23 1013 75 10000 0.89 306 09:19 01.12.2021
5165 Clouds 23 1013 73 10000 0.45 20 08:26 01.12.2021
5166 Clouds 24 1012 71 10000 0.89 351 07:33 01.12.2021
5167 Clouds 25 1012 70 10000 0.89 0 05:51 01.12.2021
5168 Clouds 24 1012 73 10000 0.89 342 03:44 01.12.2021
5169 Clouds 24 1015 73 10000 1.34 16 00:56 01.12.2021
5170 Clouds 23 1016 77 10000 2.68 45 23:54 30.11.2021
5171 Clouds 22 1016 82 10000 1.79 45 23:23 30.11.2021
5172 Clouds 20 1014 92 10000 0.45 54 21:39 30.11.2021
5173 Clouds 19 1013 94 10000 0.89 311 20:44 30.11.2021
5174 Clouds 19 1013 93 10000 1.79 314 19:53 30.11.2021
5175 Clouds 19 1012 94 10000 0.89 315 19:34 30.11.2021
5176 Rain 19 1013 94 10000 0.45 0 18:37 30.11.2021
5177 Rain 19 1013 94 4000 0.45 3 16:50 30.11.2021
5178 Rain 19 1013 94 10000 2.68 331 15:38 30.11.2021
5179 Rain 19 1014 93 10000 2.24 325 14:20 30.11.2021
5180 Clouds 19 1014 94 10000 1.79 310 13:27 30.11.2021
5181 Rain 19 1015 94 10000 0.45 58 12:46 30.11.2021
5182 Rain 19 1014 94 7000 1.34 328 11:50 30.11.2021
5183 Clouds 20 1014 94 4000 0.45 330 11:23 30.11.2021
5184 Clouds 20 1015 93 10000 0.45 353 10:33 30.11.2021
5185 Drizzle 20 1014 92 3000 2.24 90 08:53 30.11.2021
5186 Rain 20 1014 89 10000 0.45 142 08:26 30.11.2021
5187 Rain 21 1014 87 10000 0.89 36 07:47 30.11.2021
5188 Clouds 21 1015 85 10000 0.45 332 02:41 30.11.2021
5189 Clouds 21 1016 82 10000 0.89 60 01:43 30.11.2021
5190 Clouds 20 1017 80 10000 0.89 2 00:33 30.11.2021
5191 Clouds 20 1017 81 10000 0.45 6 23:25 29.11.2021
5192 Clouds 20 1017 82 10000 0.89 110 22:57 29.11.2021
5193 Clouds 19 1017 82 10000 0.45 4 22:34 29.11.2021
5194 Clouds 19 1016 84 10000 0.45 166 21:44 29.11.2021
5195 Clouds 18 1016 85 10000 0.45 174 21:18 29.11.2021
5196 Rain 18 1017 85 10000 1.34 160 20:41 29.11.2021
5197 Rain 18 1017 85 10000 1.79 270 19:56 29.11.2021
5198 Clouds 18 1017 84 10000 1.79 270 19:37 29.11.2021
5199 Clouds 18 1017 84 10000 0.89 250 18:52 29.11.2021
5200 Clouds 16 1017 88 10000 1.06 302 18:26 29.11.2021
5201 Clouds 16 1017 87 10000 1.3 331 17:21 29.11.2021
5202 Clouds 17 1017 86 10000 1.59 354 16:33 29.11.2021
5203 Clouds 17 1017 86 10000 1.59 354 15:55 29.11.2021
5204 Clouds 17 1018 84 10000 2.3 11 14:45 29.11.2021
5205 Clouds 17 1018 82 10000 2.48 17 13:47 29.11.2021
5206 Clear 18 1019 80 10000 2.1 36 12:44 29.11.2021
5207 Clear 17 1019 80 10000 2.53 41 11:51 29.11.2021
5208 Clear 17 1018 78 10000 3.34 49 10:59 29.11.2021
5209 Clouds 19 1017 68 10000 5.14 70 09:56 29.11.2021
5210 Rain 20 1018 60 10000 4.63 90 06:43 29.11.2021
5211 Clouds 21 1018 56 10000 5.66 130 04:53 29.11.2021
5212 Clouds 18 1021 63 10000 4.63 160 00:44 29.11.2021
5213 Clouds 18 1021 68 10000 5.14 160 23:47 28.11.2021
5214 Clouds 18 1021 68 10000 5.14 160 23:28 28.11.2021
5215 Clouds 17 1021 67 10000 3.09 230 21:53 28.11.2021
5216 Clouds 16 1020 72 10000 3.6 240 21:28 28.11.2021
5217 Clouds 15 1020 82 10000 3.6 240 20:36 28.11.2021
5218 Clouds 15 1020 77 10000 3.6 250 19:29 28.11.2021
5219 Clear 15 1020 82 10000 3.6 250 18:40 28.11.2021
5220 Clear 15 1020 82 10000 3.6 250 17:57 28.11.2021
5221 Clear 14 1020 88 10000 3.6 240 17:32 28.11.2021
5222 Clouds 15 1020 82 10000 4.63 230 16:45 28.11.2021
5223 Clouds 15 1020 82 10000 4.63 230 16:27 28.11.2021
5224 Clouds 16 1021 77 10000 3.6 270 15:45 28.11.2021
5225 Rain 16 1021 72 10000 4.63 200 14:51 28.11.2021
5226 Rain 17 1021 72 10000 4.63 200 13:51 28.11.2021
5227 Clouds 17 1022 72 10000 6.17 180 12:54 28.11.2021
5228 Clouds 17 1022 72 10000 7.2 180 11:29 28.11.2021
5229 Clouds 17 1021 72 10000 7.72 170 10:22 28.11.2021
5230 Clouds 17 1021 72 10000 7.72 170 09:40 28.11.2021
5231 Clouds 18 1021 63 10000 7.72 170 08:28 28.11.2021
5232 Clouds 18 1022 68 10000 9.26 170 00:49 28.11.2021
5233 Clouds 16 1022 82 10000 8.75 190 21:46 27.11.2021
5234 Clouds 17 1020 72 10000 10.8 170 19:50 27.11.2021
5235 Clouds 17 1020 72 10000 10.8 170 18:26 27.11.2021
5236 Clouds 17 1020 77 10000 11.32 170 16:00 27.11.2021
5237 Clouds 17 1020 77 10000 10.8 170 14:35 27.11.2021
5238 Clouds 17 1021 77 10000 10.8 180 13:21 27.11.2021
5239 Clouds 17 1021 77 10000 10.29 170 11:28 27.11.2021
5240 Clouds 17 1020 77 10000 10.8 160 10:19 27.11.2021
5241 Clouds 17 1019 77 10000 12.86 170 08:53 27.11.2021
5242 Clouds 17 1018 77 10000 12.35 170 06:59 27.11.2021
5243 Clouds 18 1018 77 10000 13.38 170 04:40 27.11.2021
5244 Rain 16 1018 94 10000 13.38 170 00:23 27.11.2021
5245 Rain 16 1018 88 6000 12.86 170 22:51 26.11.2021
5246 Rain 16 1017 88 9000 11.83 170 22:24 26.11.2021
5247 Rain 17 1016 82 10000 12.86 170 21:31 26.11.2021
5248 Rain 17 1015 82 10000 11.83 170 20:41 26.11.2021
5249 Clouds 17 1014 88 10000 12.35 170 19:56 26.11.2021
5250 Rain 17 1014 82 10000 11.83 170 18:47 26.11.2021
5251 Rain 17 1014 88 10000 11.83 170 17:46 26.11.2021
5252 Rain 16 1014 88 5000 11.32 160 17:21 26.11.2021
5253 Rain 17 1014 88 10000 13.89 160 15:23 26.11.2021
5254 Clouds 16 1011 94 10000 2.24 184 13:35 26.11.2021
5255 Clouds 16 1011 94 10000 2.24 184 13:35 26.11.2021
5256 Rain 16 1012 94 9000 1.79 183 10:46 26.11.2021
5257 Rain 16 1011 94 8000 1.34 182 09:55 26.11.2021
5258 Drizzle 16 1010 94 6000 2.24 178 08:56 26.11.2021
5259 Rain 16 1009 94 5000 2.24 186 08:21 26.11.2021
5260 Rain 16 1009 94 5000 0.89 291 07:24 26.11.2021
5261 Rain 17 1009 93 4000 1.79 194 06:25 26.11.2021
5262 Clouds 18 1007 93 10000 2.24 194 03:54 26.11.2021
5263 Rain 17 1007 95 6000 1.34 224 01:27 26.11.2021
5264 Rain 17 1007 95 6000 0.89 251 01:27 26.11.2021
5265 Rain 17 1007 95 10000 0.45 316 22:46 25.11.2021
5266 Rain 16 1007 95 5000 1.34 291 21:24 25.11.2021
5267 Rain 17 1006 94 6000 0.89 262 19:55 25.11.2021
5268 Rain 17 1005 92 10000 1.79 181 18:46 25.11.2021
5269 Rain 17 1005 91 10000 2.24 181 17:47 25.11.2021
5270 Rain 18 1004 91 10000 1.34 174 17:25 25.11.2021
5271 Rain 18 1005 91 10000 1.34 192 16:32 25.11.2021
5272 Rain 20 1005 95 10000 1.34 297 14:59 25.11.2021
5273 Clouds 21 1005 95 10000 0.89 7 13:26 25.11.2021
5274 Rain 21 1004 95 10000 0.89 53 12:23 25.11.2021
5275 Clouds 21 1005 95 10000 1.34 93 11:49 25.11.2021
5276 Rain 22 1004 94 10000 1.34 53 09:26 25.11.2021
5277 Rain 24 1005 87 10000 1.34 45 05:48 25.11.2021
5278 Clouds 22 1006 91 10000 0.45 31 02:48 25.11.2021
5279 Rain 21 1010 95 10000 0.45 21 22:55 24.11.2021
5280 Rain 20 1010 94 10000 0.45 2 22:23 24.11.2021
5281 Rain 20 1009 95 10000 1.34 319 21:32 24.11.2021
5282 Rain 20 1009 96 10000 0.45 46 20:50 24.11.2021
5283 Rain 20 1009 95 10000 0.89 331 20:19 24.11.2021
5284 Rain 20 1010 96 10000 0.89 23 18:30 24.11.2021
5285 Rain 20 1010 96 10000 0.45 103 17:57 24.11.2021
5286 Rain 20 1012 95 10000 2.24 326 15:39 24.11.2021
5287 Rain 20 1011 94 10000 0.45 24 14:47 24.11.2021
5288 Rain 20 1012 94 10000 0.89 331 14:20 24.11.2021
5289 Rain 20 1013 94 9000 0.89 0 12:34 24.11.2021
5290 Rain 21 1012 93 8000 1.34 314 11:21 24.11.2021
5291 Rain 21 1012 92 9000 0.89 343 10:48 24.11.2021
5292 Rain 21 1012 89 10000 1.34 327 10:23 24.11.2021
5293 Rain 22 1011 82 10000 1.34 10 07:55 24.11.2021
5294 Clouds 23 1011 78 10000 1.34 312 06:55 24.11.2021
5295 Clouds 23 1011 81 10000 0.89 352 03:51 24.11.2021
5296 Rain 22 1015 86 10000 0.45 3 00:52 24.11.2021
5297 Rain 20 1015 92 10000 0.45 333 22:40 23.11.2021
5298 Clouds 20 1015 92 10000 0.45 319 22:20 23.11.2021
5299 Rain 19 1015 94 10000 2.06 350 21:44 23.11.2021
5300 Clouds 18 1015 95 10000 0.45 45 19:43 23.11.2021
5301 Clouds 18 1015 94 10000 0.45 90 18:43 23.11.2021
5302 Clouds 18 1015 94 10000 0.89 334 18:22 23.11.2021
5303 Clouds 18 1015 94 10000 0.89 319 17:19 23.11.2021
5304 Clouds 18 1015 94 10000 0.89 352 16:34 23.11.2021
5305 Clouds 18 1018 93 10000 0.89 340 15:23 23.11.2021
5306 Clouds 18 1019 93 10000 0.89 290 14:26 23.11.2021
5307 Clouds 19 1017 91 10000 1.34 200 11:48 23.11.2021
5308 Clouds 19 1017 89 10000 0.45 187 10:22 23.11.2021
5309 Clouds 19 1017 89 10000 1.34 173 09:23 23.11.2021
5310 Clouds 20 1016 85 10000 1.34 186 07:28 23.11.2021
5311 Drizzle 20 1018 85 8000 0.89 176 03:56 23.11.2021
5312 Clouds 20 1018 87 10000 2.24 176 02:58 23.11.2021
5313 Clouds 19 1019 88 10000 1.79 163 23:23 22.11.2021
5314 Clouds 18 1019 90 10000 2.24 140 22:53 22.11.2021
5315 Clouds 18 1021 91 10000 4.47 110 22:29 22.11.2021
5316 Clouds 17 1021 93 10000 3.13 270 21:44 22.11.2021
5317 Clouds 16 1021 94 10000 2.24 270 20:56 22.11.2021
5318 Clouds 16 1020 94 10000 2.24 270 20:21 22.11.2021
5319 Clouds 16 1018 95 10000 2.24 270 19:19 22.11.2021
5320 Clouds 16 1019 94 10000 2.24 270 18:40 22.11.2021
5321 Clouds 16 1019 94 10000 1.79 225 17:46 22.11.2021
5322 Clouds 16 1019 94 7000 1.79 200 16:26 22.11.2021
5323 Rain 17 1020 88 5000 0.89 153 14:26 22.11.2021
5324 Clouds 17 1020 85 10000 0.45 194 12:43 22.11.2021
5325 Clouds 17 1022 84 10000 4.02 160 10:45 22.11.2021
5326 Clouds 18 1020 82 10000 1.34 173 09:48 22.11.2021
5327 Clouds 18 1019 82 10000 2.24 185 08:41 22.11.2021
5328 Rain 19 1019 79 10000 1.34 181 06:59 22.11.2021
5329 Clouds 18 1021 79 10000 2.68 179 23:39 21.11.2021
5330 Clouds 17 1020 81 10000 1.34 182 22:53 21.11.2021
5331 Clouds 17 1020 83 10000 2.68 185 22:19 21.11.2021
5332 Clouds 16 1018 86 10000 2.24 188 20:42 21.11.2021
5333 Clouds 16 1018 86 10000 2.24 175 20:22 21.11.2021
5334 Rain 16 1017 84 10000 2.24 176 18:30 21.11.2021
5335 Clouds 16 1018 84 10000 1.34 188 17:40 21.11.2021
5336 Clouds 16 1018 84 10000 2.24 179 16:52 21.11.2021
5337 Clouds 16 1017 86 10000 2.68 167 14:47 21.11.2021
5338 Rain 16 1017 89 10000 1.34 175 13:57 21.11.2021
5339 Rain 16 1018 90 5000 3.58 160 12:55 21.11.2021
5340 Rain 16 1017 87 10000 3.58 160 11:58 21.11.2021
5341 Rain 16 1017 84 10000 3.13 167 11:36 21.11.2021
5342 Rain 16 1016 83 10000 1.34 330 10:19 21.11.2021
5343 Rain 17 1016 84 10000 1.34 330 09:44 21.11.2021
5344 Rain 16 1016 90 10000 0.45 66 08:31 21.11.2021
5345 Clouds 16 1015 94 10000 1.34 308 07:51 21.11.2021
5346 Rain 15 1014 95 5000 0.89 218 06:26 21.11.2021
5347 Rain 16 1014 96 3000 3.13 166 05:39 21.11.2021
5348 Rain 15 1014 95 4000 1.79 171 03:21 21.11.2021
5349 Rain 15 1015 95 6000 2.68 175 02:54 21.11.2021
5350 Rain 15 1014 95 9000 1.79 174 01:25 21.11.2021
5351 Rain 16 1014 95 7000 2.24 174 00:41 21.11.2021
5352 Rain 15 1014 95 8000 1.79 177 22:30 20.11.2021
5353 Rain 15 1013 95 10000 2.24 182 21:32 20.11.2021
5354 Rain 15 1012 95 10000 1.34 184 19:56 20.11.2021
5355 Rain 15 1011 94 7000 1.34 192 18:45 20.11.2021
5356 Rain 15 1013 95 6000 1.34 250 18:23 20.11.2021
5357 Rain 15 1013 94 5000 1.34 250 17:22 20.11.2021
5358 Rain 16 1013 92 5000 2.24 225 14:57 20.11.2021
5359 Rain 16 1014 91 4000 2.24 225 14:28 20.11.2021
5360 Rain 16 1014 91 4000 2.24 225 14:28 20.11.2021
5361 Rain 16 1014 90 10000 2.68 200 13:53 20.11.2021
5362 Drizzle 17 1012 89 10000 0.89 192 11:46 20.11.2021
5363 Clouds 17 1010 88 10000 0.89 185 09:57 20.11.2021
5364 Rain 18 1009 85 10000 1.79 181 08:40 20.11.2021
5365 Clouds 18 1009 83 10000 1.79 183 06:50 20.11.2021
5366 Rain 19 1009 85 10000 1.79 177 05:18 20.11.2021
5367 Rain 19 1009 85 10000 0.89 188 04:49 20.11.2021
5368 Rain 19 1009 84 10000 0.45 155 00:43 20.11.2021
5369 Rain 20 1009 84 10000 0.45 178 00:18 20.11.2021
5370 Rain 18 1009 87 10000 1.34 187 22:54 19.11.2021
5371 Rain 18 1009 87 10000 0.89 187 21:29 19.11.2021
5372 Rain 17 1010 87 10000 1.79 200 20:43 19.11.2021
5373 Rain 17 1010 88 10000 2.06 210 20:25 19.11.2021
5374 Clouds 17 1009 88 10000 2.68 270 19:46 19.11.2021
5375 Rain 17 1009 88 10000 1.34 200 18:48 19.11.2021
5376 Clouds 17 1009 88 10000 0.45 324 17:45 19.11.2021
5377 Drizzle 17 1011 89 10000 2.24 180 16:43 19.11.2021
5378 Rain 18 1012 88 10000 2.24 225 15:31 19.11.2021
5379 Clouds 18 1014 88 10000 2.24 200 12:43 19.11.2021
5380 Clouds 18 1011 86 10000 2.24 205 10:26 19.11.2021
5381 Rain 20 1010 77 9000 1.34 199 08:39 19.11.2021
5382 Rain 22 1010 67 10000 9.77 170 07:26 19.11.2021
5383 Clear 28 1011 47 10000 5.81 90 04:22 19.11.2021
5384 Rain 22 1013 78 10000 1.03 30 01:24 19.11.2021
5385 Rain 20 1009 80 10000 0.45 159 23:44 18.11.2021
5386 Rain 19 1009 79 10000 0.89 161 21:42 18.11.2021
5387 Rain 19 1008 78 10000 0.45 25 20:47 18.11.2021
5388 Clear 19 1008 78 10000 0.89 351 20:29 18.11.2021
5389 Clear 19 1008 79 10000 1.34 48 19:43 18.11.2021
5390 Clear 19 1008 80 10000 1.34 174 18:40 18.11.2021
5391 Rain 18 1008 82 10000 1.34 187 18:20 18.11.2021
5392 Clouds 18 1008 82 10000 1.34 152 17:44 18.11.2021
5393 Clouds 19 1009 85 10000 1.34 107 16:44 18.11.2021
5394 Clear 19 1010 83 10000 1.34 3 15:25 18.11.2021
5395 Clear 20 1011 83 10000 1.34 5 13:29 18.11.2021
5396 Rain 20 1013 81 10000 1.34 339 12:33 18.11.2021
5397 Rain 20 1013 77 10000 1.34 11 11:41 18.11.2021
5398 Clear 20 1012 76 10000 1.34 295 11:23 18.11.2021
5399 Clear 21 1012 75 10000 1.34 15 09:33 18.11.2021
5400 Clear 23 1012 67 10000 1.34 20 07:34 18.11.2021
5401 Clear 24 1013 66 10000 1.34 337 05:48 18.11.2021
5402 Clear 24 1014 65 10000 1.34 325 04:54 18.11.2021
5403 Clouds 23 1018 61 10000 1.34 335 01:22 18.11.2021
5404 Clouds 19 1021 71 10000 0.89 123 22:49 17.11.2021
5405 Clouds 18 1020 75 10000 0.45 19 22:20 17.11.2021
5406 Clouds 16 1021 83 10000 2.68 270 21:38 17.11.2021
5407 Clear 14 1021 86 10000 2.24 290 20:56 17.11.2021
5408 Clouds 14 1020 83 10000 2.57 290 18:27 17.11.2021
5409 Clouds 15 1019 81 10000 1.34 322 17:27 17.11.2021
5410 Clouds 16 1020 77 10000 1.34 314 14:51 17.11.2021
5411 Clouds 17 1021 74 10000 1.34 313 12:41 17.11.2021
5412 Clouds 17 1021 72 10000 1.34 330 11:49 17.11.2021
5413 Clouds 17 1020 72 10000 1.34 356 10:29 17.11.2021
5414 Clouds 18 1020 67 10000 1.34 342 09:25 17.11.2021
5415 Clouds 19 1020 64 10000 1.34 173 07:44 17.11.2021
5416 Clouds 19 1021 64 10000 1.34 149 04:47 17.11.2021
5417 Clouds 19 1022 64 10000 1.34 172 02:37 17.11.2021
5418 Clouds 17 1023 69 10000 5.66 170 23:26 16.11.2021
5419 Clouds 14 1023 75 10000 3.13 290 21:27 16.11.2021
5420 Clouds 13 1022 73 10000 2.24 270 20:18 16.11.2021
5421 Clouds 13 1022 70 10000 3.58 270 18:54 16.11.2021
5422 Clouds 13 1022 70 10000 3.58 270 18:35 16.11.2021
5423 Clouds 13 1022 71 10000 2.68 290 17:43 16.11.2021
5424 Clouds 13 1022 70 10000 3.13 290 16:52 16.11.2021
5425 Clouds 13 1022 69 10000 2.24 225 16:18 16.11.2021
5426 Clouds 13 1022 69 10000 2.24 225 15:41 16.11.2021
5427 Clouds 14 1020 64 10000 1.34 352 12:40 16.11.2021
5428 Clouds 15 1018 61 10000 1.34 187 09:49 16.11.2021
5429 Clouds 16 1016 59 10000 1.34 179 08:50 16.11.2021
5430 Clouds 17 1015 55 10000 1.34 180 07:34 16.11.2021
5431 Clear 19 1015 50 10000 1.34 182 05:27 16.11.2021
5432 Clouds 17 1014 43 10000 1.34 229 23:24 15.11.2021
5433 Clouds 16 1014 47 10000 5.81 225 22:40 15.11.2021
5434 Clouds 16 1014 50 10000 2.24 226 21:55 15.11.2021
5435 Clouds 14 1014 55 10000 4.12 240 21:30 15.11.2021
5436 Clouds 13 1012 65 10000 4.12 260 20:32 15.11.2021
5437 Clear 13 1012 68 10000 3.13 250 18:53 15.11.2021
5438 Clear 13 1013 66 10000 4.12 250 16:59 15.11.2021
5439 Clear 14 1012 59 10000 5.66 250 15:48 15.11.2021
5440 Clear 15 1012 56 10000 8.75 260 15:30 15.11.2021
5441 Clear 15 1014 53 10000 2.68 315 14:18 15.11.2021
5442 Clear 16 1012 49 10000 3.58 315 12:21 15.11.2021
5443 Clear 18 1009 43 10000 5.36 250 09:31 15.11.2021
5444 Clear 18 1009 42 10000 2.24 270 08:57 15.11.2021
5445 Clear 21 1005 37 10000 1.34 306 06:32 15.11.2021
5446 Clear 18 1006 37 10000 5.36 290 00:37 15.11.2021
5447 Clear 16 1006 43 10000 6.26 290 22:44 14.11.2021
5448 Clouds 14 1005 51 10000 0.89 348 21:18 14.11.2021
5449 Clouds 14 1005 51 10000 0.89 348 21:18 14.11.2021
5450 Clear 12 1005 58 10000 2.68 340 19:18 14.11.2021
5451 Clear 12 1005 58 10000 2.68 340 18:54 14.11.2021
5452 Clear 12 1005 59 10000 2.68 340 18:36 14.11.2021
5453 Clear 12 1004 58 10000 4.92 340 18:18 14.11.2021
5454 Clear 12 1004 57 10000 4.92 340 17:57 14.11.2021
5455 Clear 12 1004 56 10000 4.92 340 17:39 14.11.2021
5456 Clear 13 1005 55 10000 4.02 315 17:21 14.11.2021
5457 Clear 13 1005 54 10000 4.02 315 16:57 14.11.2021
5458 Clear 13 1005 54 10000 4.02 315 16:39 14.11.2021
5459 Clear 13 1005 53 10000 0.45 24 16:18 14.11.2021
5460 Clear 13 1005 56 10000 4.02 315 15:19 14.11.2021
5461 Clear 13 1006 60 10000 5.36 315 14:43 14.11.2021
5462 Clear 13 1006 60 10000 0.45 288 14:20 14.11.2021
5463 Clear 13 1006 61 10000 4.92 315 13:51 14.11.2021
5464 Clear 13 1006 61 10000 4.92 315 13:27 14.11.2021
5465 Clouds 13 1006 63 10000 4.02 290 12:22 14.11.2021
5466 Clear 14 1006 60 10000 8.49 315 10:58 14.11.2021
5467 Rain 15 1005 58 10000 8.49 315 10:36 14.11.2021
5468 Rain 16 1003 59 10000 1.34 297 09:26 14.11.2021
5469 Rain 16 1005 59 10000 1.34 355 08:51 14.11.2021
5470 Clear 22 1002 33 10000 1.34 281 04:47 14.11.2021
5471 Clear 16 1006 51 10000 4.47 315 22:50 13.11.2021
5472 Clear 16 1007 53 10000 4.47 315 22:20 13.11.2021
5473 Clouds 14 1006 60 10000 0.89 360 21:35 13.11.2021
5474 Clouds 13 1007 66 10000 2.68 315 20:43 13.11.2021
5475 Clear 13 1006 69 10000 2.24 290 18:56 13.11.2021
5476 Clear 13 1006 69 10000 2.24 290 18:32 13.11.2021
5477 Clear 14 1005 69 10000 4.02 270 17:38 13.11.2021
5478 Rain 15 1005 68 10000 6.26 270 15:55 13.11.2021
5479 Rain 15 1006 68 10000 0.45 154 14:45 13.11.2021
5480 Rain 16 1006 68 10000 4.02 250 13:47 13.11.2021
5481 Rain 16 1005 74 10000 3.58 250 12:43 13.11.2021
5482 Rain 15 1004 77 10000 5.66 260 11:51 13.11.2021
5483 Rain 16 1004 73 10000 7.2 270 11:22 13.11.2021
5484 Rain 17 1003 65 10000 4.47 250 10:34 13.11.2021
5485 Rain 17 1003 58 10000 6.61 262 09:47 13.11.2021
5486 Rain 18 1003 55 10000 0.45 148 09:28 13.11.2021
5487 Rain 18 1002 52 10000 0.45 99 08:49 13.11.2021
5488 Clouds 20 998 37 10000 8.23 260 07:54 13.11.2021
5489 Clear 20 997 41 10000 10.29 290 04:43 13.11.2021
5490 Clouds 19 999 49 10000 10.31 294 04:20 13.11.2021
5491 Clear 19 997 48 10000 8.49 290 00:18 13.11.2021
5492 Clear 17 997 54 10000 2.68 274 22:34 12.11.2021
5493 Clear 17 997 55 10000 1.34 316 22:34 12.11.2021
5494 Clear 15 998 67 10000 4.47 340 20:49 12.11.2021
5495 Clear 14 995 69 10000 1.34 303 19:33 12.11.2021
5496 Clear 15 995 69 10000 1.34 298 18:59 12.11.2021
5497 Clear 15 995 70 10000 1.34 304 18:20 12.11.2021
5498 Clear 16 996 69 10000 1.34 305 16:18 12.11.2021
5499 Clouds 17 997 70 10000 1.34 310 13:46 12.11.2021
5500 Clouds 17 996 90 10000 1.34 273 11:31 12.11.2021
5501 Clouds 17 995 89 10000 1.34 274 10:43 12.11.2021
5502 Clouds 19 994 84 10000 1.34 193 08:59 12.11.2021
5503 Clouds 19 993 82 10000 1.34 312 08:29 12.11.2021
5504 Drizzle 16 996 93 5000 0.89 185 00:37 12.11.2021
5505 Clouds 15 996 95 10000 0.89 228 23:30 11.11.2021
5506 Clouds 13 998 95 3000 5.81 270 22:27 11.11.2021
5507 Drizzle 14 996 96 5000 0.89 44 21:26 11.11.2021
5508 Rain 14 996 94 6000 0.89 98 20:26 11.11.2021
5509 Rain 14 997 94 10000 0.89 160 18:54 11.11.2021
5510 Rain 13 998 93 10000 0.89 179 17:42 11.11.2021
5511 Rain 13 1000 92 10000 0.89 172 16:24 11.11.2021
5512 Clouds 13 1002 91 10000 0.89 175 14:44 11.11.2021
5513 Clouds 13 1002 92 10000 0.89 198 14:26 11.11.2021
5514 Rain 14 1003 93 7000 0.89 287 13:36 11.11.2021
5515 Rain 15 1004 94 6000 0.89 292 12:48 11.11.2021
5516 Rain 15 1003 90 6000 0.89 187 10:34 11.11.2021
5517 Drizzle 16 1003 85 10000 0.89 180 09:33 11.11.2021
5518 Clouds 16 1003 86 10000 0.89 184 07:35 11.11.2021
5519 Clouds 18 1004 79 10000 0.89 190 02:35 11.11.2021
5520 Rain 17 1004 91 10000 0.89 175 22:49 10.11.2021
5521 Clouds 17 1003 93 10000 0.89 198 21:58 10.11.2021
5522 Clouds 17 1002 95 10000 0.89 195 21:18 10.11.2021
5523 Clouds 18 1003 95 10000 5.36 180 20:36 10.11.2021
5524 Clouds 18 1003 95 10000 5.36 270 19:46 10.11.2021
5525 Clouds 18 1002 95 10000 4.02 270 17:40 10.11.2021
5526 Clouds 18 1003 95 10000 4.63 310 16:25 10.11.2021
5527 Rain 18 1004 95 10000 1.79 315 14:44 10.11.2021
5528 Clouds 19 1005 95 10000 1.34 315 13:40 10.11.2021
5529 Rain 19 1005 95 10000 3.13 45 12:44 10.11.2021
5530 Rain 19 1006 95 9000 2.68 270 10:39 10.11.2021
5531 Rain 19 1004 94 9730 2.24 45 08:45 10.11.2021
5532 Rain 19 1003 95 10000 1.34 323 07:32 10.11.2021
5533 Rain 19 1003 95 10000 1.34 323 07:32 10.11.2021
5534 Rain 19 1003 95 7000 1.34 164 06:26 10.11.2021
5535 Rain 19 1004 95 6000 1.34 165 05:51 10.11.2021
5536 Rain 20 1007 84 10000 1.34 222 23:52 09.11.2021
5537 Clouds 19 1007 92 10000 1.34 342 21:47 09.11.2021
5538 Clouds 18 1008 93 10000 2.24 70 20:31 09.11.2021
5539 Rain 18 1009 92 10000 0.45 293 19:21 09.11.2021
5540 Rain 19 1008 92 10000 1.34 1 17:37 09.11.2021
5541 Clouds 19 1008 91 10000 1.34 352 15:45 09.11.2021
5542 Clouds 19 1009 90 10000 1.34 348 14:29 09.11.2021
5543 Clouds 19 1012 88 10000 1.34 45 12:53 09.11.2021
5544 Clouds 19 1010 86 10000 1.34 16 11:42 09.11.2021
5545 Clouds 19 1009 84 10000 1.34 343 10:45 09.11.2021
5546 Clouds 20 1009 81 10000 1.34 336 09:28 09.11.2021
5547 Clouds 21 1008 77 10000 1.34 84 08:26 09.11.2021
5548 Clouds 23 1009 72 10000 1.34 154 05:52 09.11.2021
5549 Rain 22 1010 75 10000 1.34 191 02:23 09.11.2021
5550 Clouds 21 1011 77 10000 1.34 179 01:45 09.11.2021
5551 Clouds 19 1011 83 10000 1.34 267 23:58 08.11.2021
5552 Clouds 18 1011 89 10000 1.34 334 22:50 08.11.2021
5553 Clouds 17 1011 91 10000 1.34 212 21:59 08.11.2021
5554 Clouds 17 1012 93 10000 2.68 200 20:55 08.11.2021
5555 Rain 17 1011 93 10000 3.13 180 19:52 08.11.2021
5556 Rain 17 1010 90 10000 3.58 200 18:56 08.11.2021
5557 Clouds 18 1010 90 10000 2.24 180 16:34 08.11.2021
5558 Clouds 18 1009 89 10000 1.34 291 15:26 08.11.2021
5559 Clouds 18 1011 87 10000 3.13 200 14:42 08.11.2021
5560 Clouds 18 1009 86 10000 1.34 227 13:49 08.11.2021
5561 Clouds 19 1009 86 10000 1.34 194 12:20 08.11.2021
5562 Clouds 19 1008 85 10000 1.34 267 11:24 08.11.2021
5563 Rain 19 1008 82 10000 1.34 193 09:59 08.11.2021
5564 Clouds 21 1006 78 10000 1.34 187 08:55 08.11.2021
5565 Clouds 22 1006 74 10000 1.34 178 07:36 08.11.2021
5566 Clouds 23 1006 73 10000 1.34 182 04:56 08.11.2021
5567 Clouds 23 1006 75 10000 1.34 183 03:30 08.11.2021
5568 Clouds 20 1006 89 10000 1.34 184 23:51 07.11.2021
5569 Clouds 18 1006 95 10000 1.34 1 22:26 07.11.2021
5570 Rain 18 1006 95 10000 1.34 0 21:21 07.11.2021
5571 Rain 17 1005 95 10000 1.34 307 19:55 07.11.2021
5572 Rain 17 1006 95 10000 1.79 180 18:24 07.11.2021
5573 Rain 17 1007 94 10000 2.57 210 17:38 07.11.2021
5574 Rain 18 1008 94 10000 0.89 355 15:55 07.11.2021
5575 Rain 18 1009 94 10000 2.24 270 14:40 07.11.2021
5576 Rain 18 1009 93 10000 0.89 290 13:54 07.11.2021
5577 Rain 18 1009 90 10000 0.89 269 11:53 07.11.2021
5578 Clouds 19 1007 85 10000 3.58 250 10:19 07.11.2021
5579 Rain 20 1006 84 10000 2.68 315 08:48 07.11.2021
5580 Rain 24 1008 70 10000 3.13 290 02:49 07.11.2021
5581 Clouds 20 1007 87 10000 0.89 358 23:42 06.11.2021
5582 Clouds 20 1007 84 10000 0.89 358 22:52 06.11.2021
5583 Clear 19 1008 86 10000 0.89 70 21:36 06.11.2021
5584 Clear 17 1008 90 10000 0.89 0 20:52 06.11.2021
5585 Clouds 17 1007 90 10000 0.89 90 19:39 06.11.2021
5586 Clear 17 1007 89 10000 1.34 45 17:25 06.11.2021
5587 Clear 18 1008 86 10000 3.09 40 15:46 06.11.2021
5588 Clear 19 1008 83 10000 1.34 198 13:39 06.11.2021
5589 Clear 19 1008 83 10000 1.34 198 13:39 06.11.2021
5590 Clear 20 1009 82 10000 1.34 351 12:38 06.11.2021
5591 Clouds 20 1008 79 10000 0.89 305 09:49 06.11.2021
5592 Clouds 22 1007 74 10000 1.34 314 08:33 06.11.2021
5593 Clouds 24 1011 65 10000 0.89 159 03:22 06.11.2021
5594 Clouds 21 1013 71 10000 0.45 206 23:40 05.11.2021
5595 Clouds 20 1016 74 10000 0.89 298 22:52 05.11.2021
5596 Clouds 19 1016 76 10000 0.45 293 22:32 05.11.2021
5597 Clouds 15 1015 89 10000 0.45 31 20:25 05.11.2021
5598 Clouds 15 1015 89 10000 0.45 296 19:50 05.11.2021
5599 Clouds 16 1015 87 10000 2.24 20 18:42 05.11.2021
5600 Clear 16 1015 86 10000 2.68 45 17:45 05.11.2021
5601 Clouds 17 1015 88 10000 2.68 326 16:37 05.11.2021
5602 Clouds 18 1018 84 10000 0.89 316 14:18 05.11.2021
5603 Clouds 19 1017 83 10000 0.89 306 12:26 05.11.2021
5604 Clouds 19 1017 80 10000 0.45 310 09:27 05.11.2021
5605 Clouds 20 1016 77 10000 0.89 342 07:48 05.11.2021
5606 Clouds 21 1016 76 10000 1.34 164 05:36 05.11.2021
5607 Clouds 20 1019 80 1500 1.34 297 02:28 05.11.2021
5608 Rain 20 1019 81 10000 1.34 358 01:59 05.11.2021
5609 Clouds 19 1020 89 10000 1.34 305 23:56 04.11.2021
5610 Rain 18 1019 93 10000 1.34 339 22:21 04.11.2021
5611 Rain 17 1019 93 10000 1.79 307 21:54 04.11.2021
5612 Clouds 17 1019 93 10000 0.45 329 21:27 04.11.2021
5613 Rain 17 1018 94 10000 0.45 38 20:28 04.11.2021
5614 Rain 17 1018 94 6000 0.89 151 19:49 04.11.2021
5615 Rain 17 1018 94 10000 1.79 3 19:25 04.11.2021
5616 Rain 16 1019 94 9000 0.89 110 18:23 04.11.2021
5617 Rain 16 1020 94 7000 4.02 20 17:26 04.11.2021
5618 Rain 17 1019 93 10000 0.89 0 15:42 04.11.2021
5619 Drizzle 18 1021 93 10000 0.89 45 13:45 04.11.2021
5620 Drizzle 17 1021 91 10000 0.89 135 10:22 04.11.2021
5621 Rain 18 1020 87 10000 2.06 20 08:31 04.11.2021
5622 Rain 18 1018 86 10000 0.45 6 07:36 04.11.2021
5623 Rain 19 1020 84 10000 2.24 70 06:40 04.11.2021
5624 Rain 20 1020 75 10000 0.45 151 23:18 03.11.2021
5625 Clouds 19 1020 77 10000 0.45 14 22:22 03.11.2021
5626 Clouds 18 1019 79 10000 0.89 11 21:37 03.11.2021
5627 Rain 18 1020 81 10000 1.79 45 20:44 03.11.2021
5628 Rain 18 1020 80 10000 0.89 335 20:25 03.11.2021
5629 Rain 17 1020 80 10000 2.24 70 19:29 03.11.2021
5630 Rain 18 1019 80 10000 2.24 70 18:26 03.11.2021
5631 Rain 18 1019 79 10000 1.79 70 17:42 03.11.2021
5632 Clouds 18 1018 79 10000 0.45 197 16:48 03.11.2021
5633 Clouds 18 1021 77 10000 2.24 20 15:49 03.11.2021
5634 Rain 18 1021 77 10000 2.24 20 15:29 03.11.2021
5635 Clear 19 1022 74 10000 4.02 20 13:29 03.11.2021
5636 Rain 19 1021 73 10000 0.45 341 11:34 03.11.2021
5637 Clear 20 1020 73 10000 0.89 307 10:50 03.11.2021
5638 Clear 20 1020 71 10000 1.34 16 09:46 03.11.2021
5639 Clear 21 1020 69 10000 1.34 10 08:53 03.11.2021
5640 Clear 22 1020 63 10000 0.89 1 07:40 03.11.2021
5641 Clouds 22 1020 61 10000 1.34 329 06:32 03.11.2021
5642 Clouds 23 1022 58 10000 1.34 348 04:22 03.11.2021
5643 Clouds 23 1026 57 10000 0.45 22 00:58 03.11.2021
5644 Clouds 21 1025 64 10000 4.02 314 23:21 02.11.2021
5645 Clouds 19 1024 75 10000 1.79 309 21:57 02.11.2021
5646 Clouds 15 1026 83 10000 0.45 306 20:43 02.11.2021
5647 Clouds 16 1023 82 10000 0.89 305 19:57 02.11.2021
5648 Clouds 16 1025 83 10000 3.09 330 19:27 02.11.2021
5649 Clouds 16 1025 82 10000 2.24 20 18:35 02.11.2021
5650 Clouds 16 1025 82 10000 2.68 20 17:44 02.11.2021
5651 Clouds 17 1024 81 10000 1.34 322 16:47 02.11.2021
5652 Clouds 17 1024 80 10000 1.34 312 15:58 02.11.2021
5653 Clouds 18 1024 79 10000 1.79 318 14:57 02.11.2021
5654 Clouds 18 1025 77 10000 3.58 323 13:30 02.11.2021
5655 Clouds 19 1025 77 10000 1.34 316 12:59 02.11.2021
5656 Clear 19 1027 77 10000 3.58 70 11:40 02.11.2021
5657 Clear 19 1026 78 10000 5.81 70 10:59 02.11.2021
5658 Clouds 19 1026 78 10000 5.81 70 10:38 02.11.2021
5659 Clouds 19 1026 76 10000 0.45 257 10:18 02.11.2021
5660 Clouds 21 1024 68 10000 0.89 280 07:47 02.11.2021
5661 Clouds 23 1023 57 10000 2.24 184 05:55 02.11.2021
5662 Clouds 24 1025 58 10000 0.89 351 03:27 02.11.2021
5663 Clouds 22 1026 59 10000 4.47 70 00:19 02.11.2021
5664 Rain 17 1027 87 10000 0.89 70 21:57 01.11.2021
5665 Clouds 15 1025 85 10000 0.45 244 20:45 01.11.2021
5666 Clouds 15 1025 85 10000 0 0 20:19 01.11.2021
5667 Clouds 14 1025 87 10000 0 0 19:42 01.11.2021
5668 Clouds 15 1024 84 10000 0.45 20 18:34 01.11.2021
5669 Clouds 16 1024 82 10000 0.89 270 17:49 01.11.2021
5670 Clouds 16 1024 82 10000 1.34 0 16:57 01.11.2021
5671 Clouds 17 1023 80 10000 0.89 327 16:25 01.11.2021
5672 Clouds 17 1022 80 10000 2.24 317 15:37 01.11.2021
5673 Clouds 17 1023 80 10000 2.24 319 15:18 01.11.2021
5674 Clear 18 1023 78 10000 1.79 307 14:37 01.11.2021
5675 Clear 18 1023 77 10000 2.68 308 14:18 01.11.2021
5676 Clear 19 1023 77 10000 0.89 307 12:41 01.11.2021
5677 Clouds 19 1022 78 10000 0.89 320 11:39 01.11.2021
5678 Clouds 19 1022 74 10000 0.89 304 10:20 01.11.2021
5679 Clear 20 1022 68 10000 0.89 310 08:19 01.11.2021
5680 Clear 21 1021 67 10000 0.89 8 07:46 01.11.2021
5681 Clear 22 1023 60 10000 1.34 335 03:53 01.11.2021
5682 Clear 22 1023 56 10000 0.89 332 01:44 01.11.2021
5683 Clouds 18 1024 68 10000 0.89 327 23:30 31.10.2021
5684 Clouds 12 1025 84 10000 3.13 290 20:58 31.10.2021
5685 Clouds 12 1024 85 10000 2.68 270 19:24 31.10.2021
5686 Clear 12 1024 85 10000 2.68 270 18:43 31.10.2021
5687 Clear 11 1024 84 10000 1.54 340 17:59 31.10.2021
5688 Clouds 12 1025 83 10000 0.45 305 16:28 31.10.2021
5689 Clouds 13 1026 78 10000 1.34 290 14:41 31.10.2021
5690 Rain 15 1025 73 10000 2.24 319 12:55 31.10.2021
5691 Clouds 16 1025 70 10000 3.58 70 11:42 31.10.2021
5692 Clouds 16 1024 71 10000 0.89 10 11:42 31.10.2021
5693 Clouds 16 1025 68 10000 3.58 45 10:48 31.10.2021
5694 Clouds 17 1022 65 10000 1.34 196 09:26 31.10.2021
5695 Clouds 18 1022 62 10000 0.89 176 08:44 31.10.2021
5696 Clouds 19 1023 54 10000 1.34 13 02:26 31.10.2021
5697 Clouds 17 1025 56 10000 2.68 290 00:32 31.10.2021
5698 Clouds 11 1024 74 10000 4.47 290 22:20 30.10.2021
5699 Clouds 11 1024 76 10000 4.47 290 21:27 30.10.2021
5700 Clouds 11 1022 72 10000 3.58 270 19:42 30.10.2021
5701 Clouds 13 1023 68 10000 2.57 220 17:49 30.10.2021
5702 Clouds 15 1021 61 10000 0.89 342 15:42 30.10.2021
5703 Clouds 15 1021 60 10000 0.89 182 13:59 30.10.2021
5704 Clouds 15 1021 60 10000 0.89 187 13:59 30.10.2021
5705 Clouds 15 1021 60 10000 0.45 178 13:38 30.10.2021
5706 Clouds 15 1020 59 10000 1.34 186 13:20 30.10.2021
5707 Clouds 15 1021 60 10000 4.02 135 11:49 30.10.2021
5708 Clouds 15 1020 60 10000 4.47 135 10:56 30.10.2021
5709 Clouds 16 1016 60 10000 1.79 187 08:57 30.10.2021
5710 Clouds 16 1016 58 10000 2.24 178 07:57 30.10.2021
5711 Clouds 18 1015 55 10000 2.24 187 05:47 30.10.2021
5712 Clouds 18 1016 55 10000 2.24 180 02:59 30.10.2021
5713 Clouds 16 1016 65 10000 1.34 295 23:21 29.10.2021
5714 Clouds 16 1016 68 10000 2.24 299 22:35 29.10.2021
5715 Clouds 15 1015 63 10000 0.89 316 21:19 29.10.2021
5716 Clouds 15 1014 53 10000 2.24 200 20:33 29.10.2021
5717 Clouds 16 1012 51 10000 3.13 250 19:30 29.10.2021
5718 Clear 17 1012 52 10000 0.45 62 18:18 29.10.2021
5719 Clear 19 1011 47 10000 3.13 200 15:50 29.10.2021
5720 Clear 22 1009 38 10000 0.45 213 13:23 29.10.2021
5721 Clear 25 1003 30 10000 0.45 356 10:49 29.10.2021
5722 Clear 25 1005 30 10000 3.13 249 10:31 29.10.2021
5723 Clear 29 999 42 10000 4.47 295 02:47 29.10.2021
5724 Rain 26 1001 43 10000 1.79 270 00:35 29.10.2021
5725 Clear 20 1001 53 10000 2.24 315 22:34 28.10.2021
5726 Rain 20 1000 60 10000 0.89 329 21:20 28.10.2021
5727 Clear 19 1003 59 10000 1.34 110 20:19 28.10.2021
5728 Rain 18 1004 69 10000 0.45 70 18:47 28.10.2021
5729 Clear 19 1002 69 10000 0.89 339 17:52 28.10.2021
5730 Rain 19 1002 72 10000 1.34 328 16:54 28.10.2021
5731 Clear 20 1004 71 10000 0.89 17 14:59 28.10.2021
5732 Clear 21 1005 72 10000 0.89 358 13:35 28.10.2021
5733 Rain 22 1005 69 10000 0.45 319 12:50 28.10.2021
5734 Clear 23 1005 63 10000 0.45 320 11:51 28.10.2021
5735 Clear 24 1006 56 10000 1.34 167 10:48 28.10.2021
5736 Clear 25 1005 53 10000 0.89 166 09:38 28.10.2021
5737 Clear 26 1005 53 10000 0.89 55 08:37 28.10.2021
5738 Clear 27 1005 54 10000 0.89 330 07:47 28.10.2021
5739 Clear 29 1008 38 10000 1.34 57 04:19 28.10.2021
5740 Clear 19 1012 80 10000 3.13 290 23:26 27.10.2021
5741 Clear 16 1011 90 10000 3.13 270 22:30 27.10.2021
5742 Rain 15 1011 92 10000 1.79 290 21:32 27.10.2021
5743 Clouds 16 1011 92 10000 2.24 290 20:49 27.10.2021
5744 Clouds 16 1011 93 10000 2.24 270 19:52 27.10.2021
5745 Clouds 16 1012 91 10000 2.24 270 18:58 27.10.2021
5746 Clouds 16 1012 91 10000 2.24 270 18:38 27.10.2021
5747 Clear 17 1014 89 10000 2.57 150 16:26 27.10.2021
5748 Clear 17 1014 90 10000 0.45 340 15:30 27.10.2021
5749 Clear 17 1014 90 10000 3.09 180 15:30 27.10.2021
5750 Clouds 18 1015 89 10000 0.45 340 14:38 27.10.2021
5751 Clear 20 1012 81 10000 0.45 8 11:21 27.10.2021
5752 Clear 20 1012 80 10000 0.89 0 10:58 27.10.2021
5753 Clear 21 1012 73 10000 0.89 350 09:43 27.10.2021
5754 Clear 23 1012 69 10000 1.34 335 07:52 27.10.2021
5755 Clouds 24 1013 67 10000 0.89 190 06:38 27.10.2021
5756 Clouds 22 1016 67 10000 1.34 24 01:31 27.10.2021
5757 Clouds 21 1016 71 10000 0.89 45 00:56 27.10.2021
5758 Clouds 20 1016 72 10000 0.89 8 00:24 27.10.2021
5759 Clouds 18 1016 76 10000 0.89 331 23:40 26.10.2021
5760 Clouds 17 1017 81 10000 0.45 159 22:36 26.10.2021
5761 Clouds 16 1017 81 10000 0.45 148 21:52 26.10.2021
5762 Clouds 16 1015 82 10000 0.89 175 20:27 26.10.2021
5763 Clouds 15 1015 81 10000 0.89 70 19:26 26.10.2021
5764 Clouds 16 1016 80 10000 0.89 176 18:40 26.10.2021
5765 Clouds 16 1016 79 10000 2.06 60 18:40 26.10.2021
5766 Clouds 16 1017 75 10000 0.45 233 16:22 26.10.2021
5767 Clouds 17 1018 75 10000 0.89 169 14:19 26.10.2021
5768 Clouds 16 1017 73 10000 1.79 174 11:34 26.10.2021
5769 Clouds 18 1015 67 10000 3.13 170 09:59 26.10.2021
5770 Clouds 20 1015 62 10000 1.79 170 07:24 26.10.2021
5771 Clouds 21 1016 58 10000 0.89 177 03:39 26.10.2021
5772 Clouds 21 1016 58 10000 0.89 179 03:39 26.10.2021
5773 Clouds 17 1019 64 10000 2.57 250 23:50 25.10.2021
5774 Clouds 14 1019 76 10000 0.45 244 22:39 25.10.2021
5775 Clouds 12 1019 80 10000 3.13 270 22:18 25.10.2021
5776 Clouds 12 1019 81 10000 3.13 270 21:38 25.10.2021
5777 Clear 13 1018 78 10000 3.13 270 19:50 25.10.2021
5778 Clear 13 1018 77 10000 3.13 270 19:25 25.10.2021
5779 Clouds 13 1017 78 10000 3.13 290 18:53 25.10.2021
5780 Clouds 14 1017 75 10000 2.24 250 17:48 25.10.2021
5781 Clouds 14 1018 73 10000 1.34 270 15:45 25.10.2021
5782 Clouds 15 1016 69 10000 0.45 1 14:20 25.10.2021
5783 Clouds 16 1014 69 10000 0.89 184 12:24 25.10.2021
5784 Clouds 17 1013 67 10000 1.34 180 10:20 25.10.2021
5785 Clouds 19 1012 61 10000 2.24 182 08:28 25.10.2021
5786 Clouds 21 1013 57 10000 2.24 183 05:59 25.10.2021
5787 Clouds 19 1015 56 10000 0.89 215 00:54 25.10.2021
5788 Clouds 18 1015 66 10000 4.02 270 00:35 25.10.2021
5789 Clouds 16 1015 74 10000 2.24 270 23:46 24.10.2021
5790 Clouds 14 1015 86 10000 2.24 270 22:43 24.10.2021
5791 Clouds 13 1015 87 10000 2.57 310 22:21 24.10.2021
5792 Clouds 12 1015 88 10000 0.45 317 21:41 24.10.2021
5793 Clouds 12 1014 87 10000 0.89 318 20:42 24.10.2021
5794 Clouds 13 1014 86 10000 2.06 70 19:54 24.10.2021
5795 Clouds 14 1013 83 10000 0.45 183 18:52 24.10.2021
5796 Clouds 13 1015 82 10000 0.89 160 17:55 24.10.2021
5797 Clouds 14 1016 80 10000 0.89 290 16:48 24.10.2021
5798 Clouds 14 1016 80 10000 1.34 340 15:28 24.10.2021
5799 Clouds 15 1017 78 10000 1.34 5 13:49 24.10.2021
5800 Clouds 16 1015 73 10000 1.34 313 12:41 24.10.2021
5801 Clouds 16 1015 67 10000 2.24 181 11:37 24.10.2021
5802 Clouds 17 1014 64 10000 1.34 171 10:43 24.10.2021
5803 Clouds 18 1013 64 10000 1.34 185 09:38 24.10.2021
5804 Clouds 21 1013 66 10000 3.13 186 03:36 24.10.2021
5805 Clouds 19 1014 73 10000 4.92 180 00:19 24.10.2021
5806 Clouds 18 1014 81 10000 4.02 200 23:24 23.10.2021
5807 Clouds 16 1011 89 10000 0.89 194 21:45 23.10.2021
5808 Clouds 18 1009 92 10000 0.45 256 19:39 23.10.2021
5809 Clouds 18 1010 92 10000 3.13 270 18:46 23.10.2021
5810 Clouds 18 1010 92 10000 3.13 270 18:46 23.10.2021
5811 Clouds 18 1010 92 10000 4.02 290 18:21 23.10.2021
5812 Clear 18 1010 92 10000 4.02 290 17:42 23.10.2021
5813 Clouds 18 1010 91 10000 0.89 159 16:18 23.10.2021
5814 Clouds 20 1010 93 10000 0.45 328 13:51 23.10.2021
5815 Clear 28 1010 57 10000 5.36 90 03:32 23.10.2021
5816 Clear 19 1013 84 10000 2.24 90 23:42 22.10.2021
5817 Clear 16 1013 92 10000 0.45 272 22:28 22.10.2021
5818 Clear 14 1012 93 10000 0.89 0 19:49 22.10.2021
5819 Clear 15 1013 93 10000 0.89 290 18:40 22.10.2021
5820 Clouds 15 1014 91 10000 1.34 290 17:25 22.10.2021
5821 Clear 17 1015 88 10000 0.45 20 14:58 22.10.2021
5822 Clouds 18 1012 85 10000 1.34 308 12:54 22.10.2021
5823 Clouds 19 1011 82 10000 0.45 164 10:58 22.10.2021
5824 Rain 19 1011 80 10000 1.34 181 10:37 22.10.2021
5825 Clouds 20 1012 75 10000 0.89 170 09:36 22.10.2021
5826 Clouds 22 1012 71 10000 2.68 176 07:53 22.10.2021
5827 Clouds 22 1012 69 10000 1.34 97 07:21 22.10.2021
5828 Clouds 22 1016 72 10000 1.34 182 02:56 22.10.2021
5829 Clouds 18 1016 83 10000 3.09 190 23:53 21.10.2021
5830 Clouds 16 1016 89 10000 0.45 335 22:47 21.10.2021
5831 Clouds 14 1016 91 10000 2.68 270 21:39 21.10.2021
5832 Clouds 14 1015 91 10000 2.68 270 20:27 21.10.2021
5833 Clouds 15 1015 91 10000 2.68 290 19:57 21.10.2021
5834 Clouds 15 1015 90 10000 2.68 290 19:26 21.10.2021
5835 Clouds 15 1015 89 10000 2.06 70 18:38 21.10.2021
5836 Clouds 15 1015 90 9000 1.79 225 17:53 21.10.2021
5837 Clouds 15 1015 90 9000 1.79 225 17:32 21.10.2021
5838 Clouds 15 1016 88 10000 0.45 270 15:34 21.10.2021
5839 Clouds 16 1015 88 10000 3.08 101 14:57 21.10.2021
5840 Clouds 16 1015 88 10000 0.45 350 14:37 21.10.2021
5841 Clouds 16 1015 88 10000 0.45 350 14:37 21.10.2021
5842 Clouds 17 1017 83 10000 0.89 90 12:44 21.10.2021
5843 Clouds 20 1013 69 10000 1.79 156 09:56 21.10.2021
5844 Clouds 21 1013 63 10000 2.24 179 08:21 21.10.2021
5845 Clouds 22 1013 62 10000 1.79 162 07:23 21.10.2021
5846 Clouds 20 1016 68 10000 0.51 170 00:58 21.10.2021
5847 Clouds 16 1017 85 10000 2.68 290 23:20 20.10.2021
5848 Clouds 13 1017 91 10000 2.68 290 21:51 20.10.2021
5849 Clouds 13 1017 91 10000 2.68 290 21:27 20.10.2021
5850 Clouds 13 1016 90 10000 2.57 310 20:46 20.10.2021
5851 Clouds 13 1016 90 10000 3.13 270 20:26 20.10.2021
5852 Clouds 13 1016 90 10000 3.13 270 19:28 20.10.2021
5853 Clouds 13 1017 89 10000 4.02 270 18:49 20.10.2021
5854 Clouds 13 1017 89 10000 4.02 270 17:40 20.10.2021
5855 Clouds 14 1018 85 10000 0.89 160 15:26 20.10.2021
5856 Clouds 18 1015 71 10000 1.34 188 10:23 20.10.2021
5857 Clouds 21 1014 63 10000 2.24 181 07:43 20.10.2021
5858 Clouds 19 1015 62 10000 1.34 183 02:47 20.10.2021
5859 Clouds 16 1016 69 10000 1.34 226 00:35 20.10.2021
5860 Clouds 14 1017 76 10000 4.47 270 23:32 19.10.2021
5861 Clouds 12 1016 77 10000 3.58 270 21:41 19.10.2021
5862 Clouds 11 1016 79 10000 3.13 270 20:45 19.10.2021
5863 Clouds 11 1016 79 10000 3.13 270 20:22 19.10.2021
5864 Clouds 11 1016 77 10000 2.68 290 19:39 19.10.2021
5865 Clouds 11 1016 77 10000 3.13 290 18:47 19.10.2021
5866 Clouds 11 1016 76 10000 2.68 315 17:57 19.10.2021
5867 Clouds 12 1018 68 10000 3.58 270 15:38 19.10.2021
5868 Clouds 12 1018 68 10000 3.58 250 15:18 19.10.2021
5869 Clouds 13 1018 68 10000 0.45 211 14:23 19.10.2021
5870 Clouds 15 1016 72 10000 0.89 193 12:34 19.10.2021
5871 Clouds 15 1017 74 10000 1.34 231 11:31 19.10.2021
5872 Clouds 15 1016 76 10000 7.15 200 09:56 19.10.2021
5873 Clouds 16 1014 77 10000 0.89 191 08:57 19.10.2021
5874 Clouds 20 1012 73 10000 2.68 196 05:23 19.10.2021
5875 Clear 21 1014 53 10000 3.6 270 00:23 19.10.2021
5876 Clear 19 1015 64 10000 3.6 300 23:49 18.10.2021
5877 Clear 18 1015 68 10000 2.68 270 23:18 18.10.2021
5878 Clear 16 1014 74 10000 3.13 290 22:51 18.10.2021
5879 Clouds 14 1014 79 10000 4.92 290 21:18 18.10.2021
5880 Clouds 14 1014 80 10000 4.47 270 20:41 18.10.2021
5881 Rain 14 1014 79 10000 3.13 270 19:50 18.10.2021
5882 Clouds 14 1013 79 10000 3.13 270 19:29 18.10.2021
5883 Clouds 14 1014 79 10000 3.13 290 18:52 18.10.2021
5884 Clouds 16 1015 78 10000 0.45 85 15:25 18.10.2021
5885 Clear 18 1015 73 10000 1.34 225 13:32 18.10.2021
5886 Clear 19 1011 67 10000 0.45 28 10:42 18.10.2021
5887 Clear 21 1011 62 10000 0.45 325 09:28 18.10.2021
5888 Clear 23 1014 46 10000 1.34 315 03:22 18.10.2021
5889 Clear 16 1017 80 10000 0.45 259 23:31 17.10.2021
5890 Clouds 12 1016 90 10000 0.45 275 21:55 17.10.2021
5891 Clear 12 1015 90 10000 3.58 270 21:18 17.10.2021
5892 Clear 12 1015 90 10000 3.58 270 20:38 17.10.2021
5893 Clear 12 1015 89 10000 0.45 275 19:42 17.10.2021
5894 Clear 12 1015 89 10000 0.45 275 19:23 17.10.2021
5895 Clouds 13 1015 86 10000 2.24 290 17:34 17.10.2021
5896 Clouds 14 1016 86 10000 0.89 290 15:46 17.10.2021
5897 Clear 14 1016 83 10000 0.89 288 14:26 17.10.2021
5898 Clear 15 1016 81 10000 3.13 70 13:56 17.10.2021
5899 Rain 16 1014 77 10000 0.89 196 11:58 17.10.2021
5900 Clouds 17 1012 73 10000 1.79 156 10:44 17.10.2021
5901 Clear 18 1011 67 10000 2.24 176 09:43 17.10.2021
5902 Clear 20 1010 57 10000 2.68 201 07:39 17.10.2021
5903 Clouds 18 1013 48 10000 0.89 217 00:55 17.10.2021
5904 Clouds 17 1013 51 10000 2.68 259 00:24 17.10.2021
5905 Clouds 13 1012 62 10000 0.89 258 22:31 16.10.2021
5906 Clear 11 1011 67 10000 0.45 244 20:35 16.10.2021
5907 Clear 11 1010 67 10000 0.89 263 19:55 16.10.2021
5908 Clear 11 1010 68 10000 0.89 263 19:37 16.10.2021
5909 Rain 11 1010 68 10000 0.45 317 19:18 16.10.2021
5910 Clear 11 1010 67 10000 0.45 325 18:42 16.10.2021
5911 Clear 11 1010 67 10000 0.45 325 18:19 16.10.2021
5912 Rain 12 1010 65 10000 0.45 59 17:28 16.10.2021
5913 Clear 13 1010 63 10000 1.54 310 15:38 16.10.2021
5914 Clear 16 1010 51 10000 0.45 0 12:44 16.10.2021
5915 Clouds 18 1006 45 10000 0.89 130 10:51 16.10.2021
5916 Clear 20 1002 40 10000 0.89 262 08:54 16.10.2021
5917 Clouds 19 1002 48 10000 2.24 270 01:27 16.10.2021
5918 Clouds 17 1001 53 10000 2.24 271 23:59 15.10.2021
5919 Clouds 16 1000 58 10000 0.45 346 23:25 15.10.2021
5920 Clouds 14 1000 65 10000 0.89 313 22:20 15.10.2021
5921 Clouds 13 999 66 10000 1.79 324 21:37 15.10.2021
5922 Clear 13 999 68 10000 0.89 304 20:52 15.10.2021
5923 Clear 13 999 68 10000 2.24 310 20:18 15.10.2021
5924 Clear 12 1001 67 10000 0.45 293 19:19 15.10.2021
5925 Clear 12 1002 69 10000 0.45 344 17:59 15.10.2021
5926 Clear 13 1002 67 10000 0.45 251 15:45 15.10.2021
5927 Clear 13 1003 65 10000 0.45 0 13:49 15.10.2021
5928 Clouds 15 1002 61 10000 0.45 326 11:52 15.10.2021
5929 Clouds 16 1002 63 10000 0.45 30 10:58 15.10.2021
5930 Clouds 16 1002 57 10000 0.89 314 10:19 15.10.2021
5931 Clouds 19 998 53 10000 1.34 341 07:33 15.10.2021
5932 Clouds 20 998 52 10000 1.34 311 02:31 15.10.2021
5933 Clouds 16 1002 69 10000 0.45 248 00:22 15.10.2021
5934 Clouds 14 1003 82 10000 0.89 254 22:54 14.10.2021
5935 Clouds 13 1002 91 10000 0.45 288 21:46 14.10.2021
5936 Clouds 14 1000 93 10000 1.34 139 21:19 14.10.2021
5937 Clouds 15 999 96 10000 3.58 139 20:20 14.10.2021
5938 Fog 15 999 96 4500 3.13 139 19:43 14.10.2021
5939 Fog 15 1000 96 5000 1.34 256 18:26 14.10.2021
5940 Clouds 16 1001 95 8000 0.45 61 16:57 14.10.2021
5941 Clear 16 1000 95 10000 3.58 143 16:31 14.10.2021
5942 Clouds 17 1001 95 10000 3.58 144 14:44 14.10.2021
5943 Clouds 17 1001 95 10000 4.02 143 14:26 14.10.2021
5944 Clouds 18 1001 94 10000 10.28 150 12:35 14.10.2021
5945 Clouds 18 1001 94 10000 0.89 221 11:26 14.10.2021
5946 Clouds 19 999 92 10000 1.79 317 07:45 14.10.2021
5947 Clouds 22 1002 80 10000 1.34 316 05:52 14.10.2021
5948 Clouds 18 1005 81 10000 2.24 313 00:36 14.10.2021
5949 Clouds 16 1007 87 10000 2.24 315 22:39 13.10.2021
5950 Clouds 16 1006 86 10000 2.24 320 21:36 13.10.2021
5951 Clouds 16 1007 85 10000 2.68 317 20:43 13.10.2021
5952 Clouds 16 1006 84 10000 2.68 322 19:20 13.10.2021
5953 Clouds 16 1007 84 10000 3.58 324 18:37 13.10.2021
5954 Clouds 17 1009 84 10000 3.13 315 16:35 13.10.2021
5955 Clouds 17 1010 86 10000 0.89 351 14:47 13.10.2021
5956 Clouds 17 1010 86 10000 2.24 317 14:23 13.10.2021
5957 Clouds 17 1011 82 10000 2.24 308 12:42 13.10.2021
5958 Clouds 17 1011 79 10000 3.58 317 11:36 13.10.2021
5959 Clouds 17 1012 80 10000 4.47 17 09:56 13.10.2021
5960 Clouds 17 1010 85 10000 2.24 138 07:53 13.10.2021
5961 Clouds 16 1012 94 3000 4.02 293 03:39 13.10.2021
5962 Clouds 15 1014 94 3000 2.24 199 02:21 13.10.2021
5963 Clouds 14 1015 93 3000 0.89 150 23:36 12.10.2021
5964 Clouds 13 1015 89 5000 2.24 155 22:50 12.10.2021
5965 Clouds 14 1014 87 10000 2.24 165 22:29 12.10.2021
5966 Clouds 13 1016 81 10000 1.79 330 20:54 12.10.2021
5967 Rain 14 1014 78 10000 0.89 153 20:31 12.10.2021
5968 Clouds 14 1014 72 10000 1.79 180 19:42 12.10.2021
5969 Clouds 14 1014 71 10000 1.34 171 18:26 12.10.2021
5970 Clouds 14 1015 69 10000 2.24 181 17:21 12.10.2021
5971 Clouds 14 1015 69 10000 1.34 180 16:24 12.10.2021
5972 Clouds 14 1016 69 10000 2.24 171 15:33 12.10.2021
5973 Clouds 14 1016 67 10000 2.24 176 13:46 12.10.2021
5974 Clouds 15 1016 67 10000 1.34 190 13:18 12.10.2021
5975 Clouds 15 1016 65 10000 1.79 175 11:30 12.10.2021
5976 Clouds 15 1017 63 10000 2.24 282 09:41 12.10.2021
5977 Clouds 16 1014 63 10000 2.24 175 08:26 12.10.2021
5978 Clouds 16 1014 63 10000 2.24 183 06:45 12.10.2021
5979 Clouds 15 1015 78 10000 0.45 356 04:49 12.10.2021
5980 Clouds 15 1016 80 10000 0.45 35 04:28 12.10.2021
5981 Clouds 14 1016 69 10000 2.68 177 23:56 11.10.2021
5982 Clouds 14 1016 68 10000 2.68 177 23:36 11.10.2021
5983 Rain 14 1016 67 10000 2.24 175 22:51 11.10.2021
5984 Clouds 14 1015 66 10000 2.24 186 21:27 11.10.2021
5985 Clouds 14 1014 65 10000 2.24 183 20:28 11.10.2021
5986 Clouds 14 1014 66 10000 1.34 189 19:35 11.10.2021
5987 Rain 13 1015 71 10000 2.24 183 18:23 11.10.2021
5988 Clouds 13 1015 73 10000 1.34 166 16:41 11.10.2021
5989 Clouds 13 1016 73 10000 2.24 175 16:21 11.10.2021
5990 Clouds 13 1016 75 10000 0.89 179 15:44 11.10.2021
5991 Clouds 13 1015 76 10000 0.89 181 14:54 11.10.2021
5992 Clouds 13 1014 75 10000 1.34 175 14:19 11.10.2021
5993 Clouds 13 1016 73 10000 1.34 174 13:35 11.10.2021
5994 Clouds 13 1015 85 10000 1.34 182 11:24 11.10.2021
5995 Clouds 13 1014 88 10000 1.79 189 09:47 11.10.2021
5996 Clouds 13 1014 88 10000 1.34 179 08:40 11.10.2021
5997 Clouds 11 1016 92 10000 0.89 4 01:46 11.10.2021
5998 Clouds 11 1016 92 10000 0.89 250 00:59 11.10.2021
5999 Clouds 11 1016 92 10000 0.89 76 00:40 11.10.2021
6000 Clouds 10 1014 92 10000 0.45 195 22:42 10.10.2021
6001 Drizzle 10 1014 92 10000 0.89 347 21:50 10.10.2021
6002 Clouds 11 1013 93 9000 0.45 92 21:20 10.10.2021
6003 Drizzle 11 1012 93 10000 0.89 212 20:40 10.10.2021
6004 Drizzle 11 1012 93 10000 0.89 212 20:40 10.10.2021
6005 Drizzle 12 1012 93 10000 0.89 276 20:19 10.10.2021
6006 Clouds 12 1011 93 10000 0.89 303 19:44 10.10.2021
6007 Clouds 12 1011 93 10000 0.89 207 19:26 10.10.2021
6008 Clouds 13 1009 93 10000 1.34 188 18:23 10.10.2021
6009 Clouds 15 1011 93 10000 0.45 251 15:54 10.10.2021
6010 Clouds 15 1011 93 10000 0.45 238 15:35 10.10.2021
6011 Clouds 15 1011 93 10000 0.89 176 13:41 10.10.2021
6012 Clouds 15 1011 92 10000 0.89 172 12:44 10.10.2021
6013 Clouds 16 1010 91 10000 0.45 100 11:59 10.10.2021
6014 Drizzle 16 1009 91 10000 0.45 42 10:31 10.10.2021
6015 Clouds 16 1006 91 10000 0.89 255 09:19 10.10.2021
6016 Clouds 17 1006 91 10000 0.89 242 08:51 10.10.2021
6017 Clouds 18 1004 85 5000 2.24 195 06:19 10.10.2021
6018 Clouds 26 999 63 10000 0.89 118 02:20 10.10.2021
6019 Clear 24 1006 56 10000 0.89 99 00:52 10.10.2021
6020 Clear 20 1007 69 10000 0.89 317 23:52 09.10.2021
6021 Clear 16 1009 79 10000 0.45 75 22:21 09.10.2021
6022 Clear 15 1009 78 10000 0.45 282 21:30 09.10.2021
6023 Clear 15 1009 78 10000 0.45 282 21:30 09.10.2021
6024 Clear 16 1009 76 10000 3.09 40 20:19 09.10.2021
6025 Clear 16 1009 75 10000 0.45 288 19:41 09.10.2021
6026 Clear 16 1009 75 10000 2.57 10 18:45 09.10.2021
6027 Clear 17 1010 73 10000 0.45 287 17:51 09.10.2021
6028 Clear 18 1009 70 10000 2.57 350 16:20 09.10.2021
6029 Clear 19 1010 71 10000 0.89 169 14:28 09.10.2021
6030 Clear 20 1010 68 10000 1.34 168 13:38 09.10.2021
6031 Clear 21 1011 57 10000 1.34 185 12:27 09.10.2021
6032 Clear 22 1011 61 10000 1.34 175 10:44 09.10.2021
6033 Clear 22 1011 60 10000 0.89 12 10:19 09.10.2021
6034 Clear 23 1010 59 10000 1.34 350 08:45 09.10.2021
6035 Clear 25 1010 56 10000 0.89 348 08:20 09.10.2021
6036 Clear 27 1013 46 10000 2.68 82 06:29 09.10.2021
6037 Clear 27 1014 49 10000 1.34 110 04:43 09.10.2021
6038 Clear 25 1014 50 10000 0.89 11 02:46 09.10.2021
6039 Clear 17 1017 77 10000 0.45 272 00:24 09.10.2021
6040 Clear 15 1017 86 10000 2.57 360 23:31 08.10.2021
6041 Clear 13 1016 90 10000 0.45 117 22:46 08.10.2021
6042 Clouds 12 1016 90 10000 2.56 305 21:44 08.10.2021
6043 Clear 12 1016 88 10000 0.45 71 20:27 08.10.2021
6044 Clear 13 1017 86 10000 3.6 330 18:23 08.10.2021
6045 Clear 14 1017 86 10000 0.45 308 16:56 08.10.2021
6046 Clear 15 1016 83 10000 2.68 322 16:25 08.10.2021
6047 Clear 16 1016 80 10000 1.34 318 14:57 08.10.2021
6048 Clear 17 1016 77 10000 2.24 326 13:46 08.10.2021
6049 Clouds 17 1015 75 10000 0.89 341 11:56 08.10.2021
6050 Clouds 17 1017 73 10000 3.58 24 10:43 08.10.2021
6051 Clear 18 1014 69 10000 1.34 353 09:47 08.10.2021
6052 Clouds 20 1016 61 10000 1.34 333 04:20 08.10.2021
6053 Clouds 16 1017 69 10000 0.89 285 23:26 07.10.2021
6054 Clouds 15 1017 72 10000 0.45 307 22:54 07.10.2021
6055 Clouds 15 1017 72 10000 0.45 269 21:29 07.10.2021
6056 Clouds 15 1017 71 10000 0.45 36 20:41 07.10.2021
6057 Clouds 15 1017 69 10000 0.45 96 19:34 07.10.2021
6058 Clouds 16 1015 68 10000 0.89 179 18:41 07.10.2021
6059 Clouds 16 1017 68 10000 1.34 186 17:33 07.10.2021
6060 Clouds 16 1015 68 10000 1.34 184 16:42 07.10.2021
6061 Clouds 16 1014 69 10000 1.79 192 14:56 07.10.2021
6062 Clouds 16 1014 71 10000 1.34 187 13:44 07.10.2021
6063 Clouds 17 1014 71 10000 2.24 185 13:19 07.10.2021
6064 Clouds 17 1011 74 10000 2.68 186 11:21 07.10.2021
6065 Clouds 17 1012 74 10000 2.24 168 10:46 07.10.2021
6066 Clouds 18 1010 73 8000 2.24 341 09:47 07.10.2021
6067 Clouds 19 1007 72 10000 4.47 182 08:54 07.10.2021
6068 Clouds 27 1009 63 10000 9.93 175 08:19 07.10.2021
6069 Clear 30 1005 20 10000 3.13 260 07:39 07.10.2021
6070 Clear 30 1004 22 10000 2.68 276 06:41 07.10.2021
6071 Clear 19 1009 45 10000 3.6 310 00:55 07.10.2021
6072 Rain 15 1007 53 10000 3.13 322 23:25 06.10.2021
6073 Clear 14 1010 61 10000 3.13 352 22:33 06.10.2021
6074 Rain 13 1010 68 10000 2.24 358 21:40 06.10.2021
6075 Clear 12 1009 72 10000 0.45 52 20:33 06.10.2021
6076 Rain 11 1010 76 10000 0.45 39 19:23 06.10.2021
6077 Clear 12 1011 79 10000 0.89 333 17:41 06.10.2021
6078 Rain 13 1012 77 10000 0.45 277 15:44 06.10.2021
6079 Rain 13 1012 77 10000 0.45 277 15:18 06.10.2021
6080 Rain 15 1012 72 10000 0.89 281 13:31 06.10.2021
6081 Rain 15 1012 69 10000 0.45 330 12:47 06.10.2021
6082 Rain 16 1012 67 10000 0.89 278 12:28 06.10.2021
6083 Rain 17 1012 64 10000 0.45 275 11:38 06.10.2021
6084 Clear 19 1009 52 10000 1.34 317 09:45 06.10.2021
6085 Rain 20 1009 50 10000 0.45 27 09:26 06.10.2021
6086 Clear 21 1009 45 10000 0.89 13 08:39 06.10.2021
6087 Clear 24 1010 41 10000 1.34 153 06:18 06.10.2021
6088 Clear 23 1012 31 10000 1.79 325 04:24 06.10.2021
6089 Clear 23 1012 31 10000 1.79 325 04:24 06.10.2021
6090 Clear 17 1016 48 10000 0.45 286 00:24 06.10.2021
6091 Clear 15 1015 54 10000 0.45 215 23:51 05.10.2021
6092 Clear 15 1015 53 10000 0.45 202 23:51 05.10.2021
6093 Clear 14 1015 56 10000 1.34 213 23:31 05.10.2021
6094 Clear 11 1015 62 10000 0.89 258 22:36 05.10.2021
6095 Clear 10 1014 63 10000 0.45 271 21:57 05.10.2021
6096 Clear 11 1014 63 10000 0.45 271 21:29 05.10.2021
6097 Clear 11 1013 60 10000 8.23 250 20:38 05.10.2021
6098 Clear 11 1013 59 10000 0.45 350 20:18 05.10.2021
6099 Clear 12 1013 58 10000 0.45 281 19:25 05.10.2021
6100 Clear 12 1013 56 10000 0.89 264 18:21 05.10.2021
6101 Clear 14 1012 52 10000 0.89 262 15:39 05.10.2021
6102 Clear 15 1012 46 10000 0.45 277 13:55 05.10.2021
6103 Clear 15 1012 45 10000 1.34 254 13:27 05.10.2021
6104 Clear 16 1012 42 10000 0.89 267 12:35 05.10.2021
6105 Clear 16 1011 39 10000 0.89 248 11:41 05.10.2021
6106 Clear 18 1010 35 10000 0.45 0 10:39 05.10.2021
6107 Clear 21 1006 30 10000 0.45 286 08:38 05.10.2021
6108 Clear 19 1007 40 10000 7.72 250 01:47 05.10.2021
6109 Clouds 17 1007 51 10000 2.06 50 23:40 04.10.2021
6110 Clouds 12 1006 61 10000 2.06 240 21:42 04.10.2021
6111 Clear 14 1004 54 10000 0.45 259 18:54 04.10.2021
6112 Clear 15 1005 54 10000 0.89 277 17:44 04.10.2021
6113 Rain 16 1006 52 10000 0.45 250 16:20 04.10.2021
6114 Clear 17 1005 49 10000 0.45 271 15:30 04.10.2021
6115 Clear 17 1005 47 10000 0.45 14 14:39 04.10.2021
6116 Clear 18 1004 45 10000 0.45 288 13:48 04.10.2021
6117 Clear 18 1004 44 10000 0.45 345 13:23 04.10.2021
6118 Clear 20 1002 39 10000 0.45 121 11:34 04.10.2021
6119 Clear 21 1001 32 10000 0.89 125 10:48 04.10.2021
6120 Clear 23 999 21 10000 2.68 241 09:48 04.10.2021
6121 Clear 26 996 32 10000 0.89 318 08:32 04.10.2021
6122 Clear 27 996 41 10000 0.89 336 06:51 04.10.2021
6123 Clear 19 999 69 10000 0.45 306 23:43 03.10.2021
6124 Clear 16 999 80 10000 1.03 310 22:33 03.10.2021
6125 Clear 16 999 77 10000 1.03 310 22:33 03.10.2021
6126 Clear 15 998 79 10000 1.54 310 21:37 03.10.2021
6127 Clear 16 998 75 10000 0 0 20:54 03.10.2021
6128 Clear 16 998 74 10000 0 0 19:56 03.10.2021
6129 Clear 17 1000 74 10000 2.06 310 18:33 03.10.2021
6130 Clear 16 1000 74 10000 1.03 310 17:41 03.10.2021
6131 Clear 17 1001 77 10000 0.45 329 15:51 03.10.2021
6132 Rain 17 1002 74 10000 2.57 340 14:42 03.10.2021
6133 Clouds 18 1001 75 10000 0.89 340 13:57 03.10.2021
6134 Clear 18 1002 75 10000 0.45 355 13:20 03.10.2021
6135 Clear 18 1000 74 10000 0.45 132 12:24 03.10.2021
6136 Clear 20 1001 68 10000 1.79 356 10:36 03.10.2021
6137 Clear 22 998 65 10000 1.34 12 08:36 03.10.2021
6138 Clouds 17 1005 86 10000 0.89 311 00:41 03.10.2021
6139 Clouds 12 1004 96 10000 0.45 286 22:33 02.10.2021
6140 Rain 12 1003 96 10000 3.09 290 20:55 02.10.2021
6141 Clear 12 1002 95 10000 3.09 260 19:32 02.10.2021
6142 Clear 13 1003 95 10000 0.45 278 18:50 02.10.2021
6143 Clouds 13 1003 94 10000 0.45 267 17:39 02.10.2021
6144 Clear 13 1003 94 10000 0.45 267 16:54 02.10.2021
6145 Clouds 15 1004 93 10000 3.6 190 14:42 02.10.2021
6146 Clear 16 1007 84 10000 0.89 156 15:49 30.09.2021
6147 Rain 17 1007 82 10000 0.89 172 14:46 30.09.2021
6148 Clouds 18 1007 78 10000 2.24 335 12:36 30.09.2021
6149 Clouds 18 1007 78 10000 2.24 330 11:34 30.09.2021
6150 Clouds 18 1007 79 10000 0.89 321 10:40 30.09.2021
6151 Clouds 20 1007 75 10000 0.45 299 08:56 30.09.2021
6152 Clouds 21 1005 69 10000 1.34 204 08:27 30.09.2021
6153 Clouds 23 1006 70 10000 0.89 179 06:41 30.09.2021
6154 Clouds 21 1009 68 10000 0.89 270 04:36 30.09.2021
6155 Clouds 19 1010 79 10000 0.45 5 00:40 30.09.2021
6156 Clouds 16 1012 93 10000 0.45 274 23:29 29.09.2021
6157 Clouds 14 1010 93 10000 0.89 322 21:55 29.09.2021
6158 Clouds 15 1009 93 10000 0.89 321 20:57 29.09.2021
6159 Clouds 15 1009 93 10000 1.79 317 20:23 29.09.2021
6160 Clouds 15 1008 94 10000 1.34 321 19:38 29.09.2021
6161 Clouds 15 1008 93 10000 1.34 320 18:25 29.09.2021
6162 Clouds 15 1010 92 10000 3.58 7 17:26 29.09.2021
6163 Clouds 16 1012 91 10000 0.89 63 16:43 29.09.2021
6164 Clouds 16 1013 89 10000 1.79 354 15:45 29.09.2021
6165 Clouds 16 1013 89 10000 1.79 354 15:45 29.09.2021
6166 Rain 16 1014 89 10000 0.45 353 14:38 29.09.2021
6167 Clouds 16 1014 89 10000 0.89 343 13:40 29.09.2021
6168 Clouds 16 1014 88 10000 3.6 50 12:46 29.09.2021
6169 Clear 16 1014 90 10000 4.63 30 11:26 29.09.2021
6170 Clear 17 1013 89 10000 0.89 54 10:38 29.09.2021
6171 Clouds 17 1014 89 10000 1.34 28 09:47 29.09.2021
6172 Clouds 17 1014 91 10000 0.45 89 08:44 29.09.2021
6173 Clouds 17 1012 88 10000 0.89 185 06:53 29.09.2021
6174 Clouds 19 1015 69 10000 0.89 192 00:51 29.09.2021
6175 Clouds 15 1018 82 10000 0.45 323 23:21 28.09.2021
6176 Clouds 13 1017 88 10000 2.77 349 22:22 28.09.2021
6177 Clear 13 1017 87 10000 0.89 323 21:25 28.09.2021
6178 Clear 13 1016 87 10000 2.57 10 20:26 28.09.2021
6179 Clear 13 1016 87 10000 0.45 62 19:41 28.09.2021
6180 Clear 13 1016 87 10000 2.06 50 18:44 28.09.2021
6181 Clear 13 1017 87 10000 0.45 323 17:53 28.09.2021
6182 Clear 15 1017 80 10000 1.79 323 15:21 28.09.2021
6183 Clear 17 1017 80 10000 2.24 319 13:30 28.09.2021
6184 Clear 17 1017 80 10000 1.34 311 12:28 28.09.2021
6185 Clear 17 1016 80 10000 2.24 322 11:57 28.09.2021
6186 Clear 17 1016 79 10000 1.34 348 11:39 28.09.2021
6187 Clear 17 1016 78 10000 0.89 313 10:47 28.09.2021
6188 Clouds 18 1015 75 10000 2.24 319 09:45 28.09.2021
6189 Clouds 19 1015 73 10000 1.34 335 08:49 28.09.2021
6190 Clouds 19 1015 71 10000 1.34 246 08:28 28.09.2021
6191 Clear 20 1015 67 10000 1.34 23 06:47 28.09.2021
6192 Clear 21 1016 63 10000 2.68 329 05:22 28.09.2021
6193 Clouds 18 1021 65 10000 1.34 244 01:22 28.09.2021
6194 Clouds 16 1020 71 10000 1.79 319 00:24 28.09.2021
6195 Clouds 13 1022 84 10000 2.57 350 23:31 27.09.2021
6196 Clouds 12 1020 83 10000 0.89 344 22:46 27.09.2021
6197 Clouds 9 1021 88 10000 0.45 276 21:44 27.09.2021
6198 Clouds 9 1021 87 10000 0.45 284 20:39 27.09.2021
6199 Clouds 10 1021 86 10000 0.45 271 19:53 27.09.2021
6200 Clouds 10 1021 86 10000 1.34 261 19:27 27.09.2021
6201 Clouds 10 1021 85 10000 0.45 49 18:48 27.09.2021
6202 Clouds 11 1020 82 10000 1.54 320 17:29 27.09.2021
6203 Clouds 11 1021 82 10000 3.09 290 16:48 27.09.2021
6204 Clouds 12 1022 79 10000 4.63 10 15:43 27.09.2021
6205 Clouds 13 1019 78 10000 1.79 326 15:18 27.09.2021
6206 Clouds 14 1020 76 10000 1.79 324 13:32 27.09.2021
6207 Clouds 15 1020 72 10000 0.89 339 11:31 27.09.2021
6208 Clouds 15 1022 67 10000 1.79 9 10:32 27.09.2021
6209 Clouds 17 1019 59 10000 1.34 337 08:48 27.09.2021
6210 Clouds 18 1021 58 10000 1.34 186 05:22 27.09.2021
6211 Clouds 17 1023 56 10000 0.89 256 03:18 27.09.2021
6212 Clouds 11 1021 83 10000 2.06 330 22:33 26.09.2021
6213 Clouds 11 1021 83 10000 3.6 330 21:53 26.09.2021
6214 Clouds 11 1020 83 10000 2.57 330 21:25 26.09.2021
6215 Clouds 11 1020 82 10000 2.57 330 20:21 26.09.2021
6216 Clouds 11 1020 80 10000 3.6 300 19:52 26.09.2021
6217 Clouds 11 1020 79 10000 2.06 320 18:46 26.09.2021
6218 Clouds 11 1021 79 10000 0.45 326 17:57 26.09.2021
6219 Clouds 10 1025 81 10000 2.57 290 17:23 26.09.2021
6220 Clouds 10 1026 83 10000 0.45 104 16:54 26.09.2021
6221 Clouds 11 1026 82 10000 2.57 290 16:20 26.09.2021
6222 Clouds 11 1027 82 10000 0.45 86 15:22 26.09.2021
6223 Clouds 11 1027 83 10000 0.45 324 13:57 26.09.2021
6224 Clouds 12 1025 80 10000 0.45 321 13:21 26.09.2021
6225 Clouds 12 1025 80 10000 0.45 208 12:25 26.09.2021
6226 Clouds 12 1025 79 10000 0.89 188 11:42 26.09.2021
6227 Clouds 12 1025 79 10000 0.89 188 11:42 26.09.2021
6228 Clouds 13 1024 77 10000 1.34 185 10:30 26.09.2021
6229 Clouds 13 1024 74 10000 2.24 183 09:21 26.09.2021
6230 Clouds 15 1024 68 10000 1.34 308 07:56 26.09.2021
6231 Clouds 12 1024 76 10000 0.89 235 00:23 26.09.2021
6232 Clouds 12 1024 75 10000 1.79 193 00:23 26.09.2021
6233 Clouds 11 1023 79 10000 1.34 173 23:33 25.09.2021
6234 Clouds 11 1022 83 10000 1.34 207 22:38 25.09.2021
6235 Clouds 11 1022 84 10000 1.79 184 21:55 25.09.2021
6236 Clouds 11 1024 83 10000 0.89 314 21:33 25.09.2021
6237 Clouds 11 1023 82 10000 0.89 240 20:51 25.09.2021
6238 Clouds 11 1023 82 10000 1.34 131 19:32 25.09.2021
6239 Clouds 11 1023 82 10000 1.34 244 18:26 25.09.2021
6240 Drizzle 12 1021 77 10000 1.79 183 16:28 25.09.2021
6241 Clouds 13 1022 76 10000 1.34 331 14:24 25.09.2021
6242 Clouds 13 1020 76 10000 1.34 184 13:46 25.09.2021
6243 Clouds 14 1019 72 10000 1.79 190 12:29 25.09.2021
6244 Clouds 14 1020 74 10000 1.79 343 10:36 25.09.2021
6245 Clouds 15 1017 71 10000 1.79 190 09:47 25.09.2021
6246 Clouds 16 1015 68 10000 2.24 187 08:38 25.09.2021
6247 Clouds 17 1014 70 10000 3.58 194 07:27 25.09.2021
6248 Clouds 19 1014 44 10000 0.89 182 00:49 25.09.2021
6249 Clear 13 1012 67 10000 0.45 96 21:57 24.09.2021
6250 Clear 13 1011 63 10000 0.45 62 21:25 24.09.2021
6251 Clear 14 1010 57 10000 1.34 170 20:19 24.09.2021
6252 Clear 16 1010 53 10000 2.06 190 18:36 24.09.2021
6253 Clear 17 1010 51 10000 1.34 341 17:56 24.09.2021
6254 Clear 17 1010 51 10000 1.34 341 17:38 24.09.2021
6255 Clear 17 1009 48 10000 1.34 341 17:19 24.09.2021
6256 Clear 17 1010 49 10000 0.45 6 15:38 24.09.2021
6257 Clear 18 1011 46 10000 1.34 359 13:20 24.09.2021
6258 Clear 19 1011 43 10000 0.45 291 12:42 24.09.2021
6259 Clear 19 1011 42 10000 0.45 291 12:24 24.09.2021
6260 Clear 22 1011 31 10000 0.45 28 10:38 24.09.2021
6261 Clear 25 1007 30 10000 0.45 304 08:59 24.09.2021
6262 Clear 26 1008 29 10000 1.79 258 07:55 24.09.2021
6263 Clear 27 1009 31 10000 2.68 265 06:57 24.09.2021
6264 Clear 26 1008 34 10000 2.68 213 05:22 24.09.2021
6265 Clear 21 1013 46 10000 4.63 320 01:24 24.09.2021
6266 Clear 12 1014 73 10000 0.89 120 22:37 23.09.2021
6267 Clear 11 1014 77 10000 0.45 313 21:58 23.09.2021
6268 Clear 11 1014 77 10000 0.89 276 20:52 23.09.2021
6269 Clear 12 1014 76 10000 0.45 270 20:27 23.09.2021
6270 Clear 12 1015 74 10000 0.45 317 18:27 23.09.2021
6271 Clear 15 1016 69 10000 0.89 270 15:37 23.09.2021
6272 Clear 14 1017 72 10000 0.89 270 15:18 23.09.2021
6273 Clear 15 1017 69 10000 0.45 271 14:24 23.09.2021
6274 Clear 16 1017 69 10000 0.45 275 13:26 23.09.2021
6275 Clear 17 1015 66 10000 0.45 185 12:54 23.09.2021
6276 Clear 18 1014 64 10000 0.89 164 12:26 23.09.2021
6277 Clear 18 1015 62 10000 0.89 148 11:56 23.09.2021
6278 Clear 19 1013 59 10000 0.89 341 10:30 23.09.2021
6279 Clear 20 1013 59 10000 0.45 75 09:54 23.09.2021
6280 Clear 21 1013 55 10000 0.89 352 08:55 23.09.2021
6281 Clear 26 1016 36 10000 0.45 264 05:32 23.09.2021
6282 Clear 13 1021 77 10000 0.45 135 23:50 22.09.2021
6283 Clear 10 1020 88 10000 4.12 310 22:50 22.09.2021
6284 Clear 9 1020 90 10000 4.63 310 22:18 22.09.2021
6285 Clear 9 1020 90 10000 4.63 310 21:42 22.09.2021
6286 Clear 9 1019 90 10000 3.6 310 20:57 22.09.2021
6287 Clear 9 1020 89 10000 3.6 300 19:47 22.09.2021
6288 Clear 9 1020 89 10000 0.45 244 19:26 22.09.2021
6289 Clear 9 1020 89 10000 0.89 134 18:25 22.09.2021
6290 Clear 9 1021 89 10000 0.45 215 17:18 22.09.2021
6291 Clear 10 1022 87 10000 0.45 207 15:38 22.09.2021
6292 Clear 11 1022 85 10000 0.45 207 14:27 22.09.2021
6293 Clear 12 1022 82 10000 0 0 12:55 22.09.2021
6294 Clear 14 1021 73 10000 0.45 130 11:18 22.09.2021
6295 Clear 17 1018 65 10000 1.34 185 09:30 22.09.2021
6296 Clear 17 1019 62 10000 1.34 185 08:44 22.09.2021
6297 Clear 19 1019 58 10000 1.34 188 07:33 22.09.2021
6298 Clear 18 1020 56 10000 1.34 292 06:31 22.09.2021
6299 Clear 19 1019 54 10000 2.24 189 05:48 22.09.2021
6300 Clear 18 1020 51 10000 2.24 185 03:59 22.09.2021
6301 Clear 18 1020 51 10000 0.89 202 02:56 22.09.2021
6302 Clouds 11 1020 70 10000 0.45 233 23:42 21.09.2021
6303 Clouds 8 1023 80 10000 5.14 250 22:26 21.09.2021
6304 Clear 8 1022 81 10000 0.89 254 20:43 21.09.2021
6305 Clouds 8 1022 81 10000 0.45 264 19:36 21.09.2021
6306 Clouds 9 1022 80 10000 0.45 263 19:18 21.09.2021
6307 Clouds 10 1023 78 10000 0.45 277 16:48 21.09.2021
6308 Clouds 11 1023 76 10000 0.45 79 15:57 21.09.2021
6309 Clouds 11 1023 72 10000 0.89 52 14:59 21.09.2021
6310 Clouds 12 1021 71 10000 0.45 264 14:40 21.09.2021
6311 Clouds 12 1022 68 10000 1.34 200 13:40 21.09.2021
6312 Clouds 13 1020 67 10000 0.89 209 12:45 21.09.2021
6313 Clouds 15 1020 63 10000 11.83 190 10:44 21.09.2021
6314 Clouds 14 1019 62 10000 12.35 190 09:53 21.09.2021
6315 Clouds 15 1018 58 10000 12.35 190 07:44 21.09.2021
6316 Clouds 15 1017 55 10000 12.86 180 05:18 21.09.2021
6317 Clouds 11 1015 43 10000 9.77 250 23:52 20.09.2021
6318 Clear 11 1013 46 10000 7.72 250 21:53 20.09.2021
6319 Clear 11 1013 50 10000 8.23 250 21:32 20.09.2021
6320 Clear 11 1013 54 10000 8.23 250 20:26 20.09.2021
6321 Clear 10 1012 65 10000 0.45 93 19:20 20.09.2021
6322 Clear 11 1012 60 10000 0.45 235 17:31 20.09.2021
6323 Clear 12 1013 56 10000 3.6 200 16:26 20.09.2021
6324 Clear 13 1013 55 10000 0.45 221 15:47 20.09.2021
6325 Clouds 13 1013 55 10000 0.45 94 14:59 20.09.2021
6326 Clouds 13 1013 55 10000 0.89 195 13:36 20.09.2021
6327 Clear 14 1013 52 10000 0.89 188 12:34 20.09.2021
6328 Clear 16 1011 50 10000 13.89 230 11:18 20.09.2021
6329 Clear 23 1009 24 10000 0.45 111 09:53 20.09.2021
6330 Clear 23 1006 28 10000 0.45 342 09:34 20.09.2021
6331 Clear 24 1006 25 10000 1.79 19 08:56 20.09.2021
6332 Clear 26 1007 20 10000 0.89 329 06:46 20.09.2021
6333 Clear 16 1012 51 10000 1.79 318 23:44 19.09.2021
6334 Clear 13 1014 57 10000 2.24 352 21:56 19.09.2021
6335 Clear 13 1015 58 10000 2.24 352 21:34 19.09.2021
6336 Clear 13 1015 58 10000 0.45 281 20:33 19.09.2021
6337 Clear 13 1015 58 10000 0.45 254 19:18 19.09.2021
6338 Clear 13 1016 59 10000 0.45 58 18:25 19.09.2021
6339 Clear 13 1017 61 10000 0.45 339 17:22 19.09.2021
6340 Clear 12 1018 63 10000 3.45 322 15:52 19.09.2021
6341 Clear 13 1018 53 10000 0.45 55 14:50 19.09.2021
6342 Clear 14 1019 52 10000 4.12 270 14:30 19.09.2021
6343 Clear 16 1017 43 10000 0.45 337 13:20 19.09.2021
6344 Clear 16 1019 40 10000 0.45 267 12:47 19.09.2021
6345 Clear 18 1016 36 10000 0.45 349 11:27 19.09.2021
6346 Clear 20 1015 33 10000 0.45 106 10:24 19.09.2021
6347 Clear 20 1015 41 10000 0.45 336 09:38 19.09.2021
6348 Clear 24 1014 32 10000 0.89 286 07:31 19.09.2021
6349 Clear 23 1016 30 10000 0.45 351 05:55 19.09.2021
6350 Clear 13 1022 60 10000 4.12 320 23:36 18.09.2021
6351 Clear 10 1022 68 10000 0.45 11 21:59 18.09.2021
6352 Clear 10 1021 67 10000 0.45 346 20:51 18.09.2021
6353 Clear 10 1021 67 10000 0.45 314 20:31 18.09.2021
6354 Clear 11 1021 66 10000 0.89 350 19:39 18.09.2021
6355 Clear 11 1021 64 10000 0.45 330 19:20 18.09.2021
6356 Clear 11 1021 64 10000 0 0 18:32 18.09.2021
6357 Clear 12 1021 58 10000 0.89 279 17:29 18.09.2021
6358 Clear 13 1021 53 10000 1.79 219 16:18 18.09.2021
6359 Clear 16 1017 55 10000 0.45 281 13:49 18.09.2021
6360 Clouds 17 1019 55 10000 0.45 106 13:29 18.09.2021
6361 Clouds 17 1016 58 10000 0.45 323 12:49 18.09.2021
6362 Clouds 17 1016 58 10000 0.45 323 12:49 18.09.2021
6363 Clouds 18 1015 59 10000 0.45 258 11:40 18.09.2021
6364 Clouds 19 1012 63 10000 0.89 351 10:32 18.09.2021
6365 Clear 20 1011 62 10000 0.45 300 09:28 18.09.2021
6366 Clear 20 1011 66 10000 0.45 332 08:57 18.09.2021
6367 Clear 23 1009 57 10000 0.89 184 05:49 18.09.2021
6368 Clouds 20 1010 59 10000 2.68 320 00:41 18.09.2021
6369 Clouds 18 1012 67 10000 1.34 344 23:49 17.09.2021
6370 Clouds 15 1012 75 10000 0.89 55 22:38 17.09.2021
6371 Clear 15 1012 74 10000 0.89 359 22:19 17.09.2021
6372 Clear 16 1012 73 10000 0.89 162 20:51 17.09.2021
6373 Drizzle 15 1013 77 10000 2.24 334 19:22 17.09.2021
6374 Clear 16 1014 72 10000 0.45 3 17:21 17.09.2021
6375 Clear 16 1015 76 10000 0.45 42 16:27 17.09.2021
6376 Clear 16 1016 80 10000 1.34 2 13:29 17.09.2021
6377 Clear 17 1016 77 10000 1.79 332 10:53 17.09.2021
6378 Clear 19 1016 67 10000 1.34 336 08:46 17.09.2021
6379 Clear 20 1016 60 10000 1.34 346 06:53 17.09.2021
6380 Clear 20 1019 55 10000 0.89 357 03:54 17.09.2021
6381 Clouds 10 1023 93 10000 0.45 294 23:25 16.09.2021
6382 Clouds 8 1022 92 10000 3.09 330 22:25 16.09.2021
6383 Clouds 8 1022 93 10000 4.12 300 21:43 16.09.2021
6384 Clouds 8 1021 93 10000 4.12 300 21:24 16.09.2021
6385 Clear 8 1021 92 10000 3.6 310 20:18 16.09.2021
6386 Clouds 10 1022 90 10000 3.09 340 18:20 16.09.2021
6387 Clouds 10 1023 91 10000 2.55 309 17:33 16.09.2021
6388 Clouds 11 1023 88 10000 0.45 127 14:58 16.09.2021
6389 Clouds 11 1023 88 10000 1.39 23 14:24 16.09.2021
6390 Clouds 12 1023 85 10000 0.45 63 12:51 16.09.2021
6391 Clouds 12 1023 86 10000 0.45 63 12:51 16.09.2021
6392 Clouds 12 1023 84 10000 0.45 63 12:29 16.09.2021
6393 Clouds 12 1022 81 10000 3.09 110 11:26 16.09.2021
6394 Clouds 14 1020 79 10000 1.34 180 10:33 16.09.2021
6395 Clouds 14 1020 75 10000 0.89 187 09:58 16.09.2021
6396 Clouds 16 1019 70 10000 1.34 190 08:42 16.09.2021
6397 Clouds 16 1020 70 10000 1.34 184 07:36 16.09.2021
6398 Clouds 16 1020 70 10000 2.24 183 06:47 16.09.2021
6399 Clouds 16 1019 69 10000 2.24 186 05:40 16.09.2021
6400 Clouds 14 1022 78 10000 0.45 285 01:41 16.09.2021
6401 Clouds 12 1021 80 10000 0.89 251 00:37 16.09.2021
6402 Clouds 9 1022 85 10000 0.45 299 22:47 15.09.2021
6403 Clouds 9 1021 84 10000 0.45 125 21:48 15.09.2021
6404 Clouds 8 1023 84 10000 0.89 260 21:29 15.09.2021
6405 Clouds 8 1023 85 10000 0.45 106 20:22 15.09.2021
6406 Clouds 8 1023 84 10000 0.45 248 19:28 15.09.2021
6407 Clouds 9 1023 84 10000 0.89 271 18:23 15.09.2021
6408 Clouds 9 1024 83 10000 0.45 260 17:23 15.09.2021
6409 Clouds 10 1024 82 10000 0.45 260 15:59 15.09.2021
6410 Clouds 11 1024 82 10000 0.89 252 14:45 15.09.2021
6411 Clouds 11 1024 82 10000 0.45 234 14:24 15.09.2021
6412 Clouds 12 1022 80 10000 2.24 188 13:39 15.09.2021
6413 Clouds 12 1022 79 10000 0.89 350 13:21 15.09.2021
6414 Clouds 13 1022 77 10000 2.24 192 12:21 15.09.2021
6415 Clouds 13 1023 75 10000 0.45 250 11:41 15.09.2021
6416 Clouds 13 1023 74 10000 2.24 179 10:56 15.09.2021
6417 Clouds 14 1021 70 10000 2.24 206 09:30 15.09.2021
6418 Clouds 16 1020 66 10000 2.68 200 08:26 15.09.2021
6419 Clouds 17 1020 62 10000 0.89 201 05:54 15.09.2021
6420 Clouds 11 1022 75 10000 0.45 251 23:55 14.09.2021
6421 Clouds 8 1024 83 10000 0.89 251 21:55 14.09.2021
6422 Clouds 9 1021 84 10000 0.45 245 20:56 14.09.2021
6423 Clouds 9 1021 83 10000 0.89 328 19:51 14.09.2021
6424 Clouds 9 1023 83 10000 0.45 140 17:53 14.09.2021
6425 Clouds 9 1024 83 10000 1.34 245 17:28 14.09.2021
6426 Clouds 10 1024 81 10000 0.89 246 15:58 14.09.2021
6427 Clouds 11 1024 80 10000 0.45 257 14:32 14.09.2021
6428 Clouds 11 1024 79 10000 0.89 165 13:20 14.09.2021
6429 Clouds 12 1021 77 10000 0.45 194 10:57 14.09.2021
6430 Clouds 13 1021 75 10000 0.45 287 09:51 14.09.2021
6431 Clouds 13 1020 76 10000 0.45 183 09:18 14.09.2021
6432 Clouds 13 1020 86 10000 0.89 225 07:25 14.09.2021
6433 Clouds 12 1020 85 10000 0.89 210 00:53 14.09.2021
6434 Clouds 9 1021 92 10000 1.34 247 22:58 13.09.2021
6435 Clouds 9 1021 93 10000 0.45 223 22:26 13.09.2021
6436 Clouds 9 1020 93 10000 0.89 236 21:53 13.09.2021
6437 Clouds 10 1020 93 6000 0.89 149 20:58 13.09.2021
6438 Clouds 9 1019 93 10000 0.45 130 19:29 13.09.2021
6439 Clouds 10 1019 92 10000 0.89 235 18:43 13.09.2021
6440 Clouds 10 1020 90 3000 0.89 114 16:58 13.09.2021
6441 Clouds 10 1020 88 3000 0.89 114 15:50 13.09.2021
6442 Clouds 11 1019 82 10000 0.45 189 13:36 13.09.2021
6443 Clouds 12 1018 75 10000 0.89 240 11:20 13.09.2021
6444 Clouds 12 1017 73 10000 1.34 353 09:42 13.09.2021
6445 Clouds 15 1013 65 10000 0.89 205 07:30 13.09.2021
6446 Clear 13 1013 58 10000 0.45 147 23:50 12.09.2021
6447 Clear 12 1012 59 10000 0.45 253 22:26 12.09.2021
6448 Clear 13 1011 56 10000 0.45 203 21:43 12.09.2021
6449 Clear 13 1011 53 10000 0.45 137 20:40 12.09.2021
6450 Clear 13 1010 52 10000 0.89 255 19:54 12.09.2021
6451 Clear 13 1010 51 10000 0.45 14 19:54 12.09.2021
6452 Clear 13 1010 50 10000 0.89 251 19:28 12.09.2021
6453 Clear 14 1010 46 10000 1.79 217 18:31 12.09.2021
6454 Clear 16 1009 45 10000 3.13 225 16:42 12.09.2021
6455 Clear 17 1009 56 10000 0.89 54 14:59 12.09.2021
6456 Clear 19 1007 57 10000 1.79 239 13:51 12.09.2021
6457 Clear 21 1005 26 10000 4.63 240 11:47 12.09.2021
6458 Clear 25 1005 19 10000 0.89 261 10:18 12.09.2021
6459 Clear 28 1001 14 10000 1.79 300 08:38 12.09.2021
6460 Clear 27 1003 27 10000 1.34 310 02:56 12.09.2021
6461 Clear 20 1006 39 10000 0.89 250 23:52 11.09.2021
6462 Clear 17 1007 45 10000 2.68 353 22:25 11.09.2021
6463 Clear 17 1006 43 10000 1.34 355 21:37 11.09.2021
6464 Clear 17 1007 42 10000 0.45 261 19:33 11.09.2021
6465 Clear 17 1009 40 10000 5.66 330 17:53 11.09.2021
6466 Clear 19 1009 38 10000 1.79 349 16:21 11.09.2021
6467 Clear 18 1010 41 10000 2.24 349 14:22 11.09.2021
6468 Clear 18 1011 40 10000 0.45 348 13:19 11.09.2021
6469 Clear 20 1012 33 10000 0.45 320 11:34 11.09.2021
6470 Clear 27 1011 19 10000 1.34 260 09:41 11.09.2021
6471 Clear 27 1011 19 10000 1.34 260 09:41 11.09.2021
6472 Clear 29 1010 21 10000 0.45 337 07:53 11.09.2021
6473 Clear 29 1010 22 10000 0.45 171 07:34 11.09.2021
6474 Clear 19 1015 66 10000 0.89 317 01:20 11.09.2021
6475 Fog 11 1018 95 1200 3.6 340 22:26 10.09.2021
6476 Fog 11 1018 95 900 4.12 320 21:55 10.09.2021
6477 Clouds 12 1018 94 8000 3.6 330 20:41 10.09.2021
6478 Clouds 12 1019 92 8000 2.06 320 18:34 10.09.2021
6479 Clouds 13 1020 91 9000 2.57 330 17:27 10.09.2021
6480 Clouds 13 1021 88 10000 4.12 340 15:36 10.09.2021
6481 Clouds 15 1022 83 10000 0.45 338 13:18 10.09.2021
6482 Clouds 17 1019 78 10000 1.34 166 10:21 10.09.2021
6483 Clouds 19 1018 72 10000 2.68 191 07:51 10.09.2021
6484 Clear 22 1019 61 10000 1.79 190 04:21 10.09.2021
6485 Clouds 17 1018 42 10000 3.63 275 22:33 09.09.2021
6486 Clear 18 1018 37 10000 1.79 261 21:47 09.09.2021
6487 Clear 18 1020 38 10000 1.34 278 20:47 09.09.2021
6488 Clear 18 1018 32 10000 10.29 290 20:22 09.09.2021
6489 Clear 15 1020 52 10000 1.34 260 18:37 09.09.2021
6490 Clear 14 1022 54 10000 3.6 180 16:45 09.09.2021
6491 Clear 15 1021 50 10000 0.45 248 16:26 09.09.2021
6492 Clear 20 1019 27 10000 5.66 350 13:33 09.09.2021
6493 Clear 20 1019 27 10000 1.34 253 11:50 09.09.2021
6494 Clear 22 1019 23 10000 1.34 278 10:48 09.09.2021
6495 Clear 25 1018 28 10000 0.89 309 08:58 09.09.2021
6496 Clear 28 1021 21 10000 1.79 260 06:50 09.09.2021
6497 Clear 22 1023 34 10000 0.45 328 03:44 09.09.2021
6498 Clear 9 1026 84 10000 0.45 130 22:57 08.09.2021
6499 Clear 9 1026 86 10000 0.45 281 21:39 08.09.2021
6500 Clear 9 1026 89 10000 4.12 320 20:19 08.09.2021
6501 Clear 10 1026 91 10000 0.45 284 19:37 08.09.2021
6502 Clear 10 1026 92 10000 4.63 310 18:33 08.09.2021
6503 Clear 11 1027 91 10000 3.6 310 17:58 08.09.2021
6504 Clear 11 1027 88 10000 0.45 340 16:55 08.09.2021
6505 Clear 13 1027 84 10000 0.89 346 14:50 08.09.2021
6506 Clear 14 1027 83 10000 0.89 22 13:21 08.09.2021
6507 Clear 15 1027 82 10000 0.45 39 12:41 08.09.2021
6508 Clear 15 1025 82 10000 4.1 38 12:19 08.09.2021
6509 Clear 16 1024 75 10000 0.45 298 10:59 08.09.2021
6510 Clear 17 1024 73 10000 0.89 30 10:27 08.09.2021
6511 Clear 18 1024 69 10000 0.89 350 09:25 08.09.2021
6512 Clear 21 1024 58 10000 1.34 327 07:41 08.09.2021
6513 Clear 21 1026 53 10000 0.89 185 05:46 08.09.2021
6514 Clouds 9 1030 85 10000 2.57 310 22:51 07.09.2021
6515 Clouds 8 1030 86 10000 3.09 290 22:19 07.09.2021
6516 Clear 9 1029 83 10000 3.09 320 20:37 07.09.2021
6517 Clear 10 1029 80 10000 0.45 326 18:49 07.09.2021
6518 Clear 10 1029 79 10000 3.6 230 18:24 07.09.2021
6519 Clouds 11 1029 79 10000 0.45 249 16:59 07.09.2021
6520 Clouds 12 1030 79 10000 4.12 240 15:55 07.09.2021
6521 Clouds 13 1029 77 10000 4.12 230 14:46 07.09.2021
6522 Clouds 14 1029 71 10000 0.89 302 13:29 07.09.2021
6523 Clouds 16 1027 64 10000 1.79 254 11:51 07.09.2021
6524 Clear 17 1023 61 10000 1.34 182 10:43 07.09.2021
6525 Clear 21 1023 23 10000 6.69 240 08:47 07.09.2021
6526 Clear 22 1018 30 10000 0.45 2 07:45 07.09.2021
6527 Clear 23 1022 20 10000 1.79 225 05:47 07.09.2021
6528 Clear 18 1022 35 10000 0.89 220 02:38 07.09.2021
6529 Clear 14 1025 56 10000 0.89 268 00:54 07.09.2021
6530 Clear 9 1024 79 10000 0.45 182 23:43 06.09.2021
6531 Clear 7 1026 86 10000 3.6 300 23:21 06.09.2021
6532 Clear 6 1026 87 10000 4.12 290 22:46 06.09.2021
6533 Clear 6 1026 87 10000 4.12 280 21:52 06.09.2021
6534 Clear 7 1026 84 10000 0.45 271 19:36 06.09.2021
6535 Clear 8 1026 83 10000 0.89 271 19:18 06.09.2021
6536 Clear 8 1027 82 10000 4.12 300 18:33 06.09.2021
6537 Clear 8 1027 81 10000 4.12 310 17:37 06.09.2021
6538 Clear 9 1028 78 10000 3.6 240 15:59 06.09.2021
6539 Clouds 10 1028 76 10000 0.45 243 14:37 06.09.2021
6540 Clear 13 1028 68 10000 0.45 217 12:48 06.09.2021
6541 Clear 14 1024 66 10000 1.79 196 11:43 06.09.2021
6542 Clouds 15 1023 58 10000 2.24 187 09:59 06.09.2021
6543 Clouds 17 1021 47 10000 2.24 192 07:35 06.09.2021
6544 Clear 18 1021 44 10000 0.45 274 02:54 06.09.2021
6545 Clouds 9 1022 71 10000 0.89 257 23:20 05.09.2021
6546 Clouds 8 1021 72 10000 5.66 260 22:32 05.09.2021
6547 Clear 8 1019 71 10000 0.89 263 21:55 05.09.2021
6548 Clear 8 1020 71 10000 1.34 214 21:19 05.09.2021
6549 Clear 8 1019 78 10000 4.63 260 19:23 05.09.2021
6550 Clear 8 1019 74 10000 4.63 250 17:51 05.09.2021
6551 Clear 10 1019 77 10000 0.45 266 15:42 05.09.2021
6552 Clear 10 1019 76 10000 0.45 116 14:56 05.09.2021
6553 Clear 10 1019 86 10000 0.45 313 12:44 05.09.2021
6554 Clouds 12 1018 81 10000 0.45 355 11:31 05.09.2021
6555 Clouds 12 1018 75 10000 0.45 260 10:36 05.09.2021
6556 Clouds 15 1016 53 10000 0.89 128 09:32 05.09.2021
6557 Clear 16 1014 47 10000 0.89 193 08:28 05.09.2021
6558 Clouds 18 1012 46 10000 2.24 323 03:22 05.09.2021
6559 Clouds 14 1011 77 10000 1.34 174 00:37 05.09.2021
6560 Clouds 13 1012 84 10000 0.89 345 23:54 04.09.2021
6561 Clouds 13 1012 86 10000 0.45 251 23:22 04.09.2021
6562 Clouds 14 1012 90 10000 0.89 205 22:34 04.09.2021
6563 Clouds 14 1012 90 10000 0.89 205 22:34 04.09.2021
6564 Clouds 15 1010 95 10000 0.45 39 20:21 04.09.2021
6565 Clouds 15 1011 95 10000 1.79 2 19:33 04.09.2021
6566 Clouds 15 1012 94 10000 0.89 22 17:21 04.09.2021
6567 Drizzle 15 1015 95 10000 2.24 2 14:37 04.09.2021
6568 Clouds 16 1015 92 10000 1.34 7 11:26 04.09.2021
6569 Clouds 16 1015 91 10000 0.45 14 10:32 04.09.2021
6570 Clouds 18 1013 79 10000 1.34 325 07:32 04.09.2021
6571 Clear 18 1017 68 10000 2.68 328 00:49 04.09.2021
6572 Clear 17 1017 71 10000 3.13 321 23:49 03.09.2021
6573 Clear 16 1017 72 10000 3.58 331 23:20 03.09.2021
6574 Clear 15 1016 76 10000 2.68 344 21:43 03.09.2021
6575 Clear 15 1016 78 10000 1.34 327 20:54 03.09.2021
6576 Clear 15 1016 78 10000 1.79 323 20:28 03.09.2021
6577 Clear 15 1016 80 10000 1.34 340 19:35 03.09.2021
6578 Clear 15 1016 84 10000 0.45 147 18:27 03.09.2021
6579 Clear 16 1017 83 10000 0.45 342 16:50 03.09.2021
6580 Clear 16 1017 82 10000 2.24 335 15:39 03.09.2021
6581 Clear 17 1018 81 10000 2.24 323 14:28 03.09.2021
6582 Clear 17 1018 81 10000 2.24 323 14:28 03.09.2021
6583 Clear 18 1018 80 10000 4.02 333 11:21 03.09.2021
6584 Clear 19 1018 78 10000 3.13 323 09:55 03.09.2021
6585 Clear 21 1018 71 10000 1.79 309 08:18 03.09.2021
6586 Clear 23 1018 64 10000 1.34 308 06:50 03.09.2021
6587 Clear 15 1026 77 10000 0.89 252 23:56 02.09.2021
6588 Clear 13 1025 84 10000 0.45 152 22:21 02.09.2021
6589 Clear 13 1025 84 10000 1.34 350 20:51 02.09.2021
6590 Clear 14 1023 81 10000 3.13 324 18:49 02.09.2021
6591 Clear 16 1024 81 10000 2.24 323 16:39 02.09.2021
6592 Clear 16 1025 82 10000 1.34 329 15:31 02.09.2021
6593 Clear 17 1025 83 10000 1.34 20 13:33 02.09.2021
6594 Clear 18 1024 82 10000 2.68 323 11:44 02.09.2021
6595 Clear 18 1024 82 10000 2.68 325 11:18 02.09.2021
6596 Clouds 19 1024 77 10000 2.24 317 08:57 02.09.2021
6597 Clouds 20 1024 74 10000 1.79 328 07:36 02.09.2021
6598 Clouds 21 1025 74 10000 1.34 314 05:53 02.09.2021
6599 Clouds 20 1027 79 10000 1.34 351 02:37 02.09.2021
6600 Clouds 19 1028 81 10000 1.34 354 01:49 02.09.2021
6601 Clouds 15 1028 89 10000 0.89 332 23:41 01.09.2021
6602 Clouds 14 1030 90 10000 1.54 330 23:23 01.09.2021
6603 Clouds 13 1029 90 10000 2.06 320 22:30 01.09.2021
6604 Clouds 13 1029 91 10000 2.57 320 21:32 01.09.2021
6605 Rain 13 1028 91 10000 0.89 78 19:37 01.09.2021
6606 Clouds 13 1029 90 10000 2.06 360 17:55 01.09.2021
6607 Clouds 13 1029 91 10000 2.06 280 16:59 01.09.2021
6608 Clouds 13 1029 91 10000 0 0 16:36 01.09.2021
6609 Clouds 13 1029 89 10000 2.06 250 14:59 01.09.2021
6610 Clear 16 1028 80 10000 2.57 50 11:47 01.09.2021
6611 Clear 17 1026 70 10000 0.45 55 10:39 01.09.2021
6612 Clear 20 1024 52 10000 0.89 355 08:42 01.09.2021
6613 Clear 23 1024 47 10000 1.34 168 06:59 01.09.2021
6614 Rain 10 1026 73 10000 0.89 123 23:33 31.08.2021
6615 Clear 10 1025 73 10000 2.06 330 22:23 31.08.2021
6616 Clear 10 1025 75 10000 0.45 114 20:19 31.08.2021
6617 Clear 10 1024 75 10000 2.06 300 19:43 31.08.2021
6618 Clear 11 1024 71 10000 4.12 310 17:52 31.08.2021
6619 Clear 11 1024 77 10000 3.6 320 17:26 31.08.2021
6620 Clear 11 1024 76 10000 0.89 261 16:41 31.08.2021
6621 Clear 12 1024 72 10000 0.89 289 15:39 31.08.2021
6622 Clear 14 1023 67 10000 0.45 344 12:43 31.08.2021
6623 Clear 16 1020 66 10000 0.45 36 11:20 31.08.2021
6624 Clear 16 1019 64 10000 0.45 339 10:43 31.08.2021
6625 Clear 18 1018 57 10000 1.34 94 09:42 31.08.2021
6626 Clear 21 1017 51 10000 0.89 204 07:57 31.08.2021
6627 Clear 22 1020 37 10000 0.89 275 05:57 31.08.2021
6628 Clear 8 1022 87 10000 3.09 300 23:37 30.08.2021
6629 Clear 8 1022 88 10000 3.09 330 22:54 30.08.2021
6630 Clear 8 1021 88 10000 0.45 286 21:41 30.08.2021
6631 Clear 8 1021 85 10000 0.89 289 20:42 30.08.2021
6632 Clear 9 1020 85 10000 0.45 99 19:54 30.08.2021
6633 Clear 9 1020 85 10000 0.45 103 19:28 30.08.2021
6634 Clear 10 1020 82 10000 4.12 300 18:18 30.08.2021
6635 Clear 10 1020 80 10000 2.57 300 16:32 30.08.2021
6636 Clear 11 1020 78 10000 3.09 300 15:50 30.08.2021
6637 Clouds 12 1020 76 10000 2.33 281 14:37 30.08.2021
6638 Clouds 12 1019 73 10000 0.45 322 13:22 30.08.2021
6639 Clear 13 1019 67 10000 0.45 326 11:48 30.08.2021
6640 Clear